<?xml version="1.0" encoding="UTF-8" standalone="no" ?>
<gpx xmlns="http://www.topografix.com/GPX/1/1" xmlns:xsi="http://www.w3.org/2001/XMLSchema-instance" xsi:schemaLocation="http://www.topografix.com/GPX/1/1 http://www.topografix.com/GPX/1/1/gpx.xsd" version="1.1" creator="VisuGPX - https://www.visugpx.com">
  <metadata>
    <name>Au Sud de la Drôme</name>
    <desc><![CDATA[Jolie balade en vélo de route au sud de la Drôme ! A faire !]]></desc>
  </metadata>
  <trk>
    <name><![CDATA[Au Sud de la Drôme]]></name>
    <extensions>
      <line xmlns="http://www.topografix.com/GPX/gpx_style/0/2">
        <color>0000FF</color>
        <width>4</width>
      </line>
    </extensions>
    <trkseg>
      <trkpt lat="44.61519" lon="5.45176">
        <ele>563.30037</ele>
        <time>2023-08-12T16:05:19.061Z</time>
      </trkpt>
      <trkpt lat="44.61534" lon="5.45175">
        <ele>563.30037</ele>
        <time>2023-08-12T16:05:21.009Z</time>
      </trkpt>
      <trkpt lat="44.61553" lon="5.45171">
        <ele>563.30037</ele>
        <time>2023-08-12T16:05:23.440Z</time>
      </trkpt>
      <trkpt lat="44.61563" lon="5.45178">
        <ele>563.30037</ele>
        <time>2023-08-12T16:05:24.824Z</time>
      </trkpt>
      <trkpt lat="44.61573" lon="5.45164">
        <ele>563.30037</ele>
        <time>2023-08-12T16:05:26.081Z</time>
      </trkpt>
      <trkpt lat="44.61585" lon="5.4515">
        <ele>563.30037</ele>
        <time>2023-08-12T16:05:27.415Z</time>
      </trkpt>
      <trkpt lat="44.61597" lon="5.45137">
        <ele>563.30037</ele>
        <time>2023-08-12T16:05:28.707Z</time>
      </trkpt>
      <trkpt lat="44.61609" lon="5.45117">
        <ele>562.656622</ele>
        <time>2023-08-12T16:05:30.223Z</time>
      </trkpt>
      <trkpt lat="44.61617" lon="5.45101">
        <ele>562.13916</ele>
        <time>2023-08-12T16:05:31.441Z</time>
      </trkpt>
      <trkpt lat="44.6162" lon="5.45094">
        <ele>561.943055</ele>
        <time>2023-08-12T16:05:31.894Z</time>
      </trkpt>
      <trkpt lat="44.61623" lon="5.45087">
        <ele>561.740784</ele>
        <time>2023-08-12T16:05:32.354Z</time>
      </trkpt>
      <trkpt lat="44.61681" lon="5.44952">
        <ele>557.728528</ele>
        <time>2023-08-12T16:05:41.183Z</time>
      </trkpt>
      <trkpt lat="44.61688" lon="5.44935">
        <ele>557.235219</ele>
        <time>2023-08-12T16:05:42.253Z</time>
      </trkpt>
      <trkpt lat="44.61703" lon="5.44898">
        <ele>556.030367</ele>
        <time>2023-08-12T16:05:44.609Z</time>
      </trkpt>
      <trkpt lat="44.61706" lon="5.44891">
        <ele>555.786019</ele>
        <time>2023-08-12T16:05:45.070Z</time>
      </trkpt>
      <trkpt lat="44.61767" lon="5.44742">
        <ele>550.69921</ele>
        <time>2023-08-12T16:05:54.545Z</time>
      </trkpt>
      <trkpt lat="44.61797" lon="5.44671">
        <ele>548.647458</ele>
        <time>2023-08-12T16:05:59.091Z</time>
      </trkpt>
      <trkpt lat="44.61813" lon="5.44633">
        <ele>547.76337</ele>
        <time>2023-08-12T16:06:01.596Z</time>
      </trkpt>
      <trkpt lat="44.61834" lon="5.44583">
        <ele>546.611523</ele>
        <time>2023-08-12T16:06:04.944Z</time>
      </trkpt>
      <trkpt lat="44.61858" lon="5.44528">
        <ele>545.31584</ele>
        <time>2023-08-12T16:06:08.896Z</time>
      </trkpt>
      <trkpt lat="44.61868" lon="5.44496">
        <ele>544.620334</ele>
        <time>2023-08-12T16:06:11.117Z</time>
      </trkpt>
      <trkpt lat="44.61876" lon="5.44464">
        <ele>544.25738</ele>
        <time>2023-08-12T16:06:13.379Z</time>
      </trkpt>
      <trkpt lat="44.6188" lon="5.44426">
        <ele>544.059131</ele>
        <time>2023-08-12T16:06:16.033Z</time>
      </trkpt>
      <trkpt lat="44.61882" lon="5.4441">
        <ele>543.973593</ele>
        <time>2023-08-12T16:06:17.197Z</time>
      </trkpt>
      <trkpt lat="44.61892" lon="5.44374">
        <ele>543.773963</ele>
        <time>2023-08-12T16:06:19.986Z</time>
      </trkpt>
      <trkpt lat="44.61909" lon="5.44348">
        <ele>543.590912</ele>
        <time>2023-08-12T16:06:22.621Z</time>
      </trkpt>
      <trkpt lat="44.61935" lon="5.44318">
        <ele>543.3486</ele>
        <time>2023-08-12T16:06:26.256Z</time>
      </trkpt>
      <trkpt lat="44.61972" lon="5.44275">
        <ele>543.034529</ele>
        <time>2023-08-12T16:06:31.766Z</time>
      </trkpt>
      <trkpt lat="44.62022" lon="5.44224">
        <ele>542.839597</ele>
        <time>2023-08-12T16:06:38.908Z</time>
      </trkpt>
      <trkpt lat="44.6213" lon="5.44108">
        <ele>542.330599</ele>
        <time>2023-08-12T16:06:53.519Z</time>
      </trkpt>
      <trkpt lat="44.62147" lon="5.44089">
        <ele>542.193557</ele>
        <time>2023-08-12T16:06:55.841Z</time>
      </trkpt>
      <trkpt lat="44.62149" lon="5.44086">
        <ele>542.176139</ele>
        <time>2023-08-12T16:06:56.129Z</time>
      </trkpt>
      <trkpt lat="44.62153" lon="5.44083">
        <ele>542.147995</ele>
        <time>2023-08-12T16:06:56.599Z</time>
      </trkpt>
      <trkpt lat="44.62264" lon="5.43964">
        <ele>541.234691</ele>
        <time>2023-08-12T16:07:10.905Z</time>
      </trkpt>
      <trkpt lat="44.62272" lon="5.43955">
        <ele>541.146435</ele>
        <time>2023-08-12T16:07:11.932Z</time>
      </trkpt>
      <trkpt lat="44.6228" lon="5.43946">
        <ele>541.05388</ele>
        <time>2023-08-12T16:07:13.016Z</time>
      </trkpt>
      <trkpt lat="44.62325" lon="5.43897">
        <ele>540.557594</ele>
        <time>2023-08-12T16:07:18.759Z</time>
      </trkpt>
      <trkpt lat="44.62426" lon="5.43787">
        <ele>539.292397</ele>
        <time>2023-08-12T16:07:31.302Z</time>
      </trkpt>
      <trkpt lat="44.62438" lon="5.43775">
        <ele>539.119814</ele>
        <time>2023-08-12T16:07:32.643Z</time>
      </trkpt>
      <trkpt lat="44.62546" lon="5.4366">
        <ele>537.432609</ele>
        <time>2023-08-12T16:07:45.433Z</time>
      </trkpt>
      <trkpt lat="44.62862" lon="5.43322">
        <ele>531.838343</ele>
        <time>2023-08-12T16:08:21.980Z</time>
      </trkpt>
      <trkpt lat="44.62892" lon="5.4329">
        <ele>531.520585</ele>
        <time>2023-08-12T16:08:25.617Z</time>
      </trkpt>
      <trkpt lat="44.63008" lon="5.43167">
        <ele>530.452413</ele>
        <time>2023-08-12T16:08:41.256Z</time>
      </trkpt>
      <trkpt lat="44.63032" lon="5.43146">
        <ele>530.308059</ele>
        <time>2023-08-12T16:08:44.351Z</time>
      </trkpt>
      <trkpt lat="44.63045" lon="5.43133">
        <ele>530.225581</ele>
        <time>2023-08-12T16:08:46.093Z</time>
      </trkpt>
      <trkpt lat="44.63056" lon="5.43117">
        <ele>530.147209</ele>
        <time>2023-08-12T16:08:47.745Z</time>
      </trkpt>
      <trkpt lat="44.63064" lon="5.43108">
        <ele>530.096912</ele>
        <time>2023-08-12T16:08:48.792Z</time>
      </trkpt>
      <trkpt lat="44.63073" lon="5.43097">
        <ele>530.033281</ele>
        <time>2023-08-12T16:08:50.137Z</time>
      </trkpt>
      <trkpt lat="44.63098" lon="5.43071">
        <ele>529.875247</ele>
        <time>2023-08-12T16:08:53.435Z</time>
      </trkpt>
      <trkpt lat="44.63125" lon="5.43045">
        <ele>529.587915</ele>
        <time>2023-08-12T16:08:56.769Z</time>
      </trkpt>
      <trkpt lat="44.63132" lon="5.43038">
        <ele>529.481107</ele>
        <time>2023-08-12T16:08:57.674Z</time>
      </trkpt>
      <trkpt lat="44.6317" lon="5.42994">
        <ele>528.903819</ele>
        <time>2023-08-12T16:09:02.421Z</time>
      </trkpt>
      <trkpt lat="44.63183" lon="5.42981">
        <ele>528.715043</ele>
        <time>2023-08-12T16:09:03.925Z</time>
      </trkpt>
      <trkpt lat="44.6321" lon="5.42953">
        <ele>528.317112</ele>
        <time>2023-08-12T16:09:07.061Z</time>
      </trkpt>
      <trkpt lat="44.63295" lon="5.42879">
        <ele>526.895398</ele>
        <time>2023-08-12T16:09:16.317Z</time>
      </trkpt>
      <trkpt lat="44.63355" lon="5.42833">
        <ele>525.752262</ele>
        <time>2023-08-12T16:09:22.437Z</time>
      </trkpt>
      <trkpt lat="44.63521" lon="5.42711">
        <ele>522.31549</ele>
        <time>2023-08-12T16:09:39.195Z</time>
      </trkpt>
      <trkpt lat="44.63607" lon="5.42658">
        <ele>520.457882</ele>
        <time>2023-08-12T16:09:47.396Z</time>
      </trkpt>
      <trkpt lat="44.63715" lon="5.42587">
        <ele>518.018474</ele>
        <time>2023-08-12T16:09:57.744Z</time>
      </trkpt>
      <trkpt lat="44.63724" lon="5.42581">
        <ele>517.805833</ele>
        <time>2023-08-12T16:09:58.659Z</time>
      </trkpt>
      <trkpt lat="44.63729" lon="5.42578">
        <ele>517.700502</ele>
        <time>2023-08-12T16:09:59.109Z</time>
      </trkpt>
      <trkpt lat="44.63835" lon="5.42501">
        <ele>515.914432</ele>
        <time>2023-08-12T16:10:09.847Z</time>
      </trkpt>
      <trkpt lat="44.63907" lon="5.4244">
        <ele>514.759786</ele>
        <time>2023-08-12T16:10:18.000Z</time>
      </trkpt>
      <trkpt lat="44.64116" lon="5.4221">
        <ele>512.713109</ele>
        <time>2023-08-12T16:10:44.502Z</time>
      </trkpt>
      <trkpt lat="44.6415" lon="5.42181">
        <ele>512.492307</ele>
        <time>2023-08-12T16:10:48.719Z</time>
      </trkpt>
      <trkpt lat="44.64411" lon="5.41999">
        <ele>512.792605</ele>
        <time>2023-08-12T16:11:23.945Z</time>
      </trkpt>
      <trkpt lat="44.64424" lon="5.4199">
        <ele>512.880846</ele>
        <time>2023-08-12T16:11:26.062Z</time>
      </trkpt>
      <trkpt lat="44.64429" lon="5.41986">
        <ele>512.917426</ele>
        <time>2023-08-12T16:11:26.938Z</time>
      </trkpt>
      <trkpt lat="44.64495" lon="5.41941">
        <ele>513.367809</ele>
        <time>2023-08-12T16:11:38.274Z</time>
      </trkpt>
      <trkpt lat="44.64661" lon="5.41815">
        <ele>514.752566</ele>
        <time>2023-08-12T16:12:05.109Z</time>
      </trkpt>
      <trkpt lat="44.64743" lon="5.41768">
        <ele>515.173015</ele>
        <time>2023-08-12T16:12:17.126Z</time>
      </trkpt>
      <trkpt lat="44.64841" lon="5.41698">
        <ele>515.745385</ele>
        <time>2023-08-12T16:12:30.769Z</time>
      </trkpt>
      <trkpt lat="44.64954" lon="5.41642">
        <ele>517.015963</ele>
        <time>2023-08-12T16:12:48.972Z</time>
      </trkpt>
      <trkpt lat="44.64986" lon="5.4162">
        <ele>517.389613</ele>
        <time>2023-08-12T16:12:54.256Z</time>
      </trkpt>
      <trkpt lat="44.65005" lon="5.41599">
        <ele>517.833523</ele>
        <time>2023-08-12T16:12:58.247Z</time>
      </trkpt>
      <trkpt lat="44.65105" lon="5.41466">
        <ele>521.424681</ele>
        <time>2023-08-12T16:13:26.451Z</time>
      </trkpt>
      <trkpt lat="44.65089" lon="5.41414">
        <ele>522.702293</ele>
        <time>2023-08-12T16:13:35.336Z</time>
      </trkpt>
      <trkpt lat="44.65066" lon="5.41367">
        <ele>524.720545</ele>
        <time>2023-08-12T16:13:44.522Z</time>
      </trkpt>
      <trkpt lat="44.65011" lon="5.41306">
        <ele>528.212323</ele>
        <time>2023-08-12T16:14:02.963Z</time>
      </trkpt>
      <trkpt lat="44.65003" lon="5.41293">
        <ele>528.82237</ele>
        <time>2023-08-12T16:14:06.714Z</time>
      </trkpt>
      <trkpt lat="44.64998" lon="5.41286">
        <ele>529.178283</ele>
        <time>2023-08-12T16:14:09.055Z</time>
      </trkpt>
      <trkpt lat="44.64992" lon="5.41267">
        <ele>529.917479</ele>
        <time>2023-08-12T16:14:13.944Z</time>
      </trkpt>
      <trkpt lat="44.64992" lon="5.41223">
        <ele>531.64393</ele>
        <time>2023-08-12T16:14:24.796Z</time>
      </trkpt>
      <trkpt lat="44.6498" lon="5.41172">
        <ele>534.686695</ele>
        <time>2023-08-12T16:14:38.921Z</time>
      </trkpt>
      <trkpt lat="44.64965" lon="5.41124">
        <ele>537.67958</ele>
        <time>2023-08-12T16:14:52.900Z</time>
      </trkpt>
      <trkpt lat="44.64936" lon="5.41082">
        <ele>540.957561</ele>
        <time>2023-08-12T16:15:08.051Z</time>
      </trkpt>
      <trkpt lat="44.64902" lon="5.41037">
        <ele>544.73559</ele>
        <time>2023-08-12T16:15:26.274Z</time>
      </trkpt>
      <trkpt lat="44.64881" lon="5.41004">
        <ele>547.369471</ele>
        <time>2023-08-12T16:15:38.791Z</time>
      </trkpt>
      <trkpt lat="44.64876" lon="5.40972">
        <ele>549.382906</ele>
        <time>2023-08-12T16:15:48.588Z</time>
      </trkpt>
      <trkpt lat="44.64879" lon="5.40934">
        <ele>551.746102</ele>
        <time>2023-08-12T16:16:00.773Z</time>
      </trkpt>
      <trkpt lat="44.64877" lon="5.40893">
        <ele>554.228457</ele>
        <time>2023-08-12T16:16:13.162Z</time>
      </trkpt>
      <trkpt lat="44.6487" lon="5.40862">
        <ele>556.231499</ele>
        <time>2023-08-12T16:16:22.196Z</time>
      </trkpt>
      <trkpt lat="44.64848" lon="5.40805">
        <ele>560.212489</ele>
        <time>2023-08-12T16:16:38.244Z</time>
      </trkpt>
      <trkpt lat="44.64826" lon="5.4077">
        <ele>563.18185</ele>
        <time>2023-08-12T16:16:49.654Z</time>
      </trkpt>
      <trkpt lat="44.6482" lon="5.40751">
        <ele>564.502085</ele>
        <time>2023-08-12T16:16:55.127Z</time>
      </trkpt>
      <trkpt lat="44.64818" lon="5.40713">
        <ele>566.951057</ele>
        <time>2023-08-12T16:17:06.009Z</time>
      </trkpt>
      <trkpt lat="44.64814" lon="5.40708">
        <ele>567.411645</ele>
        <time>2023-08-12T16:17:08.291Z</time>
      </trkpt>
      <trkpt lat="44.64809" lon="5.40712">
        <ele>567.895879</ele>
        <time>2023-08-12T16:17:10.762Z</time>
      </trkpt>
      <trkpt lat="44.64799" lon="5.40822">
        <ele>575.010098</ele>
        <time>2023-08-12T16:17:47.752Z</time>
      </trkpt>
      <trkpt lat="44.64792" lon="5.40851">
        <ele>577.020369</ele>
        <time>2023-08-12T16:17:56.930Z</time>
      </trkpt>
      <trkpt lat="44.64777" lon="5.40873">
        <ele>578.349365</ele>
        <time>2023-08-12T16:18:04.682Z</time>
      </trkpt>
      <trkpt lat="44.64725" lon="5.40905">
        <ele>581.580286</ele>
        <time>2023-08-12T16:18:21.567Z</time>
      </trkpt>
      <trkpt lat="44.6471" lon="5.40927">
        <ele>582.791929</ele>
        <time>2023-08-12T16:18:27.253Z</time>
      </trkpt>
      <trkpt lat="44.64703" lon="5.40928">
        <ele>583.176959</ele>
        <time>2023-08-12T16:18:29.041Z</time>
      </trkpt>
      <trkpt lat="44.647" lon="5.40925">
        <ele>583.414498</ele>
        <time>2023-08-12T16:18:30.135Z</time>
      </trkpt>
      <trkpt lat="44.647" lon="5.40914">
        <ele>583.839795</ele>
        <time>2023-08-12T16:18:32.163Z</time>
      </trkpt>
      <trkpt lat="44.64703" lon="5.40905">
        <ele>584.242682</ele>
        <time>2023-08-12T16:18:34.069Z</time>
      </trkpt>
      <trkpt lat="44.64742" lon="5.40865">
        <ele>586.998053</ele>
        <time>2023-08-12T16:18:47.633Z</time>
      </trkpt>
      <trkpt lat="44.64748" lon="5.40854">
        <ele>587.553054</ele>
        <time>2023-08-12T16:18:50.294Z</time>
      </trkpt>
      <trkpt lat="44.64752" lon="5.40827">
        <ele>588.358197</ele>
        <time>2023-08-12T16:18:55.346Z</time>
      </trkpt>
      <trkpt lat="44.64753" lon="5.40752">
        <ele>590.595657</ele>
        <time>2023-08-12T16:19:08.096Z</time>
      </trkpt>
      <trkpt lat="44.6475" lon="5.40722">
        <ele>591.477977</ele>
        <time>2023-08-12T16:19:12.737Z</time>
      </trkpt>
      <trkpt lat="44.64744" lon="5.40704">
        <ele>592.081981</ele>
        <time>2023-08-12T16:19:15.973Z</time>
      </trkpt>
      <trkpt lat="44.64736" lon="5.40697">
        <ele>592.471807</ele>
        <time>2023-08-12T16:19:18.222Z</time>
      </trkpt>
      <trkpt lat="44.64725" lon="5.40698">
        <ele>592.905324</ele>
        <time>2023-08-12T16:19:20.656Z</time>
      </trkpt>
      <trkpt lat="44.64704" lon="5.40707">
        <ele>593.839367</ele>
        <time>2023-08-12T16:19:26.359Z</time>
      </trkpt>
      <trkpt lat="44.64675" lon="5.4073">
        <ele>595.316884</ele>
        <time>2023-08-12T16:19:35.504Z</time>
      </trkpt>
      <trkpt lat="44.64644" lon="5.40761">
        <ele>597.425788</ele>
        <time>2023-08-12T16:19:46.517Z</time>
      </trkpt>
      <trkpt lat="44.6461" lon="5.40783">
        <ele>599.480132</ele>
        <time>2023-08-12T16:19:57.915Z</time>
      </trkpt>
      <trkpt lat="44.64596" lon="5.40784">
        <ele>600.240214</ele>
        <time>2023-08-12T16:20:02.237Z</time>
      </trkpt>
      <trkpt lat="44.64587" lon="5.40779">
        <ele>600.757744</ele>
        <time>2023-08-12T16:20:05.493Z</time>
      </trkpt>
      <trkpt lat="44.64571" lon="5.4075">
        <ele>602.203793</ele>
        <time>2023-08-12T16:20:14.690Z</time>
      </trkpt>
      <trkpt lat="44.64553" lon="5.40725">
        <ele>603.595556</ele>
        <time>2023-08-12T16:20:23.767Z</time>
      </trkpt>
      <trkpt lat="44.64551" lon="5.40711">
        <ele>604.175679</ele>
        <time>2023-08-12T16:20:26.450Z</time>
      </trkpt>
      <trkpt lat="44.6456" lon="5.40675">
        <ele>605.347997</ele>
        <time>2023-08-12T16:20:33.625Z</time>
      </trkpt>
      <trkpt lat="44.64563" lon="5.40653">
        <ele>605.801363</ele>
        <time>2023-08-12T16:20:37.056Z</time>
      </trkpt>
      <trkpt lat="44.64564" lon="5.40615">
        <ele>606.561646</ele>
        <time>2023-08-12T16:20:41.952Z</time>
      </trkpt>
      <trkpt lat="44.64555" lon="5.40573">
        <ele>607.445208</ele>
        <time>2023-08-12T16:20:47.408Z</time>
      </trkpt>
      <trkpt lat="44.64547" lon="5.40549">
        <ele>607.995667</ele>
        <time>2023-08-12T16:20:51.079Z</time>
      </trkpt>
      <trkpt lat="44.64545" lon="5.4054">
        <ele>608.187573</ele>
        <time>2023-08-12T16:20:52.403Z</time>
      </trkpt>
      <trkpt lat="44.64546" lon="5.40532">
        <ele>608.351874</ele>
        <time>2023-08-12T16:20:53.209Z</time>
      </trkpt>
      <trkpt lat="44.64567" lon="5.40492">
        <ele>609.356066</ele>
        <time>2023-08-12T16:21:00.145Z</time>
      </trkpt>
      <trkpt lat="44.64572" lon="5.40476">
        <ele>609.715737</ele>
        <time>2023-08-12T16:21:02.893Z</time>
      </trkpt>
      <trkpt lat="44.64571" lon="5.40445">
        <ele>610.180231</ele>
        <time>2023-08-12T16:21:08.181Z</time>
      </trkpt>
      <trkpt lat="44.64575" lon="5.40433">
        <ele>610.269633</ele>
        <time>2023-08-12T16:21:10.206Z</time>
      </trkpt>
      <trkpt lat="44.64596" lon="5.40409">
        <ele>610.524822</ele>
        <time>2023-08-12T16:21:15.580Z</time>
      </trkpt>
      <trkpt lat="44.64612" lon="5.40377">
        <ele>610.789157</ele>
        <time>2023-08-12T16:21:19.848Z</time>
      </trkpt>
      <trkpt lat="44.64618" lon="5.4036">
        <ele>610.914156</ele>
        <time>2023-08-12T16:21:21.053Z</time>
      </trkpt>
      <trkpt lat="44.64613" lon="5.40314">
        <ele>611.229046</ele>
        <time>2023-08-12T16:21:24.090Z</time>
      </trkpt>
      <trkpt lat="44.64616" lon="5.4029">
        <ele>611.390392</ele>
        <time>2023-08-12T16:21:26.522Z</time>
      </trkpt>
      <trkpt lat="44.64632" lon="5.40259">
        <ele>611.642119</ele>
        <time>2023-08-12T16:21:29.862Z</time>
      </trkpt>
      <trkpt lat="44.6464" lon="5.40247">
        <ele>611.75718</ele>
        <time>2023-08-12T16:21:31.902Z</time>
      </trkpt>
      <trkpt lat="44.64654" lon="5.40237">
        <ele>612.296882</ele>
        <time>2023-08-12T16:21:33.901Z</time>
      </trkpt>
      <trkpt lat="44.64699" lon="5.40194">
        <ele>614.732602</ele>
        <time>2023-08-12T16:21:44.557Z</time>
      </trkpt>
      <trkpt lat="44.6473" lon="5.40182">
        <ele>616.195476</ele>
        <time>2023-08-12T16:21:52.172Z</time>
      </trkpt>
      <trkpt lat="44.64746" lon="5.40164">
        <ele>617.120154</ele>
        <time>2023-08-12T16:21:58.026Z</time>
      </trkpt>
      <trkpt lat="44.64788" lon="5.40143">
        <ele>619.109927</ele>
        <time>2023-08-12T16:22:12.404Z</time>
      </trkpt>
      <trkpt lat="44.6482" lon="5.40132">
        <ele>621.732886</ele>
        <time>2023-08-12T16:22:24.722Z</time>
      </trkpt>
      <trkpt lat="44.64834" lon="5.4012">
        <ele>623.559123</ele>
        <time>2023-08-12T16:22:31.614Z</time>
      </trkpt>
      <trkpt lat="44.64847" lon="5.401">
        <ele>625.8195</ele>
        <time>2023-08-12T16:22:40.538Z</time>
      </trkpt>
      <trkpt lat="44.64854" lon="5.40081">
        <ele>627.585273</ele>
        <time>2023-08-12T16:22:48.184Z</time>
      </trkpt>
      <trkpt lat="44.64855" lon="5.40064">
        <ele>628.914964</ele>
        <time>2023-08-12T16:22:53.920Z</time>
      </trkpt>
      <trkpt lat="44.6485" lon="5.40048">
        <ele>630.387913</ele>
        <time>2023-08-12T16:23:00.858Z</time>
      </trkpt>
      <trkpt lat="44.64849" lon="5.40037">
        <ele>631.323946</ele>
        <time>2023-08-12T16:23:05.206Z</time>
      </trkpt>
      <trkpt lat="44.64867" lon="5.39989">
        <ele>635.791525</ele>
        <time>2023-08-12T16:23:26.197Z</time>
      </trkpt>
      <trkpt lat="44.64867" lon="5.39973">
        <ele>637.042695</ele>
        <time>2023-08-12T16:23:32.138Z</time>
      </trkpt>
      <trkpt lat="44.6486" lon="5.39955">
        <ele>638.69859</ele>
        <time>2023-08-12T16:23:40.429Z</time>
      </trkpt>
      <trkpt lat="44.64823" lon="5.3991">
        <ele>643.823538</ele>
        <time>2023-08-12T16:24:07.224Z</time>
      </trkpt>
      <trkpt lat="44.64804" lon="5.39881">
        <ele>646.615989</ele>
        <time>2023-08-12T16:24:21.392Z</time>
      </trkpt>
      <trkpt lat="44.64745" lon="5.398">
        <ele>654.795734</ele>
        <time>2023-08-12T16:24:54.751Z</time>
      </trkpt>
      <trkpt lat="44.6473" lon="5.39749">
        <ele>658.49741</ele>
        <time>2023-08-12T16:25:09.506Z</time>
      </trkpt>
      <trkpt lat="44.6472" lon="5.39727">
        <ele>659.244337</ele>
        <time>2023-08-12T16:25:16.193Z</time>
      </trkpt>
      <trkpt lat="44.64713" lon="5.39718">
        <ele>659.623569</ele>
        <time>2023-08-12T16:25:19.332Z</time>
      </trkpt>
      <trkpt lat="44.64703" lon="5.39717">
        <ele>660.004295</ele>
        <time>2023-08-12T16:25:22.205Z</time>
      </trkpt>
      <trkpt lat="44.64681" lon="5.39728">
        <ele>660.936081</ele>
        <time>2023-08-12T16:25:29.023Z</time>
      </trkpt>
      <trkpt lat="44.64669" lon="5.39729">
        <ele>661.432165</ele>
        <time>2023-08-12T16:25:32.160Z</time>
      </trkpt>
      <trkpt lat="44.64643" lon="5.39719">
        <ele>662.517265</ele>
        <time>2023-08-12T16:25:38.385Z</time>
      </trkpt>
      <trkpt lat="44.64619" lon="5.39723">
        <ele>663.470335</ele>
        <time>2023-08-12T16:25:42.626Z</time>
      </trkpt>
      <trkpt lat="44.64574" lon="5.39699">
        <ele>665.391019</ele>
        <time>2023-08-12T16:25:50.293Z</time>
      </trkpt>
      <trkpt lat="44.64559" lon="5.39686">
        <ele>665.784298</ele>
        <time>2023-08-12T16:25:52.973Z</time>
      </trkpt>
      <trkpt lat="44.64554" lon="5.39678">
        <ele>665.918201</ele>
        <time>2023-08-12T16:25:54.320Z</time>
      </trkpt>
      <trkpt lat="44.64557" lon="5.39663">
        <ele>666.119255</ele>
        <time>2023-08-12T16:25:56.318Z</time>
      </trkpt>
      <trkpt lat="44.64561" lon="5.39659">
        <ele>666.20851</ele>
        <time>2023-08-12T16:25:57.189Z</time>
      </trkpt>
      <trkpt lat="44.64592" lon="5.39649">
        <ele>666.796233</ele>
        <time>2023-08-12T16:26:03.508Z</time>
      </trkpt>
      <trkpt lat="44.64615" lon="5.39645">
        <ele>667.220417</ele>
        <time>2023-08-12T16:26:08.100Z</time>
      </trkpt>
      <trkpt lat="44.64625" lon="5.39639">
        <ele>667.404234</ele>
        <time>2023-08-12T16:26:10.103Z</time>
      </trkpt>
      <trkpt lat="44.64631" lon="5.39626">
        <ele>667.616665</ele>
        <time>2023-08-12T16:26:12.042Z</time>
      </trkpt>
      <trkpt lat="44.64635" lon="5.39563">
        <ele>668.431852</ele>
        <time>2023-08-12T16:26:19.696Z</time>
      </trkpt>
      <trkpt lat="44.64632" lon="5.39544">
        <ele>668.679054</ele>
        <time>2023-08-12T16:26:21.822Z</time>
      </trkpt>
      <trkpt lat="44.64624" lon="5.39532">
        <ele>668.987319</ele>
        <time>2023-08-12T16:26:23.389Z</time>
      </trkpt>
      <trkpt lat="44.64613" lon="5.3952">
        <ele>669.588772</ele>
        <time>2023-08-12T16:26:25.487Z</time>
      </trkpt>
      <trkpt lat="44.64571" lon="5.39487">
        <ele>671.619728</ele>
        <time>2023-08-12T16:26:34.182Z</time>
      </trkpt>
      <trkpt lat="44.64558" lon="5.39461">
        <ele>672.564692</ele>
        <time>2023-08-12T16:26:39.109Z</time>
      </trkpt>
      <trkpt lat="44.64557" lon="5.3945">
        <ele>672.91055</ele>
        <time>2023-08-12T16:26:41.322Z</time>
      </trkpt>
      <trkpt lat="44.64561" lon="5.39443">
        <ele>673.165815</ele>
        <time>2023-08-12T16:26:43.290Z</time>
      </trkpt>
      <trkpt lat="44.64569" lon="5.3944">
        <ele>673.503596</ele>
        <time>2023-08-12T16:26:45.766Z</time>
      </trkpt>
      <trkpt lat="44.64588" lon="5.39438">
        <ele>674.326654</ele>
        <time>2023-08-12T16:26:52.651Z</time>
      </trkpt>
      <trkpt lat="44.64617" lon="5.39409">
        <ele>675.810289</ele>
        <time>2023-08-12T16:27:04.708Z</time>
      </trkpt>
      <trkpt lat="44.64656" lon="5.39374">
        <ele>678.581115</ele>
        <time>2023-08-12T16:27:19.797Z</time>
      </trkpt>
      <trkpt lat="44.64664" lon="5.39359">
        <ele>679.447969</ele>
        <time>2023-08-12T16:27:23.720Z</time>
      </trkpt>
      <trkpt lat="44.64669" lon="5.3934">
        <ele>680.396649</ele>
        <time>2023-08-12T16:27:27.953Z</time>
      </trkpt>
      <trkpt lat="44.64668" lon="5.39315">
        <ele>681.576208</ele>
        <time>2023-08-12T16:27:32.685Z</time>
      </trkpt>
      <trkpt lat="44.64662" lon="5.39296">
        <ele>682.563814</ele>
        <time>2023-08-12T16:27:37.520Z</time>
      </trkpt>
      <trkpt lat="44.64659" lon="5.39286">
        <ele>683.074628</ele>
        <time>2023-08-12T16:27:39.591Z</time>
      </trkpt>
      <trkpt lat="44.64659" lon="5.39258">
        <ele>684.422814</ele>
        <time>2023-08-12T16:27:46.085Z</time>
      </trkpt>
      <trkpt lat="44.64669" lon="5.39228">
        <ele>685.981258</ele>
        <time>2023-08-12T16:27:53.436Z</time>
      </trkpt>
      <trkpt lat="44.64656" lon="5.39215">
        <ele>687.032346</ele>
        <time>2023-08-12T16:27:59.971Z</time>
      </trkpt>
      <trkpt lat="44.64644" lon="5.39198">
        <ele>688.153954</ele>
        <time>2023-08-12T16:28:05.953Z</time>
      </trkpt>
      <trkpt lat="44.64624" lon="5.39151">
        <ele>690.993728</ele>
        <time>2023-08-12T16:28:21.715Z</time>
      </trkpt>
      <trkpt lat="44.64613" lon="5.39137">
        <ele>692.039828</ele>
        <time>2023-08-12T16:28:28.373Z</time>
      </trkpt>
      <trkpt lat="44.64599" lon="5.39136">
        <ele>693.084908</ele>
        <time>2023-08-12T16:28:33.703Z</time>
      </trkpt>
      <trkpt lat="44.64543" lon="5.39142">
        <ele>697.149298</ele>
        <time>2023-08-12T16:28:52.200Z</time>
      </trkpt>
      <trkpt lat="44.64501" lon="5.39139">
        <ele>700.24264</ele>
        <time>2023-08-12T16:29:05.778Z</time>
      </trkpt>
      <trkpt lat="44.64472" lon="5.39143">
        <ele>702.304409</ele>
        <time>2023-08-12T16:29:15.249Z</time>
      </trkpt>
      <trkpt lat="44.6446" lon="5.39137">
        <ele>703.159003</ele>
        <time>2023-08-12T16:29:19.650Z</time>
      </trkpt>
      <trkpt lat="44.64449" lon="5.39122">
        <ele>704.162082</ele>
        <time>2023-08-12T16:29:24.794Z</time>
      </trkpt>
      <trkpt lat="44.64418" lon="5.39058">
        <ele>707.780238</ele>
        <time>2023-08-12T16:29:44.068Z</time>
      </trkpt>
      <trkpt lat="44.6439" lon="5.39031">
        <ele>709.961803</ele>
        <time>2023-08-12T16:29:55.567Z</time>
      </trkpt>
      <trkpt lat="44.64377" lon="5.39008">
        <ele>711.36874</ele>
        <time>2023-08-12T16:30:02.707Z</time>
      </trkpt>
      <trkpt lat="44.64363" lon="5.38961">
        <ele>713.452437</ele>
        <time>2023-08-12T16:30:14.467Z</time>
      </trkpt>
      <trkpt lat="44.64319" lon="5.38889">
        <ele>714.578764</ele>
        <time>2023-08-12T16:30:32.051Z</time>
      </trkpt>
      <trkpt lat="44.64287" lon="5.38827">
        <ele>715.493109</ele>
        <time>2023-08-12T16:30:40.357Z</time>
      </trkpt>
      <trkpt lat="44.64283" lon="5.38814">
        <ele>715.649206</ele>
        <time>2023-08-12T16:30:41.282Z</time>
      </trkpt>
      <trkpt lat="44.64286" lon="5.38805">
        <ele>715.770598</ele>
        <time>2023-08-12T16:30:41.961Z</time>
      </trkpt>
      <trkpt lat="44.64304" lon="5.38782">
        <ele>716.174138</ele>
        <time>2023-08-12T16:30:44.184Z</time>
      </trkpt>
      <trkpt lat="44.64316" lon="5.38751">
        <ele>715.982484</ele>
        <time>2023-08-12T16:30:46.259Z</time>
      </trkpt>
      <trkpt lat="44.64358" lon="5.38719">
        <ele>714.777405</ele>
        <time>2023-08-12T16:30:49.980Z</time>
      </trkpt>
      <trkpt lat="44.64367" lon="5.38719">
        <ele>714.540523</ele>
        <time>2023-08-12T16:30:50.687Z</time>
      </trkpt>
      <trkpt lat="44.64376" lon="5.38726">
        <ele>714.279675</ele>
        <time>2023-08-12T16:30:51.489Z</time>
      </trkpt>
      <trkpt lat="44.64386" lon="5.38741">
        <ele>713.91259</ele>
        <time>2023-08-12T16:30:52.619Z</time>
      </trkpt>
      <trkpt lat="44.644" lon="5.38747">
        <ele>713.552455</ele>
        <time>2023-08-12T16:30:53.706Z</time>
      </trkpt>
      <trkpt lat="44.6447" lon="5.38745">
        <ele>711.873341</ele>
        <time>2023-08-12T16:30:59.600Z</time>
      </trkpt>
      <trkpt lat="44.64493" lon="5.38756">
        <ele>713.628742</ele>
        <time>2023-08-12T16:31:03.566Z</time>
      </trkpt>
      <trkpt lat="44.64513" lon="5.3876">
        <ele>714.994231</ele>
        <time>2023-08-12T16:31:07.863Z</time>
      </trkpt>
      <trkpt lat="44.64537" lon="5.38754">
        <ele>716.682621</ele>
        <time>2023-08-12T16:31:14.474Z</time>
      </trkpt>
      <trkpt lat="44.64562" lon="5.38738">
        <ele>718.645496</ele>
        <time>2023-08-12T16:31:24.368Z</time>
      </trkpt>
      <trkpt lat="44.64589" lon="5.38713">
        <ele>720.86035</ele>
        <time>2023-08-12T16:31:37.612Z</time>
      </trkpt>
      <trkpt lat="44.64592" lon="5.38696">
        <ele>721.713879</ele>
        <time>2023-08-12T16:31:43.130Z</time>
      </trkpt>
      <trkpt lat="44.64592" lon="5.38675">
        <ele>722.749947</ele>
        <time>2023-08-12T16:31:50.517Z</time>
      </trkpt>
      <trkpt lat="44.64585" lon="5.38658">
        <ele>723.737346</ele>
        <time>2023-08-12T16:31:57.843Z</time>
      </trkpt>
      <trkpt lat="44.64557" lon="5.38645">
        <ele>727.294446</ele>
        <time>2023-08-12T16:32:14.323Z</time>
      </trkpt>
      <trkpt lat="44.64535" lon="5.3862">
        <ele>731.22752</ele>
        <time>2023-08-12T16:32:30.846Z</time>
      </trkpt>
      <trkpt lat="44.64524" lon="5.38615">
        <ele>732.948853</ele>
        <time>2023-08-12T16:32:38.288Z</time>
      </trkpt>
      <trkpt lat="44.64495" lon="5.38617">
        <ele>736.952438</ele>
        <time>2023-08-12T16:32:55.727Z</time>
      </trkpt>
      <trkpt lat="44.64453" lon="5.38596">
        <ele>743.35066</ele>
        <time>2023-08-12T16:33:22.458Z</time>
      </trkpt>
      <trkpt lat="44.64449" lon="5.38582">
        <ele>744.896188</ele>
        <time>2023-08-12T16:33:28.706Z</time>
      </trkpt>
      <trkpt lat="44.64449" lon="5.38558">
        <ele>747.339533</ele>
        <time>2023-08-12T16:33:38.384Z</time>
      </trkpt>
      <trkpt lat="44.64437" lon="5.38485">
        <ele>752.94629</ele>
        <time>2023-08-12T16:34:08.208Z</time>
      </trkpt>
      <trkpt lat="44.64434" lon="5.38452">
        <ele>754.995817</ele>
        <time>2023-08-12T16:34:20.958Z</time>
      </trkpt>
      <trkpt lat="44.64423" lon="5.38421">
        <ele>757.186497</ele>
        <time>2023-08-12T16:34:34.207Z</time>
      </trkpt>
      <trkpt lat="44.64426" lon="5.38406">
        <ele>758.144196</ele>
        <time>2023-08-12T16:34:39.517Z</time>
      </trkpt>
      <trkpt lat="44.64442" lon="5.38379">
        <ele>760.291125</ele>
        <time>2023-08-12T16:34:50.410Z</time>
      </trkpt>
      <trkpt lat="44.64447" lon="5.38364">
        <ele>761.34704</ele>
        <time>2023-08-12T16:34:54.629Z</time>
      </trkpt>
      <trkpt lat="44.64445" lon="5.38335">
        <ele>763.17443</ele>
        <time>2023-08-12T16:35:00.601Z</time>
      </trkpt>
      <trkpt lat="44.64424" lon="5.38248">
        <ele>763.463025</ele>
        <time>2023-08-12T16:35:07.774Z</time>
      </trkpt>
      <trkpt lat="44.64428" lon="5.38235">
        <ele>762.872648</ele>
        <time>2023-08-12T16:35:08.547Z</time>
      </trkpt>
      <trkpt lat="44.64447" lon="5.38234">
        <ele>761.786824</ele>
        <time>2023-08-12T16:35:09.958Z</time>
      </trkpt>
      <trkpt lat="44.64453" lon="5.38224">
        <ele>761.271718</ele>
        <time>2023-08-12T16:35:10.610Z</time>
      </trkpt>
      <trkpt lat="44.64455" lon="5.38214">
        <ele>760.875982</ele>
        <time>2023-08-12T16:35:11.098Z</time>
      </trkpt>
      <trkpt lat="44.6446" lon="5.3821">
        <ele>760.573439</ele>
        <time>2023-08-12T16:35:11.469Z</time>
      </trkpt>
      <trkpt lat="44.64475" lon="5.38213">
        <ele>759.718096</ele>
        <time>2023-08-12T16:35:12.537Z</time>
      </trkpt>
      <trkpt lat="44.64484" lon="5.38199">
        <ele>758.957246</ele>
        <time>2023-08-12T16:35:13.469Z</time>
      </trkpt>
      <trkpt lat="44.64492" lon="5.38197">
        <ele>758.487403</ele>
        <time>2023-08-12T16:35:14.038Z</time>
      </trkpt>
      <trkpt lat="44.64503" lon="5.382">
        <ele>757.858772</ele>
        <time>2023-08-12T16:35:14.807Z</time>
      </trkpt>
      <trkpt lat="44.64533" lon="5.38194">
        <ele>756.158106</ele>
        <time>2023-08-12T16:35:16.889Z</time>
      </trkpt>
      <trkpt lat="44.6455" lon="5.38198">
        <ele>755.55545</ele>
        <time>2023-08-12T16:35:18.109Z</time>
      </trkpt>
      <trkpt lat="44.64559" lon="5.38188">
        <ele>755.896436</ele>
        <time>2023-08-12T16:35:18.930Z</time>
      </trkpt>
      <trkpt lat="44.64575" lon="5.38184">
        <ele>756.36723</ele>
        <time>2023-08-12T16:35:20.126Z</time>
      </trkpt>
      <trkpt lat="44.64592" lon="5.38202">
        <ele>756.995114</ele>
        <time>2023-08-12T16:35:21.747Z</time>
      </trkpt>
      <trkpt lat="44.64605" lon="5.38209">
        <ele>757.397462</ele>
        <time>2023-08-12T16:35:22.980Z</time>
      </trkpt>
      <trkpt lat="44.64617" lon="5.38228">
        <ele>757.897996</ele>
        <time>2023-08-12T16:35:24.808Z</time>
      </trkpt>
      <trkpt lat="44.64639" lon="5.38236">
        <ele>758.567293</ele>
        <time>2023-08-12T16:35:30.147Z</time>
      </trkpt>
      <trkpt lat="44.64653" lon="5.38231">
        <ele>758.993561</ele>
        <time>2023-08-12T16:35:34.616Z</time>
      </trkpt>
      <trkpt lat="44.64676" lon="5.3819">
        <ele>760.062255</ele>
        <time>2023-08-12T16:35:50.420Z</time>
      </trkpt>
      <trkpt lat="44.64695" lon="5.38164">
        <ele>761.770093</ele>
        <time>2023-08-12T16:36:06.098Z</time>
      </trkpt>
      <trkpt lat="44.64734" lon="5.38152">
        <ele>768.40134</ele>
        <time>2023-08-12T16:36:33.758Z</time>
      </trkpt>
      <trkpt lat="44.64737" lon="5.3814">
        <ele>769.876863</ele>
        <time>2023-08-12T16:36:40.390Z</time>
      </trkpt>
      <trkpt lat="44.64734" lon="5.38123">
        <ele>772.036478</ele>
        <time>2023-08-12T16:36:50.502Z</time>
      </trkpt>
      <trkpt lat="44.64711" lon="5.38087">
        <ele>777.874571</ele>
        <time>2023-08-12T16:37:17.866Z</time>
      </trkpt>
      <trkpt lat="44.64695" lon="5.38018">
        <ele>786.525853</ele>
        <time>2023-08-12T16:37:54.724Z</time>
      </trkpt>
      <trkpt lat="44.64683" lon="5.37975">
        <ele>791.402263</ele>
        <time>2023-08-12T16:38:13.530Z</time>
      </trkpt>
      <trkpt lat="44.64686" lon="5.37954">
        <ele>792.65586</ele>
        <time>2023-08-12T16:38:21.053Z</time>
      </trkpt>
      <trkpt lat="44.64694" lon="5.37932">
        <ele>794.134819</ele>
        <time>2023-08-12T16:38:29.299Z</time>
      </trkpt>
      <trkpt lat="44.64685" lon="5.37894">
        <ele>796.470435</ele>
        <time>2023-08-12T16:38:40.691Z</time>
      </trkpt>
      <trkpt lat="44.64685" lon="5.37871">
        <ele>797.851403</ele>
        <time>2023-08-12T16:38:46.758Z</time>
      </trkpt>
      <trkpt lat="44.64693" lon="5.37837">
        <ele>799.980975</ele>
        <time>2023-08-12T16:38:55.331Z</time>
      </trkpt>
      <trkpt lat="44.64747" lon="5.37741">
        <ele>807.300578</ele>
        <time>2023-08-12T16:39:18.691Z</time>
      </trkpt>
      <trkpt lat="44.64754" lon="5.37725">
        <ele>808.514821</ele>
        <time>2023-08-12T16:39:22.441Z</time>
      </trkpt>
      <trkpt lat="44.64755" lon="5.37709">
        <ele>809.563381</ele>
        <time>2023-08-12T16:39:25.903Z</time>
      </trkpt>
      <trkpt lat="44.64753" lon="5.3768">
        <ele>811.449881</ele>
        <time>2023-08-12T16:39:32.746Z</time>
      </trkpt>
      <trkpt lat="44.64765" lon="5.37649">
        <ele>813.775184</ele>
        <time>2023-08-12T16:39:42.606Z</time>
      </trkpt>
      <trkpt lat="44.64802" lon="5.37593">
        <ele>818.692371</ele>
        <time>2023-08-12T16:40:08.184Z</time>
      </trkpt>
      <trkpt lat="44.6481" lon="5.37546">
        <ele>821.767638</ele>
        <time>2023-08-12T16:40:25.827Z</time>
      </trkpt>
      <trkpt lat="44.64807" lon="5.37525">
        <ele>823.340307</ele>
        <time>2023-08-12T16:40:33.924Z</time>
      </trkpt>
      <trkpt lat="44.64773" lon="5.37454">
        <ele>829.924902</ele>
        <time>2023-08-12T16:41:06.640Z</time>
      </trkpt>
      <trkpt lat="44.64756" lon="5.37406">
        <ele>834.071894</ele>
        <time>2023-08-12T16:41:26.048Z</time>
      </trkpt>
      <trkpt lat="44.64748" lon="5.37376">
        <ele>836.488212</ele>
        <time>2023-08-12T16:41:36.577Z</time>
      </trkpt>
      <trkpt lat="44.64749" lon="5.37349">
        <ele>838.569349</ele>
        <time>2023-08-12T16:41:45.027Z</time>
      </trkpt>
      <trkpt lat="44.64754" lon="5.37296">
        <ele>841.941744</ele>
        <time>2023-08-12T16:41:59.031Z</time>
      </trkpt>
      <trkpt lat="44.64752" lon="5.37279">
        <ele>842.45182</ele>
        <time>2023-08-12T16:42:02.612Z</time>
      </trkpt>
      <trkpt lat="44.64749" lon="5.37269">
        <ele>842.766814</ele>
        <time>2023-08-12T16:42:04.743Z</time>
      </trkpt>
      <trkpt lat="44.64733" lon="5.37253">
        <ele>843.592941</ele>
        <time>2023-08-12T16:42:09.048Z</time>
      </trkpt>
      <trkpt lat="44.64725" lon="5.37238">
        <ele>844.129605</ele>
        <time>2023-08-12T16:42:11.958Z</time>
      </trkpt>
      <trkpt lat="44.64724" lon="5.37218">
        <ele>844.724115</ele>
        <time>2023-08-12T16:42:14.918Z</time>
      </trkpt>
      <trkpt lat="44.64738" lon="5.3718">
        <ele>845.993312</ele>
        <time>2023-08-12T16:42:21.284Z</time>
      </trkpt>
      <trkpt lat="44.64794" lon="5.37085">
        <ele>849.409233</ele>
        <time>2023-08-12T16:42:41.486Z</time>
      </trkpt>
      <trkpt lat="44.64806" lon="5.37059">
        <ele>850.062208</ele>
        <time>2023-08-12T16:42:46.381Z</time>
      </trkpt>
      <trkpt lat="44.6481" lon="5.37035">
        <ele>850.578452</ele>
        <time>2023-08-12T16:42:49.182Z</time>
      </trkpt>
      <trkpt lat="44.64803" lon="5.37007">
        <ele>851.19266</ele>
        <time>2023-08-12T16:42:52.699Z</time>
      </trkpt>
      <trkpt lat="44.64786" lon="5.36965">
        <ele>852.208679</ele>
        <time>2023-08-12T16:42:57.404Z</time>
      </trkpt>
      <trkpt lat="44.64784" lon="5.3694">
        <ele>852.726944</ele>
        <time>2023-08-12T16:43:00.856Z</time>
      </trkpt>
      <trkpt lat="44.64796" lon="5.36909">
        <ele>853.464153</ele>
        <time>2023-08-12T16:43:06.232Z</time>
      </trkpt>
      <trkpt lat="44.64816" lon="5.36881">
        <ele>854.455578</ele>
        <time>2023-08-12T16:43:14.313Z</time>
      </trkpt>
      <trkpt lat="44.6482" lon="5.36866">
        <ele>855.403083</ele>
        <time>2023-08-12T16:43:17.767Z</time>
      </trkpt>
      <trkpt lat="44.64828" lon="5.36849">
        <ele>856.611995</ele>
        <time>2023-08-12T16:43:22.618Z</time>
      </trkpt>
      <trkpt lat="44.64847" lon="5.36837">
        <ele>858.376148</ele>
        <time>2023-08-12T16:43:29.584Z</time>
      </trkpt>
      <trkpt lat="44.64861" lon="5.3682">
        <ele>859.923108</ele>
        <time>2023-08-12T16:43:35.849Z</time>
      </trkpt>
      <trkpt lat="44.64869" lon="5.36802">
        <ele>861.250173</ele>
        <time>2023-08-12T16:43:41.393Z</time>
      </trkpt>
      <trkpt lat="44.64873" lon="5.36782">
        <ele>862.458504</ele>
        <time>2023-08-12T16:43:46.989Z</time>
      </trkpt>
      <trkpt lat="44.64893" lon="5.36754">
        <ele>864.800958</ele>
        <time>2023-08-12T16:43:57.737Z</time>
      </trkpt>
      <trkpt lat="44.6491" lon="5.36713">
        <ele>867.675864</ele>
        <time>2023-08-12T16:44:13.100Z</time>
      </trkpt>
      <trkpt lat="44.64918" lon="5.3663">
        <ele>873.775651</ele>
        <time>2023-08-12T16:44:44.958Z</time>
      </trkpt>
      <trkpt lat="44.6491" lon="5.366">
        <ele>876.306194</ele>
        <time>2023-08-12T16:44:58.210Z</time>
      </trkpt>
      <trkpt lat="44.64893" lon="5.36561">
        <ele>879.865112</ele>
        <time>2023-08-12T16:45:14.534Z</time>
      </trkpt>
      <trkpt lat="44.64877" lon="5.36541">
        <ele>882.256557</ele>
        <time>2023-08-12T16:45:25.225Z</time>
      </trkpt>
      <trkpt lat="44.64839" lon="5.36508">
        <ele>887.173711</ele>
        <time>2023-08-12T16:45:45.037Z</time>
      </trkpt>
      <trkpt lat="44.64831" lon="5.36498">
        <ele>888.415322</ele>
        <time>2023-08-12T16:45:49.522Z</time>
      </trkpt>
      <trkpt lat="44.64829" lon="5.3648">
        <ele>889.480955</ele>
        <time>2023-08-12T16:45:54.478Z</time>
      </trkpt>
      <trkpt lat="44.64831" lon="5.36464">
        <ele>889.994563</ele>
        <time>2023-08-12T16:45:59.074Z</time>
      </trkpt>
      <trkpt lat="44.64845" lon="5.36418">
        <ele>891.496494</ele>
        <time>2023-08-12T16:46:10.640Z</time>
      </trkpt>
      <trkpt lat="44.64844" lon="5.36386">
        <ele>892.470084</ele>
        <time>2023-08-12T16:46:16.251Z</time>
      </trkpt>
      <trkpt lat="44.64838" lon="5.3636">
        <ele>893.326081</ele>
        <time>2023-08-12T16:46:20.405Z</time>
      </trkpt>
      <trkpt lat="44.64816" lon="5.36327">
        <ele>894.706247</ele>
        <time>2023-08-12T16:46:26.126Z</time>
      </trkpt>
      <trkpt lat="44.6481" lon="5.36312">
        <ele>895.241355</ele>
        <time>2023-08-12T16:46:27.884Z</time>
      </trkpt>
      <trkpt lat="44.64808" lon="5.36285">
        <ele>896.070752</ele>
        <time>2023-08-12T16:46:31.223Z</time>
      </trkpt>
      <trkpt lat="44.64818" lon="5.36232">
        <ele>897.6194</ele>
        <time>2023-08-12T16:46:38.762Z</time>
      </trkpt>
      <trkpt lat="44.64822" lon="5.36186">
        <ele>898.797614</ele>
        <time>2023-08-12T16:46:46.542Z</time>
      </trkpt>
      <trkpt lat="44.6482" lon="5.36162">
        <ele>899.414316</ele>
        <time>2023-08-12T16:46:50.752Z</time>
      </trkpt>
      <trkpt lat="44.64828" lon="5.36106">
        <ele>900.881202</ele>
        <time>2023-08-12T16:47:01.125Z</time>
      </trkpt>
      <trkpt lat="44.64828" lon="5.3609">
        <ele>901.286374</ele>
        <time>2023-08-12T16:47:03.850Z</time>
      </trkpt>
      <trkpt lat="44.64822" lon="5.36072">
        <ele>901.798661</ele>
        <time>2023-08-12T16:47:06.953Z</time>
      </trkpt>
      <trkpt lat="44.64807" lon="5.36044">
        <ele>902.703886</ele>
        <time>2023-08-12T16:47:12.365Z</time>
      </trkpt>
      <trkpt lat="44.64804" lon="5.36033">
        <ele>903.01446</ele>
        <time>2023-08-12T16:47:14.191Z</time>
      </trkpt>
      <trkpt lat="44.64804" lon="5.36016">
        <ele>903.435081</ele>
        <time>2023-08-12T16:47:16.787Z</time>
      </trkpt>
      <trkpt lat="44.64822" lon="5.35909">
        <ele>907.832157</ele>
        <time>2023-08-12T16:47:38.920Z</time>
      </trkpt>
      <trkpt lat="44.64847" lon="5.35861">
        <ele>910.274732</ele>
        <time>2023-08-12T16:47:53.300Z</time>
      </trkpt>
      <trkpt lat="44.64853" lon="5.35842">
        <ele>911.077084</ele>
        <time>2023-08-12T16:47:58.010Z</time>
      </trkpt>
      <trkpt lat="44.64855" lon="5.3582">
        <ele>911.98043</ele>
        <time>2023-08-12T16:48:03.343Z</time>
      </trkpt>
      <trkpt lat="44.64851" lon="5.35798">
        <ele>912.889745</ele>
        <time>2023-08-12T16:48:08.264Z</time>
      </trkpt>
      <trkpt lat="44.64841" lon="5.35794">
        <ele>913.46067</ele>
        <time>2023-08-12T16:48:11.377Z</time>
      </trkpt>
      <trkpt lat="44.64815" lon="5.35801">
        <ele>915.357099</ele>
        <time>2023-08-12T16:48:19.530Z</time>
      </trkpt>
      <trkpt lat="44.64801" lon="5.35795">
        <ele>916.465159</ele>
        <time>2023-08-12T16:48:24.478Z</time>
      </trkpt>
      <trkpt lat="44.64788" lon="5.35785">
        <ele>917.520917</ele>
        <time>2023-08-12T16:48:29.121Z</time>
      </trkpt>
      <trkpt lat="44.64777" lon="5.35769">
        <ele>918.719606</ele>
        <time>2023-08-12T16:48:34.571Z</time>
      </trkpt>
      <trkpt lat="44.64772" lon="5.35771">
        <ele>919.104476</ele>
        <time>2023-08-12T16:48:36.446Z</time>
      </trkpt>
      <trkpt lat="44.64771" lon="5.35778">
        <ele>919.452145</ele>
        <time>2023-08-12T16:48:38.076Z</time>
      </trkpt>
      <trkpt lat="44.64775" lon="5.35787">
        <ele>920.053559</ele>
        <time>2023-08-12T16:48:40.990Z</time>
      </trkpt>
      <trkpt lat="44.64785" lon="5.35801">
        <ele>921.063441</ele>
        <time>2023-08-12T16:48:46.057Z</time>
      </trkpt>
      <trkpt lat="44.64794" lon="5.35817">
        <ele>922.15832</ele>
        <time>2023-08-12T16:48:51.888Z</time>
      </trkpt>
      <trkpt lat="44.64798" lon="5.3584">
        <ele>923.352031</ele>
        <time>2023-08-12T16:48:58.328Z</time>
      </trkpt>
      <trkpt lat="44.64794" lon="5.3586">
        <ele>924.481474</ele>
        <time>2023-08-12T16:49:04.622Z</time>
      </trkpt>
      <trkpt lat="44.64784" lon="5.35884">
        <ele>925.905622</ele>
        <time>2023-08-12T16:49:12.271Z</time>
      </trkpt>
      <trkpt lat="44.64773" lon="5.35946">
        <ele>929.585483</ele>
        <time>2023-08-12T16:49:28.803Z</time>
      </trkpt>
      <trkpt lat="44.64749" lon="5.35992">
        <ele>932.962303</ele>
        <time>2023-08-12T16:49:41.892Z</time>
      </trkpt>
      <trkpt lat="44.64733" lon="5.36048">
        <ele>936.576885</ele>
        <time>2023-08-12T16:49:56.450Z</time>
      </trkpt>
      <trkpt lat="44.64716" lon="5.36089">
        <ele>939.420622</ele>
        <time>2023-08-12T16:50:09.949Z</time>
      </trkpt>
      <trkpt lat="44.64712" lon="5.36132">
        <ele>941.978937</ele>
        <time>2023-08-12T16:50:23.904Z</time>
      </trkpt>
      <trkpt lat="44.64713" lon="5.36162">
        <ele>944.666255</ele>
        <time>2023-08-12T16:50:34.486Z</time>
      </trkpt>
      <trkpt lat="44.64721" lon="5.36202">
        <ele>948.353564</ele>
        <time>2023-08-12T16:50:49.941Z</time>
      </trkpt>
      <trkpt lat="44.64717" lon="5.36221">
        <ele>950.154231</ele>
        <time>2023-08-12T16:50:57.638Z</time>
      </trkpt>
      <trkpt lat="44.647" lon="5.36261">
        <ele>954.269213</ele>
        <time>2023-08-12T16:51:15.131Z</time>
      </trkpt>
      <trkpt lat="44.64684" lon="5.36281">
        <ele>956.982703</ele>
        <time>2023-08-12T16:51:26.747Z</time>
      </trkpt>
      <trkpt lat="44.64669" lon="5.36322">
        <ele>961.042229</ele>
        <time>2023-08-12T16:51:43.791Z</time>
      </trkpt>
      <trkpt lat="44.64664" lon="5.3635">
        <ele>963.610914</ele>
        <time>2023-08-12T16:51:54.540Z</time>
      </trkpt>
      <trkpt lat="44.64659" lon="5.36379">
        <ele>966.140776</ele>
        <time>2023-08-12T16:52:06.906Z</time>
      </trkpt>
      <trkpt lat="44.64658" lon="5.36411">
        <ele>968.737596</ele>
        <time>2023-08-12T16:52:20.477Z</time>
      </trkpt>
      <trkpt lat="44.64665" lon="5.36444">
        <ele>971.460099</ele>
        <time>2023-08-12T16:52:33.456Z</time>
      </trkpt>
      <trkpt lat="44.6466" lon="5.36472">
        <ele>973.777534</ele>
        <time>2023-08-12T16:52:45.386Z</time>
      </trkpt>
      <trkpt lat="44.64664" lon="5.36509">
        <ele>976.802125</ele>
        <time>2023-08-12T16:52:59.310Z</time>
      </trkpt>
      <trkpt lat="44.64672" lon="5.36531">
        <ele>978.799773</ele>
        <time>2023-08-12T16:53:06.989Z</time>
      </trkpt>
      <trkpt lat="44.64672" lon="5.36543">
        <ele>979.767758</ele>
        <time>2023-08-12T16:53:10.632Z</time>
      </trkpt>
      <trkpt lat="44.64668" lon="5.36547">
        <ele>980.333472</ele>
        <time>2023-08-12T16:53:13.127Z</time>
      </trkpt>
      <trkpt lat="44.64659" lon="5.36533">
        <ele>981.886695</ele>
        <time>2023-08-12T16:53:18.564Z</time>
      </trkpt>
      <trkpt lat="44.64654" lon="5.36508">
        <ele>983.928233</ele>
        <time>2023-08-12T16:53:24.816Z</time>
      </trkpt>
      <trkpt lat="44.64628" lon="5.36421">
        <ele>988.332643</ele>
        <time>2023-08-12T16:53:46.736Z</time>
      </trkpt>
      <trkpt lat="44.64623" lon="5.36361">
        <ele>990.852732</ele>
        <time>2023-08-12T16:53:59.826Z</time>
      </trkpt>
      <trkpt lat="44.64625" lon="5.36321">
        <ele>992.499962</ele>
        <time>2023-08-12T16:54:08.531Z</time>
      </trkpt>
      <trkpt lat="44.64609" lon="5.36202">
        <ele>997.567165</ele>
        <time>2023-08-12T16:54:30.879Z</time>
      </trkpt>
      <trkpt lat="44.64602" lon="5.36182">
        <ele>998.473561</ele>
        <time>2023-08-12T16:54:34.825Z</time>
      </trkpt>
      <trkpt lat="44.64611" lon="5.36141">
        <ele>1000.277479</ele>
        <time>2023-08-12T16:54:43.316Z</time>
      </trkpt>
      <trkpt lat="44.64616" lon="5.36097">
        <ele>1002.133861</ele>
        <time>2023-08-12T16:54:53.006Z</time>
      </trkpt>
      <trkpt lat="44.64611" lon="5.36">
        <ele>1006.364053</ele>
        <time>2023-08-12T16:55:16.745Z</time>
      </trkpt>
      <trkpt lat="44.64611" lon="5.35964">
        <ele>1008.660903</ele>
        <time>2023-08-12T16:55:26.363Z</time>
      </trkpt>
      <trkpt lat="44.64608" lon="5.35892">
        <ele>1013.306807</ele>
        <time>2023-08-12T16:55:47.114Z</time>
      </trkpt>
      <trkpt lat="44.64599" lon="5.35845">
        <ele>1016.414106</ele>
        <time>2023-08-12T16:56:02.033Z</time>
      </trkpt>
      <trkpt lat="44.64601" lon="5.35801">
        <ele>1019.249943</ele>
        <time>2023-08-12T16:56:15.895Z</time>
      </trkpt>
      <trkpt lat="44.64593" lon="5.35744">
        <ele>1022.918505</ele>
        <time>2023-08-12T16:56:34.046Z</time>
      </trkpt>
      <trkpt lat="44.64562" lon="5.35659">
        <ele>1028.507422</ele>
        <time>2023-08-12T16:57:01.661Z</time>
      </trkpt>
      <trkpt lat="44.64561" lon="5.35622">
        <ele>1030.713729</ele>
        <time>2023-08-12T16:57:11.927Z</time>
      </trkpt>
      <trkpt lat="44.6456" lon="5.3557">
        <ele>1033.803934</ele>
        <time>2023-08-12T16:57:25.587Z</time>
      </trkpt>
      <trkpt lat="44.64568" lon="5.35461">
        <ele>1039.649261</ele>
        <time>2023-08-12T16:57:51.683Z</time>
      </trkpt>
      <trkpt lat="44.64587" lon="5.35341">
        <ele>1045.606585</ele>
        <time>2023-08-12T16:58:20.363Z</time>
      </trkpt>
      <trkpt lat="44.6459" lon="5.35303">
        <ele>1047.467514</ele>
        <time>2023-08-12T16:58:29.411Z</time>
      </trkpt>
      <trkpt lat="44.64593" lon="5.35166">
        <ele>1053.722559</ele>
        <time>2023-08-12T16:59:03.551Z</time>
      </trkpt>
      <trkpt lat="44.64609" lon="5.35061">
        <ele>1058.525714</ele>
        <time>2023-08-12T16:59:29.595Z</time>
      </trkpt>
      <trkpt lat="44.64607" lon="5.3502">
        <ele>1060.380997</ele>
        <time>2023-08-12T16:59:37.393Z</time>
      </trkpt>
      <trkpt lat="44.64583" lon="5.34964">
        <ele>1062.038279</ele>
        <time>2023-08-12T16:59:48.146Z</time>
      </trkpt>
      <trkpt lat="44.64578" lon="5.34936">
        <ele>1062.710607</ele>
        <time>2023-08-12T16:59:52.008Z</time>
      </trkpt>
      <trkpt lat="44.64577" lon="5.34906">
        <ele>1063.417442</ele>
        <time>2023-08-12T16:59:56.944Z</time>
      </trkpt>
      <trkpt lat="44.64579" lon="5.34867">
        <ele>1064.34082</ele>
        <time>2023-08-12T17:00:03.347Z</time>
      </trkpt>
      <trkpt lat="44.64583" lon="5.34833">
        <ele>1065.149984</ele>
        <time>2023-08-12T17:00:09.169Z</time>
      </trkpt>
      <trkpt lat="44.64604" lon="5.34736">
        <ele>1066.147023</ele>
        <time>2023-08-12T17:00:24.226Z</time>
      </trkpt>
      <trkpt lat="44.64624" lon="5.34677">
        <ele>1065.481587</ele>
        <time>2023-08-12T17:00:30.078Z</time>
      </trkpt>
      <trkpt lat="44.64625" lon="5.34626">
        <ele>1064.955389</ele>
        <time>2023-08-12T17:00:33.482Z</time>
      </trkpt>
      <trkpt lat="44.64624" lon="5.34559">
        <ele>1064.271564</ele>
        <time>2023-08-12T17:00:37.445Z</time>
      </trkpt>
      <trkpt lat="44.64603" lon="5.34499">
        <ele>1060.819619</ele>
        <time>2023-08-12T17:00:40.933Z</time>
      </trkpt>
      <trkpt lat="44.64581" lon="5.34466">
        <ele>1056.939251</ele>
        <time>2023-08-12T17:00:43.184Z</time>
      </trkpt>
      <trkpt lat="44.64579" lon="5.34438">
        <ele>1054.588245</ele>
        <time>2023-08-12T17:00:44.528Z</time>
      </trkpt>
      <trkpt lat="44.64575" lon="5.34419">
        <ele>1052.91838</ele>
        <time>2023-08-12T17:00:45.465Z</time>
      </trkpt>
      <trkpt lat="44.64562" lon="5.34395">
        <ele>1050.298998</ele>
        <time>2023-08-12T17:00:46.937Z</time>
      </trkpt>
      <trkpt lat="44.64556" lon="5.34376">
        <ele>1048.588743</ele>
        <time>2023-08-12T17:00:47.890Z</time>
      </trkpt>
      <trkpt lat="44.6455" lon="5.34365">
        <ele>1047.386699</ele>
        <time>2023-08-12T17:00:48.559Z</time>
      </trkpt>
      <trkpt lat="44.64521" lon="5.34326">
        <ele>1042.580034</ele>
        <time>2023-08-12T17:00:51.227Z</time>
      </trkpt>
      <trkpt lat="44.64504" lon="5.34299">
        <ele>1038.881255</ele>
        <time>2023-08-12T17:00:52.905Z</time>
      </trkpt>
      <trkpt lat="44.64492" lon="5.34273">
        <ele>1035.643294</ele>
        <time>2023-08-12T17:00:54.375Z</time>
      </trkpt>
      <trkpt lat="44.64485" lon="5.34263">
        <ele>1034.115893</ele>
        <time>2023-08-12T17:00:55.069Z</time>
      </trkpt>
      <trkpt lat="44.64467" lon="5.34254">
        <ele>1031.425752</ele>
        <time>2023-08-12T17:00:56.293Z</time>
      </trkpt>
      <trkpt lat="44.64446" lon="5.3425">
        <ele>1028.348943</ele>
        <time>2023-08-12T17:00:57.694Z</time>
      </trkpt>
      <trkpt lat="44.64344" lon="5.34221">
        <ele>1013.860996</ele>
        <time>2023-08-12T17:01:04.677Z</time>
      </trkpt>
      <trkpt lat="44.64341" lon="5.34222">
        <ele>1013.492033</ele>
        <time>2023-08-12T17:01:04.897Z</time>
      </trkpt>
      <trkpt lat="44.64342" lon="5.34229">
        <ele>1012.94184</ele>
        <time>2023-08-12T17:01:05.223Z</time>
      </trkpt>
      <trkpt lat="44.64358" lon="5.34239">
        <ele>1010.929206</ele>
        <time>2023-08-12T17:01:06.410Z</time>
      </trkpt>
      <trkpt lat="44.64409" lon="5.3428">
        <ele>1004.107713</ele>
        <time>2023-08-12T17:01:10.429Z</time>
      </trkpt>
      <trkpt lat="44.64414" lon="5.34288">
        <ele>1003.250162</ele>
        <time>2023-08-12T17:01:10.936Z</time>
      </trkpt>
      <trkpt lat="44.64413" lon="5.34295">
        <ele>1002.696521</ele>
        <time>2023-08-12T17:01:11.263Z</time>
      </trkpt>
      <trkpt lat="44.64407" lon="5.34296">
        <ele>1002.088852</ele>
        <time>2023-08-12T17:01:11.619Z</time>
      </trkpt>
      <trkpt lat="44.64397" lon="5.34286">
        <ele>1000.583802</ele>
        <time>2023-08-12T17:01:12.513Z</time>
      </trkpt>
      <trkpt lat="44.64305" lon="5.3425">
        <ele>990.063288</ele>
        <time>2023-08-12T17:01:18.982Z</time>
      </trkpt>
      <trkpt lat="44.64216" lon="5.3419">
        <ele>979.401687</ele>
        <time>2023-08-12T17:01:25.730Z</time>
      </trkpt>
      <trkpt lat="44.64195" lon="5.34178">
        <ele>976.964184</ele>
        <time>2023-08-12T17:01:27.292Z</time>
      </trkpt>
      <trkpt lat="44.64174" lon="5.34156">
        <ele>974.313729</ele>
        <time>2023-08-12T17:01:29.143Z</time>
      </trkpt>
      <trkpt lat="44.64133" lon="5.34084">
        <ele>968.00806</ele>
        <time>2023-08-12T17:01:33.663Z</time>
      </trkpt>
      <trkpt lat="44.64117" lon="5.34045">
        <ele>964.989999</ele>
        <time>2023-08-12T17:01:35.836Z</time>
      </trkpt>
      <trkpt lat="44.64104" lon="5.33996">
        <ele>961.439466</ele>
        <time>2023-08-12T17:01:38.415Z</time>
      </trkpt>
      <trkpt lat="44.64095" lon="5.33978">
        <ele>959.92298</ele>
        <time>2023-08-12T17:01:39.518Z</time>
      </trkpt>
      <trkpt lat="44.64064" lon="5.33944">
        <ele>957.335931</ele>
        <time>2023-08-12T17:01:42.341Z</time>
      </trkpt>
      <trkpt lat="44.64045" lon="5.33911">
        <ele>955.732225</ele>
        <time>2023-08-12T17:01:44.448Z</time>
      </trkpt>
      <trkpt lat="44.63976" lon="5.33845">
        <ele>951.142934</ele>
        <time>2023-08-12T17:01:50.719Z</time>
      </trkpt>
      <trkpt lat="44.6396" lon="5.33816">
        <ele>949.706868</ele>
        <time>2023-08-12T17:01:52.891Z</time>
      </trkpt>
      <trkpt lat="44.63953" lon="5.33769">
        <ele>948.01719</ele>
        <time>2023-08-12T17:01:56.188Z</time>
      </trkpt>
      <trkpt lat="44.63968" lon="5.33676">
        <ele>944.831096</ele>
        <time>2023-08-12T17:02:01.797Z</time>
      </trkpt>
      <trkpt lat="44.6398" lon="5.33652">
        <ele>943.85649</ele>
        <time>2023-08-12T17:02:03.325Z</time>
      </trkpt>
      <trkpt lat="44.64002" lon="5.33635">
        <ele>942.667854</ele>
        <time>2023-08-12T17:02:05.167Z</time>
      </trkpt>
      <trkpt lat="44.64025" lon="5.33599">
        <ele>941.036112</ele>
        <time>2023-08-12T17:02:07.638Z</time>
      </trkpt>
      <trkpt lat="44.64036" lon="5.33564">
        <ele>939.173741</ele>
        <time>2023-08-12T17:02:09.530Z</time>
      </trkpt>
      <trkpt lat="44.64034" lon="5.3354">
        <ele>937.840642</ele>
        <time>2023-08-12T17:02:10.756Z</time>
      </trkpt>
      <trkpt lat="44.64013" lon="5.33464">
        <ele>933.366756</ele>
        <time>2023-08-12T17:02:14.868Z</time>
      </trkpt>
      <trkpt lat="44.63994" lon="5.33374">
        <ele>928.152428</ele>
        <time>2023-08-12T17:02:19.646Z</time>
      </trkpt>
      <trkpt lat="44.63994" lon="5.33346">
        <ele>926.607682</ele>
        <time>2023-08-12T17:02:21.035Z</time>
      </trkpt>
      <trkpt lat="44.63998" lon="5.33323">
        <ele>925.181685</ele>
        <time>2023-08-12T17:02:22.197Z</time>
      </trkpt>
      <trkpt lat="44.6401" lon="5.33309">
        <ele>923.827603</ele>
        <time>2023-08-12T17:02:23.318Z</time>
      </trkpt>
      <trkpt lat="44.64041" lon="5.33293">
        <ele>920.992684</ele>
        <time>2023-08-12T17:02:25.672Z</time>
      </trkpt>
      <trkpt lat="44.64061" lon="5.3327">
        <ele>918.847175</ele>
        <time>2023-08-12T17:02:27.461Z</time>
      </trkpt>
      <trkpt lat="44.64076" lon="5.33237">
        <ele>916.454618</ele>
        <time>2023-08-12T17:02:29.451Z</time>
      </trkpt>
      <trkpt lat="44.64094" lon="5.33155">
        <ele>911.242882</ele>
        <time>2023-08-12T17:02:33.739Z</time>
      </trkpt>
      <trkpt lat="44.64107" lon="5.33086">
        <ele>906.72367</ele>
        <time>2023-08-12T17:02:37.193Z</time>
      </trkpt>
      <trkpt lat="44.64115" lon="5.33056">
        <ele>904.683836</ele>
        <time>2023-08-12T17:02:38.749Z</time>
      </trkpt>
      <trkpt lat="44.64115" lon="5.33042">
        <ele>903.796276</ele>
        <time>2023-08-12T17:02:39.424Z</time>
      </trkpt>
      <trkpt lat="44.64098" lon="5.32996">
        <ele>900.475866</ele>
        <time>2023-08-12T17:02:41.972Z</time>
      </trkpt>
      <trkpt lat="44.64078" lon="5.32957">
        <ele>897.386627</ele>
        <time>2023-08-12T17:02:44.393Z</time>
      </trkpt>
      <trkpt lat="44.64077" lon="5.32942">
        <ele>896.433575</ele>
        <time>2023-08-12T17:02:45.155Z</time>
      </trkpt>
      <trkpt lat="44.64125" lon="5.32836">
        <ele>889.904938</ele>
        <time>2023-08-12T17:02:51.784Z</time>
      </trkpt>
      <trkpt lat="44.64182" lon="5.32753">
        <ele>884.149808</ele>
        <time>2023-08-12T17:02:57.842Z</time>
      </trkpt>
      <trkpt lat="44.64188" lon="5.32743">
        <ele>883.510255</ele>
        <time>2023-08-12T17:02:58.486Z</time>
      </trkpt>
      <trkpt lat="44.64189" lon="5.32724">
        <ele>882.41793</ele>
        <time>2023-08-12T17:02:59.438Z</time>
      </trkpt>
      <trkpt lat="44.64192" lon="5.32714">
        <ele>881.251533</ele>
        <time>2023-08-12T17:02:59.955Z</time>
      </trkpt>
      <trkpt lat="44.64227" lon="5.32662">
        <ele>873.471724</ele>
        <time>2023-08-12T17:03:03.362Z</time>
      </trkpt>
      <trkpt lat="44.64239" lon="5.32625">
        <ele>868.998614</ele>
        <time>2023-08-12T17:03:05.287Z</time>
      </trkpt>
      <trkpt lat="44.64239" lon="5.32607">
        <ele>867.089469</ele>
        <time>2023-08-12T17:03:06.112Z</time>
      </trkpt>
      <trkpt lat="44.64185" lon="5.32561">
        <ele>857.409726</ele>
        <time>2023-08-12T17:03:10.256Z</time>
      </trkpt>
      <trkpt lat="44.64102" lon="5.32525">
        <ele>843.720203</ele>
        <time>2023-08-12T17:03:15.954Z</time>
      </trkpt>
      <trkpt lat="44.64087" lon="5.32516">
        <ele>841.099232</ele>
        <time>2023-08-12T17:03:17.038Z</time>
      </trkpt>
      <trkpt lat="44.64032" lon="5.32462">
        <ele>830.452614</ele>
        <time>2023-08-12T17:03:21.479Z</time>
      </trkpt>
      <trkpt lat="44.64018" lon="5.32432">
        <ele>826.460259</ele>
        <time>2023-08-12T17:03:23.177Z</time>
      </trkpt>
      <trkpt lat="44.64" lon="5.32416">
        <ele>825.000711</ele>
        <time>2023-08-12T17:03:24.607Z</time>
      </trkpt>
      <trkpt lat="44.63955" lon="5.32365">
        <ele>820.960522</ele>
        <time>2023-08-12T17:03:28.706Z</time>
      </trkpt>
      <trkpt lat="44.63943" lon="5.3236">
        <ele>820.155347</ele>
        <time>2023-08-12T17:03:29.596Z</time>
      </trkpt>
      <trkpt lat="44.63892" lon="5.32349">
        <ele>816.567483</ele>
        <time>2023-08-12T17:03:33.553Z</time>
      </trkpt>
      <trkpt lat="44.63852" lon="5.32333">
        <ele>813.981211</ele>
        <time>2023-08-12T17:03:36.886Z</time>
      </trkpt>
      <trkpt lat="44.63845" lon="5.32325">
        <ele>813.855444</ele>
        <time>2023-08-12T17:03:37.667Z</time>
      </trkpt>
      <trkpt lat="44.63839" lon="5.32312">
        <ele>813.706672</ele>
        <time>2023-08-12T17:03:38.698Z</time>
      </trkpt>
      <trkpt lat="44.63828" lon="5.32269">
        <ele>813.273312</ele>
        <time>2023-08-12T17:03:41.450Z</time>
      </trkpt>
      <trkpt lat="44.63822" lon="5.32229">
        <ele>812.877073</ele>
        <time>2023-08-12T17:03:44.115Z</time>
      </trkpt>
      <trkpt lat="44.63822" lon="5.32192">
        <ele>812.522138</ele>
        <time>2023-08-12T17:03:47.085Z</time>
      </trkpt>
      <trkpt lat="44.63833" lon="5.3212">
        <ele>811.810832</ele>
        <time>2023-08-12T17:03:55.254Z</time>
      </trkpt>
      <trkpt lat="44.63844" lon="5.32025">
        <ele>809.467886</ele>
        <time>2023-08-12T17:04:01.361Z</time>
      </trkpt>
      <trkpt lat="44.63857" lon="5.31998">
        <ele>808.542241</ele>
        <time>2023-08-12T17:04:03.178Z</time>
      </trkpt>
      <trkpt lat="44.63874" lon="5.31985">
        <ele>807.789706</ele>
        <time>2023-08-12T17:04:04.581Z</time>
      </trkpt>
      <trkpt lat="44.63881" lon="5.31974">
        <ele>807.368652</ele>
        <time>2023-08-12T17:04:05.376Z</time>
      </trkpt>
      <trkpt lat="44.63891" lon="5.31941">
        <ele>806.35591</ele>
        <time>2023-08-12T17:04:07.237Z</time>
      </trkpt>
      <trkpt lat="44.63891" lon="5.31911">
        <ele>805.514791</ele>
        <time>2023-08-12T17:04:08.826Z</time>
      </trkpt>
      <trkpt lat="44.63872" lon="5.3185">
        <ele>802.963052</ele>
        <time>2023-08-12T17:04:12.465Z</time>
      </trkpt>
      <trkpt lat="44.63837" lon="5.31749">
        <ele>797.352538</ele>
        <time>2023-08-12T17:04:18.324Z</time>
      </trkpt>
      <trkpt lat="44.63835" lon="5.3173">
        <ele>796.396917</ele>
        <time>2023-08-12T17:04:19.286Z</time>
      </trkpt>
      <trkpt lat="44.63837" lon="5.31717">
        <ele>795.707103</ele>
        <time>2023-08-12T17:04:19.978Z</time>
      </trkpt>
      <trkpt lat="44.63845" lon="5.31705">
        <ele>794.895183</ele>
        <time>2023-08-12T17:04:20.777Z</time>
      </trkpt>
      <trkpt lat="44.63872" lon="5.31689">
        <ele>792.816601</ele>
        <time>2023-08-12T17:04:22.826Z</time>
      </trkpt>
      <trkpt lat="44.63882" lon="5.31674">
        <ele>791.806045</ele>
        <time>2023-08-12T17:04:23.819Z</time>
      </trkpt>
      <trkpt lat="44.6388" lon="5.31654">
        <ele>790.865358</ele>
        <time>2023-08-12T17:04:24.809Z</time>
      </trkpt>
      <trkpt lat="44.63864" lon="5.31615">
        <ele>788.710348</ele>
        <time>2023-08-12T17:04:27.080Z</time>
      </trkpt>
      <trkpt lat="44.63831" lon="5.31567">
        <ele>785.510226</ele>
        <time>2023-08-12T17:04:30.580Z</time>
      </trkpt>
      <trkpt lat="44.63815" lon="5.31539">
        <ele>783.806287</ele>
        <time>2023-08-12T17:04:32.454Z</time>
      </trkpt>
      <trkpt lat="44.63807" lon="5.31512">
        <ele>782.419175</ele>
        <time>2023-08-12T17:04:33.969Z</time>
      </trkpt>
      <trkpt lat="44.63804" lon="5.31488">
        <ele>781.281932</ele>
        <time>2023-08-12T17:04:35.236Z</time>
      </trkpt>
      <trkpt lat="44.63808" lon="5.31466">
        <ele>780.204264</ele>
        <time>2023-08-12T17:04:36.423Z</time>
      </trkpt>
      <trkpt lat="44.63818" lon="5.31426">
        <ele>778.013024</ele>
        <time>2023-08-12T17:04:38.735Z</time>
      </trkpt>
      <trkpt lat="44.6384" lon="5.31371">
        <ele>774.760023</ele>
        <time>2023-08-12T17:04:42.136Z</time>
      </trkpt>
      <trkpt lat="44.63863" lon="5.31343">
        <ele>772.56203</ele>
        <time>2023-08-12T17:04:44.356Z</time>
      </trkpt>
      <trkpt lat="44.63887" lon="5.31327">
        <ele>770.620754</ele>
        <time>2023-08-12T17:04:46.274Z</time>
      </trkpt>
      <trkpt lat="44.63939" lon="5.31312">
        <ele>766.779224</ele>
        <time>2023-08-12T17:04:49.958Z</time>
      </trkpt>
      <trkpt lat="44.63944" lon="5.31302">
        <ele>765.285222</ele>
        <time>2023-08-12T17:04:50.556Z</time>
      </trkpt>
      <trkpt lat="44.63942" lon="5.31283">
        <ele>762.857409</ele>
        <time>2023-08-12T17:04:51.506Z</time>
      </trkpt>
      <trkpt lat="44.63926" lon="5.31263">
        <ele>759.266091</ele>
        <time>2023-08-12T17:04:52.898Z</time>
      </trkpt>
      <trkpt lat="44.6388" lon="5.3122">
        <ele>749.626427</ele>
        <time>2023-08-12T17:04:56.562Z</time>
      </trkpt>
      <trkpt lat="44.6386" lon="5.31197">
        <ele>745.202406</ele>
        <time>2023-08-12T17:04:58.233Z</time>
      </trkpt>
      <trkpt lat="44.6384" lon="5.31182">
        <ele>741.26257</ele>
        <time>2023-08-12T17:04:59.724Z</time>
      </trkpt>
      <trkpt lat="44.63822" lon="5.31161">
        <ele>737.211078</ele>
        <time>2023-08-12T17:05:01.253Z</time>
      </trkpt>
      <trkpt lat="44.63802" lon="5.31154">
        <ele>734.219103</ele>
        <time>2023-08-12T17:05:02.584Z</time>
      </trkpt>
      <trkpt lat="44.63781" lon="5.31151">
        <ele>731.524837</ele>
        <time>2023-08-12T17:05:03.988Z</time>
      </trkpt>
      <trkpt lat="44.63742" lon="5.3116">
        <ele>726.491863</ele>
        <time>2023-08-12T17:05:06.665Z</time>
      </trkpt>
      <trkpt lat="44.63733" lon="5.31156">
        <ele>725.31735</ele>
        <time>2023-08-12T17:05:07.300Z</time>
      </trkpt>
      <trkpt lat="44.63689" lon="5.31123">
        <ele>719.091372</ele>
        <time>2023-08-12T17:05:10.739Z</time>
      </trkpt>
      <trkpt lat="44.63674" lon="5.31104">
        <ele>716.517419</ele>
        <time>2023-08-12T17:05:12.184Z</time>
      </trkpt>
      <trkpt lat="44.6367" lon="5.31095">
        <ele>715.619233</ele>
        <time>2023-08-12T17:05:12.685Z</time>
      </trkpt>
      <trkpt lat="44.6367" lon="5.31066">
        <ele>713.041693</ele>
        <time>2023-08-12T17:05:14.141Z</time>
      </trkpt>
      <trkpt lat="44.63669" lon="5.30997">
        <ele>710.167576</ele>
        <time>2023-08-12T17:05:17.612Z</time>
      </trkpt>
      <trkpt lat="44.63675" lon="5.30968">
        <ele>708.899321</ele>
        <time>2023-08-12T17:05:19.202Z</time>
      </trkpt>
      <trkpt lat="44.63672" lon="5.30957">
        <ele>708.380653</ele>
        <time>2023-08-12T17:05:19.861Z</time>
      </trkpt>
      <trkpt lat="44.63664" lon="5.30956">
        <ele>707.941173</ele>
        <time>2023-08-12T17:05:20.412Z</time>
      </trkpt>
      <trkpt lat="44.6366" lon="5.30961">
        <ele>707.634097</ele>
        <time>2023-08-12T17:05:20.813Z</time>
      </trkpt>
      <trkpt lat="44.63648" lon="5.30993">
        <ele>706.129277</ele>
        <time>2023-08-12T17:05:22.876Z</time>
      </trkpt>
      <trkpt lat="44.63636" lon="5.31018">
        <ele>704.84601</ele>
        <time>2023-08-12T17:05:24.706Z</time>
      </trkpt>
      <trkpt lat="44.63624" lon="5.31036">
        <ele>703.817705</ele>
        <time>2023-08-12T17:05:26.167Z</time>
      </trkpt>
      <trkpt lat="44.63606" lon="5.31045">
        <ele>702.675452</ele>
        <time>2023-08-12T17:05:27.608Z</time>
      </trkpt>
      <trkpt lat="44.63587" lon="5.31041">
        <ele>701.311861</ele>
        <time>2023-08-12T17:05:28.980Z</time>
      </trkpt>
      <trkpt lat="44.63568" lon="5.31029">
        <ele>699.706139</ele>
        <time>2023-08-12T17:05:30.459Z</time>
      </trkpt>
      <trkpt lat="44.63551" lon="5.31011">
        <ele>698.069728</ele>
        <time>2023-08-12T17:05:31.976Z</time>
      </trkpt>
      <trkpt lat="44.63524" lon="5.30974">
        <ele>695.199796</ele>
        <time>2023-08-12T17:05:34.619Z</time>
      </trkpt>
      <trkpt lat="44.63509" lon="5.30954">
        <ele>693.632721</ele>
        <time>2023-08-12T17:05:36.071Z</time>
      </trkpt>
      <trkpt lat="44.63495" lon="5.30927">
        <ele>691.828146</ele>
        <time>2023-08-12T17:05:37.746Z</time>
      </trkpt>
      <trkpt lat="44.63482" lon="5.30894">
        <ele>689.777841</ele>
        <time>2023-08-12T17:05:39.666Z</time>
      </trkpt>
      <trkpt lat="44.63473" lon="5.30857">
        <ele>686.996115</ele>
        <time>2023-08-12T17:05:41.622Z</time>
      </trkpt>
      <trkpt lat="44.63475" lon="5.30793">
        <ele>681.452544</ele>
        <time>2023-08-12T17:05:44.789Z</time>
      </trkpt>
      <trkpt lat="44.6346" lon="5.30683">
        <ele>671.874067</ele>
        <time>2023-08-12T17:05:50.125Z</time>
      </trkpt>
      <trkpt lat="44.63457" lon="5.30647">
        <ele>668.782024</ele>
        <time>2023-08-12T17:05:51.826Z</time>
      </trkpt>
      <trkpt lat="44.63456" lon="5.30615">
        <ele>665.638946</ele>
        <time>2023-08-12T17:05:53.368Z</time>
      </trkpt>
      <trkpt lat="44.63462" lon="5.30555">
        <ele>658.817562</ele>
        <time>2023-08-12T17:05:56.223Z</time>
      </trkpt>
      <trkpt lat="44.63484" lon="5.30455">
        <ele>647.04135</ele>
        <time>2023-08-12T17:06:01.136Z</time>
      </trkpt>
      <trkpt lat="44.63495" lon="5.30388">
        <ele>639.359991</ele>
        <time>2023-08-12T17:06:04.353Z</time>
      </trkpt>
      <trkpt lat="44.63497" lon="5.30355">
        <ele>635.775323</ele>
        <time>2023-08-12T17:06:05.959Z</time>
      </trkpt>
      <trkpt lat="44.63495" lon="5.30288">
        <ele>628.871831</ele>
        <time>2023-08-12T17:06:09.110Z</time>
      </trkpt>
      <trkpt lat="44.63488" lon="5.30251">
        <ele>624.960152</ele>
        <time>2023-08-12T17:06:10.899Z</time>
      </trkpt>
      <trkpt lat="44.63451" lon="5.30131">
        <ele>611.553023</ele>
        <time>2023-08-12T17:06:17.146Z</time>
      </trkpt>
      <trkpt lat="44.63426" lon="5.30026">
        <ele>602.035715</ele>
        <time>2023-08-12T17:06:22.441Z</time>
      </trkpt>
      <trkpt lat="44.63425" lon="5.30011">
        <ele>600.734131</ele>
        <time>2023-08-12T17:06:23.168Z</time>
      </trkpt>
      <trkpt lat="44.63437" lon="5.29984">
        <ele>597.989705</ele>
        <time>2023-08-12T17:06:24.694Z</time>
      </trkpt>
      <trkpt lat="44.63437" lon="5.29972">
        <ele>596.943456</ele>
        <time>2023-08-12T17:06:25.281Z</time>
      </trkpt>
      <trkpt lat="44.63433" lon="5.29969">
        <ele>596.445135</ele>
        <time>2023-08-12T17:06:25.562Z</time>
      </trkpt>
      <trkpt lat="44.63427" lon="5.2997">
        <ele>595.739321</ele>
        <time>2023-08-12T17:06:25.959Z</time>
      </trkpt>
      <trkpt lat="44.63421" lon="5.29976">
        <ele>594.812704</ele>
        <time>2023-08-12T17:06:26.475Z</time>
      </trkpt>
      <trkpt lat="44.63411" lon="5.30004">
        <ele>592.141261</ele>
        <time>2023-08-12T17:06:27.977Z</time>
      </trkpt>
      <trkpt lat="44.6341" lon="5.30017">
        <ele>591.029717</ele>
        <time>2023-08-12T17:06:28.607Z</time>
      </trkpt>
      <trkpt lat="44.63411" lon="5.30043">
        <ele>589.276566</ele>
        <time>2023-08-12T17:06:29.917Z</time>
      </trkpt>
      <trkpt lat="44.63407" lon="5.30142">
        <ele>583.231828</ele>
        <time>2023-08-12T17:06:34.795Z</time>
      </trkpt>
      <trkpt lat="44.63409" lon="5.30218">
        <ele>578.584887</ele>
        <time>2023-08-12T17:06:38.574Z</time>
      </trkpt>
      <trkpt lat="44.63407" lon="5.3025">
        <ele>576.591155</ele>
        <time>2023-08-12T17:06:40.206Z</time>
      </trkpt>
      <trkpt lat="44.63399" lon="5.30328">
        <ele>573.932431</ele>
        <time>2023-08-12T17:06:44.301Z</time>
      </trkpt>
      <trkpt lat="44.63393" lon="5.30344">
        <ele>573.54452</ele>
        <time>2023-08-12T17:06:45.292Z</time>
      </trkpt>
      <trkpt lat="44.63361" lon="5.30405">
        <ele>571.839589</ele>
        <time>2023-08-12T17:06:50.370Z</time>
      </trkpt>
      <trkpt lat="44.63311" lon="5.30478">
        <ele>569.584579</ele>
        <time>2023-08-12T17:06:57.851Z</time>
      </trkpt>
      <trkpt lat="44.63299" lon="5.30499">
        <ele>568.000046</ele>
        <time>2023-08-12T17:06:59.446Z</time>
      </trkpt>
      <trkpt lat="44.63292" lon="5.30527">
        <ele>566.191397</ele>
        <time>2023-08-12T17:07:01.038Z</time>
      </trkpt>
      <trkpt lat="44.63291" lon="5.30558">
        <ele>564.27051</ele>
        <time>2023-08-12T17:07:02.691Z</time>
      </trkpt>
      <trkpt lat="44.63283" lon="5.30576">
        <ele>562.942182</ele>
        <time>2023-08-12T17:07:03.785Z</time>
      </trkpt>
      <trkpt lat="44.63265" lon="5.3058">
        <ele>561.406998</ele>
        <time>2023-08-12T17:07:05.043Z</time>
      </trkpt>
      <trkpt lat="44.63214" lon="5.3057">
        <ele>556.89317</ele>
        <time>2023-08-12T17:07:08.577Z</time>
      </trkpt>
      <trkpt lat="44.63196" lon="5.3057">
        <ele>555.319007</ele>
        <time>2023-08-12T17:07:09.798Z</time>
      </trkpt>
      <trkpt lat="44.63159" lon="5.30583">
        <ele>551.345232</ele>
        <time>2023-08-12T17:07:12.324Z</time>
      </trkpt>
      <trkpt lat="44.63142" lon="5.30596">
        <ele>549.092169</ele>
        <time>2023-08-12T17:07:13.601Z</time>
      </trkpt>
      <trkpt lat="44.63132" lon="5.30607">
        <ele>547.576159</ele>
        <time>2023-08-12T17:07:14.468Z</time>
      </trkpt>
      <trkpt lat="44.63126" lon="5.30609">
        <ele>546.881068</ele>
        <time>2023-08-12T17:07:14.863Z</time>
      </trkpt>
      <trkpt lat="44.63075" lon="5.30602">
        <ele>540.95353</ele>
        <time>2023-08-12T17:07:18.278Z</time>
      </trkpt>
      <trkpt lat="44.63055" lon="5.30609">
        <ele>538.469398</ele>
        <time>2023-08-12T17:07:19.733Z</time>
      </trkpt>
      <trkpt lat="44.6305" lon="5.30609">
        <ele>537.905468</ele>
        <time>2023-08-12T17:07:20.062Z</time>
      </trkpt>
      <trkpt lat="44.63047" lon="5.30604">
        <ele>537.339231</ele>
        <time>2023-08-12T17:07:20.394Z</time>
      </trkpt>
      <trkpt lat="44.63046" lon="5.30596">
        <ele>536.696269</ele>
        <time>2023-08-12T17:07:20.772Z</time>
      </trkpt>
      <trkpt lat="44.6305" lon="5.30589">
        <ele>536.031147</ele>
        <time>2023-08-12T17:07:21.172Z</time>
      </trkpt>
      <trkpt lat="44.63059" lon="5.30584">
        <ele>534.859836</ele>
        <time>2023-08-12T17:07:21.882Z</time>
      </trkpt>
      <trkpt lat="44.63079" lon="5.30577">
        <ele>532.594768</ele>
        <time>2023-08-12T17:07:23.315Z</time>
      </trkpt>
      <trkpt lat="44.63111" lon="5.30574">
        <ele>529.917557</ele>
        <time>2023-08-12T17:07:25.607Z</time>
      </trkpt>
      <trkpt lat="44.63117" lon="5.30568">
        <ele>529.311961</ele>
        <time>2023-08-12T17:07:26.128Z</time>
      </trkpt>
      <trkpt lat="44.63133" lon="5.30535">
        <ele>526.973554</ele>
        <time>2023-08-12T17:07:28.154Z</time>
      </trkpt>
      <trkpt lat="44.63148" lon="5.30517">
        <ele>525.344446</ele>
        <time>2023-08-12T17:07:29.574Z</time>
      </trkpt>
      <trkpt lat="44.63185" lon="5.30497">
        <ele>522.032509</ele>
        <time>2023-08-12T17:07:32.448Z</time>
      </trkpt>
      <trkpt lat="44.63195" lon="5.30495">
        <ele>521.167072</ele>
        <time>2023-08-12T17:07:33.188Z</time>
      </trkpt>
      <trkpt lat="44.63215" lon="5.30499">
        <ele>519.516664</ele>
        <time>2023-08-12T17:07:34.573Z</time>
      </trkpt>
      <trkpt lat="44.63222" lon="5.30497">
        <ele>518.979773</ele>
        <time>2023-08-12T17:07:35.016Z</time>
      </trkpt>
      <trkpt lat="44.63226" lon="5.30491">
        <ele>518.443159</ele>
        <time>2023-08-12T17:07:35.456Z</time>
      </trkpt>
      <trkpt lat="44.63227" lon="5.3048">
        <ele>517.754196</ele>
        <time>2023-08-12T17:07:35.978Z</time>
      </trkpt>
      <trkpt lat="44.63224" lon="5.3042">
        <ele>513.049873</ele>
        <time>2023-08-12T17:07:38.873Z</time>
      </trkpt>
      <trkpt lat="44.63225" lon="5.30401">
        <ele>511.53975</ele>
        <time>2023-08-12T17:07:39.803Z</time>
      </trkpt>
      <trkpt lat="44.63224" lon="5.30389">
        <ele>510.626661</ele>
        <time>2023-08-12T17:07:40.360Z</time>
      </trkpt>
      <trkpt lat="44.63215" lon="5.30359">
        <ele>508.051696</ele>
        <time>2023-08-12T17:07:41.934Z</time>
      </trkpt>
      <trkpt lat="44.63215" lon="5.30343">
        <ele>506.777532</ele>
        <time>2023-08-12T17:07:42.717Z</time>
      </trkpt>
      <trkpt lat="44.63219" lon="5.30332">
        <ele>505.829051</ele>
        <time>2023-08-12T17:07:43.305Z</time>
      </trkpt>
      <trkpt lat="44.63227" lon="5.30322">
        <ele>504.714126</ele>
        <time>2023-08-12T17:07:43.986Z</time>
      </trkpt>
      <trkpt lat="44.63239" lon="5.30315">
        <ele>503.278245</ele>
        <time>2023-08-12T17:07:44.881Z</time>
      </trkpt>
      <trkpt lat="44.63241" lon="5.30308">
        <ele>502.681544</ele>
        <time>2023-08-12T17:07:45.249Z</time>
      </trkpt>
      <trkpt lat="44.63239" lon="5.30299">
        <ele>501.996716</ele>
        <time>2023-08-12T17:07:45.677Z</time>
      </trkpt>
      <trkpt lat="44.63235" lon="5.30295">
        <ele>501.416155</ele>
        <time>2023-08-12T17:07:46.037Z</time>
      </trkpt>
      <trkpt lat="44.63229" lon="5.30296">
        <ele>500.756561</ele>
        <time>2023-08-12T17:07:46.446Z</time>
      </trkpt>
      <trkpt lat="44.63202" lon="5.30317">
        <ele>497.593695</ele>
        <time>2023-08-12T17:07:48.608Z</time>
      </trkpt>
      <trkpt lat="44.63194" lon="5.30325">
        <ele>496.79521</ele>
        <time>2023-08-12T17:07:49.303Z</time>
      </trkpt>
      <trkpt lat="44.63188" lon="5.30338">
        <ele>495.945166</ele>
        <time>2023-08-12T17:07:50.061Z</time>
      </trkpt>
      <trkpt lat="44.63186" lon="5.30353">
        <ele>495.087539</ele>
        <time>2023-08-12T17:07:50.830Z</time>
      </trkpt>
      <trkpt lat="44.63187" lon="5.30398">
        <ele>492.503202</ele>
        <time>2023-08-12T17:07:53.212Z</time>
      </trkpt>
      <trkpt lat="44.63184" lon="5.30413">
        <ele>491.65148</ele>
        <time>2023-08-12T17:07:54.000Z</time>
      </trkpt>
      <trkpt lat="44.63179" lon="5.30422">
        <ele>490.980686</ele>
        <time>2023-08-12T17:07:54.634Z</time>
      </trkpt>
      <trkpt lat="44.63172" lon="5.30424">
        <ele>490.417809</ele>
        <time>2023-08-12T17:07:55.165Z</time>
      </trkpt>
      <trkpt lat="44.63118" lon="5.30413">
        <ele>486.084034</ele>
        <time>2023-08-12T17:07:59.111Z</time>
      </trkpt>
      <trkpt lat="44.63093" lon="5.30422">
        <ele>484.057412</ele>
        <time>2023-08-12T17:08:00.878Z</time>
      </trkpt>
      <trkpt lat="44.63085" lon="5.30421">
        <ele>483.15455</ele>
        <time>2023-08-12T17:08:01.438Z</time>
      </trkpt>
      <trkpt lat="44.63066" lon="5.30408">
        <ele>480.555302</ele>
        <time>2023-08-12T17:08:02.924Z</time>
      </trkpt>
      <trkpt lat="44.6302" lon="5.30365">
        <ele>474.038551</ele>
        <time>2023-08-12T17:08:06.618Z</time>
      </trkpt>
      <trkpt lat="44.62977" lon="5.30316">
        <ele>467.460826</ele>
        <time>2023-08-12T17:08:10.328Z</time>
      </trkpt>
      <trkpt lat="44.62961" lon="5.30305">
        <ele>465.28471</ele>
        <time>2023-08-12T17:08:11.565Z</time>
      </trkpt>
      <trkpt lat="44.62937" lon="5.30298">
        <ele>462.49848</ele>
        <time>2023-08-12T17:08:13.159Z</time>
      </trkpt>
      <trkpt lat="44.62934" lon="5.30294">
        <ele>462.194682</ele>
        <time>2023-08-12T17:08:13.451Z</time>
      </trkpt>
      <trkpt lat="44.62934" lon="5.30287">
        <ele>461.842982</ele>
        <time>2023-08-12T17:08:13.798Z</time>
      </trkpt>
      <trkpt lat="44.62937" lon="5.30281">
        <ele>461.518716</ele>
        <time>2023-08-12T17:08:14.117Z</time>
      </trkpt>
      <trkpt lat="44.62943" lon="5.30275">
        <ele>461.012925</ele>
        <time>2023-08-12T17:08:14.613Z</time>
      </trkpt>
      <trkpt lat="44.62955" lon="5.30271">
        <ele>460.152714</ele>
        <time>2023-08-12T17:08:15.468Z</time>
      </trkpt>
      <trkpt lat="44.63012" lon="5.30266">
        <ele>456.194616</ele>
        <time>2023-08-12T17:08:19.457Z</time>
      </trkpt>
      <trkpt lat="44.6305" lon="5.30253">
        <ele>453.558528</ele>
        <time>2023-08-12T17:08:22.361Z</time>
      </trkpt>
      <trkpt lat="44.63055" lon="5.30247">
        <ele>453.076062</ele>
        <time>2023-08-12T17:08:22.956Z</time>
      </trkpt>
      <trkpt lat="44.63054" lon="5.30229">
        <ele>452.201209</ele>
        <time>2023-08-12T17:08:24.020Z</time>
      </trkpt>
      <trkpt lat="44.63047" lon="5.30213">
        <ele>451.245989</ele>
        <time>2023-08-12T17:08:25.321Z</time>
      </trkpt>
      <trkpt lat="44.6296" lon="5.30231">
        <ele>449.954825</ele>
        <time>2023-08-12T17:08:35.950Z</time>
      </trkpt>
      <trkpt lat="44.62927" lon="5.3025">
        <ele>449.833303</ele>
        <time>2023-08-12T17:08:39.301Z</time>
      </trkpt>
      <trkpt lat="44.62919" lon="5.30253">
        <ele>449.80543</ele>
        <time>2023-08-12T17:08:40.014Z</time>
      </trkpt>
      <trkpt lat="44.62912" lon="5.3025">
        <ele>449.780545</ele>
        <time>2023-08-12T17:08:40.655Z</time>
      </trkpt>
      <trkpt lat="44.62885" lon="5.30232">
        <ele>449.680303</ele>
        <time>2023-08-12T17:08:44.159Z</time>
      </trkpt>
      <trkpt lat="44.62876" lon="5.30231">
        <ele>449.650107</ele>
        <time>2023-08-12T17:08:45.507Z</time>
      </trkpt>
      <trkpt lat="44.62868" lon="5.30236">
        <ele>449.61987</ele>
        <time>2023-08-12T17:08:46.872Z</time>
      </trkpt>
      <trkpt lat="44.62842" lon="5.30276">
        <ele>450.784175</ele>
        <time>2023-08-12T17:08:52.786Z</time>
      </trkpt>
      <trkpt lat="44.62828" lon="5.30291">
        <ele>451.501281</ele>
        <time>2023-08-12T17:08:55.797Z</time>
      </trkpt>
      <trkpt lat="44.62816" lon="5.30309">
        <ele>452.219433</ele>
        <time>2023-08-12T17:08:59.749Z</time>
      </trkpt>
      <trkpt lat="44.62804" lon="5.30337">
        <ele>453.12699</ele>
        <time>2023-08-12T17:09:04.610Z</time>
      </trkpt>
      <trkpt lat="44.62794" lon="5.30372">
        <ele>454.223408</ele>
        <time>2023-08-12T17:09:11.653Z</time>
      </trkpt>
      <trkpt lat="44.62783" lon="5.30375">
        <ele>454.651334</ele>
        <time>2023-08-12T17:09:14.825Z</time>
      </trkpt>
      <trkpt lat="44.62777" lon="5.3037">
        <ele>454.962409</ele>
        <time>2023-08-12T17:09:17.094Z</time>
      </trkpt>
      <trkpt lat="44.62749" lon="5.3031">
        <ele>457.248667</ele>
        <time>2023-08-12T17:09:33.247Z</time>
      </trkpt>
      <trkpt lat="44.62743" lon="5.30301">
        <ele>457.968227</ele>
        <time>2023-08-12T17:09:36.381Z</time>
      </trkpt>
      <trkpt lat="44.62734" lon="5.30293">
        <ele>458.905493</ele>
        <time>2023-08-12T17:09:40.779Z</time>
      </trkpt>
      <trkpt lat="44.62712" lon="5.30285">
        <ele>460.86367</ele>
        <time>2023-08-12T17:09:50.069Z</time>
      </trkpt>
      <trkpt lat="44.62655" lon="5.3028">
        <ele>465.791856</ele>
        <time>2023-08-12T17:10:15.017Z</time>
      </trkpt>
      <trkpt lat="44.6263" lon="5.30282">
        <ele>467.919852</ele>
        <time>2023-08-12T17:10:25.678Z</time>
      </trkpt>
      <trkpt lat="44.62605" lon="5.30275">
        <ele>470.187134</ele>
        <time>2023-08-12T17:10:36.544Z</time>
      </trkpt>
      <trkpt lat="44.62599" lon="5.30278">
        <ele>470.696287</ele>
        <time>2023-08-12T17:10:39.098Z</time>
      </trkpt>
      <trkpt lat="44.62593" lon="5.30288">
        <ele>471.514865</ele>
        <time>2023-08-12T17:10:42.988Z</time>
      </trkpt>
      <trkpt lat="44.62586" lon="5.30325">
        <ele>472.608702</ele>
        <time>2023-08-12T17:10:53.727Z</time>
      </trkpt>
      <trkpt lat="44.6258" lon="5.30342">
        <ele>472.82355</ele>
        <time>2023-08-12T17:10:58.719Z</time>
      </trkpt>
      <trkpt lat="44.62569" lon="5.30365">
        <ele>473.120963</ele>
        <time>2023-08-12T17:11:04.641Z</time>
      </trkpt>
      <trkpt lat="44.62535" lon="5.30421">
        <ele>473.937998</ele>
        <time>2023-08-12T17:11:13.645Z</time>
      </trkpt>
      <trkpt lat="44.62528" lon="5.30437">
        <ele>474.15291</ele>
        <time>2023-08-12T17:11:14.925Z</time>
      </trkpt>
      <trkpt lat="44.62519" lon="5.30466">
        <ele>474.509832</ele>
        <time>2023-08-12T17:11:16.927Z</time>
      </trkpt>
      <trkpt lat="44.62502" lon="5.30495">
        <ele>474.922822</ele>
        <time>2023-08-12T17:11:19.049Z</time>
      </trkpt>
      <trkpt lat="44.62497" lon="5.3051">
        <ele>475.10203</ele>
        <time>2023-08-12T17:11:19.963Z</time>
      </trkpt>
      <trkpt lat="44.62496" lon="5.3054">
        <ele>474.524094</ele>
        <time>2023-08-12T17:11:21.640Z</time>
      </trkpt>
      <trkpt lat="44.62488" lon="5.3057">
        <ele>473.816349</ele>
        <time>2023-08-12T17:11:23.342Z</time>
      </trkpt>
      <trkpt lat="44.6248" lon="5.30588">
        <ele>473.318369</ele>
        <time>2023-08-12T17:11:24.552Z</time>
      </trkpt>
      <trkpt lat="44.62464" lon="5.30608">
        <ele>472.633375</ele>
        <time>2023-08-12T17:11:26.198Z</time>
      </trkpt>
      <trkpt lat="44.62426" lon="5.3062">
        <ele>471.411477</ele>
        <time>2023-08-12T17:11:29.148Z</time>
      </trkpt>
      <trkpt lat="44.62391" lon="5.30636">
        <ele>470.214945</ele>
        <time>2023-08-12T17:11:32.151Z</time>
      </trkpt>
      <trkpt lat="44.62368" lon="5.30657">
        <ele>469.474555</ele>
        <time>2023-08-12T17:11:34.404Z</time>
      </trkpt>
      <trkpt lat="44.62358" lon="5.30661">
        <ele>469.932968</ele>
        <time>2023-08-12T17:11:35.492Z</time>
      </trkpt>
      <trkpt lat="44.62345" lon="5.3066">
        <ele>470.49122</ele>
        <time>2023-08-12T17:11:37.283Z</time>
      </trkpt>
      <trkpt lat="44.62337" lon="5.30654">
        <ele>470.893897</ele>
        <time>2023-08-12T17:11:39.080Z</time>
      </trkpt>
      <trkpt lat="44.62312" lon="5.30627">
        <ele>472.229889</ele>
        <time>2023-08-12T17:11:46.153Z</time>
      </trkpt>
      <trkpt lat="44.6228" lon="5.306">
        <ele>473.841444</ele>
        <time>2023-08-12T17:11:56.865Z</time>
      </trkpt>
      <trkpt lat="44.6223" lon="5.30581">
        <ele>476.041093</ele>
        <time>2023-08-12T17:12:14.375Z</time>
      </trkpt>
      <trkpt lat="44.62201" lon="5.30564">
        <ele>477.58898</ele>
        <time>2023-08-12T17:12:25.741Z</time>
      </trkpt>
      <trkpt lat="44.62181" lon="5.30555">
        <ele>479.148742</ele>
        <time>2023-08-12T17:12:33.473Z</time>
      </trkpt>
      <trkpt lat="44.62157" lon="5.30549">
        <ele>480.914526</ele>
        <time>2023-08-12T17:12:42.966Z</time>
      </trkpt>
      <trkpt lat="44.62092" lon="5.30557">
        <ele>485.661759</ele>
        <time>2023-08-12T17:13:06.584Z</time>
      </trkpt>
      <trkpt lat="44.62054" lon="5.30554">
        <ele>488.395471</ele>
        <time>2023-08-12T17:13:19.274Z</time>
      </trkpt>
      <trkpt lat="44.62026" lon="5.30566">
        <ele>490.545136</ele>
        <time>2023-08-12T17:13:28.833Z</time>
      </trkpt>
      <trkpt lat="44.62009" lon="5.30567">
        <ele>491.719653</ele>
        <time>2023-08-12T17:13:34.179Z</time>
      </trkpt>
      <trkpt lat="44.61982" lon="5.30555">
        <ele>493.711723</ele>
        <time>2023-08-12T17:13:43.335Z</time>
      </trkpt>
      <trkpt lat="44.61965" lon="5.30542">
        <ele>495.054081</ele>
        <time>2023-08-12T17:13:49.683Z</time>
      </trkpt>
      <trkpt lat="44.61917" lon="5.3052">
        <ele>498.645429</ele>
        <time>2023-08-12T17:14:07.655Z</time>
      </trkpt>
      <trkpt lat="44.61906" lon="5.30513">
        <ele>499.503454</ele>
        <time>2023-08-12T17:14:12.226Z</time>
      </trkpt>
      <trkpt lat="44.61902" lon="5.30506">
        <ele>499.954452</ele>
        <time>2023-08-12T17:14:14.656Z</time>
      </trkpt>
      <trkpt lat="44.61902" lon="5.30496">
        <ele>500.478168</ele>
        <time>2023-08-12T17:14:17.477Z</time>
      </trkpt>
      <trkpt lat="44.61906" lon="5.3049">
        <ele>500.876872</ele>
        <time>2023-08-12T17:14:19.611Z</time>
      </trkpt>
      <trkpt lat="44.61953" lon="5.30468">
        <ele>503.624098</ele>
        <time>2023-08-12T17:14:37.741Z</time>
      </trkpt>
      <trkpt lat="44.61975" lon="5.30449">
        <ele>504.507637</ele>
        <time>2023-08-12T17:14:46.221Z</time>
      </trkpt>
      <trkpt lat="44.62028" lon="5.30413">
        <ele>506.5563</ele>
        <time>2023-08-12T17:15:01.560Z</time>
      </trkpt>
      <trkpt lat="44.62042" lon="5.30397">
        <ele>507.178829</ele>
        <time>2023-08-12T17:15:04.904Z</time>
      </trkpt>
      <trkpt lat="44.62054" lon="5.30377">
        <ele>507.816564</ele>
        <time>2023-08-12T17:15:07.982Z</time>
      </trkpt>
      <trkpt lat="44.62075" lon="5.30328">
        <ele>509.079864</ele>
        <time>2023-08-12T17:15:12.400Z</time>
      </trkpt>
      <trkpt lat="44.62083" lon="5.30299">
        <ele>508.886006</ele>
        <time>2023-08-12T17:15:14.393Z</time>
      </trkpt>
      <trkpt lat="44.62082" lon="5.30278">
        <ele>508.747418</ele>
        <time>2023-08-12T17:15:15.758Z</time>
      </trkpt>
      <trkpt lat="44.62059" lon="5.30157">
        <ele>507.955411</ele>
        <time>2023-08-12T17:15:23.117Z</time>
      </trkpt>
      <trkpt lat="44.62052" lon="5.30126">
        <ele>507.746443</ele>
        <time>2023-08-12T17:15:25.233Z</time>
      </trkpt>
      <trkpt lat="44.62019" lon="5.30047">
        <ele>510.239808</ele>
        <time>2023-08-12T17:15:37.124Z</time>
      </trkpt>
      <trkpt lat="44.62015" lon="5.30031">
        <ele>511.134137</ele>
        <time>2023-08-12T17:15:40.970Z</time>
      </trkpt>
      <trkpt lat="44.62024" lon="5.29948">
        <ele>515.42748</ele>
        <time>2023-08-12T17:16:04.610Z</time>
      </trkpt>
      <trkpt lat="44.62027" lon="5.29903">
        <ele>517.748654</ele>
        <time>2023-08-12T17:16:19.577Z</time>
      </trkpt>
      <trkpt lat="44.62031" lon="5.29881">
        <ele>518.920293</ele>
        <time>2023-08-12T17:16:27.303Z</time>
      </trkpt>
      <trkpt lat="44.62038" lon="5.29872">
        <ele>519.618462</ele>
        <time>2023-08-12T17:16:31.623Z</time>
      </trkpt>
      <trkpt lat="44.62051" lon="5.29866">
        <ele>520.553741</ele>
        <time>2023-08-12T17:16:37.169Z</time>
      </trkpt>
      <trkpt lat="44.62091" lon="5.29869">
        <ele>523.440693</ele>
        <time>2023-08-12T17:16:54.190Z</time>
      </trkpt>
      <trkpt lat="44.62108" lon="5.29865">
        <ele>524.709564</ele>
        <time>2023-08-12T17:17:01.318Z</time>
      </trkpt>
      <trkpt lat="44.6213" lon="5.29848">
        <ele>526.507686</ele>
        <time>2023-08-12T17:17:11.220Z</time>
      </trkpt>
      <trkpt lat="44.62162" lon="5.2983">
        <ele>528.967392</ele>
        <time>2023-08-12T17:17:23.785Z</time>
      </trkpt>
      <trkpt lat="44.6217" lon="5.2982">
        <ele>529.743605</ele>
        <time>2023-08-12T17:17:27.308Z</time>
      </trkpt>
      <trkpt lat="44.62173" lon="5.2981">
        <ele>530.318711</ele>
        <time>2023-08-12T17:17:29.754Z</time>
      </trkpt>
      <trkpt lat="44.62174" lon="5.29798">
        <ele>530.966784</ele>
        <time>2023-08-12T17:17:32.452Z</time>
      </trkpt>
      <trkpt lat="44.62168" lon="5.29764">
        <ele>532.72278</ele>
        <time>2023-08-12T17:17:38.970Z</time>
      </trkpt>
      <trkpt lat="44.6217" lon="5.29753">
        <ele>533.290425</ele>
        <time>2023-08-12T17:17:40.740Z</time>
      </trkpt>
      <trkpt lat="44.6218" lon="5.29731">
        <ele>533.905134</ele>
        <time>2023-08-12T17:17:44.683Z</time>
      </trkpt>
      <trkpt lat="44.62182" lon="5.29721">
        <ele>534.125579</ele>
        <time>2023-08-12T17:17:46.022Z</time>
      </trkpt>
      <trkpt lat="44.62181" lon="5.29708">
        <ele>534.387606</ele>
        <time>2023-08-12T17:17:47.484Z</time>
      </trkpt>
      <trkpt lat="44.62167" lon="5.29671">
        <ele>535.2081</ele>
        <time>2023-08-12T17:17:51.850Z</time>
      </trkpt>
      <trkpt lat="44.62162" lon="5.29638">
        <ele>535.889621</ele>
        <time>2023-08-12T17:17:55.731Z</time>
      </trkpt>
      <trkpt lat="44.62154" lon="5.2963">
        <ele>536.146503</ele>
        <time>2023-08-12T17:17:57.204Z</time>
      </trkpt>
      <trkpt lat="44.62145" lon="5.29626">
        <ele>536.423762</ele>
        <time>2023-08-12T17:17:58.998Z</time>
      </trkpt>
      <trkpt lat="44.62135" lon="5.29632">
        <ele>536.708669</ele>
        <time>2023-08-12T17:18:01.036Z</time>
      </trkpt>
      <trkpt lat="44.62107" lon="5.29661">
        <ele>537.683762</ele>
        <time>2023-08-12T17:18:08.743Z</time>
      </trkpt>
      <trkpt lat="44.62094" lon="5.29663">
        <ele>538.033608</ele>
        <time>2023-08-12T17:18:11.848Z</time>
      </trkpt>
      <trkpt lat="44.62083" lon="5.29656">
        <ele>538.381572</ele>
        <time>2023-08-12T17:18:14.918Z</time>
      </trkpt>
      <trkpt lat="44.62062" lon="5.29625">
        <ele>539.369044</ele>
        <time>2023-08-12T17:18:22.816Z</time>
      </trkpt>
      <trkpt lat="44.62042" lon="5.29602">
        <ele>540.241066</ele>
        <time>2023-08-12T17:18:29.433Z</time>
      </trkpt>
      <trkpt lat="44.62027" lon="5.29591">
        <ele>540.795856</ele>
        <time>2023-08-12T17:18:33.598Z</time>
      </trkpt>
      <trkpt lat="44.62" lon="5.29587">
        <ele>541.719901</ele>
        <time>2023-08-12T17:18:40.389Z</time>
      </trkpt>
      <trkpt lat="44.61967" lon="5.29591">
        <ele>542.803429</ele>
        <time>2023-08-12T17:18:47.975Z</time>
      </trkpt>
      <trkpt lat="44.61926" lon="5.29615">
        <ele>544.274845</ele>
        <time>2023-08-12T17:18:57.219Z</time>
      </trkpt>
      <trkpt lat="44.61895" lon="5.29646">
        <ele>544.455912</ele>
        <time>2023-08-12T17:19:03.613Z</time>
      </trkpt>
      <trkpt lat="44.61882" lon="5.29647">
        <ele>544.469675</ele>
        <time>2023-08-12T17:19:05.131Z</time>
      </trkpt>
      <trkpt lat="44.61876" lon="5.29637">
        <ele>544.480228</ele>
        <time>2023-08-12T17:19:06.511Z</time>
      </trkpt>
      <trkpt lat="44.61872" lon="5.2962">
        <ele>544.493793</ele>
        <time>2023-08-12T17:19:08.008Z</time>
      </trkpt>
      <trkpt lat="44.61872" lon="5.29592">
        <ele>544.516359</ele>
        <time>2023-08-12T17:19:10.258Z</time>
      </trkpt>
      <trkpt lat="44.61868" lon="5.29565">
        <ele>544.537378</ele>
        <time>2023-08-12T17:19:12.636Z</time>
      </trkpt>
      <trkpt lat="44.61853" lon="5.2952">
        <ele>544.576499</ele>
        <time>2023-08-12T17:19:17.602Z</time>
      </trkpt>
      <trkpt lat="44.6185" lon="5.29501">
        <ele>544.592102</ele>
        <time>2023-08-12T17:19:18.993Z</time>
      </trkpt>
      <trkpt lat="44.6185" lon="5.29454">
        <ele>544.187654</ele>
        <time>2023-08-12T17:19:21.960Z</time>
      </trkpt>
      <trkpt lat="44.6184" lon="5.29409">
        <ele>542.839018</ele>
        <time>2023-08-12T17:19:24.738Z</time>
      </trkpt>
      <trkpt lat="44.61845" lon="5.29371">
        <ele>541.741973</ele>
        <time>2023-08-12T17:19:26.916Z</time>
      </trkpt>
      <trkpt lat="44.61842" lon="5.29358">
        <ele>541.342444</ele>
        <time>2023-08-12T17:19:27.679Z</time>
      </trkpt>
      <trkpt lat="44.61836" lon="5.2935">
        <ele>541.012817</ele>
        <time>2023-08-12T17:19:28.328Z</time>
      </trkpt>
      <trkpt lat="44.61829" lon="5.29346">
        <ele>540.721929</ele>
        <time>2023-08-12T17:19:28.879Z</time>
      </trkpt>
      <trkpt lat="44.61821" lon="5.29346">
        <ele>540.38199</ele>
        <time>2023-08-12T17:19:29.538Z</time>
      </trkpt>
      <trkpt lat="44.61811" lon="5.29355">
        <ele>539.907528</ele>
        <time>2023-08-12T17:19:30.430Z</time>
      </trkpt>
      <trkpt lat="44.61797" lon="5.29387">
        <ele>538.831928</ele>
        <time>2023-08-12T17:19:32.478Z</time>
      </trkpt>
      <trkpt lat="44.61781" lon="5.29411">
        <ele>537.89642</ele>
        <time>2023-08-12T17:19:34.234Z</time>
      </trkpt>
      <trkpt lat="44.61763" lon="5.29428">
        <ele>536.791694</ele>
        <time>2023-08-12T17:19:35.869Z</time>
      </trkpt>
      <trkpt lat="44.61718" lon="5.29461">
        <ele>533.631891</ele>
        <time>2023-08-12T17:19:39.541Z</time>
      </trkpt>
      <trkpt lat="44.61695" lon="5.2949">
        <ele>531.723169</ele>
        <time>2023-08-12T17:19:41.683Z</time>
      </trkpt>
      <trkpt lat="44.61681" lon="5.29496">
        <ele>530.799301</ele>
        <time>2023-08-12T17:19:42.726Z</time>
      </trkpt>
      <trkpt lat="44.61669" lon="5.29494">
        <ele>530.044968</ele>
        <time>2023-08-12T17:19:43.582Z</time>
      </trkpt>
      <trkpt lat="44.61659" lon="5.29482">
        <ele>529.214722</ele>
        <time>2023-08-12T17:19:44.531Z</time>
      </trkpt>
      <trkpt lat="44.61648" lon="5.29443">
        <ele>527.334735</ele>
        <time>2023-08-12T17:19:46.748Z</time>
      </trkpt>
      <trkpt lat="44.61639" lon="5.29423">
        <ele>526.286399</ele>
        <time>2023-08-12T17:19:48.024Z</time>
      </trkpt>
      <trkpt lat="44.61606" lon="5.29377">
        <ele>525.273069</ele>
        <time>2023-08-12T17:19:51.723Z</time>
      </trkpt>
      <trkpt lat="44.61592" lon="5.2937">
        <ele>524.970041</ele>
        <time>2023-08-12T17:19:52.961Z</time>
      </trkpt>
      <trkpt lat="44.61544" lon="5.29365">
        <ele>523.973752</ele>
        <time>2023-08-12T17:19:57.368Z</time>
      </trkpt>
      <trkpt lat="44.61508" lon="5.29346">
        <ele>523.185136</ele>
        <time>2023-08-12T17:20:01.070Z</time>
      </trkpt>
      <trkpt lat="44.61493" lon="5.29343">
        <ele>522.866956</ele>
        <time>2023-08-12T17:20:02.566Z</time>
      </trkpt>
      <trkpt lat="44.61481" lon="5.29346">
        <ele>522.608175</ele>
        <time>2023-08-12T17:20:03.890Z</time>
      </trkpt>
      <trkpt lat="44.61405" lon="5.2939">
        <ele>521.707541</ele>
        <time>2023-08-12T17:20:13.080Z</time>
      </trkpt>
      <trkpt lat="44.61357" lon="5.29406">
        <ele>521.206302</ele>
        <time>2023-08-12T17:20:18.494Z</time>
      </trkpt>
      <trkpt lat="44.61336" lon="5.29404">
        <ele>520.999006</ele>
        <time>2023-08-12T17:20:20.448Z</time>
      </trkpt>
      <trkpt lat="44.61245" lon="5.2937">
        <ele>518.32238</ele>
        <time>2023-08-12T17:20:28.284Z</time>
      </trkpt>
      <trkpt lat="44.61227" lon="5.29369">
        <ele>517.592622</ele>
        <time>2023-08-12T17:20:29.762Z</time>
      </trkpt>
      <trkpt lat="44.61173" lon="5.29381">
        <ele>515.455797</ele>
        <time>2023-08-12T17:20:34.035Z</time>
      </trkpt>
      <trkpt lat="44.61144" lon="5.29397">
        <ele>514.247958</ele>
        <time>2023-08-12T17:20:36.402Z</time>
      </trkpt>
      <trkpt lat="44.61131" lon="5.29397">
        <ele>513.767984</ele>
        <time>2023-08-12T17:20:37.317Z</time>
      </trkpt>
      <trkpt lat="44.61059" lon="5.29369">
        <ele>510.373813</ele>
        <time>2023-08-12T17:20:42.788Z</time>
      </trkpt>
      <trkpt lat="44.61014" lon="5.29341">
        <ele>508.106142</ele>
        <time>2023-08-12T17:20:46.501Z</time>
      </trkpt>
      <trkpt lat="44.60984" lon="5.2933">
        <ele>506.669432</ele>
        <time>2023-08-12T17:20:48.950Z</time>
      </trkpt>
      <trkpt lat="44.6095" lon="5.2933">
        <ele>505.385192</ele>
        <time>2023-08-12T17:20:51.669Z</time>
      </trkpt>
      <trkpt lat="44.6094" lon="5.29327">
        <ele>505.360142</ele>
        <time>2023-08-12T17:20:52.641Z</time>
      </trkpt>
      <trkpt lat="44.60918" lon="5.29305">
        <ele>505.300381</ele>
        <time>2023-08-12T17:20:55.012Z</time>
      </trkpt>
      <trkpt lat="44.60901" lon="5.29269">
        <ele>505.229492</ele>
        <time>2023-08-12T17:20:58.610Z</time>
      </trkpt>
      <trkpt lat="44.60893" lon="5.29257">
        <ele>505.202329</ele>
        <time>2023-08-12T17:21:00.324Z</time>
      </trkpt>
      <trkpt lat="44.60832" lon="5.2923">
        <ele>505.058121</ele>
        <time>2023-08-12T17:21:09.641Z</time>
      </trkpt>
      <trkpt lat="44.60817" lon="5.2921">
        <ele>505.009396</ele>
        <time>2023-08-12T17:21:13.036Z</time>
      </trkpt>
      <trkpt lat="44.60806" lon="5.29186">
        <ele>504.996423</ele>
        <time>2023-08-12T17:21:16.151Z</time>
      </trkpt>
      <trkpt lat="44.60806" lon="5.29173">
        <ele>505.003506</ele>
        <time>2023-08-12T17:21:17.380Z</time>
      </trkpt>
      <trkpt lat="44.60812" lon="5.29153">
        <ele>505.015026</ele>
        <time>2023-08-12T17:21:19.619Z</time>
      </trkpt>
      <trkpt lat="44.60822" lon="5.29115">
        <ele>505.036474</ele>
        <time>2023-08-12T17:21:23.562Z</time>
      </trkpt>
      <trkpt lat="44.60817" lon="5.29091">
        <ele>505.04971</ele>
        <time>2023-08-12T17:21:25.785Z</time>
      </trkpt>
      <trkpt lat="44.6081" lon="5.29082">
        <ele>505.057012</ele>
        <time>2023-08-12T17:21:26.894Z</time>
      </trkpt>
      <trkpt lat="44.60777" lon="5.29062">
        <ele>505.083802</ele>
        <time>2023-08-12T17:21:31.229Z</time>
      </trkpt>
      <trkpt lat="44.60772" lon="5.29059">
        <ele>505.087732</ele>
        <time>2023-08-12T17:21:31.953Z</time>
      </trkpt>
      <trkpt lat="44.60763" lon="5.29052">
        <ele>505.09584</ele>
        <time>2023-08-12T17:21:33.222Z</time>
      </trkpt>
      <trkpt lat="44.60762" lon="5.29052">
        <ele>505.096634</ele>
        <time>2023-08-12T17:21:33.337Z</time>
      </trkpt>
      <trkpt lat="44.60724" lon="5.29029">
        <ele>505.056173</ele>
        <time>2023-08-12T17:21:37.574Z</time>
      </trkpt>
      <trkpt lat="44.60702" lon="5.2901">
        <ele>504.757163</ele>
        <time>2023-08-12T17:21:39.915Z</time>
      </trkpt>
      <trkpt lat="44.60575" lon="5.28838">
        <ele>503.315554</ele>
        <time>2023-08-12T17:21:56.312Z</time>
      </trkpt>
      <trkpt lat="44.60448" lon="5.28751">
        <ele>504.644143</ele>
        <time>2023-08-12T17:22:17.212Z</time>
      </trkpt>
      <trkpt lat="44.60434" lon="5.28753">
        <ele>505.054157</ele>
        <time>2023-08-12T17:22:20.311Z</time>
      </trkpt>
      <trkpt lat="44.60373" lon="5.28773">
        <ele>510.579025</ele>
        <time>2023-08-12T17:22:36.728Z</time>
      </trkpt>
      <trkpt lat="44.60356" lon="5.28775">
        <ele>512.033336</ele>
        <time>2023-08-12T17:22:42.580Z</time>
      </trkpt>
      <trkpt lat="44.60268" lon="5.28739">
        <ele>520.080837</ele>
        <time>2023-08-12T17:23:31.803Z</time>
      </trkpt>
      <trkpt lat="44.60235" lon="5.28708">
        <ele>524.770962</ele>
        <time>2023-08-12T17:23:51.811Z</time>
      </trkpt>
      <trkpt lat="44.60206" lon="5.28692">
        <ele>528.628617</ele>
        <time>2023-08-12T17:24:07.163Z</time>
      </trkpt>
      <trkpt lat="44.60185" lon="5.28682">
        <ele>531.320445</ele>
        <time>2023-08-12T17:24:20.076Z</time>
      </trkpt>
      <trkpt lat="44.6018" lon="5.28672">
        <ele>532.351317</ele>
        <time>2023-08-12T17:24:23.498Z</time>
      </trkpt>
      <trkpt lat="44.60177" lon="5.28654">
        <ele>533.976586</ele>
        <time>2023-08-12T17:24:29.721Z</time>
      </trkpt>
      <trkpt lat="44.60171" lon="5.28557">
        <ele>542.508719</ele>
        <time>2023-08-12T17:25:06.853Z</time>
      </trkpt>
      <trkpt lat="44.60165" lon="5.28539">
        <ele>543.164741</ele>
        <time>2023-08-12T17:25:16.194Z</time>
      </trkpt>
      <trkpt lat="44.60155" lon="5.28522">
        <ele>543.874985</ele>
        <time>2023-08-12T17:25:22.583Z</time>
      </trkpt>
      <trkpt lat="44.60144" lon="5.28513">
        <ele>544.44855</ele>
        <time>2023-08-12T17:25:29.170Z</time>
      </trkpt>
      <trkpt lat="44.60125" lon="5.28508">
        <ele>545.326221</ele>
        <time>2023-08-12T17:25:36.773Z</time>
      </trkpt>
      <trkpt lat="44.60095" lon="5.28506">
        <ele>546.71143</ele>
        <time>2023-08-12T17:25:41.329Z</time>
      </trkpt>
      <trkpt lat="44.60028" lon="5.28517">
        <ele>549.745081</ele>
        <time>2023-08-12T17:25:50.158Z</time>
      </trkpt>
      <trkpt lat="44.60003" lon="5.28509">
        <ele>550.619358</ele>
        <time>2023-08-12T17:25:53.852Z</time>
      </trkpt>
      <trkpt lat="44.59986" lon="5.28496">
        <ele>550.367107</ele>
        <time>2023-08-12T17:25:56.591Z</time>
      </trkpt>
      <trkpt lat="44.59973" lon="5.28474">
        <ele>550.108545</ele>
        <time>2023-08-12T17:25:59.359Z</time>
      </trkpt>
      <trkpt lat="44.59967" lon="5.28458">
        <ele>549.942876</ele>
        <time>2023-08-12T17:26:01.226Z</time>
      </trkpt>
      <trkpt lat="44.59956" lon="5.28449">
        <ele>549.78939</ele>
        <time>2023-08-12T17:26:02.626Z</time>
      </trkpt>
      <trkpt lat="44.59943" lon="5.28445">
        <ele>549.615023</ele>
        <time>2023-08-12T17:26:03.879Z</time>
      </trkpt>
      <trkpt lat="44.59871" lon="5.28473">
        <ele>548.657216</ele>
        <time>2023-08-12T17:26:10.022Z</time>
      </trkpt>
      <trkpt lat="44.59857" lon="5.28485">
        <ele>548.45617</ele>
        <time>2023-08-12T17:26:11.300Z</time>
      </trkpt>
      <trkpt lat="44.59846" lon="5.28499">
        <ele>548.622772</ele>
        <time>2023-08-12T17:26:12.593Z</time>
      </trkpt>
      <trkpt lat="44.59835" lon="5.28523">
        <ele>549.068954</ele>
        <time>2023-08-12T17:26:14.401Z</time>
      </trkpt>
      <trkpt lat="44.59829" lon="5.2853">
        <ele>549.242503</ele>
        <time>2023-08-12T17:26:15.412Z</time>
      </trkpt>
      <trkpt lat="44.5982" lon="5.28532">
        <ele>549.434707</ele>
        <time>2023-08-12T17:26:16.251Z</time>
      </trkpt>
      <trkpt lat="44.59804" lon="5.28527">
        <ele>549.782397</ele>
        <time>2023-08-12T17:26:18.326Z</time>
      </trkpt>
      <trkpt lat="44.59738" lon="5.28502">
        <ele>551.290913</ele>
        <time>2023-08-12T17:26:33.193Z</time>
      </trkpt>
      <trkpt lat="44.59684" lon="5.28464">
        <ele>553.020799</ele>
        <time>2023-08-12T17:26:51.180Z</time>
      </trkpt>
      <trkpt lat="44.59588" lon="5.28394">
        <ele>559.111443</ele>
        <time>2023-08-12T17:27:25.852Z</time>
      </trkpt>
      <trkpt lat="44.59558" lon="5.28362">
        <ele>561.240599</ele>
        <time>2023-08-12T17:27:37.480Z</time>
      </trkpt>
      <trkpt lat="44.59535" lon="5.28326">
        <ele>562.446675</ele>
        <time>2023-08-12T17:27:47.693Z</time>
      </trkpt>
      <trkpt lat="44.59477" lon="5.28178">
        <ele>562.62632</ele>
        <time>2023-08-12T17:28:11.590Z</time>
      </trkpt>
      <trkpt lat="44.5946" lon="5.2814">
        <ele>562.674234</ele>
        <time>2023-08-12T17:28:14.015Z</time>
      </trkpt>
      <trkpt lat="44.59433" lon="5.28107">
        <ele>560.441595</ele>
        <time>2023-08-12T17:28:16.489Z</time>
      </trkpt>
      <trkpt lat="44.59414" lon="5.28078">
        <ele>557.406282</ele>
        <time>2023-08-12T17:28:18.430Z</time>
      </trkpt>
      <trkpt lat="44.594" lon="5.28016">
        <ele>552.381227</ele>
        <time>2023-08-12T17:28:21.598Z</time>
      </trkpt>
      <trkpt lat="44.59391" lon="5.28">
        <ele>550.821267</ele>
        <time>2023-08-12T17:28:22.570Z</time>
      </trkpt>
      <trkpt lat="44.59388" lon="5.27985">
        <ele>549.614265</ele>
        <time>2023-08-12T17:28:23.324Z</time>
      </trkpt>
      <trkpt lat="44.59389" lon="5.27974">
        <ele>548.755168</ele>
        <time>2023-08-12T17:28:23.861Z</time>
      </trkpt>
      <trkpt lat="44.59404" lon="5.27952">
        <ele>546.428372</ele>
        <time>2023-08-12T17:28:25.299Z</time>
      </trkpt>
      <trkpt lat="44.59406" lon="5.27943">
        <ele>545.702264</ele>
        <time>2023-08-12T17:28:25.760Z</time>
      </trkpt>
      <trkpt lat="44.59403" lon="5.27933">
        <ele>544.91587</ele>
        <time>2023-08-12T17:28:26.252Z</time>
      </trkpt>
      <trkpt lat="44.59385" lon="5.27913">
        <ele>542.660996</ele>
        <time>2023-08-12T17:28:27.802Z</time>
      </trkpt>
      <trkpt lat="44.59355" lon="5.27892">
        <ele>540.102705</ele>
        <time>2023-08-12T17:28:30.037Z</time>
      </trkpt>
      <trkpt lat="44.59333" lon="5.2788">
        <ele>538.235203</ele>
        <time>2023-08-12T17:28:31.691Z</time>
      </trkpt>
      <trkpt lat="44.59314" lon="5.27875">
        <ele>536.749682</ele>
        <time>2023-08-12T17:28:33.009Z</time>
      </trkpt>
      <trkpt lat="44.59305" lon="5.27869">
        <ele>535.970374</ele>
        <time>2023-08-12T17:28:33.713Z</time>
      </trkpt>
      <trkpt lat="44.59283" lon="5.27843">
        <ele>533.813789</ele>
        <time>2023-08-12T17:28:35.732Z</time>
      </trkpt>
      <trkpt lat="44.59268" lon="5.27831">
        <ele>532.488731</ele>
        <time>2023-08-12T17:28:37.156Z</time>
      </trkpt>
      <trkpt lat="44.59228" lon="5.27822">
        <ele>529.423483</ele>
        <time>2023-08-12T17:28:40.650Z</time>
      </trkpt>
      <trkpt lat="44.59218" lon="5.27816">
        <ele>529.493001</ele>
        <time>2023-08-12T17:28:41.686Z</time>
      </trkpt>
      <trkpt lat="44.59207" lon="5.27801">
        <ele>529.592208</ele>
        <time>2023-08-12T17:28:43.338Z</time>
      </trkpt>
      <trkpt lat="44.59179" lon="5.27729">
        <ele>529.959507</ele>
        <time>2023-08-12T17:28:51.122Z</time>
      </trkpt>
      <trkpt lat="44.59163" lon="5.27713">
        <ele>530.085445</ele>
        <time>2023-08-12T17:28:54.191Z</time>
      </trkpt>
      <trkpt lat="44.59073" lon="5.27666">
        <ele>531.035971</ele>
        <time>2023-08-12T17:29:11.441Z</time>
      </trkpt>
      <trkpt lat="44.59012" lon="5.27658">
        <ele>532.408778</ele>
        <time>2023-08-12T17:29:23.137Z</time>
      </trkpt>
      <trkpt lat="44.58926" lon="5.27634">
        <ele>534.39209</ele>
        <time>2023-08-12T17:29:40.144Z</time>
      </trkpt>
      <trkpt lat="44.58897" lon="5.27631">
        <ele>535.062007</ele>
        <time>2023-08-12T17:29:45.666Z</time>
      </trkpt>
      <trkpt lat="44.58837" lon="5.27647">
        <ele>536.52486</ele>
        <time>2023-08-12T17:29:58.459Z</time>
      </trkpt>
      <trkpt lat="44.58768" lon="5.27672">
        <ele>538.209221</ele>
        <time>2023-08-12T17:30:12.512Z</time>
      </trkpt>
      <trkpt lat="44.58719" lon="5.27674">
        <ele>539.195249</ele>
        <time>2023-08-12T17:30:21.203Z</time>
      </trkpt>
      <trkpt lat="44.5869" lon="5.27683">
        <ele>539.641639</ele>
        <time>2023-08-12T17:30:26.219Z</time>
      </trkpt>
      <trkpt lat="44.58649" lon="5.2769">
        <ele>540.259685</ele>
        <time>2023-08-12T17:30:32.988Z</time>
      </trkpt>
      <trkpt lat="44.58524" lon="5.27727">
        <ele>541.852047</ele>
        <time>2023-08-12T17:30:53.810Z</time>
      </trkpt>
      <trkpt lat="44.58446" lon="5.27731">
        <ele>542.419082</ele>
        <time>2023-08-12T17:31:04.242Z</time>
      </trkpt>
      <trkpt lat="44.58419" lon="5.27735">
        <ele>542.610276</ele>
        <time>2023-08-12T17:31:07.633Z</time>
      </trkpt>
      <trkpt lat="44.58379" lon="5.27729">
        <ele>542.91714</ele>
        <time>2023-08-12T17:31:13.152Z</time>
      </trkpt>
      <trkpt lat="44.58345" lon="5.27746">
        <ele>543.247882</ele>
        <time>2023-08-12T17:31:18.341Z</time>
      </trkpt>
      <trkpt lat="44.58324" lon="5.27751">
        <ele>543.448211</ele>
        <time>2023-08-12T17:31:21.480Z</time>
      </trkpt>
      <trkpt lat="44.58312" lon="5.2775">
        <ele>543.561969</ele>
        <time>2023-08-12T17:31:23.350Z</time>
      </trkpt>
      <trkpt lat="44.58292" lon="5.27738">
        <ele>543.76539</ele>
        <time>2023-08-12T17:31:26.433Z</time>
      </trkpt>
      <trkpt lat="44.58242" lon="5.27687">
        <ele>544.333256</ele>
        <time>2023-08-12T17:31:35.278Z</time>
      </trkpt>
      <trkpt lat="44.58218" lon="5.27671">
        <ele>544.651846</ele>
        <time>2023-08-12T17:31:39.454Z</time>
      </trkpt>
      <trkpt lat="44.58205" lon="5.27664">
        <ele>544.927578</ele>
        <time>2023-08-12T17:31:41.643Z</time>
      </trkpt>
      <trkpt lat="44.58191" lon="5.27663">
        <ele>545.222028</ele>
        <time>2023-08-12T17:31:44.084Z</time>
      </trkpt>
      <trkpt lat="44.58134" lon="5.27668">
        <ele>546.395884</ele>
        <time>2023-08-12T17:31:55.106Z</time>
      </trkpt>
      <trkpt lat="44.58079" lon="5.27686">
        <ele>547.563538</ele>
        <time>2023-08-12T17:32:06.817Z</time>
      </trkpt>
      <trkpt lat="44.58038" lon="5.2769">
        <ele>548.33763</ele>
        <time>2023-08-12T17:32:14.704Z</time>
      </trkpt>
      <trkpt lat="44.5801" lon="5.27689">
        <ele>548.628278</ele>
        <time>2023-08-12T17:32:19.483Z</time>
      </trkpt>
      <trkpt lat="44.57965" lon="5.27677">
        <ele>549.095513</ele>
        <time>2023-08-12T17:32:26.392Z</time>
      </trkpt>
      <trkpt lat="44.57938" lon="5.27678">
        <ele>549.376799</ele>
        <time>2023-08-12T17:32:30.291Z</time>
      </trkpt>
      <trkpt lat="44.57915" lon="5.27685">
        <ele>549.622625</ele>
        <time>2023-08-12T17:32:33.666Z</time>
      </trkpt>
      <trkpt lat="44.57859" lon="5.27715">
        <ele>550.230427</ele>
        <time>2023-08-12T17:32:41.615Z</time>
      </trkpt>
      <trkpt lat="44.5783" lon="5.27722">
        <ele>550.486598</ele>
        <time>2023-08-12T17:32:45.170Z</time>
      </trkpt>
      <trkpt lat="44.57816" lon="5.27722">
        <ele>550.613077</ele>
        <time>2023-08-12T17:32:46.887Z</time>
      </trkpt>
      <trkpt lat="44.57798" lon="5.27718">
        <ele>550.774323</ele>
        <time>2023-08-12T17:32:49.024Z</time>
      </trkpt>
      <trkpt lat="44.57777" lon="5.27705">
        <ele>550.975533</ele>
        <time>2023-08-12T17:32:52.143Z</time>
      </trkpt>
      <trkpt lat="44.57768" lon="5.27697">
        <ele>551.072146</ele>
        <time>2023-08-12T17:32:53.614Z</time>
      </trkpt>
      <trkpt lat="44.57746" lon="5.27667">
        <ele>551.345491</ele>
        <time>2023-08-12T17:32:58.413Z</time>
      </trkpt>
      <trkpt lat="44.57732" lon="5.27645">
        <ele>551.530302</ele>
        <time>2023-08-12T17:33:01.942Z</time>
      </trkpt>
      <trkpt lat="44.57695" lon="5.27577">
        <ele>552.776824</ele>
        <time>2023-08-12T17:33:13.057Z</time>
      </trkpt>
      <trkpt lat="44.57688" lon="5.27573">
        <ele>552.975438</ele>
        <time>2023-08-12T17:33:14.604Z</time>
      </trkpt>
      <trkpt lat="44.57663" lon="5.27568">
        <ele>553.644688</ele>
        <time>2023-08-12T17:33:19.605Z</time>
      </trkpt>
      <trkpt lat="44.57646" lon="5.27568">
        <ele>554.101567</ele>
        <time>2023-08-12T17:33:23.146Z</time>
      </trkpt>
      <trkpt lat="44.57622" lon="5.27569">
        <ele>554.725305</ele>
        <time>2023-08-12T17:33:28.116Z</time>
      </trkpt>
      <trkpt lat="44.5756" lon="5.27603">
        <ele>556.476474</ele>
        <time>2023-08-12T17:33:42.892Z</time>
      </trkpt>
      <trkpt lat="44.57507" lon="5.27618">
        <ele>557.651564</ele>
        <time>2023-08-12T17:33:54.966Z</time>
      </trkpt>
      <trkpt lat="44.57478" lon="5.27622">
        <ele>558.284049</ele>
        <time>2023-08-12T17:34:00.726Z</time>
      </trkpt>
      <trkpt lat="44.57378" lon="5.27587">
        <ele>560.408209</ele>
        <time>2023-08-12T17:34:18.177Z</time>
      </trkpt>
      <trkpt lat="44.57353" lon="5.27575">
        <ele>560.558556</ele>
        <time>2023-08-12T17:34:22.200Z</time>
      </trkpt>
      <trkpt lat="44.57312" lon="5.27565">
        <ele>560.790668</ele>
        <time>2023-08-12T17:34:28.143Z</time>
      </trkpt>
      <trkpt lat="44.57222" lon="5.27528">
        <ele>561.320691</ele>
        <time>2023-08-12T17:34:39.169Z</time>
      </trkpt>
      <trkpt lat="44.57093" lon="5.2751">
        <ele>563.104121</ele>
        <time>2023-08-12T17:34:58.005Z</time>
      </trkpt>
      <trkpt lat="44.57045" lon="5.27493">
        <ele>563.830352</ele>
        <time>2023-08-12T17:35:08.207Z</time>
      </trkpt>
      <trkpt lat="44.57042" lon="5.27494">
        <ele>563.8783</ele>
        <time>2023-08-12T17:35:08.753Z</time>
      </trkpt>
      <trkpt lat="44.5704" lon="5.27506">
        <ele>564.008535</ele>
        <time>2023-08-12T17:35:10.556Z</time>
      </trkpt>
      <trkpt lat="44.57039" lon="5.27514">
        <ele>564.172285</ele>
        <time>2023-08-12T17:35:11.788Z</time>
      </trkpt>
      <trkpt lat="44.57035" lon="5.27544">
        <ele>564.759778</ele>
        <time>2023-08-12T17:35:16.143Z</time>
      </trkpt>
      <trkpt lat="44.57029" lon="5.27601">
        <ele>565.868335</ele>
        <time>2023-08-12T17:35:25.356Z</time>
      </trkpt>
      <trkpt lat="44.57026" lon="5.27622">
        <ele>566.291003</ele>
        <time>2023-08-12T17:35:28.972Z</time>
      </trkpt>
      <trkpt lat="44.57008" lon="5.27629">
        <ele>566.779878</ele>
        <time>2023-08-12T17:35:32.129Z</time>
      </trkpt>
      <trkpt lat="44.5699" lon="5.27629">
        <ele>567.258839</ele>
        <time>2023-08-12T17:35:35.725Z</time>
      </trkpt>
      <trkpt lat="44.56964" lon="5.27611">
        <ele>568.061128</ele>
        <time>2023-08-12T17:35:41.103Z</time>
      </trkpt>
      <trkpt lat="44.56944" lon="5.27608">
        <ele>568.588665</ele>
        <time>2023-08-12T17:35:45.192Z</time>
      </trkpt>
      <trkpt lat="44.5693" lon="5.27611">
        <ele>569.015781</ele>
        <time>2023-08-12T17:35:48.516Z</time>
      </trkpt>
      <trkpt lat="44.5692" lon="5.27618">
        <ele>569.369674</ele>
        <time>2023-08-12T17:35:51.290Z</time>
      </trkpt>
      <trkpt lat="44.56905" lon="5.27631">
        <ele>569.978049</ele>
        <time>2023-08-12T17:35:54.748Z</time>
      </trkpt>
      <trkpt lat="44.56892" lon="5.27648">
        <ele>570.571309</ele>
        <time>2023-08-12T17:35:58.687Z</time>
      </trkpt>
      <trkpt lat="44.56873" lon="5.27695">
        <ele>571.881852</ele>
        <time>2023-08-12T17:36:05.849Z</time>
      </trkpt>
      <trkpt lat="44.56871" lon="5.27706">
        <ele>572.151409</ele>
        <time>2023-08-12T17:36:07.376Z</time>
      </trkpt>
      <trkpt lat="44.56876" lon="5.27719">
        <ele>572.500862</ele>
        <time>2023-08-12T17:36:09.548Z</time>
      </trkpt>
      <trkpt lat="44.56885" lon="5.27732">
        <ele>572.93806</ele>
        <time>2023-08-12T17:36:13.000Z</time>
      </trkpt>
      <trkpt lat="44.56886" lon="5.27747">
        <ele>573.307829</ele>
        <time>2023-08-12T17:36:15.804Z</time>
      </trkpt>
      <trkpt lat="44.56843" lon="5.27862">
        <ele>577.126205</ele>
        <time>2023-08-12T17:36:39.783Z</time>
      </trkpt>
      <trkpt lat="44.56829" lon="5.27896">
        <ele>578.514161</ele>
        <time>2023-08-12T17:36:47.387Z</time>
      </trkpt>
      <trkpt lat="44.56821" lon="5.27925">
        <ele>579.643921</ele>
        <time>2023-08-12T17:36:54.500Z</time>
      </trkpt>
      <trkpt lat="44.56816" lon="5.27966">
        <ele>581.103551</ele>
        <time>2023-08-12T17:37:02.635Z</time>
      </trkpt>
      <trkpt lat="44.56809" lon="5.27982">
        <ele>581.759082</ele>
        <time>2023-08-12T17:37:06.166Z</time>
      </trkpt>
      <trkpt lat="44.56769" lon="5.28016">
        <ele>584.147865</ele>
        <time>2023-08-12T17:37:20.125Z</time>
      </trkpt>
      <trkpt lat="44.56757" lon="5.28037">
        <ele>585.211199</ele>
        <time>2023-08-12T17:37:25.119Z</time>
      </trkpt>
      <trkpt lat="44.56751" lon="5.28058">
        <ele>586.178374</ele>
        <time>2023-08-12T17:37:29.926Z</time>
      </trkpt>
      <trkpt lat="44.56746" lon="5.28102">
        <ele>587.998477</ele>
        <time>2023-08-12T17:37:38.432Z</time>
      </trkpt>
      <trkpt lat="44.56738" lon="5.28122">
        <ele>588.944092</ele>
        <time>2023-08-12T17:37:42.650Z</time>
      </trkpt>
      <trkpt lat="44.56723" lon="5.28144">
        <ele>590.199039</ele>
        <time>2023-08-12T17:37:48.797Z</time>
      </trkpt>
      <trkpt lat="44.56715" lon="5.28165">
        <ele>591.207539</ele>
        <time>2023-08-12T17:37:53.592Z</time>
      </trkpt>
      <trkpt lat="44.56719" lon="5.2818">
        <ele>591.847271</ele>
        <time>2023-08-12T17:37:57.233Z</time>
      </trkpt>
      <trkpt lat="44.56729" lon="5.28182">
        <ele>592.453594</ele>
        <time>2023-08-12T17:38:00.571Z</time>
      </trkpt>
      <trkpt lat="44.5674" lon="5.28177">
        <ele>593.095985</ele>
        <time>2023-08-12T17:38:03.976Z</time>
      </trkpt>
      <trkpt lat="44.5675" lon="5.28144">
        <ele>594.795034</ele>
        <time>2023-08-12T17:38:13.379Z</time>
      </trkpt>
      <trkpt lat="44.56759" lon="5.28125">
        <ele>596.307756</ele>
        <time>2023-08-12T17:38:19.474Z</time>
      </trkpt>
      <trkpt lat="44.5677" lon="5.28113">
        <ele>597.65256</ele>
        <time>2023-08-12T17:38:25.665Z</time>
      </trkpt>
      <trkpt lat="44.5679" lon="5.28106">
        <ele>599.56291</ele>
        <time>2023-08-12T17:38:33.953Z</time>
      </trkpt>
      <trkpt lat="44.56805" lon="5.28095">
        <ele>601.17798</ele>
        <time>2023-08-12T17:38:41.854Z</time>
      </trkpt>
      <trkpt lat="44.56824" lon="5.28067">
        <ele>603.717639</ele>
        <time>2023-08-12T17:38:53.910Z</time>
      </trkpt>
      <trkpt lat="44.56851" lon="5.28049">
        <ele>606.524804</ele>
        <time>2023-08-12T17:39:06.874Z</time>
      </trkpt>
      <trkpt lat="44.56904" lon="5.28027">
        <ele>611.694508</ele>
        <time>2023-08-12T17:39:30.741Z</time>
      </trkpt>
      <trkpt lat="44.56961" lon="5.27991">
        <ele>618.255715</ele>
        <time>2023-08-12T17:39:58.830Z</time>
      </trkpt>
      <trkpt lat="44.57088" lon="5.27942">
        <ele>632.187395</ele>
        <time>2023-08-12T17:40:58.046Z</time>
      </trkpt>
      <trkpt lat="44.57118" lon="5.2792">
        <ele>636.246392</ele>
        <time>2023-08-12T17:41:14.762Z</time>
      </trkpt>
      <trkpt lat="44.57131" lon="5.27917">
        <ele>637.860031</ele>
        <time>2023-08-12T17:41:21.632Z</time>
      </trkpt>
      <trkpt lat="44.57194" lon="5.27915">
        <ele>645.413875</ele>
        <time>2023-08-12T17:41:54.945Z</time>
      </trkpt>
      <trkpt lat="44.57286" lon="5.2796">
        <ele>656.142243</ele>
        <time>2023-08-12T17:42:45.564Z</time>
      </trkpt>
      <trkpt lat="44.57304" lon="5.27978">
        <ele>658.280044</ele>
        <time>2023-08-12T17:42:55.287Z</time>
      </trkpt>
      <trkpt lat="44.57369" lon="5.28064">
        <ele>667.174541</ele>
        <time>2023-08-12T17:43:30.889Z</time>
      </trkpt>
      <trkpt lat="44.57392" lon="5.28098">
        <ele>670.259552</ele>
        <time>2023-08-12T17:43:43.441Z</time>
      </trkpt>
      <trkpt lat="44.57406" lon="5.28126">
        <ele>672.252498</ele>
        <time>2023-08-12T17:43:52.813Z</time>
      </trkpt>
      <trkpt lat="44.57446" lon="5.28159">
        <ele>676.060336</ele>
        <time>2023-08-12T17:44:12.838Z</time>
      </trkpt>
      <trkpt lat="44.57449" lon="5.28168">
        <ele>676.584073</ele>
        <time>2023-08-12T17:44:15.463Z</time>
      </trkpt>
      <trkpt lat="44.57449" lon="5.28178">
        <ele>677.175656</ele>
        <time>2023-08-12T17:44:18.060Z</time>
      </trkpt>
      <trkpt lat="44.57424" lon="5.28229">
        <ele>680.779079</ele>
        <time>2023-08-12T17:44:33.834Z</time>
      </trkpt>
      <trkpt lat="44.57388" lon="5.28255">
        <ele>684.061639</ele>
        <time>2023-08-12T17:44:47.375Z</time>
      </trkpt>
      <trkpt lat="44.5738" lon="5.28268">
        <ele>684.882224</ele>
        <time>2023-08-12T17:44:51.672Z</time>
      </trkpt>
      <trkpt lat="44.57381" lon="5.28283">
        <ele>685.606728</ele>
        <time>2023-08-12T17:44:55.230Z</time>
      </trkpt>
      <trkpt lat="44.57385" lon="5.28296">
        <ele>686.341107</ele>
        <time>2023-08-12T17:44:58.876Z</time>
      </trkpt>
      <trkpt lat="44.57393" lon="5.28308">
        <ele>687.134146</ele>
        <time>2023-08-12T17:45:03.223Z</time>
      </trkpt>
      <trkpt lat="44.57399" lon="5.28315">
        <ele>687.689892</ele>
        <time>2023-08-12T17:45:06.182Z</time>
      </trkpt>
      <trkpt lat="44.57418" lon="5.28324">
        <ele>689.08989</ele>
        <time>2023-08-12T17:45:13.770Z</time>
      </trkpt>
      <trkpt lat="44.5747" lon="5.28329">
        <ele>692.730157</ele>
        <time>2023-08-12T17:45:33.908Z</time>
      </trkpt>
      <trkpt lat="44.57483" lon="5.28335">
        <ele>693.661278</ele>
        <time>2023-08-12T17:45:38.674Z</time>
      </trkpt>
      <trkpt lat="44.57528" lon="5.28377">
        <ele>697.041633</ele>
        <time>2023-08-12T17:45:54.614Z</time>
      </trkpt>
      <trkpt lat="44.5755" lon="5.28429">
        <ele>698.790349</ele>
        <time>2023-08-12T17:46:03.839Z</time>
      </trkpt>
      <trkpt lat="44.57565" lon="5.2845">
        <ele>699.628559</ele>
        <time>2023-08-12T17:46:08.669Z</time>
      </trkpt>
      <trkpt lat="44.57571" lon="5.28466">
        <ele>700.167593</ele>
        <time>2023-08-12T17:46:11.845Z</time>
      </trkpt>
      <trkpt lat="44.57577" lon="5.28486">
        <ele>700.801687</ele>
        <time>2023-08-12T17:46:15.759Z</time>
      </trkpt>
      <trkpt lat="44.5759" lon="5.28509">
        <ele>701.636366</ele>
        <time>2023-08-12T17:46:20.833Z</time>
      </trkpt>
      <trkpt lat="44.5763" lon="5.28533">
        <ele>703.414005</ele>
        <time>2023-08-12T17:46:31.396Z</time>
      </trkpt>
      <trkpt lat="44.57642" lon="5.28537">
        <ele>703.986144</ele>
        <time>2023-08-12T17:46:34.548Z</time>
      </trkpt>
      <trkpt lat="44.57666" lon="5.28529">
        <ele>705.197937</ele>
        <time>2023-08-12T17:46:40.228Z</time>
      </trkpt>
      <trkpt lat="44.57688" lon="5.28527">
        <ele>706.34411</ele>
        <time>2023-08-12T17:46:45.516Z</time>
      </trkpt>
      <trkpt lat="44.57713" lon="5.28532">
        <ele>707.612525</ele>
        <time>2023-08-12T17:46:51.257Z</time>
      </trkpt>
      <trkpt lat="44.57727" lon="5.28541">
        <ele>708.364468</ele>
        <time>2023-08-12T17:46:54.587Z</time>
      </trkpt>
      <trkpt lat="44.57735" lon="5.2854">
        <ele>708.81113</ele>
        <time>2023-08-12T17:46:56.611Z</time>
      </trkpt>
      <trkpt lat="44.57742" lon="5.28533">
        <ele>709.234999</ele>
        <time>2023-08-12T17:46:58.716Z</time>
      </trkpt>
      <trkpt lat="44.57751" lon="5.28515">
        <ele>710.011741</ele>
        <time>2023-08-12T17:47:02.776Z</time>
      </trkpt>
      <trkpt lat="44.57761" lon="5.28506">
        <ele>710.628141</ele>
        <time>2023-08-12T17:47:06.289Z</time>
      </trkpt>
      <trkpt lat="44.57856" lon="5.28474">
        <ele>716.849969</ele>
        <time>2023-08-12T17:47:43.768Z</time>
      </trkpt>
      <trkpt lat="44.57868" lon="5.28472">
        <ele>717.762023</ele>
        <time>2023-08-12T17:47:48.408Z</time>
      </trkpt>
      <trkpt lat="44.57886" lon="5.28473">
        <ele>719.102894</ele>
        <time>2023-08-12T17:47:55.470Z</time>
      </trkpt>
      <trkpt lat="44.57907" lon="5.28484">
        <ele>720.787073</ele>
        <time>2023-08-12T17:48:03.260Z</time>
      </trkpt>
      <trkpt lat="44.5792" lon="5.28499">
        <ele>722.003129</ele>
        <time>2023-08-12T17:48:08.783Z</time>
      </trkpt>
      <trkpt lat="44.57944" lon="5.28547">
        <ele>725.103893</ele>
        <time>2023-08-12T17:48:21.999Z</time>
      </trkpt>
      <trkpt lat="44.57958" lon="5.28559">
        <ele>726.351984</ele>
        <time>2023-08-12T17:48:27.668Z</time>
      </trkpt>
      <trkpt lat="44.57972" lon="5.28558">
        <ele>727.366692</ele>
        <time>2023-08-12T17:48:33.110Z</time>
      </trkpt>
      <trkpt lat="44.57998" lon="5.2855">
        <ele>729.221288</ele>
        <time>2023-08-12T17:48:42.333Z</time>
      </trkpt>
      <trkpt lat="44.58048" lon="5.28555">
        <ele>732.788618</ele>
        <time>2023-08-12T17:49:00.925Z</time>
      </trkpt>
      <trkpt lat="44.58057" lon="5.28563">
        <ele>733.550014</ele>
        <time>2023-08-12T17:49:04.104Z</time>
      </trkpt>
      <trkpt lat="44.5806" lon="5.2858">
        <ele>734.450107</ele>
        <time>2023-08-12T17:49:08.685Z</time>
      </trkpt>
      <trkpt lat="44.58055" lon="5.28604">
        <ele>735.73367</ele>
        <time>2023-08-12T17:49:14.480Z</time>
      </trkpt>
      <trkpt lat="44.57983" lon="5.28753">
        <ele>745.608567</ele>
        <time>2023-08-12T17:49:58.321Z</time>
      </trkpt>
      <trkpt lat="44.57955" lon="5.28802">
        <ele>749.198772</ele>
        <time>2023-08-12T17:50:18.107Z</time>
      </trkpt>
      <trkpt lat="44.57899" lon="5.28883">
        <ele>755.538522</ele>
        <time>2023-08-12T17:50:49.032Z</time>
      </trkpt>
      <trkpt lat="44.57805" lon="5.29035">
        <ele>766.596192</ele>
        <time>2023-08-12T17:51:38.140Z</time>
      </trkpt>
      <trkpt lat="44.57734" lon="5.29125">
        <ele>777.406513</ele>
        <time>2023-08-12T17:52:19.170Z</time>
      </trkpt>
      <trkpt lat="44.57683" lon="5.29216">
        <ele>787.090851</ele>
        <time>2023-08-12T17:53:04.600Z</time>
      </trkpt>
      <trkpt lat="44.5767" lon="5.29267">
        <ele>791.672902</ele>
        <time>2023-08-12T17:53:28.130Z</time>
      </trkpt>
      <trkpt lat="44.57664" lon="5.29293">
        <ele>794.112294</ele>
        <time>2023-08-12T17:53:40.865Z</time>
      </trkpt>
      <trkpt lat="44.57658" lon="5.29366">
        <ele>800.395697</ele>
        <time>2023-08-12T17:54:11.073Z</time>
      </trkpt>
      <trkpt lat="44.57651" lon="5.29409">
        <ele>804.291835</ele>
        <time>2023-08-12T17:54:27.176Z</time>
      </trkpt>
      <trkpt lat="44.57638" lon="5.29438">
        <ele>807.227349</ele>
        <time>2023-08-12T17:54:37.787Z</time>
      </trkpt>
      <trkpt lat="44.57631" lon="5.29479">
        <ele>810.309968</ele>
        <time>2023-08-12T17:54:48.840Z</time>
      </trkpt>
      <trkpt lat="44.57636" lon="5.29497">
        <ele>810.542168</ele>
        <time>2023-08-12T17:54:53.580Z</time>
      </trkpt>
      <trkpt lat="44.57662" lon="5.29528">
        <ele>811.098089</ele>
        <time>2023-08-12T17:55:02.769Z</time>
      </trkpt>
      <trkpt lat="44.57682" lon="5.29617">
        <ele>812.186426</ele>
        <time>2023-08-12T17:55:13.467Z</time>
      </trkpt>
      <trkpt lat="44.57687" lon="5.29722">
        <ele>812.506325</ele>
        <time>2023-08-12T17:55:19.732Z</time>
      </trkpt>
      <trkpt lat="44.57679" lon="5.29805">
        <ele>809.790478</ele>
        <time>2023-08-12T17:55:24.428Z</time>
      </trkpt>
      <trkpt lat="44.57655" lon="5.29875">
        <ele>807.245927</ele>
        <time>2023-08-12T17:55:28.716Z</time>
      </trkpt>
      <trkpt lat="44.57632" lon="5.29947">
        <ele>804.58522</ele>
        <time>2023-08-12T17:55:32.805Z</time>
      </trkpt>
      <trkpt lat="44.57628" lon="5.29967">
        <ele>803.617385</ele>
        <time>2023-08-12T17:55:33.870Z</time>
      </trkpt>
      <trkpt lat="44.57629" lon="5.29999">
        <ele>802.166033</ele>
        <time>2023-08-12T17:55:35.476Z</time>
      </trkpt>
      <trkpt lat="44.57646" lon="5.30081">
        <ele>798.19494</ele>
        <time>2023-08-12T17:55:39.863Z</time>
      </trkpt>
      <trkpt lat="44.57647" lon="5.30106">
        <ele>797.026616</ele>
        <time>2023-08-12T17:55:41.164Z</time>
      </trkpt>
      <trkpt lat="44.57643" lon="5.30121">
        <ele>796.30683</ele>
        <time>2023-08-12T17:55:41.959Z</time>
      </trkpt>
      <trkpt lat="44.57619" lon="5.30139">
        <ele>794.506896</ele>
        <time>2023-08-12T17:55:43.982Z</time>
      </trkpt>
      <trkpt lat="44.57608" lon="5.30141">
        <ele>793.777739</ele>
        <time>2023-08-12T17:55:44.803Z</time>
      </trkpt>
      <trkpt lat="44.57597" lon="5.30139">
        <ele>793.146046</ele>
        <time>2023-08-12T17:55:45.604Z</time>
      </trkpt>
      <trkpt lat="44.57585" lon="5.30123">
        <ele>792.330286</ele>
        <time>2023-08-12T17:55:46.853Z</time>
      </trkpt>
      <trkpt lat="44.57563" lon="5.30074">
        <ele>790.329554</ele>
        <time>2023-08-12T17:55:49.904Z</time>
      </trkpt>
      <trkpt lat="44.57546" lon="5.3006">
        <ele>789.3935</ele>
        <time>2023-08-12T17:55:51.359Z</time>
      </trkpt>
      <trkpt lat="44.57473" lon="5.30035">
        <ele>785.708569</ele>
        <time>2023-08-12T17:55:57.232Z</time>
      </trkpt>
      <trkpt lat="44.57451" lon="5.30035">
        <ele>784.646157</ele>
        <time>2023-08-12T17:55:59.109Z</time>
      </trkpt>
      <trkpt lat="44.57452" lon="5.30054">
        <ele>783.745861</ele>
        <time>2023-08-12T17:56:00.110Z</time>
      </trkpt>
      <trkpt lat="44.57459" lon="5.30067">
        <ele>782.974125</ele>
        <time>2023-08-12T17:56:01.014Z</time>
      </trkpt>
      <trkpt lat="44.57492" lon="5.30068">
        <ele>780.744866</ele>
        <time>2023-08-12T17:56:03.501Z</time>
      </trkpt>
      <trkpt lat="44.57524" lon="5.30078">
        <ele>778.560708</ele>
        <time>2023-08-12T17:56:05.854Z</time>
      </trkpt>
      <trkpt lat="44.57534" lon="5.30084">
        <ele>777.761756</ele>
        <time>2023-08-12T17:56:06.728Z</time>
      </trkpt>
      <trkpt lat="44.57541" lon="5.30099">
        <ele>776.920895</ele>
        <time>2023-08-12T17:56:07.607Z</time>
      </trkpt>
      <trkpt lat="44.5755" lon="5.30131">
        <ele>775.246522</ele>
        <time>2023-08-12T17:56:09.340Z</time>
      </trkpt>
      <trkpt lat="44.57557" lon="5.30174">
        <ele>773.105598</ele>
        <time>2023-08-12T17:56:11.512Z</time>
      </trkpt>
      <trkpt lat="44.57563" lon="5.30198">
        <ele>771.583009</ele>
        <time>2023-08-12T17:56:12.775Z</time>
      </trkpt>
      <trkpt lat="44.57595" lon="5.30221">
        <ele>767.686643</ele>
        <time>2023-08-12T17:56:15.242Z</time>
      </trkpt>
      <trkpt lat="44.57602" lon="5.3023">
        <ele>766.662689</ele>
        <time>2023-08-12T17:56:15.882Z</time>
      </trkpt>
      <trkpt lat="44.57603" lon="5.30246">
        <ele>765.389023</ele>
        <time>2023-08-12T17:56:16.682Z</time>
      </trkpt>
      <trkpt lat="44.57604" lon="5.30397">
        <ele>753.595783</ele>
        <time>2023-08-12T17:56:24.005Z</time>
      </trkpt>
      <trkpt lat="44.57589" lon="5.30461">
        <ele>748.508667</ele>
        <time>2023-08-12T17:56:27.219Z</time>
      </trkpt>
      <trkpt lat="44.57582" lon="5.30498">
        <ele>745.622042</ele>
        <time>2023-08-12T17:56:29.058Z</time>
      </trkpt>
      <trkpt lat="44.57576" lon="5.30548">
        <ele>741.810592</ele>
        <time>2023-08-12T17:56:31.504Z</time>
      </trkpt>
      <trkpt lat="44.57578" lon="5.30597">
        <ele>738.138053</ele>
        <time>2023-08-12T17:56:33.909Z</time>
      </trkpt>
      <trkpt lat="44.57573" lon="5.30642">
        <ele>734.7333</ele>
        <time>2023-08-12T17:56:36.197Z</time>
      </trkpt>
      <trkpt lat="44.5758" lon="5.30663">
        <ele>733.420781</ele>
        <time>2023-08-12T17:56:37.418Z</time>
      </trkpt>
      <trkpt lat="44.57576" lon="5.30675">
        <ele>733.058958</ele>
        <time>2023-08-12T17:56:38.063Z</time>
      </trkpt>
      <trkpt lat="44.57568" lon="5.30675">
        <ele>732.729555</ele>
        <time>2023-08-12T17:56:38.661Z</time>
      </trkpt>
      <trkpt lat="44.57563" lon="5.30667">
        <ele>732.410958</ele>
        <time>2023-08-12T17:56:39.253Z</time>
      </trkpt>
      <trkpt lat="44.5756" lon="5.30637">
        <ele>731.54882</ele>
        <time>2023-08-12T17:56:40.844Z</time>
      </trkpt>
      <trkpt lat="44.5756" lon="5.30606">
        <ele>730.650806</ele>
        <time>2023-08-12T17:56:42.577Z</time>
      </trkpt>
      <trkpt lat="44.57537" lon="5.30514">
        <ele>727.821037</ele>
        <time>2023-08-12T17:56:48.379Z</time>
      </trkpt>
      <trkpt lat="44.57543" lon="5.30435">
        <ele>725.288345</ele>
        <time>2023-08-12T17:56:53.343Z</time>
      </trkpt>
      <trkpt lat="44.57547" lon="5.30415">
        <ele>724.557419</ele>
        <time>2023-08-12T17:56:54.539Z</time>
      </trkpt>
      <trkpt lat="44.57542" lon="5.30406">
        <ele>724.148284</ele>
        <time>2023-08-12T17:56:55.190Z</time>
      </trkpt>
      <trkpt lat="44.57534" lon="5.30407">
        <ele>723.773537</ele>
        <time>2023-08-12T17:56:55.773Z</time>
      </trkpt>
      <trkpt lat="44.57531" lon="5.30417">
        <ele>723.371476</ele>
        <time>2023-08-12T17:56:56.398Z</time>
      </trkpt>
      <trkpt lat="44.5753" lon="5.30441">
        <ele>722.541456</ele>
        <time>2023-08-12T17:56:57.659Z</time>
      </trkpt>
      <trkpt lat="44.57508" lon="5.30504">
        <ele>720.035058</ele>
        <time>2023-08-12T17:57:01.319Z</time>
      </trkpt>
      <trkpt lat="44.575" lon="5.3054">
        <ele>718.701222</ele>
        <time>2023-08-12T17:57:03.243Z</time>
      </trkpt>
      <trkpt lat="44.57498" lon="5.30572">
        <ele>717.535922</ele>
        <time>2023-08-12T17:57:04.936Z</time>
      </trkpt>
      <trkpt lat="44.57503" lon="5.30603">
        <ele>716.451089</ele>
        <time>2023-08-12T17:57:06.614Z</time>
      </trkpt>
      <trkpt lat="44.57511" lon="5.30625">
        <ele>715.664547</ele>
        <time>2023-08-12T17:57:07.855Z</time>
      </trkpt>
      <trkpt lat="44.57514" lon="5.30642">
        <ele>715.055056</ele>
        <time>2023-08-12T17:57:08.824Z</time>
      </trkpt>
      <trkpt lat="44.57511" lon="5.30651">
        <ele>714.729233</ele>
        <time>2023-08-12T17:57:09.339Z</time>
      </trkpt>
      <trkpt lat="44.57504" lon="5.30652">
        <ele>714.375772</ele>
        <time>2023-08-12T17:57:09.907Z</time>
      </trkpt>
      <trkpt lat="44.57494" lon="5.30619">
        <ele>713.177078</ele>
        <time>2023-08-12T17:57:11.846Z</time>
      </trkpt>
      <trkpt lat="44.57479" lon="5.30594">
        <ele>712.108139</ele>
        <time>2023-08-12T17:57:13.600Z</time>
      </trkpt>
      <trkpt lat="44.57471" lon="5.30564">
        <ele>711.021934</ele>
        <time>2023-08-12T17:57:15.392Z</time>
      </trkpt>
      <trkpt lat="44.57468" lon="5.30506">
        <ele>709.076558</ele>
        <time>2023-08-12T17:57:18.658Z</time>
      </trkpt>
      <trkpt lat="44.57475" lon="5.30475">
        <ele>708.584427</ele>
        <time>2023-08-12T17:57:20.504Z</time>
      </trkpt>
      <trkpt lat="44.57475" lon="5.30463">
        <ele>708.420631</ele>
        <time>2023-08-12T17:57:21.255Z</time>
      </trkpt>
      <trkpt lat="44.57468" lon="5.30461">
        <ele>708.288675</ele>
        <time>2023-08-12T17:57:21.856Z</time>
      </trkpt>
      <trkpt lat="44.57462" lon="5.30466">
        <ele>708.158889</ele>
        <time>2023-08-12T17:57:22.438Z</time>
      </trkpt>
      <trkpt lat="44.5746" lon="5.30504">
        <ele>707.646527</ele>
        <time>2023-08-12T17:57:25.052Z</time>
      </trkpt>
      <trkpt lat="44.57445" lon="5.30579">
        <ele>706.594949</ele>
        <time>2023-08-12T17:57:31.224Z</time>
      </trkpt>
      <trkpt lat="44.57443" lon="5.30605">
        <ele>706.238455</ele>
        <time>2023-08-12T17:57:33.272Z</time>
      </trkpt>
      <trkpt lat="44.57448" lon="5.3063">
        <ele>705.891435</ele>
        <time>2023-08-12T17:57:34.843Z</time>
      </trkpt>
      <trkpt lat="44.57442" lon="5.30639">
        <ele>705.724041</ele>
        <time>2023-08-12T17:57:35.622Z</time>
      </trkpt>
      <trkpt lat="44.57436" lon="5.30635">
        <ele>705.597951</ele>
        <time>2023-08-12T17:57:36.205Z</time>
      </trkpt>
      <trkpt lat="44.57434" lon="5.30621">
        <ele>705.178971</ele>
        <time>2023-08-12T17:57:36.969Z</time>
      </trkpt>
      <trkpt lat="44.57434" lon="5.30534">
        <ele>702.211754</ele>
        <time>2023-08-12T17:57:41.866Z</time>
      </trkpt>
      <trkpt lat="44.5742" lon="5.30517">
        <ele>701.370131</ele>
        <time>2023-08-12T17:57:43.226Z</time>
      </trkpt>
      <trkpt lat="44.57404" lon="5.30524">
        <ele>700.549784</ele>
        <time>2023-08-12T17:57:44.595Z</time>
      </trkpt>
      <trkpt lat="44.57395" lon="5.30541">
        <ele>699.848677</ele>
        <time>2023-08-12T17:57:45.720Z</time>
      </trkpt>
      <trkpt lat="44.5739" lon="5.30558">
        <ele>699.193711</ele>
        <time>2023-08-12T17:57:46.806Z</time>
      </trkpt>
      <trkpt lat="44.57378" lon="5.30636">
        <ele>696.114906</ele>
        <time>2023-08-12T17:57:50.928Z</time>
      </trkpt>
      <trkpt lat="44.57377" lon="5.30678">
        <ele>693.532207</ele>
        <time>2023-08-12T17:57:53.039Z</time>
      </trkpt>
      <trkpt lat="44.57387" lon="5.30701">
        <ele>691.907105</ele>
        <time>2023-08-12T17:57:54.346Z</time>
      </trkpt>
      <trkpt lat="44.57426" lon="5.30743">
        <ele>687.725531</ele>
        <time>2023-08-12T17:57:57.680Z</time>
      </trkpt>
      <trkpt lat="44.57447" lon="5.30774">
        <ele>685.109247</ele>
        <time>2023-08-12T17:57:59.813Z</time>
      </trkpt>
      <trkpt lat="44.57462" lon="5.30824">
        <ele>681.882637</ele>
        <time>2023-08-12T17:58:02.545Z</time>
      </trkpt>
      <trkpt lat="44.57463" lon="5.30862">
        <ele>680.924069</ele>
        <time>2023-08-12T17:58:04.599Z</time>
      </trkpt>
      <trkpt lat="44.57446" lon="5.30872">
        <ele>680.311454</ele>
        <time>2023-08-12T17:58:06.117Z</time>
      </trkpt>
      <trkpt lat="44.57427" lon="5.3087">
        <ele>679.716491</ele>
        <time>2023-08-12T17:58:07.612Z</time>
      </trkpt>
      <trkpt lat="44.57378" lon="5.30838">
        <ele>677.975693</ele>
        <time>2023-08-12T17:58:12.156Z</time>
      </trkpt>
      <trkpt lat="44.57337" lon="5.30824">
        <ele>676.608918</ele>
        <time>2023-08-12T17:58:15.886Z</time>
      </trkpt>
      <trkpt lat="44.57315" lon="5.30812">
        <ele>675.841757</ele>
        <time>2023-08-12T17:58:18.105Z</time>
      </trkpt>
      <trkpt lat="44.57302" lon="5.30808">
        <ele>675.394459</ele>
        <time>2023-08-12T17:58:19.360Z</time>
      </trkpt>
      <trkpt lat="44.57296" lon="5.30812">
        <ele>675.175552</ele>
        <time>2023-08-12T17:58:19.954Z</time>
      </trkpt>
      <trkpt lat="44.57296" lon="5.30821">
        <ele>674.973832</ele>
        <time>2023-08-12T17:58:20.515Z</time>
      </trkpt>
      <trkpt lat="44.57301" lon="5.30829">
        <ele>674.708588</ele>
        <time>2023-08-12T17:58:21.337Z</time>
      </trkpt>
      <trkpt lat="44.57345" lon="5.30839">
        <ele>673.212754</ele>
        <time>2023-08-12T17:58:25.242Z</time>
      </trkpt>
      <trkpt lat="44.57384" lon="5.30862">
        <ele>671.792911</ele>
        <time>2023-08-12T17:58:28.573Z</time>
      </trkpt>
      <trkpt lat="44.57427" lon="5.30918">
        <ele>669.897021</ele>
        <time>2023-08-12T17:58:32.964Z</time>
      </trkpt>
      <trkpt lat="44.57445" lon="5.30937">
        <ele>669.744989</ele>
        <time>2023-08-12T17:58:34.684Z</time>
      </trkpt>
      <trkpt lat="44.57474" lon="5.30919">
        <ele>669.542003</ele>
        <time>2023-08-12T17:58:36.999Z</time>
      </trkpt>
      <trkpt lat="44.57499" lon="5.30911">
        <ele>669.37095</ele>
        <time>2023-08-12T17:58:38.980Z</time>
      </trkpt>
      <trkpt lat="44.57504" lon="5.30909">
        <ele>669.338752</ele>
        <time>2023-08-12T17:58:39.361Z</time>
      </trkpt>
      <trkpt lat="44.57518" lon="5.30921">
        <ele>669.234408</ele>
        <time>2023-08-12T17:58:40.628Z</time>
      </trkpt>
      <trkpt lat="44.57533" lon="5.30965">
        <ele>669.006621</ele>
        <time>2023-08-12T17:58:45.366Z</time>
      </trkpt>
      <trkpt lat="44.57544" lon="5.30969">
        <ele>668.933092</ele>
        <time>2023-08-12T17:58:47.745Z</time>
      </trkpt>
      <trkpt lat="44.57552" lon="5.30963">
        <ele>668.872656</ele>
        <time>2023-08-12T17:58:50.728Z</time>
      </trkpt>
      <trkpt lat="44.57567" lon="5.30932">
        <ele>669.358251</ele>
        <time>2023-08-12T17:58:59.237Z</time>
      </trkpt>
      <trkpt lat="44.57576" lon="5.30925">
        <ele>670.574214</ele>
        <time>2023-08-12T17:59:04.136Z</time>
      </trkpt>
      <trkpt lat="44.5759" lon="5.30925">
        <ele>672.078095</ele>
        <time>2023-08-12T17:59:09.834Z</time>
      </trkpt>
      <trkpt lat="44.57614" lon="5.30952">
        <ele>675.509971</ele>
        <time>2023-08-12T17:59:25.794Z</time>
      </trkpt>
      <trkpt lat="44.57626" lon="5.30959">
        <ele>677.027098</ele>
        <time>2023-08-12T17:59:33.015Z</time>
      </trkpt>
      <trkpt lat="44.57645" lon="5.30969">
        <ele>679.193452</ele>
        <time>2023-08-12T17:59:45.759Z</time>
      </trkpt>
      <trkpt lat="44.57663" lon="5.30975">
        <ele>681.275593</ele>
        <time>2023-08-12T17:59:56.315Z</time>
      </trkpt>
      <trkpt lat="44.57675" lon="5.30981">
        <ele>682.694556</ele>
        <time>2023-08-12T18:00:04.657Z</time>
      </trkpt>
      <trkpt lat="44.57703" lon="5.30986">
        <ele>685.840189</ele>
        <time>2023-08-12T18:00:19.712Z</time>
      </trkpt>
      <trkpt lat="44.57785" lon="5.31037">
        <ele>689.395746</ele>
        <time>2023-08-12T18:00:55.338Z</time>
      </trkpt>
      <trkpt lat="44.57812" lon="5.31048">
        <ele>689.677739</ele>
        <time>2023-08-12T18:00:59.613Z</time>
      </trkpt>
      <trkpt lat="44.57856" lon="5.31058">
        <ele>690.110127</ele>
        <time>2023-08-12T18:01:03.089Z</time>
      </trkpt>
      <trkpt lat="44.57882" lon="5.31055">
        <ele>690.370435</ele>
        <time>2023-08-12T18:01:05.019Z</time>
      </trkpt>
      <trkpt lat="44.57923" lon="5.31037">
        <ele>689.49828</ele>
        <time>2023-08-12T18:01:08.088Z</time>
      </trkpt>
      <trkpt lat="44.57962" lon="5.30994">
        <ele>687.400196</ele>
        <time>2023-08-12T18:01:11.643Z</time>
      </trkpt>
      <trkpt lat="44.57967" lon="5.30992">
        <ele>687.164094</ele>
        <time>2023-08-12T18:01:12.049Z</time>
      </trkpt>
      <trkpt lat="44.57988" lon="5.30999">
        <ele>686.274393</ele>
        <time>2023-08-12T18:01:13.605Z</time>
      </trkpt>
      <trkpt lat="44.58013" lon="5.30992">
        <ele>685.221625</ele>
        <time>2023-08-12T18:01:15.507Z</time>
      </trkpt>
      <trkpt lat="44.58091" lon="5.3102">
        <ele>683.785975</ele>
        <time>2023-08-12T18:01:24.042Z</time>
      </trkpt>
      <trkpt lat="44.58176" lon="5.31034">
        <ele>686.218748</ele>
        <time>2023-08-12T18:01:44.910Z</time>
      </trkpt>
      <trkpt lat="44.58192" lon="5.31034">
        <ele>686.691805</ele>
        <time>2023-08-12T18:01:49.375Z</time>
      </trkpt>
      <trkpt lat="44.58205" lon="5.31023">
        <ele>687.124618</ele>
        <time>2023-08-12T18:01:53.256Z</time>
      </trkpt>
      <trkpt lat="44.58211" lon="5.31003">
        <ele>687.560454</ele>
        <time>2023-08-12T18:01:57.118Z</time>
      </trkpt>
      <trkpt lat="44.58223" lon="5.30992">
        <ele>687.972088</ele>
        <time>2023-08-12T18:02:00.665Z</time>
      </trkpt>
      <trkpt lat="44.58266" lon="5.30982">
        <ele>689.250686</ele>
        <time>2023-08-12T18:02:10.183Z</time>
      </trkpt>
      <trkpt lat="44.58277" lon="5.30983">
        <ele>689.580831</ele>
        <time>2023-08-12T18:02:12.628Z</time>
      </trkpt>
      <trkpt lat="44.58385" lon="5.31041">
        <ele>692.985238</ele>
        <time>2023-08-12T18:02:35.362Z</time>
      </trkpt>
      <trkpt lat="44.58398" lon="5.31044">
        <ele>693.360994</ele>
        <time>2023-08-12T18:02:38.147Z</time>
      </trkpt>
      <trkpt lat="44.58416" lon="5.3104">
        <ele>693.729136</ele>
        <time>2023-08-12T18:02:42.861Z</time>
      </trkpt>
      <trkpt lat="44.58431" lon="5.31043">
        <ele>694.000786</ele>
        <time>2023-08-12T18:02:46.471Z</time>
      </trkpt>
      <trkpt lat="44.5846" lon="5.31065">
        <ele>694.608306</ele>
        <time>2023-08-12T18:02:53.891Z</time>
      </trkpt>
      <trkpt lat="44.5849" lon="5.31075">
        <ele>695.180202</ele>
        <time>2023-08-12T18:03:00.091Z</time>
      </trkpt>
      <trkpt lat="44.58524" lon="5.31082">
        <ele>695.802455</ele>
        <time>2023-08-12T18:03:05.586Z</time>
      </trkpt>
      <trkpt lat="44.58585" lon="5.31102">
        <ele>696.715081</ele>
        <time>2023-08-12T18:03:13.118Z</time>
      </trkpt>
      <trkpt lat="44.5862" lon="5.31124">
        <ele>696.704433</ele>
        <time>2023-08-12T18:03:17.572Z</time>
      </trkpt>
      <trkpt lat="44.58644" lon="5.31142">
        <ele>696.696914</ele>
        <time>2023-08-12T18:03:20.492Z</time>
      </trkpt>
      <trkpt lat="44.58704" lon="5.31148">
        <ele>696.680226</ele>
        <time>2023-08-12T18:03:27.015Z</time>
      </trkpt>
      <trkpt lat="44.58719" lon="5.31142">
        <ele>696.676063</ele>
        <time>2023-08-12T18:03:28.873Z</time>
      </trkpt>
      <trkpt lat="44.58733" lon="5.31108">
        <ele>696.668415</ele>
        <time>2023-08-12T18:03:33.058Z</time>
      </trkpt>
      <trkpt lat="44.58739" lon="5.31073">
        <ele>696.663671</ele>
        <time>2023-08-12T18:03:36.416Z</time>
      </trkpt>
      <trkpt lat="44.58761" lon="5.31023">
        <ele>696.655823</ele>
        <time>2023-08-12T18:03:41.741Z</time>
      </trkpt>
      <trkpt lat="44.58764" lon="5.31019">
        <ele>696.654894</ele>
        <time>2023-08-12T18:03:42.569Z</time>
      </trkpt>
      <trkpt lat="44.58761" lon="5.31023">
        <ele>696.653966</ele>
        <time>2023-08-12T18:03:43.024Z</time>
      </trkpt>
      <trkpt lat="44.58739" lon="5.31073">
        <ele>696.646118</ele>
        <time>2023-08-12T18:03:47.615Z</time>
      </trkpt>
      <trkpt lat="44.58733" lon="5.31108">
        <ele>696.641374</ele>
        <time>2023-08-12T18:03:50.308Z</time>
      </trkpt>
      <trkpt lat="44.58719" lon="5.31142">
        <ele>696.635988</ele>
        <time>2023-08-12T18:03:53.155Z</time>
      </trkpt>
      <trkpt lat="44.58704" lon="5.31148">
        <ele>696.63104</ele>
        <time>2023-08-12T18:03:54.871Z</time>
      </trkpt>
      <trkpt lat="44.58644" lon="5.31142">
        <ele>696.606641</ele>
        <time>2023-08-12T18:04:02.861Z</time>
      </trkpt>
      <trkpt lat="44.5862" lon="5.31124">
        <ele>696.595647</ele>
        <time>2023-08-12T18:04:06.479Z</time>
      </trkpt>
      <trkpt lat="44.58585" lon="5.31102">
        <ele>696.580078</ele>
        <time>2023-08-12T18:04:11.203Z</time>
      </trkpt>
      <trkpt lat="44.58524" lon="5.31082">
        <ele>696.137969</ele>
        <time>2023-08-12T18:04:18.507Z</time>
      </trkpt>
      <trkpt lat="44.5849" lon="5.31075">
        <ele>695.370827</ele>
        <time>2023-08-12T18:04:21.685Z</time>
      </trkpt>
      <trkpt lat="44.5846" lon="5.31065">
        <ele>694.665768</ele>
        <time>2023-08-12T18:04:24.337Z</time>
      </trkpt>
      <trkpt lat="44.58431" lon="5.31043">
        <ele>693.91679</ele>
        <time>2023-08-12T18:04:27.019Z</time>
      </trkpt>
      <trkpt lat="44.58416" lon="5.3104">
        <ele>693.581887</ele>
        <time>2023-08-12T18:04:28.186Z</time>
      </trkpt>
      <trkpt lat="44.58398" lon="5.31044">
        <ele>693.159876</ele>
        <time>2023-08-12T18:04:29.643Z</time>
      </trkpt>
      <trkpt lat="44.58385" lon="5.31041">
        <ele>692.87201</ele>
        <time>2023-08-12T18:04:30.685Z</time>
      </trkpt>
      <trkpt lat="44.58277" lon="5.30983">
        <ele>689.468003</ele>
        <time>2023-08-12T18:04:40.506Z</time>
      </trkpt>
      <trkpt lat="44.58266" lon="5.30982">
        <ele>689.12535</ele>
        <time>2023-08-12T18:04:41.426Z</time>
      </trkpt>
      <trkpt lat="44.58223" lon="5.30992">
        <ele>687.793706</ele>
        <time>2023-08-12T18:04:44.978Z</time>
      </trkpt>
      <trkpt lat="44.58211" lon="5.31003">
        <ele>687.354906</ele>
        <time>2023-08-12T18:04:46.095Z</time>
      </trkpt>
      <trkpt lat="44.58205" lon="5.31023">
        <ele>686.928994</ele>
        <time>2023-08-12T18:04:47.277Z</time>
      </trkpt>
      <trkpt lat="44.58192" lon="5.31034">
        <ele>686.612444</ele>
        <time>2023-08-12T18:04:48.440Z</time>
      </trkpt>
      <trkpt lat="44.58176" lon="5.31034">
        <ele>686.266461</ele>
        <time>2023-08-12T18:04:49.696Z</time>
      </trkpt>
      <trkpt lat="44.58091" lon="5.3102">
        <ele>684.487186</ele>
        <time>2023-08-12T18:04:56.334Z</time>
      </trkpt>
      <trkpt lat="44.58013" lon="5.30992">
        <ele>684.340047</ele>
        <time>2023-08-12T18:05:07.431Z</time>
      </trkpt>
      <trkpt lat="44.57988" lon="5.30999">
        <ele>685.586903</ele>
        <time>2023-08-12T18:05:14.278Z</time>
      </trkpt>
      <trkpt lat="44.57967" lon="5.30992">
        <ele>686.64063</ele>
        <time>2023-08-12T18:05:20.722Z</time>
      </trkpt>
      <trkpt lat="44.57962" lon="5.30994">
        <ele>686.920261</ele>
        <time>2023-08-12T18:05:22.664Z</time>
      </trkpt>
      <trkpt lat="44.57923" lon="5.31037">
        <ele>689.405148</ele>
        <time>2023-08-12T18:05:40.713Z</time>
      </trkpt>
      <trkpt lat="44.57882" lon="5.31055">
        <ele>691.513711</ele>
        <time>2023-08-12T18:05:54.676Z</time>
      </trkpt>
      <trkpt lat="44.57856" lon="5.31058">
        <ele>691.720431</ele>
        <time>2023-08-12T18:06:02.934Z</time>
      </trkpt>
      <trkpt lat="44.57812" lon="5.31048">
        <ele>690.062402</ele>
        <time>2023-08-12T18:06:13.381Z</time>
      </trkpt>
      <trkpt lat="44.57785" lon="5.31037">
        <ele>688.981077</ele>
        <time>2023-08-12T18:06:16.185Z</time>
      </trkpt>
      <trkpt lat="44.57703" lon="5.30986">
        <ele>685.5898</ele>
        <time>2023-08-12T18:06:22.464Z</time>
      </trkpt>
      <trkpt lat="44.57675" lon="5.30981">
        <ele>683.026901</ele>
        <time>2023-08-12T18:06:24.363Z</time>
      </trkpt>
      <trkpt lat="44.57663" lon="5.30975">
        <ele>681.727408</ele>
        <time>2023-08-12T18:06:25.204Z</time>
      </trkpt>
      <trkpt lat="44.57645" lon="5.30969">
        <ele>679.820574</ele>
        <time>2023-08-12T18:06:26.456Z</time>
      </trkpt>
      <trkpt lat="44.57626" lon="5.30959">
        <ele>677.836617</ele>
        <time>2023-08-12T18:06:27.739Z</time>
      </trkpt>
      <trkpt lat="44.57614" lon="5.30952">
        <ele>676.447225</ele>
        <time>2023-08-12T18:06:28.655Z</time>
      </trkpt>
      <trkpt lat="44.5759" lon="5.30925">
        <ele>673.304297</ele>
        <time>2023-08-12T18:06:30.738Z</time>
      </trkpt>
      <trkpt lat="44.57576" lon="5.30925">
        <ele>671.927036</ele>
        <time>2023-08-12T18:06:31.671Z</time>
      </trkpt>
      <trkpt lat="44.57567" lon="5.30932">
        <ele>670.813452</ele>
        <time>2023-08-12T18:06:32.420Z</time>
      </trkpt>
      <trkpt lat="44.57552" lon="5.30963">
        <ele>668.1484</ele>
        <time>2023-08-12T18:06:34.319Z</time>
      </trkpt>
      <trkpt lat="44.57544" lon="5.30969">
        <ele>667.203903</ele>
        <time>2023-08-12T18:06:34.989Z</time>
      </trkpt>
      <trkpt lat="44.57533" lon="5.30965">
        <ele>667.294771</ele>
        <time>2023-08-12T18:06:35.917Z</time>
      </trkpt>
      <trkpt lat="44.57518" lon="5.30921">
        <ele>668.138449</ele>
        <time>2023-08-12T18:06:39.604Z</time>
      </trkpt>
      <trkpt lat="44.57504" lon="5.30909">
        <ele>668.524922</ele>
        <time>2023-08-12T18:06:43.398Z</time>
      </trkpt>
      <trkpt lat="44.57499" lon="5.30911">
        <ele>668.644178</ele>
        <time>2023-08-12T18:06:44.643Z</time>
      </trkpt>
      <trkpt lat="44.57474" lon="5.30919">
        <ele>669.277724</ele>
        <time>2023-08-12T18:06:51.876Z</time>
      </trkpt>
      <trkpt lat="44.57445" lon="5.30937">
        <ele>670.029548</ele>
        <time>2023-08-12T18:07:00.995Z</time>
      </trkpt>
      <trkpt lat="44.57427" lon="5.30918">
        <ele>670.592646</ele>
        <time>2023-08-12T18:07:08.073Z</time>
      </trkpt>
      <trkpt lat="44.57384" lon="5.30862">
        <ele>672.114662</ele>
        <time>2023-08-12T18:07:24.628Z</time>
      </trkpt>
      <trkpt lat="44.57345" lon="5.30839">
        <ele>673.325718</ele>
        <time>2023-08-12T18:07:34.815Z</time>
      </trkpt>
      <trkpt lat="44.57301" lon="5.30829">
        <ele>674.60159</ele>
        <time>2023-08-12T18:07:42.983Z</time>
      </trkpt>
      <trkpt lat="44.57296" lon="5.30821">
        <ele>674.82783</ele>
        <time>2023-08-12T18:07:44.099Z</time>
      </trkpt>
      <trkpt lat="44.57296" lon="5.30812">
        <ele>674.999887</ele>
        <time>2023-08-12T18:07:45.077Z</time>
      </trkpt>
      <trkpt lat="44.57302" lon="5.30808">
        <ele>675.186604</ele>
        <time>2023-08-12T18:07:46.198Z</time>
      </trkpt>
      <trkpt lat="44.57315" lon="5.30812">
        <ele>675.568127</ele>
        <time>2023-08-12T18:07:48.359Z</time>
      </trkpt>
      <trkpt lat="44.57337" lon="5.30824">
        <ele>676.244885</ele>
        <time>2023-08-12T18:07:52.144Z</time>
      </trkpt>
      <trkpt lat="44.57378" lon="5.30838">
        <ele>677.850845</ele>
        <time>2023-08-12T18:07:59.873Z</time>
      </trkpt>
      <trkpt lat="44.57427" lon="5.3087">
        <ele>680.065872</ele>
        <time>2023-08-12T18:08:10.660Z</time>
      </trkpt>
      <trkpt lat="44.57446" lon="5.30872">
        <ele>680.822915</ele>
        <time>2023-08-12T18:08:14.799Z</time>
      </trkpt>
      <trkpt lat="44.57463" lon="5.30862">
        <ele>681.602419</ele>
        <time>2023-08-12T18:08:19.110Z</time>
      </trkpt>
      <trkpt lat="44.57462" lon="5.30824">
        <ele>682.716458</ele>
        <time>2023-08-12T18:08:26.565Z</time>
      </trkpt>
      <trkpt lat="44.57447" lon="5.30774">
        <ele>684.636403</ele>
        <time>2023-08-12T18:08:39.518Z</time>
      </trkpt>
      <trkpt lat="44.57426" lon="5.30743">
        <ele>687.248578</ele>
        <time>2023-08-12T18:08:52.637Z</time>
      </trkpt>
      <trkpt lat="44.57387" lon="5.30701">
        <ele>691.423585</ele>
        <time>2023-08-12T18:09:16.861Z</time>
      </trkpt>
      <trkpt lat="44.57377" lon="5.30678">
        <ele>693.046135</ele>
        <time>2023-08-12T18:09:25.823Z</time>
      </trkpt>
      <trkpt lat="44.57378" lon="5.30636">
        <ele>695.624777</ele>
        <time>2023-08-12T18:09:38.277Z</time>
      </trkpt>
      <trkpt lat="44.5739" lon="5.30558">
        <ele>699.759238</ele>
        <time>2023-08-12T18:09:56.036Z</time>
      </trkpt>
      <trkpt lat="44.57395" lon="5.30541">
        <ele>700.301231</ele>
        <time>2023-08-12T18:09:59.410Z</time>
      </trkpt>
      <trkpt lat="44.57404" lon="5.30524">
        <ele>700.881406</ele>
        <time>2023-08-12T18:10:03.420Z</time>
      </trkpt>
      <trkpt lat="44.5742" lon="5.30517">
        <ele>701.560254</ele>
        <time>2023-08-12T18:10:07.504Z</time>
      </trkpt>
      <trkpt lat="44.57434" lon="5.30534">
        <ele>702.256707</ele>
        <time>2023-08-12T18:10:12.214Z</time>
      </trkpt>
      <trkpt lat="44.57434" lon="5.30621">
        <ele>704.712117</ele>
        <time>2023-08-12T18:10:27.628Z</time>
      </trkpt>
      <trkpt lat="44.57436" lon="5.30635">
        <ele>705.098085</ele>
        <time>2023-08-12T18:10:30.122Z</time>
      </trkpt>
      <trkpt lat="44.57442" lon="5.30639">
        <ele>705.358556</ele>
        <time>2023-08-12T18:10:31.345Z</time>
      </trkpt>
      <trkpt lat="44.57448" lon="5.3063">
        <ele>705.704353</ele>
        <time>2023-08-12T18:10:32.936Z</time>
      </trkpt>
      <trkpt lat="44.57443" lon="5.30605">
        <ele>706.34512</ele>
        <time>2023-08-12T18:10:36.451Z</time>
      </trkpt>
      <trkpt lat="44.57445" lon="5.30579">
        <ele>706.737093</ele>
        <time>2023-08-12T18:10:38.889Z</time>
      </trkpt>
      <trkpt lat="44.5746" lon="5.30504">
        <ele>707.893327</ele>
        <time>2023-08-12T18:10:45.903Z</time>
      </trkpt>
      <trkpt lat="44.57462" lon="5.30466">
        <ele>708.456681</ele>
        <time>2023-08-12T18:10:50.050Z</time>
      </trkpt>
      <trkpt lat="44.57468" lon="5.30461">
        <ele>708.599384</ele>
        <time>2023-08-12T18:10:51.364Z</time>
      </trkpt>
      <trkpt lat="44.57475" lon="5.30463">
        <ele>708.744473</ele>
        <time>2023-08-12T18:10:52.689Z</time>
      </trkpt>
      <trkpt lat="44.57475" lon="5.30475">
        <ele>708.92457</ele>
        <time>2023-08-12T18:10:54.305Z</time>
      </trkpt>
      <trkpt lat="44.57468" lon="5.30506">
        <ele>709.40296</ele>
        <time>2023-08-12T18:10:59.444Z</time>
      </trkpt>
      <trkpt lat="44.57471" lon="5.30564">
        <ele>710.649775</ele>
        <time>2023-08-12T18:11:09.489Z</time>
      </trkpt>
      <trkpt lat="44.57479" lon="5.30594">
        <ele>711.848086</ele>
        <time>2023-08-12T18:11:15.448Z</time>
      </trkpt>
      <trkpt lat="44.57494" lon="5.30619">
        <ele>713.027348</ele>
        <time>2023-08-12T18:11:21.385Z</time>
      </trkpt>
      <trkpt lat="44.57504" lon="5.30652">
        <ele>714.349759</ele>
        <time>2023-08-12T18:11:28.445Z</time>
      </trkpt>
      <trkpt lat="44.57511" lon="5.30651">
        <ele>714.739699</ele>
        <time>2023-08-12T18:11:30.543Z</time>
      </trkpt>
      <trkpt lat="44.57514" lon="5.30642">
        <ele>715.09915</ele>
        <time>2023-08-12T18:11:32.549Z</time>
      </trkpt>
      <trkpt lat="44.57511" lon="5.30625">
        <ele>715.771546</ele>
        <time>2023-08-12T18:11:36.476Z</time>
      </trkpt>
      <trkpt lat="44.57503" lon="5.30603">
        <ele>716.639266</ele>
        <time>2023-08-12T18:11:41.523Z</time>
      </trkpt>
      <trkpt lat="44.57498" lon="5.30572">
        <ele>717.826798</ele>
        <time>2023-08-12T18:11:48.834Z</time>
      </trkpt>
      <trkpt lat="44.575" lon="5.3054">
        <ele>719.031288</ele>
        <time>2023-08-12T18:11:56.477Z</time>
      </trkpt>
      <trkpt lat="44.57508" lon="5.30504">
        <ele>720.257152</ele>
        <time>2023-08-12T18:12:05.412Z</time>
      </trkpt>
      <trkpt lat="44.5753" lon="5.30441">
        <ele>722.489826</ele>
        <time>2023-08-12T18:12:21.492Z</time>
      </trkpt>
      <trkpt lat="44.57531" lon="5.30417">
        <ele>723.2292</ele>
        <time>2023-08-12T18:12:25.966Z</time>
      </trkpt>
      <trkpt lat="44.57534" lon="5.30407">
        <ele>723.587351</ele>
        <time>2023-08-12T18:12:28.028Z</time>
      </trkpt>
      <trkpt lat="44.57542" lon="5.30406">
        <ele>723.921172</ele>
        <time>2023-08-12T18:12:29.911Z</time>
      </trkpt>
      <trkpt lat="44.57547" lon="5.30415">
        <ele>724.285625</ele>
        <time>2023-08-12T18:12:31.889Z</time>
      </trkpt>
      <trkpt lat="44.57543" lon="5.30435">
        <ele>724.936727</ele>
        <time>2023-08-12T18:12:35.017Z</time>
      </trkpt>
      <trkpt lat="44.57537" lon="5.30514">
        <ele>727.50145</ele>
        <time>2023-08-12T18:12:45.758Z</time>
      </trkpt>
      <trkpt lat="44.5756" lon="5.30606">
        <ele>730.905806</ele>
        <time>2023-08-12T18:13:00.084Z</time>
      </trkpt>
      <trkpt lat="44.5756" lon="5.30637">
        <ele>731.986163</ele>
        <time>2023-08-12T18:13:05.481Z</time>
      </trkpt>
      <trkpt lat="44.57563" lon="5.30667">
        <ele>733.023359</ele>
        <time>2023-08-12T18:13:11.435Z</time>
      </trkpt>
      <trkpt lat="44.57568" lon="5.30675">
        <ele>733.406648</ele>
        <time>2023-08-12T18:13:13.626Z</time>
      </trkpt>
      <trkpt lat="44.57576" lon="5.30675">
        <ele>733.802936</ele>
        <time>2023-08-12T18:13:16.104Z</time>
      </trkpt>
      <trkpt lat="44.5758" lon="5.30663">
        <ele>734.238227</ele>
        <time>2023-08-12T18:13:18.996Z</time>
      </trkpt>
      <trkpt lat="44.57573" lon="5.30642">
        <ele>735.058584</ele>
        <time>2023-08-12T18:13:24.516Z</time>
      </trkpt>
      <trkpt lat="44.57578" lon="5.30597">
        <ele>737.33623</ele>
        <time>2023-08-12T18:13:36.517Z</time>
      </trkpt>
      <trkpt lat="44.57576" lon="5.30548">
        <ele>741.28597</ele>
        <time>2023-08-12T18:13:51.716Z</time>
      </trkpt>
      <trkpt lat="44.57582" lon="5.30498">
        <ele>745.385108</ele>
        <time>2023-08-12T18:14:09.865Z</time>
      </trkpt>
      <trkpt lat="44.57589" lon="5.30461">
        <ele>748.489614</ele>
        <time>2023-08-12T18:14:24.806Z</time>
      </trkpt>
      <trkpt lat="44.57604" lon="5.30397">
        <ele>753.921311</ele>
        <time>2023-08-12T18:14:51.386Z</time>
      </trkpt>
      <trkpt lat="44.57603" lon="5.30246">
        <ele>765.613977</ele>
        <time>2023-08-12T18:15:43.195Z</time>
      </trkpt>
      <trkpt lat="44.57602" lon="5.3023">
        <ele>766.86242</ele>
        <time>2023-08-12T18:15:48.233Z</time>
      </trkpt>
      <trkpt lat="44.57595" lon="5.30221">
        <ele>767.866094</ele>
        <time>2023-08-12T18:15:52.333Z</time>
      </trkpt>
      <trkpt lat="44.57563" lon="5.30198">
        <ele>771.685295</ele>
        <time>2023-08-12T18:16:07.389Z</time>
      </trkpt>
      <trkpt lat="44.57557" lon="5.30174">
        <ele>773.627486</ele>
        <time>2023-08-12T18:16:14.682Z</time>
      </trkpt>
      <trkpt lat="44.5755" lon="5.30131">
        <ele>776.853481</ele>
        <time>2023-08-12T18:16:28.940Z</time>
      </trkpt>
      <trkpt lat="44.57541" lon="5.30099">
        <ele>779.153817</ele>
        <time>2023-08-12T18:16:40.383Z</time>
      </trkpt>
      <trkpt lat="44.57534" lon="5.30084">
        <ele>780.309035</ele>
        <time>2023-08-12T18:16:46.397Z</time>
      </trkpt>
      <trkpt lat="44.57524" lon="5.30078">
        <ele>781.406675</ele>
        <time>2023-08-12T18:16:51.897Z</time>
      </trkpt>
      <trkpt lat="44.57492" lon="5.30068">
        <ele>784.407381</ele>
        <time>2023-08-12T18:17:07.216Z</time>
      </trkpt>
      <trkpt lat="44.57459" lon="5.30067">
        <ele>787.470049</ele>
        <time>2023-08-12T18:17:21.431Z</time>
      </trkpt>
      <trkpt lat="44.57452" lon="5.30054">
        <ele>788.530298</ele>
        <time>2023-08-12T18:17:26.144Z</time>
      </trkpt>
      <trkpt lat="44.57451" lon="5.30035">
        <ele>789.80591</ele>
        <time>2023-08-12T18:17:31.665Z</time>
      </trkpt>
      <trkpt lat="44.57391" lon="5.30044">
        <ele>792.868689</ele>
        <time>2023-08-12T18:17:51.626Z</time>
      </trkpt>
      <trkpt lat="44.57377" lon="5.30053">
        <ele>793.006861</ele>
        <time>2023-08-12T18:17:55.904Z</time>
      </trkpt>
      <trkpt lat="44.57366" lon="5.30075">
        <ele>793.189636</ele>
        <time>2023-08-12T18:18:01.007Z</time>
      </trkpt>
      <trkpt lat="44.57275" lon="5.30317">
        <ele>790.821411</ele>
        <time>2023-08-12T18:18:17.878Z</time>
      </trkpt>
      <trkpt lat="44.57243" lon="5.30365">
        <ele>788.827808</ele>
        <time>2023-08-12T18:18:21.232Z</time>
      </trkpt>
      <trkpt lat="44.57174" lon="5.30426">
        <ele>786.198159</ele>
        <time>2023-08-12T18:18:27.217Z</time>
      </trkpt>
      <trkpt lat="44.57096" lon="5.30458">
        <ele>785.180406</ele>
        <time>2023-08-12T18:18:34.046Z</time>
      </trkpt>
      <trkpt lat="44.57006" lon="5.30505">
        <ele>784.928349</ele>
        <time>2023-08-12T18:18:52.968Z</time>
      </trkpt>
      <trkpt lat="44.56941" lon="5.30493">
        <ele>786.520779</ele>
        <time>2023-08-12T18:19:07.321Z</time>
      </trkpt>
      <trkpt lat="44.5692" lon="5.305">
        <ele>787.053232</ele>
        <time>2023-08-12T18:19:12.234Z</time>
      </trkpt>
      <trkpt lat="44.5687" lon="5.30642">
        <ele>790.212598</ele>
        <time>2023-08-12T18:19:31.550Z</time>
      </trkpt>
      <trkpt lat="44.56764" lon="5.3073">
        <ele>794.280138</ele>
        <time>2023-08-12T18:19:56.241Z</time>
      </trkpt>
      <trkpt lat="44.56755" lon="5.30732">
        <ele>794.591592</ele>
        <time>2023-08-12T18:19:59.393Z</time>
      </trkpt>
      <trkpt lat="44.56644" lon="5.30723">
        <ele>804.247941</ele>
        <time>2023-08-12T18:20:45.357Z</time>
      </trkpt>
      <trkpt lat="44.56626" lon="5.30725">
        <ele>805.781312</ele>
        <time>2023-08-12T18:20:53.497Z</time>
      </trkpt>
      <trkpt lat="44.56618" lon="5.30733">
        <ele>806.658409</ele>
        <time>2023-08-12T18:20:57.951Z</time>
      </trkpt>
      <trkpt lat="44.56617" lon="5.3077">
        <ele>809.012838</ele>
        <time>2023-08-12T18:21:10.589Z</time>
      </trkpt>
      <trkpt lat="44.56612" lon="5.30779">
        <ele>809.681775</ele>
        <time>2023-08-12T18:21:14.095Z</time>
      </trkpt>
      <trkpt lat="44.56595" lon="5.3078">
        <ele>810.750741</ele>
        <time>2023-08-12T18:21:21.671Z</time>
      </trkpt>
      <trkpt lat="44.56584" lon="5.30786">
        <ele>811.167768</ele>
        <time>2023-08-12T18:21:26.793Z</time>
      </trkpt>
      <trkpt lat="44.56582" lon="5.30799">
        <ele>811.485242</ele>
        <time>2023-08-12T18:21:30.494Z</time>
      </trkpt>
      <trkpt lat="44.56609" lon="5.30839">
        <ele>812.827082</ele>
        <time>2023-08-12T18:21:43.514Z</time>
      </trkpt>
      <trkpt lat="44.56612" lon="5.30853">
        <ele>813.167235</ele>
        <time>2023-08-12T18:21:46.211Z</time>
      </trkpt>
      <trkpt lat="44.5661" lon="5.3086">
        <ele>813.357808</ele>
        <time>2023-08-12T18:21:47.612Z</time>
      </trkpt>
      <trkpt lat="44.5659" lon="5.30883">
        <ele>814.251792</ele>
        <time>2023-08-12T18:21:53.101Z</time>
      </trkpt>
      <trkpt lat="44.56587" lon="5.3089">
        <ele>814.449229</ele>
        <time>2023-08-12T18:21:54.081Z</time>
      </trkpt>
      <trkpt lat="44.56587" lon="5.30902">
        <ele>814.737676</ele>
        <time>2023-08-12T18:21:55.190Z</time>
      </trkpt>
      <trkpt lat="44.56613" lon="5.30955">
        <ele>816.330312</ele>
        <time>2023-08-12T18:21:59.494Z</time>
      </trkpt>
      <trkpt lat="44.56618" lon="5.30977">
        <ele>816.282299</ele>
        <time>2023-08-12T18:22:00.856Z</time>
      </trkpt>
      <trkpt lat="44.56613" lon="5.31021">
        <ele>814.839484</ele>
        <time>2023-08-12T18:22:03.447Z</time>
      </trkpt>
      <trkpt lat="44.56614" lon="5.31036">
        <ele>814.341243</ele>
        <time>2023-08-12T18:22:04.306Z</time>
      </trkpt>
      <trkpt lat="44.56628" lon="5.31072">
        <ele>812.992502</ele>
        <time>2023-08-12T18:22:06.589Z</time>
      </trkpt>
      <trkpt lat="44.56632" lon="5.31153">
        <ele>810.376516</ele>
        <time>2023-08-12T18:22:10.931Z</time>
      </trkpt>
      <trkpt lat="44.56628" lon="5.31166">
        <ele>809.917362</ele>
        <time>2023-08-12T18:22:11.676Z</time>
      </trkpt>
      <trkpt lat="44.56622" lon="5.31176">
        <ele>809.499103</ele>
        <time>2023-08-12T18:22:12.348Z</time>
      </trkpt>
      <trkpt lat="44.56589" lon="5.31201">
        <ele>807.871412</ele>
        <time>2023-08-12T18:22:15.020Z</time>
      </trkpt>
      <trkpt lat="44.56529" lon="5.31324">
        <ele>803.526434</ele>
        <time>2023-08-12T18:22:22.733Z</time>
      </trkpt>
      <trkpt lat="44.56479" lon="5.31402">
        <ele>801.243521</ele>
        <time>2023-08-12T18:22:30.500Z</time>
      </trkpt>
      <trkpt lat="44.56463" lon="5.3142">
        <ele>801.482081</ele>
        <time>2023-08-12T18:22:34.327Z</time>
      </trkpt>
      <trkpt lat="44.56452" lon="5.31421">
        <ele>801.605683</ele>
        <time>2023-08-12T18:22:36.273Z</time>
      </trkpt>
      <trkpt lat="44.56401" lon="5.31392">
        <ele>802.251502</ele>
        <time>2023-08-12T18:22:46.287Z</time>
      </trkpt>
      <trkpt lat="44.56388" lon="5.31392">
        <ele>802.409354</ele>
        <time>2023-08-12T18:22:48.706Z</time>
      </trkpt>
      <trkpt lat="44.5633" lon="5.31415">
        <ele>803.113149</ele>
        <time>2023-08-12T18:22:59.314Z</time>
      </trkpt>
      <trkpt lat="44.56324" lon="5.31428">
        <ele>802.936446</ele>
        <time>2023-08-12T18:23:01.412Z</time>
      </trkpt>
      <trkpt lat="44.56323" lon="5.31444">
        <ele>802.547355</ele>
        <time>2023-08-12T18:23:03.243Z</time>
      </trkpt>
      <trkpt lat="44.56343" lon="5.31482">
        <ele>801.402502</ele>
        <time>2023-08-12T18:23:07.298Z</time>
      </trkpt>
      <trkpt lat="44.56345" lon="5.31501">
        <ele>800.925509</ele>
        <time>2023-08-12T18:23:08.512Z</time>
      </trkpt>
      <trkpt lat="44.56325" lon="5.31615">
        <ele>798.086591</ele>
        <time>2023-08-12T18:23:14.681Z</time>
      </trkpt>
      <trkpt lat="44.56319" lon="5.31648">
        <ele>797.240758</ele>
        <time>2023-08-12T18:23:16.435Z</time>
      </trkpt>
      <trkpt lat="44.5631" lon="5.31675">
        <ele>796.755606</ele>
        <time>2023-08-12T18:23:17.900Z</time>
      </trkpt>
      <trkpt lat="44.56252" lon="5.3178">
        <ele>794.910158</ele>
        <time>2023-08-12T18:23:25.774Z</time>
      </trkpt>
      <trkpt lat="44.56243" lon="5.31787">
        <ele>794.709431</ele>
        <time>2023-08-12T18:23:27.223Z</time>
      </trkpt>
      <trkpt lat="44.56182" lon="5.31764">
        <ele>793.511163</ele>
        <time>2023-08-12T18:23:37.066Z</time>
      </trkpt>
      <trkpt lat="44.56146" lon="5.31759">
        <ele>793.191126</ele>
        <time>2023-08-12T18:23:42.667Z</time>
      </trkpt>
      <trkpt lat="44.56122" lon="5.31763">
        <ele>792.96779</ele>
        <time>2023-08-12T18:23:46.916Z</time>
      </trkpt>
      <trkpt lat="44.56108" lon="5.31769">
        <ele>792.841242</ele>
        <time>2023-08-12T18:23:49.150Z</time>
      </trkpt>
      <trkpt lat="44.56105" lon="5.31782">
        <ele>792.752412</ele>
        <time>2023-08-12T18:23:50.833Z</time>
      </trkpt>
      <trkpt lat="44.56107" lon="5.31798">
        <ele>792.654107</ele>
        <time>2023-08-12T18:23:52.769Z</time>
      </trkpt>
      <trkpt lat="44.56139" lon="5.31857">
        <ele>792.184365</ele>
        <time>2023-08-12T18:23:57.891Z</time>
      </trkpt>
      <trkpt lat="44.56144" lon="5.31871">
        <ele>792.0834</ele>
        <time>2023-08-12T18:23:58.779Z</time>
      </trkpt>
      <trkpt lat="44.56145" lon="5.31883">
        <ele>792.002566</ele>
        <time>2023-08-12T18:23:59.484Z</time>
      </trkpt>
      <trkpt lat="44.5614" lon="5.31914">
        <ele>790.595558</ele>
        <time>2023-08-12T18:24:01.124Z</time>
      </trkpt>
      <trkpt lat="44.56121" lon="5.31978">
        <ele>786.148966</ele>
        <time>2023-08-12T18:24:04.632Z</time>
      </trkpt>
      <trkpt lat="44.56123" lon="5.32095">
        <ele>778.732865</ele>
        <time>2023-08-12T18:24:10.296Z</time>
      </trkpt>
      <trkpt lat="44.56121" lon="5.32102">
        <ele>778.243415</ele>
        <time>2023-08-12T18:24:10.669Z</time>
      </trkpt>
      <trkpt lat="44.56116" lon="5.32107">
        <ele>777.70514</ele>
        <time>2023-08-12T18:24:11.079Z</time>
      </trkpt>
      <trkpt lat="44.56063" lon="5.32112">
        <ele>773.122771</ele>
        <time>2023-08-12T18:24:14.691Z</time>
      </trkpt>
      <trkpt lat="44.56045" lon="5.32117">
        <ele>771.505806</ele>
        <time>2023-08-12T18:24:16.002Z</time>
      </trkpt>
      <trkpt lat="44.55976" lon="5.32183">
        <ele>764.387086</ele>
        <time>2023-08-12T18:24:21.934Z</time>
      </trkpt>
      <trkpt lat="44.55963" lon="5.32187">
        <ele>763.235739</ele>
        <time>2023-08-12T18:24:22.886Z</time>
      </trkpt>
      <trkpt lat="44.55938" lon="5.32195">
        <ele>761.042596</ele>
        <time>2023-08-12T18:24:24.717Z</time>
      </trkpt>
      <trkpt lat="44.55874" lon="5.32179">
        <ele>757.011969</ele>
        <time>2023-08-12T18:24:29.333Z</time>
      </trkpt>
      <trkpt lat="44.55864" lon="5.32185">
        <ele>756.36371</ele>
        <time>2023-08-12T18:24:30.119Z</time>
      </trkpt>
      <trkpt lat="44.55861" lon="5.32196">
        <ele>755.87718</ele>
        <time>2023-08-12T18:24:30.712Z</time>
      </trkpt>
      <trkpt lat="44.55859" lon="5.32227">
        <ele>754.547028</ele>
        <time>2023-08-12T18:24:32.384Z</time>
      </trkpt>
      <trkpt lat="44.55852" lon="5.3224">
        <ele>753.864383</ele>
        <time>2023-08-12T18:24:33.244Z</time>
      </trkpt>
      <trkpt lat="44.55834" lon="5.32261">
        <ele>752.488026</ele>
        <time>2023-08-12T18:24:35.063Z</time>
      </trkpt>
      <trkpt lat="44.55809" lon="5.32266">
        <ele>750.976756</ele>
        <time>2023-08-12T18:24:37.023Z</time>
      </trkpt>
      <trkpt lat="44.55784" lon="5.32257">
        <ele>749.666934</ele>
        <time>2023-08-12T18:24:39.009Z</time>
      </trkpt>
      <trkpt lat="44.55699" lon="5.32272">
        <ele>747.636344</ele>
        <time>2023-08-12T18:24:45.511Z</time>
      </trkpt>
      <trkpt lat="44.55607" lon="5.32303">
        <ele>745.813466</ele>
        <time>2023-08-12T18:24:54.911Z</time>
      </trkpt>
      <trkpt lat="44.55579" lon="5.32321">
        <ele>746.969123</ele>
        <time>2023-08-12T18:25:01.716Z</time>
      </trkpt>
      <trkpt lat="44.55567" lon="5.32333">
        <ele>747.50286</ele>
        <time>2023-08-12T18:25:04.917Z</time>
      </trkpt>
      <trkpt lat="44.55513" lon="5.32428">
        <ele>750.745081</ele>
        <time>2023-08-12T18:25:27.312Z</time>
      </trkpt>
      <trkpt lat="44.55503" lon="5.32445">
        <ele>751.311971</ele>
        <time>2023-08-12T18:25:31.699Z</time>
      </trkpt>
      <trkpt lat="44.555" lon="5.3245">
        <ele>751.505133</ele>
        <time>2023-08-12T18:25:33.059Z</time>
      </trkpt>
      <trkpt lat="44.55496" lon="5.32456">
        <ele>751.702031</ele>
        <time>2023-08-12T18:25:34.514Z</time>
      </trkpt>
      <trkpt lat="44.55495" lon="5.32474">
        <ele>752.165132</ele>
        <time>2023-08-12T18:25:38.516Z</time>
      </trkpt>
      <trkpt lat="44.55504" lon="5.32487">
        <ele>752.796592</ele>
        <time>2023-08-12T18:25:42.384Z</time>
      </trkpt>
      <trkpt lat="44.55539" lon="5.32505">
        <ele>754.746729</ele>
        <time>2023-08-12T18:25:54.120Z</time>
      </trkpt>
      <trkpt lat="44.55573" lon="5.32543">
        <ele>756.996485</ele>
        <time>2023-08-12T18:26:07.391Z</time>
      </trkpt>
      <trkpt lat="44.55618" lon="5.32564">
        <ele>759.404667</ele>
        <time>2023-08-12T18:26:20.907Z</time>
      </trkpt>
      <trkpt lat="44.55624" lon="5.3257">
        <ele>759.808061</ele>
        <time>2023-08-12T18:26:23.139Z</time>
      </trkpt>
      <trkpt lat="44.55629" lon="5.32604">
        <ele>761.058318</ele>
        <time>2023-08-12T18:26:29.096Z</time>
      </trkpt>
      <trkpt lat="44.55635" lon="5.32626">
        <ele>761.832083</ele>
        <time>2023-08-12T18:26:33.404Z</time>
      </trkpt>
      <trkpt lat="44.55654" lon="5.32646">
        <ele>762.709621</ele>
        <time>2023-08-12T18:26:38.887Z</time>
      </trkpt>
      <trkpt lat="44.5568" lon="5.32665">
        <ele>763.791158</ele>
        <time>2023-08-12T18:26:45.852Z</time>
      </trkpt>
      <trkpt lat="44.5571" lon="5.32675">
        <ele>764.941432</ele>
        <time>2023-08-12T18:26:52.822Z</time>
      </trkpt>
      <trkpt lat="44.55718" lon="5.32683">
        <ele>765.321703</ele>
        <time>2023-08-12T18:26:54.967Z</time>
      </trkpt>
      <trkpt lat="44.55725" lon="5.32696">
        <ele>765.731513</ele>
        <time>2023-08-12T18:26:57.391Z</time>
      </trkpt>
      <trkpt lat="44.55741" lon="5.32726">
        <ele>766.738832</ele>
        <time>2023-08-12T18:27:03.018Z</time>
      </trkpt>
      <trkpt lat="44.5575" lon="5.32735">
        <ele>767.135766</ele>
        <time>2023-08-12T18:27:05.207Z</time>
      </trkpt>
      <trkpt lat="44.55796" lon="5.32775">
        <ele>769.669159</ele>
        <time>2023-08-12T18:27:18.729Z</time>
      </trkpt>
      <trkpt lat="44.55808" lon="5.32782">
        <ele>770.409769</ele>
        <time>2023-08-12T18:27:22.350Z</time>
      </trkpt>
      <trkpt lat="44.55886" lon="5.32796">
        <ele>774.838462</ele>
        <time>2023-08-12T18:27:48.447Z</time>
      </trkpt>
      <trkpt lat="44.55893" lon="5.32807">
        <ele>775.426572</ele>
        <time>2023-08-12T18:27:51.722Z</time>
      </trkpt>
      <trkpt lat="44.55894" lon="5.32823">
        <ele>776.072689</ele>
        <time>2023-08-12T18:27:55.306Z</time>
      </trkpt>
      <trkpt lat="44.55858" lon="5.32907">
        <ele>779.7566</ele>
        <time>2023-08-12T18:28:16.924Z</time>
      </trkpt>
      <trkpt lat="44.55859" lon="5.32927">
        <ele>780.391891</ele>
        <time>2023-08-12T18:28:20.892Z</time>
      </trkpt>
      <trkpt lat="44.55919" lon="5.33008">
        <ele>784.212459</ele>
        <time>2023-08-12T18:28:42.666Z</time>
      </trkpt>
      <trkpt lat="44.55929" lon="5.33009">
        <ele>784.674889</ele>
        <time>2023-08-12T18:28:45.433Z</time>
      </trkpt>
      <trkpt lat="44.55946" lon="5.33001">
        <ele>785.517274</ele>
        <time>2023-08-12T18:28:49.802Z</time>
      </trkpt>
      <trkpt lat="44.55955" lon="5.33001">
        <ele>785.931961</ele>
        <time>2023-08-12T18:28:52.145Z</time>
      </trkpt>
      <trkpt lat="44.55975" lon="5.3302">
        <ele>787.108153</ele>
        <time>2023-08-12T18:28:57.769Z</time>
      </trkpt>
      <trkpt lat="44.55984" lon="5.33018">
        <ele>787.569593</ele>
        <time>2023-08-12T18:28:59.831Z</time>
      </trkpt>
      <trkpt lat="44.55989" lon="5.33009">
        <ele>787.959299</ele>
        <time>2023-08-12T18:29:01.744Z</time>
      </trkpt>
      <trkpt lat="44.55995" lon="5.32988">
        <ele>788.77103</ele>
        <time>2023-08-12T18:29:04.778Z</time>
      </trkpt>
      <trkpt lat="44.56003" lon="5.32981">
        <ele>789.270896</ele>
        <time>2023-08-12T18:29:06.913Z</time>
      </trkpt>
      <trkpt lat="44.56017" lon="5.3298">
        <ele>789.980454</ele>
        <time>2023-08-12T18:29:10.456Z</time>
      </trkpt>
      <trkpt lat="44.56032" lon="5.32984">
        <ele>790.719385</ele>
        <time>2023-08-12T18:29:13.506Z</time>
      </trkpt>
      <trkpt lat="44.56085" lon="5.3303">
        <ele>793.885788</ele>
        <time>2023-08-12T18:29:30.235Z</time>
      </trkpt>
      <trkpt lat="44.56096" lon="5.33047">
        <ele>794.714251</ele>
        <time>2023-08-12T18:29:35.202Z</time>
      </trkpt>
      <trkpt lat="44.56103" lon="5.33101">
        <ele>797.310847</ele>
        <time>2023-08-12T18:29:50.070Z</time>
      </trkpt>
      <trkpt lat="44.56097" lon="5.33151">
        <ele>800.455</ele>
        <time>2023-08-12T18:30:06.896Z</time>
      </trkpt>
      <trkpt lat="44.56041" lon="5.33302">
        <ele>811.056369</ele>
        <time>2023-08-12T18:30:59.091Z</time>
      </trkpt>
      <trkpt lat="44.56035" lon="5.33352">
        <ele>812.620631</ele>
        <time>2023-08-12T18:31:10.094Z</time>
      </trkpt>
      <trkpt lat="44.56032" lon="5.33432">
        <ele>814.667941</ele>
        <time>2023-08-12T18:31:23.770Z</time>
      </trkpt>
      <trkpt lat="44.56037" lon="5.33448">
        <ele>815.100447</ele>
        <time>2023-08-12T18:31:26.271Z</time>
      </trkpt>
      <trkpt lat="44.56049" lon="5.33461">
        <ele>815.652136</ele>
        <time>2023-08-12T18:31:29.010Z</time>
      </trkpt>
      <trkpt lat="44.56117" lon="5.3346">
        <ele>818.030251</ele>
        <time>2023-08-12T18:31:40.219Z</time>
      </trkpt>
      <trkpt lat="44.56125" lon="5.33469">
        <ele>818.347779</ele>
        <time>2023-08-12T18:31:41.709Z</time>
      </trkpt>
      <trkpt lat="44.56161" lon="5.3356">
        <ele>820.622256</ele>
        <time>2023-08-12T18:31:53.869Z</time>
      </trkpt>
      <trkpt lat="44.56162" lon="5.33577">
        <ele>821.009741</ele>
        <time>2023-08-12T18:31:56.544Z</time>
      </trkpt>
      <trkpt lat="44.56156" lon="5.33595">
        <ele>821.426595</ele>
        <time>2023-08-12T18:31:59.403Z</time>
      </trkpt>
      <trkpt lat="44.56123" lon="5.33653">
        <ele>823.060188</ele>
        <time>2023-08-12T18:32:14.084Z</time>
      </trkpt>
      <trkpt lat="44.56102" lon="5.33703">
        <ele>824.304549</ele>
        <time>2023-08-12T18:32:27.169Z</time>
      </trkpt>
      <trkpt lat="44.56093" lon="5.33737">
        <ele>825.093205</ele>
        <time>2023-08-12T18:32:34.790Z</time>
      </trkpt>
      <trkpt lat="44.56086" lon="5.33765">
        <ele>825.712031</ele>
        <time>2023-08-12T18:32:40.004Z</time>
      </trkpt>
      <trkpt lat="44.56056" lon="5.33816">
        <ele>827.116268</ele>
        <time>2023-08-12T18:32:50.495Z</time>
      </trkpt>
      <trkpt lat="44.56054" lon="5.33844">
        <ele>827.714991</ele>
        <time>2023-08-12T18:32:53.588Z</time>
      </trkpt>
      <trkpt lat="44.56061" lon="5.33874">
        <ele>828.382262</ele>
        <time>2023-08-12T18:32:56.991Z</time>
      </trkpt>
      <trkpt lat="44.56072" lon="5.33896">
        <ele>828.824438</ele>
        <time>2023-08-12T18:32:58.904Z</time>
      </trkpt>
      <trkpt lat="44.56082" lon="5.33906">
        <ele>828.799929</ele>
        <time>2023-08-12T18:33:00.436Z</time>
      </trkpt>
      <trkpt lat="44.56102" lon="5.33917">
        <ele>828.761214</ele>
        <time>2023-08-12T18:33:02.265Z</time>
      </trkpt>
      <trkpt lat="44.5611" lon="5.33925">
        <ele>828.742224</ele>
        <time>2023-08-12T18:33:03.352Z</time>
      </trkpt>
      <trkpt lat="44.56114" lon="5.33938">
        <ele>828.723826</ele>
        <time>2023-08-12T18:33:04.360Z</time>
      </trkpt>
      <trkpt lat="44.56136" lon="5.34005">
        <ele>828.625593</ele>
        <time>2023-08-12T18:33:09.011Z</time>
      </trkpt>
      <trkpt lat="44.56136" lon="5.34025">
        <ele>828.598583</ele>
        <time>2023-08-12T18:33:10.595Z</time>
      </trkpt>
      <trkpt lat="44.56125" lon="5.34051">
        <ele>828.55865</ele>
        <time>2023-08-12T18:33:12.591Z</time>
      </trkpt>
      <trkpt lat="44.56094" lon="5.34082">
        <ele>828.727602</ele>
        <time>2023-08-12T18:33:18.073Z</time>
      </trkpt>
      <trkpt lat="44.56064" lon="5.34101">
        <ele>830.463524</ele>
        <time>2023-08-12T18:33:25.614Z</time>
      </trkpt>
      <trkpt lat="44.5605" lon="5.34101">
        <ele>831.186631</ele>
        <time>2023-08-12T18:33:29.428Z</time>
      </trkpt>
      <trkpt lat="44.55999" lon="5.34074">
        <ele>834.08119</ele>
        <time>2023-08-12T18:33:45.254Z</time>
      </trkpt>
      <trkpt lat="44.55985" lon="5.34072">
        <ele>834.813358</ele>
        <time>2023-08-12T18:33:49.703Z</time>
      </trkpt>
      <trkpt lat="44.55962" lon="5.3408">
        <ele>836.078595</ele>
        <time>2023-08-12T18:33:57.384Z</time>
      </trkpt>
      <trkpt lat="44.55916" lon="5.3411">
        <ele>839.251729</ele>
        <time>2023-08-12T18:34:15.927Z</time>
      </trkpt>
      <trkpt lat="44.55904" lon="5.34122">
        <ele>840.532503</ele>
        <time>2023-08-12T18:34:21.860Z</time>
      </trkpt>
      <trkpt lat="44.55843" lon="5.34209">
        <ele>848.14801</ele>
        <time>2023-08-12T18:34:59.288Z</time>
      </trkpt>
      <trkpt lat="44.5583" lon="5.3422">
        <ele>849.488379</ele>
        <time>2023-08-12T18:35:05.812Z</time>
      </trkpt>
      <trkpt lat="44.55816" lon="5.34224">
        <ele>850.778862</ele>
        <time>2023-08-12T18:35:11.741Z</time>
      </trkpt>
      <trkpt lat="44.5578" lon="5.34221">
        <ele>853.861939</ele>
        <time>2023-08-12T18:35:25.393Z</time>
      </trkpt>
      <trkpt lat="44.5573" lon="5.34223">
        <ele>856.643757</ele>
        <time>2023-08-12T18:35:42.970Z</time>
      </trkpt>
      <trkpt lat="44.5572" lon="5.34233">
        <ele>857.351179</ele>
        <time>2023-08-12T18:35:47.254Z</time>
      </trkpt>
      <trkpt lat="44.55718" lon="5.34252">
        <ele>858.125299</ele>
        <time>2023-08-12T18:35:51.884Z</time>
      </trkpt>
      <trkpt lat="44.55734" lon="5.3428">
        <ele>859.57743</ele>
        <time>2023-08-12T18:36:00.502Z</time>
      </trkpt>
      <trkpt lat="44.55741" lon="5.34307">
        <ele>860.729684</ele>
        <time>2023-08-12T18:36:07.018Z</time>
      </trkpt>
      <trkpt lat="44.55744" lon="5.34336">
        <ele>861.895236</ele>
        <time>2023-08-12T18:36:12.611Z</time>
      </trkpt>
      <trkpt lat="44.55744" lon="5.34392">
        <ele>863.823364</ele>
        <time>2023-08-12T18:36:21.211Z</time>
      </trkpt>
      <trkpt lat="44.55763" lon="5.3445">
        <ele>863.35754</ele>
        <time>2023-08-12T18:36:27.121Z</time>
      </trkpt>
      <trkpt lat="44.55766" lon="5.34466">
        <ele>863.239861</ele>
        <time>2023-08-12T18:36:28.192Z</time>
      </trkpt>
      <trkpt lat="44.55767" lon="5.34555">
        <ele>862.592912</ele>
        <time>2023-08-12T18:36:33.478Z</time>
      </trkpt>
      <trkpt lat="44.55771" lon="5.34566">
        <ele>862.505241</ele>
        <time>2023-08-12T18:36:34.158Z</time>
      </trkpt>
      <trkpt lat="44.55779" lon="5.34573">
        <ele>862.411042</ele>
        <time>2023-08-12T18:36:34.906Z</time>
      </trkpt>
      <trkpt lat="44.5579" lon="5.34573">
        <ele>862.296146</ele>
        <time>2023-08-12T18:36:35.886Z</time>
      </trkpt>
      <trkpt lat="44.55813" lon="5.34556">
        <ele>862.050138</ele>
        <time>2023-08-12T18:36:38.078Z</time>
      </trkpt>
      <trkpt lat="44.55839" lon="5.34517">
        <ele>862.569256</ele>
        <time>2023-08-12T18:36:41.738Z</time>
      </trkpt>
      <trkpt lat="44.55877" lon="5.34447">
        <ele>863.411672</ele>
        <time>2023-08-12T18:36:50.308Z</time>
      </trkpt>
      <trkpt lat="44.55883" lon="5.34446">
        <ele>863.492952</ele>
        <time>2023-08-12T18:36:51.252Z</time>
      </trkpt>
      <trkpt lat="44.55888" lon="5.34449">
        <ele>863.568113</ele>
        <time>2023-08-12T18:36:52.233Z</time>
      </trkpt>
      <trkpt lat="44.55892" lon="5.34453">
        <ele>863.637294</ele>
        <time>2023-08-12T18:36:53.304Z</time>
      </trkpt>
      <trkpt lat="44.55895" lon="5.34462">
        <ele>863.729963</ele>
        <time>2023-08-12T18:36:54.794Z</time>
      </trkpt>
      <trkpt lat="44.55895" lon="5.34471">
        <ele>863.816544</ele>
        <time>2023-08-12T18:36:56.050Z</time>
      </trkpt>
      <trkpt lat="44.55881" lon="5.34504">
        <ele>864.192393</ele>
        <time>2023-08-12T18:37:02.050Z</time>
      </trkpt>
      <trkpt lat="44.55847" lon="5.34578">
        <ele>867.040175</ele>
        <time>2023-08-12T18:37:19.494Z</time>
      </trkpt>
      <trkpt lat="44.558" lon="5.34671">
        <ele>871.92114</ele>
        <time>2023-08-12T18:37:48.652Z</time>
      </trkpt>
      <trkpt lat="44.55757" lon="5.34728">
        <ele>875.375793</ele>
        <time>2023-08-12T18:38:07.908Z</time>
      </trkpt>
      <trkpt lat="44.55747" lon="5.34746">
        <ele>875.653617</ele>
        <time>2023-08-12T18:38:12.415Z</time>
      </trkpt>
      <trkpt lat="44.55735" lon="5.34789">
        <ele>876.209946</ele>
        <time>2023-08-12T18:38:20.251Z</time>
      </trkpt>
      <trkpt lat="44.55727" lon="5.34805">
        <ele>876.453013</ele>
        <time>2023-08-12T18:38:23.328Z</time>
      </trkpt>
      <trkpt lat="44.55714" lon="5.34819">
        <ele>876.735273</ele>
        <time>2023-08-12T18:38:26.924Z</time>
      </trkpt>
      <trkpt lat="44.55669" lon="5.34856">
        <ele>877.630597</ele>
        <time>2023-08-12T18:38:35.042Z</time>
      </trkpt>
      <trkpt lat="44.55654" lon="5.34873">
        <ele>877.952844</ele>
        <time>2023-08-12T18:38:37.107Z</time>
      </trkpt>
      <trkpt lat="44.55645" lon="5.34893">
        <ele>878.24979</ele>
        <time>2023-08-12T18:38:38.655Z</time>
      </trkpt>
      <trkpt lat="44.55642" lon="5.34901">
        <ele>878.358031</ele>
        <time>2023-08-12T18:38:39.202Z</time>
      </trkpt>
      <trkpt lat="44.55636" lon="5.34939">
        <ele>877.692807</ele>
        <time>2023-08-12T18:38:41.466Z</time>
      </trkpt>
      <trkpt lat="44.55637" lon="5.34966">
        <ele>877.139974</ele>
        <time>2023-08-12T18:38:43.003Z</time>
      </trkpt>
      <trkpt lat="44.5563" lon="5.34997">
        <ele>876.489331</ele>
        <time>2023-08-12T18:38:44.736Z</time>
      </trkpt>
      <trkpt lat="44.55562" lon="5.35095">
        <ele>873.717254</ele>
        <time>2023-08-12T18:38:52.376Z</time>
      </trkpt>
      <trkpt lat="44.55539" lon="5.35143">
        <ele>874.009719</ele>
        <time>2023-08-12T18:38:56.782Z</time>
      </trkpt>
      <trkpt lat="44.55533" lon="5.3517">
        <ele>874.537132</ele>
        <time>2023-08-12T18:38:59.820Z</time>
      </trkpt>
      <trkpt lat="44.55533" lon="5.3519">
        <ele>874.91601</ele>
        <time>2023-08-12T18:39:02.968Z</time>
      </trkpt>
      <trkpt lat="44.55539" lon="5.3521">
        <ele>875.327123</ele>
        <time>2023-08-12T18:39:07.176Z</time>
      </trkpt>
      <trkpt lat="44.55552" lon="5.35223">
        <ele>875.758029</ele>
        <time>2023-08-12T18:39:11.662Z</time>
      </trkpt>
      <trkpt lat="44.55598" lon="5.35257">
        <ele>877.117191</ele>
        <time>2023-08-12T18:39:25.314Z</time>
      </trkpt>
      <trkpt lat="44.55612" lon="5.35282">
        <ele>877.735073</ele>
        <time>2023-08-12T18:39:31.118Z</time>
      </trkpt>
      <trkpt lat="44.55622" lon="5.35313">
        <ele>878.421106</ele>
        <time>2023-08-12T18:39:36.752Z</time>
      </trkpt>
      <trkpt lat="44.55623" lon="5.35342">
        <ele>879.061823</ele>
        <time>2023-08-12T18:39:41.210Z</time>
      </trkpt>
      <trkpt lat="44.55621" lon="5.35354">
        <ele>879.352993</ele>
        <time>2023-08-12T18:39:43.221Z</time>
      </trkpt>
      <trkpt lat="44.55618" lon="5.35366">
        <ele>879.62196</ele>
        <time>2023-08-12T18:39:45.242Z</time>
      </trkpt>
      <trkpt lat="44.55606" lon="5.35374">
        <ele>880.038025</ele>
        <time>2023-08-12T18:39:47.960Z</time>
      </trkpt>
      <trkpt lat="44.55581" lon="5.35367">
        <ele>880.838719</ele>
        <time>2023-08-12T18:39:53.598Z</time>
      </trkpt>
      <trkpt lat="44.55546" lon="5.35364">
        <ele>881.919201</ele>
        <time>2023-08-12T18:40:00.811Z</time>
      </trkpt>
      <trkpt lat="44.55489" lon="5.35349">
        <ele>883.828127</ele>
        <time>2023-08-12T18:40:13.146Z</time>
      </trkpt>
      <trkpt lat="44.5548" lon="5.35353">
        <ele>884.607678</ele>
        <time>2023-08-12T18:40:15.536Z</time>
      </trkpt>
      <trkpt lat="44.55476" lon="5.35369">
        <ele>885.528722</ele>
        <time>2023-08-12T18:40:17.675Z</time>
      </trkpt>
      <trkpt lat="44.55487" lon="5.35442">
        <ele>889.640815</ele>
        <time>2023-08-12T18:40:29.085Z</time>
      </trkpt>
      <trkpt lat="44.55487" lon="5.35464">
        <ele>890.845624</ele>
        <time>2023-08-12T18:40:33.934Z</time>
      </trkpt>
      <trkpt lat="44.55482" lon="5.35493">
        <ele>892.461833</ele>
        <time>2023-08-12T18:40:41.580Z</time>
      </trkpt>
      <trkpt lat="44.55483" lon="5.35508">
        <ele>893.285525</ele>
        <time>2023-08-12T18:40:46.085Z</time>
      </trkpt>
      <trkpt lat="44.55558" lon="5.35618">
        <ele>903.751696</ele>
        <time>2023-08-12T18:41:48.460Z</time>
      </trkpt>
      <trkpt lat="44.55577" lon="5.35667">
        <ele>908.397568</ele>
        <time>2023-08-12T18:42:12.521Z</time>
      </trkpt>
      <trkpt lat="44.55612" lon="5.35724">
        <ele>914.64697</ele>
        <time>2023-08-12T18:42:38.758Z</time>
      </trkpt>
      <trkpt lat="44.55625" lon="5.35757">
        <ele>917.764513</ele>
        <time>2023-08-12T18:42:48.764Z</time>
      </trkpt>
      <trkpt lat="44.55623" lon="5.35762">
        <ele>918.275237</ele>
        <time>2023-08-12T18:42:50.369Z</time>
      </trkpt>
      <trkpt lat="44.55619" lon="5.35772">
        <ele>918.483418</ele>
        <time>2023-08-12T18:42:53.275Z</time>
      </trkpt>
      <trkpt lat="44.55608" lon="5.35773">
        <ele>918.572936</ele>
        <time>2023-08-12T18:42:56.723Z</time>
      </trkpt>
      <trkpt lat="44.55581" lon="5.3575">
        <ele>918.837413</ele>
        <time>2023-08-12T18:43:04.361Z</time>
      </trkpt>
      <trkpt lat="44.55445" lon="5.35663">
        <ele>919.903631</ele>
        <time>2023-08-12T18:43:18.061Z</time>
      </trkpt>
      <trkpt lat="44.55427" lon="5.35656">
        <ele>919.878173</ele>
        <time>2023-08-12T18:43:19.499Z</time>
      </trkpt>
      <trkpt lat="44.55417" lon="5.35661">
        <ele>919.862218</ele>
        <time>2023-08-12T18:43:20.442Z</time>
      </trkpt>
      <trkpt lat="44.55406" lon="5.35676">
        <ele>919.841674</ele>
        <time>2023-08-12T18:43:21.673Z</time>
      </trkpt>
      <trkpt lat="44.55343" lon="5.35852">
        <ele>920.116214</ele>
        <time>2023-08-12T18:43:42.808Z</time>
      </trkpt>
      <trkpt lat="44.55257" lon="5.35986">
        <ele>922.48263</ele>
        <time>2023-08-12T18:44:05.992Z</time>
      </trkpt>
      <trkpt lat="44.55252" lon="5.36013">
        <ele>922.850258</ele>
        <time>2023-08-12T18:44:08.763Z</time>
      </trkpt>
      <trkpt lat="44.55176" lon="5.36118">
        <ele>928.920257</ele>
        <time>2023-08-12T18:44:32.456Z</time>
      </trkpt>
      <trkpt lat="44.5517" lon="5.36134">
        <ele>929.686605</ele>
        <time>2023-08-12T18:44:36.701Z</time>
      </trkpt>
      <trkpt lat="44.55174" lon="5.3615">
        <ele>930.409971</ele>
        <time>2023-08-12T18:44:41.055Z</time>
      </trkpt>
      <trkpt lat="44.55191" lon="5.36185">
        <ele>932.23932</ele>
        <time>2023-08-12T18:44:53.081Z</time>
      </trkpt>
      <trkpt lat="44.55204" lon="5.36219">
        <ele>934.012053</ele>
        <time>2023-08-12T18:45:05.404Z</time>
      </trkpt>
      <trkpt lat="44.55213" lon="5.36259">
        <ele>937.897459</ele>
        <time>2023-08-12T18:45:20.916Z</time>
      </trkpt>
      <trkpt lat="44.55216" lon="5.36281">
        <ele>939.950569</ele>
        <time>2023-08-12T18:45:29.873Z</time>
      </trkpt>
      <trkpt lat="44.55211" lon="5.36314">
        <ele>943.070571</ele>
        <time>2023-08-12T18:45:44.270Z</time>
      </trkpt>
      <trkpt lat="44.55219" lon="5.3634">
        <ele>945.675196</ele>
        <time>2023-08-12T18:45:57.100Z</time>
      </trkpt>
      <trkpt lat="44.55216" lon="5.36356">
        <ele>947.162821</ele>
        <time>2023-08-12T18:46:04.455Z</time>
      </trkpt>
      <trkpt lat="44.55208" lon="5.36363">
        <ele>948.403177</ele>
        <time>2023-08-12T18:46:10.538Z</time>
      </trkpt>
      <trkpt lat="44.55188" lon="5.36368">
        <ele>951.086408</ele>
        <time>2023-08-12T18:46:23.055Z</time>
      </trkpt>
      <trkpt lat="44.55168" lon="5.36386">
        <ele>954.118702</ele>
        <time>2023-08-12T18:46:36.300Z</time>
      </trkpt>
      <trkpt lat="44.55157" lon="5.36387">
        <ele>955.578032</ele>
        <time>2023-08-12T18:46:41.904Z</time>
      </trkpt>
      <trkpt lat="44.55137" lon="5.3638">
        <ele>957.424269</ele>
        <time>2023-08-12T18:46:51.531Z</time>
      </trkpt>
      <trkpt lat="44.5513" lon="5.36386">
        <ele>957.812471</ele>
        <time>2023-08-12T18:46:55.219Z</time>
      </trkpt>
      <trkpt lat="44.55114" lon="5.36456">
        <ele>960.156723</ele>
        <time>2023-08-12T18:47:12.480Z</time>
      </trkpt>
      <trkpt lat="44.5511" lon="5.36463">
        <ele>960.442017</ele>
        <time>2023-08-12T18:47:14.171Z</time>
      </trkpt>
      <trkpt lat="44.55103" lon="5.36463">
        <ele>960.764333</ele>
        <time>2023-08-12T18:47:16.073Z</time>
      </trkpt>
      <trkpt lat="44.55049" lon="5.3638">
        <ele>964.334061</ele>
        <time>2023-08-12T18:47:29.736Z</time>
      </trkpt>
      <trkpt lat="44.55039" lon="5.36377">
        <ele>964.803854</ele>
        <time>2023-08-12T18:47:30.813Z</time>
      </trkpt>
      <trkpt lat="44.55027" lon="5.36378">
        <ele>965.146146</ele>
        <time>2023-08-12T18:47:32.012Z</time>
      </trkpt>
      <trkpt lat="44.55014" lon="5.36385">
        <ele>965.349609</ele>
        <time>2023-08-12T18:47:33.196Z</time>
      </trkpt>
      <trkpt lat="44.54917" lon="5.36562">
        <ele>967.790026</ele>
        <time>2023-08-12T18:47:54.765Z</time>
      </trkpt>
      <trkpt lat="44.54878" lon="5.36596">
        <ele>972.096328</ele>
        <time>2023-08-12T18:48:12.681Z</time>
      </trkpt>
      <trkpt lat="44.54876" lon="5.3661">
        <ele>973.074435</ele>
        <time>2023-08-12T18:48:17.537Z</time>
      </trkpt>
      <trkpt lat="44.54879" lon="5.36649">
        <ele>975.752542</ele>
        <time>2023-08-12T18:48:31.362Z</time>
      </trkpt>
      <trkpt lat="44.54876" lon="5.36692">
        <ele>978.7284</ele>
        <time>2023-08-12T18:48:47.494Z</time>
      </trkpt>
      <trkpt lat="44.54847" lon="5.3678">
        <ele>985.220475</ele>
        <time>2023-08-12T18:49:21.347Z</time>
      </trkpt>
      <trkpt lat="44.54837" lon="5.36794">
        <ele>986.235149</ele>
        <time>2023-08-12T18:49:27.307Z</time>
      </trkpt>
      <trkpt lat="44.54811" lon="5.36815">
        <ele>988.490123</ele>
        <time>2023-08-12T18:49:38.721Z</time>
      </trkpt>
      <trkpt lat="44.54786" lon="5.36852">
        <ele>991.138149</ele>
        <time>2023-08-12T18:49:52.408Z</time>
      </trkpt>
      <trkpt lat="44.54777" lon="5.36853">
        <ele>991.775057</ele>
        <time>2023-08-12T18:49:55.623Z</time>
      </trkpt>
      <trkpt lat="44.54769" lon="5.36849">
        <ele>992.459373</ele>
        <time>2023-08-12T18:49:58.708Z</time>
      </trkpt>
      <trkpt lat="44.54756" lon="5.36824">
        <ele>994.112776</ele>
        <time>2023-08-12T18:50:06.922Z</time>
      </trkpt>
      <trkpt lat="44.54732" lon="5.36744">
        <ele>998.513289</ele>
        <time>2023-08-12T18:50:24.763Z</time>
      </trkpt>
      <trkpt lat="44.54723" lon="5.36738">
        <ele>998.985774</ele>
        <time>2023-08-12T18:50:27.773Z</time>
      </trkpt>
      <trkpt lat="44.54708" lon="5.36738">
        <ele>999.652526</ele>
        <time>2023-08-12T18:50:30.559Z</time>
      </trkpt>
      <trkpt lat="44.54675" lon="5.36766">
        <ele>1001.425326</ele>
        <time>2023-08-12T18:50:37.755Z</time>
      </trkpt>
      <trkpt lat="44.5466" lon="5.36815">
        <ele>1003.204954</ele>
        <time>2023-08-12T18:50:44.694Z</time>
      </trkpt>
      <trkpt lat="44.54652" lon="5.36826">
        <ele>1003.711991</ele>
        <time>2023-08-12T18:50:46.998Z</time>
      </trkpt>
      <trkpt lat="44.54608" lon="5.36856">
        <ele>1005.999057</ele>
        <time>2023-08-12T18:51:02.028Z</time>
      </trkpt>
      <trkpt lat="44.54572" lon="5.36887">
        <ele>1008.645673</ele>
        <time>2023-08-12T18:51:20.422Z</time>
      </trkpt>
      <trkpt lat="44.54543" lon="5.36891">
        <ele>1010.657461</ele>
        <time>2023-08-12T18:51:31.894Z</time>
      </trkpt>
      <trkpt lat="44.54515" lon="5.36887">
        <ele>1012.667284</ele>
        <time>2023-08-12T18:51:42.431Z</time>
      </trkpt>
      <trkpt lat="44.54504" lon="5.36896">
        <ele>1013.499502</ele>
        <time>2023-08-12T18:51:46.133Z</time>
      </trkpt>
      <trkpt lat="44.54483" lon="5.3693">
        <ele>1015.754328</ele>
        <time>2023-08-12T18:51:56.282Z</time>
      </trkpt>
      <trkpt lat="44.5447" lon="5.36962">
        <ele>1017.581106</ele>
        <time>2023-08-12T18:52:04.228Z</time>
      </trkpt>
      <trkpt lat="44.5446" lon="5.3697">
        <ele>1018.378782</ele>
        <time>2023-08-12T18:52:07.328Z</time>
      </trkpt>
      <trkpt lat="44.54404" lon="5.36974">
        <ele>1021.099408</ele>
        <time>2023-08-12T18:52:24.811Z</time>
      </trkpt>
      <trkpt lat="44.54365" lon="5.36947">
        <ele>1022.982411</ele>
        <time>2023-08-12T18:52:37.952Z</time>
      </trkpt>
      <trkpt lat="44.54349" lon="5.36947">
        <ele>1023.678347</ele>
        <time>2023-08-12T18:52:42.326Z</time>
      </trkpt>
      <trkpt lat="44.54278" lon="5.36959">
        <ele>1026.813144</ele>
        <time>2023-08-12T18:52:57.173Z</time>
      </trkpt>
      <trkpt lat="44.54265" lon="5.36959">
        <ele>1027.106903</ele>
        <time>2023-08-12T18:52:59.600Z</time>
      </trkpt>
      <trkpt lat="44.54233" lon="5.36951">
        <ele>1027.57041</ele>
        <time>2023-08-12T18:53:05.768Z</time>
      </trkpt>
      <trkpt lat="44.54166" lon="5.36945">
        <ele>1028.502534</ele>
        <time>2023-08-12T18:53:17.957Z</time>
      </trkpt>
      <trkpt lat="44.54127" lon="5.36934">
        <ele>1029.045474</ele>
        <time>2023-08-12T18:53:23.798Z</time>
      </trkpt>
      <trkpt lat="44.54099" lon="5.36954">
        <ele>1029.480688</ele>
        <time>2023-08-12T18:53:27.564Z</time>
      </trkpt>
      <trkpt lat="44.54073" lon="5.36925">
        <ele>1029.066616</ele>
        <time>2023-08-12T18:53:31.145Z</time>
      </trkpt>
      <trkpt lat="44.54057" lon="5.36917">
        <ele>1028.855512</ele>
        <time>2023-08-12T18:53:32.890Z</time>
      </trkpt>
      <trkpt lat="44.54026" lon="5.36917">
        <ele>1028.459493</ele>
        <time>2023-08-12T18:53:36.051Z</time>
      </trkpt>
      <trkpt lat="44.53994" lon="5.36892">
        <ele>1028.000535</ele>
        <time>2023-08-12T18:53:39.566Z</time>
      </trkpt>
      <trkpt lat="44.53982" lon="5.36891">
        <ele>1027.853915</ele>
        <time>2023-08-12T18:53:40.633Z</time>
      </trkpt>
      <trkpt lat="44.53932" lon="5.36904">
        <ele>1027.175553</ele>
        <time>2023-08-12T18:53:45.110Z</time>
      </trkpt>
      <trkpt lat="44.53916" lon="5.3691">
        <ele>1026.426964</ele>
        <time>2023-08-12T18:53:46.475Z</time>
      </trkpt>
      <trkpt lat="44.53895" lon="5.36922">
        <ele>1025.402002</ele>
        <time>2023-08-12T18:53:48.286Z</time>
      </trkpt>
      <trkpt lat="44.53828" lon="5.36909">
        <ele>1022.339613</ele>
        <time>2023-08-12T18:53:53.462Z</time>
      </trkpt>
      <trkpt lat="44.53813" lon="5.36901">
        <ele>1021.606562</ele>
        <time>2023-08-12T18:53:54.680Z</time>
      </trkpt>
      <trkpt lat="44.53766" lon="5.36869">
        <ele>1019.25222</ele>
        <time>2023-08-12T18:53:58.522Z</time>
      </trkpt>
      <trkpt lat="44.53724" lon="5.36827">
        <ele>1016.200629</ele>
        <time>2023-08-12T18:54:02.249Z</time>
      </trkpt>
      <trkpt lat="44.53696" lon="5.36809">
        <ele>1014.32151</ele>
        <time>2023-08-12T18:54:04.500Z</time>
      </trkpt>
      <trkpt lat="44.53669" lon="5.36796">
        <ele>1012.588092</ele>
        <time>2023-08-12T18:54:06.580Z</time>
      </trkpt>
      <trkpt lat="44.53611" lon="5.36794">
        <ele>1009.031347</ele>
        <time>2023-08-12T18:54:10.846Z</time>
      </trkpt>
      <trkpt lat="44.53516" lon="5.36777">
        <ele>1004.063967</ele>
        <time>2023-08-12T18:54:17.954Z</time>
      </trkpt>
      <trkpt lat="44.53501" lon="5.3677">
        <ele>1003.251388</ele>
        <time>2023-08-12T18:54:19.195Z</time>
      </trkpt>
      <trkpt lat="44.53461" lon="5.3673">
        <ele>1000.787356</ele>
        <time>2023-08-12T18:54:23.026Z</time>
      </trkpt>
      <trkpt lat="44.53431" lon="5.36696">
        <ele>998.756109</ele>
        <time>2023-08-12T18:54:25.973Z</time>
      </trkpt>
      <trkpt lat="44.53401" lon="5.36675">
        <ele>996.360276</ele>
        <time>2023-08-12T18:54:28.501Z</time>
      </trkpt>
      <trkpt lat="44.53386" lon="5.3667">
        <ele>995.304442</ele>
        <time>2023-08-12T18:54:29.601Z</time>
      </trkpt>
      <trkpt lat="44.53353" lon="5.36672">
        <ele>993.020554</ele>
        <time>2023-08-12T18:54:31.931Z</time>
      </trkpt>
      <trkpt lat="44.53338" lon="5.36669">
        <ele>991.936003</ele>
        <time>2023-08-12T18:54:33.026Z</time>
      </trkpt>
      <trkpt lat="44.53326" lon="5.36663">
        <ele>991.047032</ele>
        <time>2023-08-12T18:54:33.919Z</time>
      </trkpt>
      <trkpt lat="44.53243" lon="5.36556">
        <ele>982.66262</ele>
        <time>2023-08-12T18:54:41.919Z</time>
      </trkpt>
      <trkpt lat="44.53179" lon="5.36519">
        <ele>977.146643</ele>
        <time>2023-08-12T18:54:46.849Z</time>
      </trkpt>
      <trkpt lat="44.5317" lon="5.36519">
        <ele>976.492967</ele>
        <time>2023-08-12T18:54:47.429Z</time>
      </trkpt>
      <trkpt lat="44.53146" lon="5.36555">
        <ele>973.686488</ele>
        <time>2023-08-12T18:54:49.909Z</time>
      </trkpt>
      <trkpt lat="44.53127" lon="5.36567">
        <ele>972.028908</ele>
        <time>2023-08-12T18:54:51.397Z</time>
      </trkpt>
      <trkpt lat="44.53107" lon="5.36573">
        <ele>970.694482</ele>
        <time>2023-08-12T18:54:52.802Z</time>
      </trkpt>
      <trkpt lat="44.53095" lon="5.36568">
        <ele>969.875462</ele>
        <time>2023-08-12T18:54:53.668Z</time>
      </trkpt>
      <trkpt lat="44.5309" lon="5.3656">
        <ele>969.375645</ele>
        <time>2023-08-12T18:54:54.193Z</time>
      </trkpt>
      <trkpt lat="44.53089" lon="5.36546">
        <ele>968.731417</ele>
        <time>2023-08-12T18:54:54.878Z</time>
      </trkpt>
      <trkpt lat="44.53084" lon="5.36535">
        <ele>968.126329</ele>
        <time>2023-08-12T18:54:55.527Z</time>
      </trkpt>
      <trkpt lat="44.53076" lon="5.3652">
        <ele>967.2191</ele>
        <time>2023-08-12T18:54:56.504Z</time>
      </trkpt>
      <trkpt lat="44.53032" lon="5.36484">
        <ele>963.855924</ele>
        <time>2023-08-12T18:55:00.246Z</time>
      </trkpt>
      <trkpt lat="44.53006" lon="5.36458">
        <ele>961.74653</ele>
        <time>2023-08-12T18:55:02.643Z</time>
      </trkpt>
      <trkpt lat="44.52982" lon="5.36439">
        <ele>960.089724</ele>
        <time>2023-08-12T18:55:04.771Z</time>
      </trkpt>
      <trkpt lat="44.52965" lon="5.36436">
        <ele>959.513109</ele>
        <time>2023-08-12T18:55:06.067Z</time>
      </trkpt>
      <trkpt lat="44.52953" lon="5.36437">
        <ele>959.139642</ele>
        <time>2023-08-12T18:55:06.946Z</time>
      </trkpt>
      <trkpt lat="44.52944" lon="5.36448">
        <ele>958.73437</ele>
        <time>2023-08-12T18:55:07.856Z</time>
      </trkpt>
      <trkpt lat="44.52921" lon="5.36486">
        <ele>957.573436</ele>
        <time>2023-08-12T18:55:10.554Z</time>
      </trkpt>
      <trkpt lat="44.52892" lon="5.3651">
        <ele>956.478687</ele>
        <time>2023-08-12T18:55:13.261Z</time>
      </trkpt>
      <trkpt lat="44.52865" lon="5.36532">
        <ele>955.458815</ele>
        <time>2023-08-12T18:55:16.173Z</time>
      </trkpt>
      <trkpt lat="44.52856" lon="5.3653">
        <ele>955.17057</ele>
        <time>2023-08-12T18:55:16.946Z</time>
      </trkpt>
      <trkpt lat="44.52851" lon="5.36518">
        <ele>954.8431</ele>
        <time>2023-08-12T18:55:17.876Z</time>
      </trkpt>
      <trkpt lat="44.52851" lon="5.36471">
        <ele>953.662762</ele>
        <time>2023-08-12T18:55:21.576Z</time>
      </trkpt>
      <trkpt lat="44.52845" lon="5.36455">
        <ele>953.172758</ele>
        <time>2023-08-12T18:55:23.172Z</time>
      </trkpt>
      <trkpt lat="44.52818" lon="5.36438">
        <ele>952.051864</ele>
        <time>2023-08-12T18:55:25.827Z</time>
      </trkpt>
      <trkpt lat="44.52805" lon="5.36434">
        <ele>951.549952</ele>
        <time>2023-08-12T18:55:27.038Z</time>
      </trkpt>
      <trkpt lat="44.52787" lon="5.36434">
        <ele>950.865625</ele>
        <time>2023-08-12T18:55:28.430Z</time>
      </trkpt>
      <trkpt lat="44.52779" lon="5.36425">
        <ele>950.486324</ele>
        <time>2023-08-12T18:55:29.229Z</time>
      </trkpt>
      <trkpt lat="44.52777" lon="5.36405">
        <ele>949.944444</ele>
        <time>2023-08-12T18:55:30.316Z</time>
      </trkpt>
      <trkpt lat="44.52777" lon="5.36334">
        <ele>948.022502</ele>
        <time>2023-08-12T18:55:34.063Z</time>
      </trkpt>
      <trkpt lat="44.52786" lon="5.36269">
        <ele>944.689334</ele>
        <time>2023-08-12T18:55:37.492Z</time>
      </trkpt>
      <trkpt lat="44.52789" lon="5.36215">
        <ele>941.553954</ele>
        <time>2023-08-12T18:55:40.239Z</time>
      </trkpt>
      <trkpt lat="44.52785" lon="5.36202">
        <ele>940.778834</ele>
        <time>2023-08-12T18:55:40.911Z</time>
      </trkpt>
      <trkpt lat="44.5276" lon="5.36172">
        <ele>938.074657</ele>
        <time>2023-08-12T18:55:43.226Z</time>
      </trkpt>
      <trkpt lat="44.52734" lon="5.36128">
        <ele>934.796223</ele>
        <time>2023-08-12T18:55:46.017Z</time>
      </trkpt>
      <trkpt lat="44.5272" lon="5.36091">
        <ele>932.267049</ele>
        <time>2023-08-12T18:55:48.140Z</time>
      </trkpt>
      <trkpt lat="44.52714" lon="5.36065">
        <ele>930.529358</ele>
        <time>2023-08-12T18:55:49.518Z</time>
      </trkpt>
      <trkpt lat="44.52694" lon="5.35974">
        <ele>924.582464</ele>
        <time>2023-08-12T18:55:54.234Z</time>
      </trkpt>
      <trkpt lat="44.52684" lon="5.35938">
        <ele>922.144945</ele>
        <time>2023-08-12T18:55:56.150Z</time>
      </trkpt>
      <trkpt lat="44.52646" lon="5.35881">
        <ele>917.209546</ele>
        <time>2023-08-12T18:56:00.042Z</time>
      </trkpt>
      <trkpt lat="44.52634" lon="5.35852">
        <ele>915.609903</ele>
        <time>2023-08-12T18:56:01.684Z</time>
      </trkpt>
      <trkpt lat="44.52635" lon="5.35824">
        <ele>914.240499</ele>
        <time>2023-08-12T18:56:03.134Z</time>
      </trkpt>
      <trkpt lat="44.52647" lon="5.35776">
        <ele>911.79163</ele>
        <time>2023-08-12T18:56:05.750Z</time>
      </trkpt>
      <trkpt lat="44.52647" lon="5.35751">
        <ele>910.587111</ele>
        <time>2023-08-12T18:56:07.046Z</time>
      </trkpt>
      <trkpt lat="44.52644" lon="5.35732">
        <ele>909.610779</ele>
        <time>2023-08-12T18:56:08.106Z</time>
      </trkpt>
      <trkpt lat="44.52628" lon="5.35706">
        <ele>907.953298</ele>
        <time>2023-08-12T18:56:09.896Z</time>
      </trkpt>
      <trkpt lat="44.52573" lon="5.35652">
        <ele>903.627309</ele>
        <time>2023-08-12T18:56:14.797Z</time>
      </trkpt>
      <trkpt lat="44.52518" lon="5.35585">
        <ele>899.453391</ele>
        <time>2023-08-12T18:56:20.196Z</time>
      </trkpt>
      <trkpt lat="44.52479" lon="5.35551">
        <ele>896.818534</ele>
        <time>2023-08-12T18:56:23.557Z</time>
      </trkpt>
      <trkpt lat="44.52457" lon="5.35526">
        <ele>895.245059</ele>
        <time>2023-08-12T18:56:25.566Z</time>
      </trkpt>
      <trkpt lat="44.5243" lon="5.35489">
        <ele>893.937805</ele>
        <time>2023-08-12T18:56:28.444Z</time>
      </trkpt>
      <trkpt lat="44.5238" lon="5.3542">
        <ele>892.178874</ele>
        <time>2023-08-12T18:56:34.327Z</time>
      </trkpt>
      <trkpt lat="44.5237" lon="5.35412">
        <ele>891.875989</ele>
        <time>2023-08-12T18:56:35.445Z</time>
      </trkpt>
      <trkpt lat="44.52355" lon="5.3541">
        <ele>891.50448</ele>
        <time>2023-08-12T18:56:36.947Z</time>
      </trkpt>
      <trkpt lat="44.52338" lon="5.35412">
        <ele>891.06743</ele>
        <time>2023-08-12T18:56:38.603Z</time>
      </trkpt>
      <trkpt lat="44.52295" lon="5.35429">
        <ele>889.990771</ele>
        <time>2023-08-12T18:56:42.959Z</time>
      </trkpt>
      <trkpt lat="44.52273" lon="5.35432">
        <ele>889.601248</ele>
        <time>2023-08-12T18:56:45.184Z</time>
      </trkpt>
      <trkpt lat="44.5224" lon="5.35421">
        <ele>889.015242</ele>
        <time>2023-08-12T18:56:48.499Z</time>
      </trkpt>
      <trkpt lat="44.52233" lon="5.35417">
        <ele>888.882791</ele>
        <time>2023-08-12T18:56:49.205Z</time>
      </trkpt>
      <trkpt lat="44.5222" lon="5.35392">
        <ele>888.490763</ele>
        <time>2023-08-12T18:56:51.584Z</time>
      </trkpt>
      <trkpt lat="44.52185" lon="5.3531">
        <ele>887.295824</ele>
        <time>2023-08-12T18:56:57.874Z</time>
      </trkpt>
      <trkpt lat="44.52154" lon="5.35229">
        <ele>883.977352</ele>
        <time>2023-08-12T18:57:02.975Z</time>
      </trkpt>
      <trkpt lat="44.52125" lon="5.35169">
        <ele>880.615308</ele>
        <time>2023-08-12T18:57:06.677Z</time>
      </trkpt>
      <trkpt lat="44.5209" lon="5.35135">
        <ele>877.865164</ele>
        <time>2023-08-12T18:57:09.674Z</time>
      </trkpt>
      <trkpt lat="44.52076" lon="5.35109">
        <ele>876.349184</ele>
        <time>2023-08-12T18:57:11.312Z</time>
      </trkpt>
      <trkpt lat="44.52" lon="5.34929">
        <ele>866.057097</ele>
        <time>2023-08-12T18:57:21.932Z</time>
      </trkpt>
      <trkpt lat="44.51987" lon="5.34904">
        <ele>864.56393</ele>
        <time>2023-08-12T18:57:23.491Z</time>
      </trkpt>
      <trkpt lat="44.51972" lon="5.34881">
        <ele>863.007028</ele>
        <time>2023-08-12T18:57:25.155Z</time>
      </trkpt>
      <trkpt lat="44.5196" lon="5.34871">
        <ele>862.303992</ele>
        <time>2023-08-12T18:57:26.191Z</time>
      </trkpt>
      <trkpt lat="44.51935" lon="5.34868">
        <ele>861.17731</ele>
        <time>2023-08-12T18:57:28.136Z</time>
      </trkpt>
      <trkpt lat="44.51921" lon="5.34862">
        <ele>860.508465</ele>
        <time>2023-08-12T18:57:29.302Z</time>
      </trkpt>
      <trkpt lat="44.51902" lon="5.34845">
        <ele>859.517566</ele>
        <time>2023-08-12T18:57:31.062Z</time>
      </trkpt>
      <trkpt lat="44.51851" lon="5.34789">
        <ele>856.610752</ele>
        <time>2023-08-12T18:57:36.208Z</time>
      </trkpt>
      <trkpt lat="44.51814" lon="5.34733">
        <ele>853.90482</ele>
        <time>2023-08-12T18:57:40.398Z</time>
      </trkpt>
      <trkpt lat="44.51799" lon="5.34698">
        <ele>851.99206</ele>
        <time>2023-08-12T18:57:42.571Z</time>
      </trkpt>
      <trkpt lat="44.51789" lon="5.34666">
        <ele>850.334947</ele>
        <time>2023-08-12T18:57:44.422Z</time>
      </trkpt>
      <trkpt lat="44.51789" lon="5.34646">
        <ele>849.392876</ele>
        <time>2023-08-12T18:57:45.463Z</time>
      </trkpt>
      <trkpt lat="44.51796" lon="5.34629">
        <ele>848.457091</ele>
        <time>2023-08-12T18:57:46.487Z</time>
      </trkpt>
      <trkpt lat="44.51811" lon="5.34604">
        <ele>846.905332</ele>
        <time>2023-08-12T18:57:48.163Z</time>
      </trkpt>
      <trkpt lat="44.51817" lon="5.34591">
        <ele>846.153948</ele>
        <time>2023-08-12T18:57:48.966Z</time>
      </trkpt>
      <trkpt lat="44.51818" lon="5.34572">
        <ele>845.272874</ele>
        <time>2023-08-12T18:57:49.908Z</time>
      </trkpt>
      <trkpt lat="44.51805" lon="5.34551">
        <ele>843.994704</ele>
        <time>2023-08-12T18:57:51.260Z</time>
      </trkpt>
      <trkpt lat="44.51783" lon="5.34534">
        <ele>842.219785</ele>
        <time>2023-08-12T18:57:53.025Z</time>
      </trkpt>
      <trkpt lat="44.51731" lon="5.34519">
        <ele>838.005071</ele>
        <time>2023-08-12T18:57:56.734Z</time>
      </trkpt>
      <trkpt lat="44.51694" lon="5.34497">
        <ele>834.807464</ele>
        <time>2023-08-12T18:57:59.573Z</time>
      </trkpt>
      <trkpt lat="44.51666" lon="5.34484">
        <ele>832.489889</ele>
        <time>2023-08-12T18:58:01.651Z</time>
      </trkpt>
      <trkpt lat="44.51655" lon="5.34483">
        <ele>831.601206</ele>
        <time>2023-08-12T18:58:02.454Z</time>
      </trkpt>
      <trkpt lat="44.51606" lon="5.34501">
        <ele>827.856157</ele>
        <time>2023-08-12T18:58:06.091Z</time>
      </trkpt>
      <trkpt lat="44.5159" lon="5.34502">
        <ele>826.925504</ele>
        <time>2023-08-12T18:58:07.280Z</time>
      </trkpt>
      <trkpt lat="44.51575" lon="5.34506">
        <ele>826.08519</ele>
        <time>2023-08-12T18:58:08.347Z</time>
      </trkpt>
      <trkpt lat="44.51481" lon="5.34561">
        <ele>820.265019</ele>
        <time>2023-08-12T18:58:15.855Z</time>
      </trkpt>
      <trkpt lat="44.51447" lon="5.34585">
        <ele>818.124066</ele>
        <time>2023-08-12T18:58:18.842Z</time>
      </trkpt>
      <trkpt lat="44.51439" lon="5.34588">
        <ele>817.759421</ele>
        <time>2023-08-12T18:58:19.516Z</time>
      </trkpt>
      <trkpt lat="44.51436" lon="5.34587">
        <ele>817.603959</ele>
        <time>2023-08-12T18:58:19.776Z</time>
      </trkpt>
      <trkpt lat="44.51433" lon="5.3458">
        <ele>817.348389</ele>
        <time>2023-08-12T18:58:20.181Z</time>
      </trkpt>
      <trkpt lat="44.51435" lon="5.34573">
        <ele>817.065902</ele>
        <time>2023-08-12T18:58:20.651Z</time>
      </trkpt>
      <trkpt lat="44.51455" lon="5.34564">
        <ele>816.129382</ele>
        <time>2023-08-12T18:58:22.318Z</time>
      </trkpt>
      <trkpt lat="44.51524" lon="5.34512">
        <ele>812.520896</ele>
        <time>2023-08-12T18:58:28.407Z</time>
      </trkpt>
      <trkpt lat="44.51531" lon="5.34499">
        <ele>811.975374</ele>
        <time>2023-08-12T18:58:29.301Z</time>
      </trkpt>
      <trkpt lat="44.51524" lon="5.34495">
        <ele>811.637404</ele>
        <time>2023-08-12T18:58:29.882Z</time>
      </trkpt>
      <trkpt lat="44.51515" lon="5.34497">
        <ele>811.205925</ele>
        <time>2023-08-12T18:58:30.638Z</time>
      </trkpt>
      <trkpt lat="44.51486" lon="5.34525">
        <ele>809.333953</ele>
        <time>2023-08-12T18:58:33.296Z</time>
      </trkpt>
      <trkpt lat="44.51357" lon="5.34586">
        <ele>799.942434</ele>
        <time>2023-08-12T18:58:43.147Z</time>
      </trkpt>
      <trkpt lat="44.51323" lon="5.34628">
        <ele>796.17777</ele>
        <time>2023-08-12T18:58:46.295Z</time>
      </trkpt>
      <trkpt lat="44.5132" lon="5.34631">
        <ele>795.702277</ele>
        <time>2023-08-12T18:58:46.551Z</time>
      </trkpt>
      <trkpt lat="44.51317" lon="5.34634">
        <ele>795.228541</ele>
        <time>2023-08-12T18:58:46.811Z</time>
      </trkpt>
      <trkpt lat="44.51314" lon="5.34637">
        <ele>794.75516</ele>
        <time>2023-08-12T18:58:47.077Z</time>
      </trkpt>
      <trkpt lat="44.51311" lon="5.34639">
        <ele>794.328717</ele>
        <time>2023-08-12T18:58:47.313Z</time>
      </trkpt>
      <trkpt lat="44.51308" lon="5.3464">
        <ele>793.888666</ele>
        <time>2023-08-12T18:58:47.551Z</time>
      </trkpt>
      <trkpt lat="44.51304" lon="5.34641">
        <ele>793.397742</ele>
        <time>2023-08-12T18:58:47.815Z</time>
      </trkpt>
      <trkpt lat="44.51284" lon="5.34639">
        <ele>790.795186</ele>
        <time>2023-08-12T18:58:49.213Z</time>
      </trkpt>
      <trkpt lat="44.51262" lon="5.34648">
        <ele>787.823321</ele>
        <time>2023-08-12T18:58:50.813Z</time>
      </trkpt>
      <trkpt lat="44.51242" lon="5.34669">
        <ele>784.641786</ele>
        <time>2023-08-12T18:58:52.477Z</time>
      </trkpt>
      <trkpt lat="44.51222" lon="5.34676">
        <ele>781.951361</ele>
        <time>2023-08-12T18:58:53.868Z</time>
      </trkpt>
      <trkpt lat="44.51213" lon="5.3469">
        <ele>780.265113</ele>
        <time>2023-08-12T18:58:54.740Z</time>
      </trkpt>
      <trkpt lat="44.51192" lon="5.34717">
        <ele>776.571006</ele>
        <time>2023-08-12T18:58:56.636Z</time>
      </trkpt>
      <trkpt lat="44.51146" lon="5.34739">
        <ele>768.67876</ele>
        <time>2023-08-12T18:58:59.836Z</time>
      </trkpt>
      <trkpt lat="44.5113" lon="5.34747">
        <ele>765.750051</ele>
        <time>2023-08-12T18:59:00.910Z</time>
      </trkpt>
      <trkpt lat="44.51116" lon="5.34753">
        <ele>762.972193</ele>
        <time>2023-08-12T18:59:01.923Z</time>
      </trkpt>
      <trkpt lat="44.51094" lon="5.34759">
        <ele>758.983384</ele>
        <time>2023-08-12T18:59:03.383Z</time>
      </trkpt>
      <trkpt lat="44.51049" lon="5.34779">
        <ele>750.587048</ele>
        <time>2023-08-12T18:59:06.453Z</time>
      </trkpt>
      <trkpt lat="44.51017" lon="5.34786">
        <ele>744.851024</ele>
        <time>2023-08-12T18:59:08.569Z</time>
      </trkpt>
      <trkpt lat="44.50979" lon="5.34778">
        <ele>740.22949</ele>
        <time>2023-08-12T18:59:11.121Z</time>
      </trkpt>
      <trkpt lat="44.50955" lon="5.34769">
        <ele>738.030763</ele>
        <time>2023-08-12T18:59:12.801Z</time>
      </trkpt>
      <trkpt lat="44.50945" lon="5.34759">
        <ele>736.900181</ele>
        <time>2023-08-12T18:59:13.673Z</time>
      </trkpt>
      <trkpt lat="44.50929" lon="5.34741">
        <ele>735.123437</ele>
        <time>2023-08-12T18:59:15.060Z</time>
      </trkpt>
      <trkpt lat="44.50918" lon="5.34718">
        <ele>733.38579</ele>
        <time>2023-08-12T18:59:16.452Z</time>
      </trkpt>
      <trkpt lat="44.50912" lon="5.34692">
        <ele>731.651884</ele>
        <time>2023-08-12T18:59:17.863Z</time>
      </trkpt>
      <trkpt lat="44.509" lon="5.34658">
        <ele>729.27988</ele>
        <time>2023-08-12T18:59:19.892Z</time>
      </trkpt>
      <trkpt lat="44.50894" lon="5.34639">
        <ele>728.012404</ele>
        <time>2023-08-12T18:59:21.050Z</time>
      </trkpt>
      <trkpt lat="44.50882" lon="5.34577">
        <ele>727.147727</ele>
        <time>2023-08-12T18:59:25.246Z</time>
      </trkpt>
      <trkpt lat="44.50861" lon="5.3453">
        <ele>727.889592</ele>
        <time>2023-08-12T18:59:30.612Z</time>
      </trkpt>
      <trkpt lat="44.5085" lon="5.34495">
        <ele>728.397219</ele>
        <time>2023-08-12T18:59:34.950Z</time>
      </trkpt>
      <trkpt lat="44.50846" lon="5.34472">
        <ele>728.720202</ele>
        <time>2023-08-12T18:59:38.069Z</time>
      </trkpt>
      <trkpt lat="44.50838" lon="5.34358">
        <ele>730.488323</ele>
        <time>2023-08-12T19:00:00.883Z</time>
      </trkpt>
      <trkpt lat="44.50826" lon="5.34314">
        <ele>731.650124</ele>
        <time>2023-08-12T19:00:12.521Z</time>
      </trkpt>
      <trkpt lat="44.50817" lon="5.34297">
        <ele>732.172673</ele>
        <time>2023-08-12T19:00:17.399Z</time>
      </trkpt>
      <trkpt lat="44.50804" lon="5.3428">
        <ele>732.798086</ele>
        <time>2023-08-12T19:00:23.283Z</time>
      </trkpt>
      <trkpt lat="44.50779" lon="5.34257">
        <ele>733.835109</ele>
        <time>2023-08-12T19:00:31.452Z</time>
      </trkpt>
      <trkpt lat="44.50747" lon="5.34221">
        <ele>735.240001</ele>
        <time>2023-08-12T19:00:39.287Z</time>
      </trkpt>
      <trkpt lat="44.5074" lon="5.34223">
        <ele>735.498456</ele>
        <time>2023-08-12T19:00:40.228Z</time>
      </trkpt>
      <trkpt lat="44.50734" lon="5.34238">
        <ele>735.916161</ele>
        <time>2023-08-12T19:00:41.575Z</time>
      </trkpt>
      <trkpt lat="44.50731" lon="5.34263">
        <ele>735.434835</ele>
        <time>2023-08-12T19:00:43.368Z</time>
      </trkpt>
      <trkpt lat="44.50738" lon="5.3433">
        <ele>731.899373</ele>
        <time>2023-08-12T19:00:47.197Z</time>
      </trkpt>
      <trkpt lat="44.50735" lon="5.34362">
        <ele>730.201636</ele>
        <time>2023-08-12T19:00:48.875Z</time>
      </trkpt>
      <trkpt lat="44.50712" lon="5.3445">
        <ele>725.264587</ele>
        <time>2023-08-12T19:00:53.487Z</time>
      </trkpt>
      <trkpt lat="44.50697" lon="5.34479">
        <ele>723.390231</ele>
        <time>2023-08-12T19:00:55.201Z</time>
      </trkpt>
      <trkpt lat="44.50663" lon="5.3453">
        <ele>718.792251</ele>
        <time>2023-08-12T19:00:58.565Z</time>
      </trkpt>
      <trkpt lat="44.50635" lon="5.34554">
        <ele>715.731096</ele>
        <time>2023-08-12T19:01:00.770Z</time>
      </trkpt>
      <trkpt lat="44.50591" lon="5.3458">
        <ele>711.174192</ele>
        <time>2023-08-12T19:01:04.113Z</time>
      </trkpt>
      <trkpt lat="44.50557" lon="5.34629">
        <ele>706.580228</ele>
        <time>2023-08-12T19:01:07.572Z</time>
      </trkpt>
      <trkpt lat="44.50508" lon="5.34671">
        <ele>703.212701</ele>
        <time>2023-08-12T19:01:11.725Z</time>
      </trkpt>
      <trkpt lat="44.50481" lon="5.34729">
        <ele>700.517071</ele>
        <time>2023-08-12T19:01:15.493Z</time>
      </trkpt>
      <trkpt lat="44.50448" lon="5.34783">
        <ele>697.812742</ele>
        <time>2023-08-12T19:01:19.367Z</time>
      </trkpt>
      <trkpt lat="44.50435" lon="5.34814">
        <ele>696.422784</ele>
        <time>2023-08-12T19:01:21.360Z</time>
      </trkpt>
      <trkpt lat="44.50426" lon="5.34828">
        <ele>695.726112</ele>
        <time>2023-08-12T19:01:22.369Z</time>
      </trkpt>
      <trkpt lat="44.50414" lon="5.34845">
        <ele>694.81241</ele>
        <time>2023-08-12T19:01:23.702Z</time>
      </trkpt>
      <trkpt lat="44.50374" lon="5.34887">
        <ele>692.200138</ele>
        <time>2023-08-12T19:01:27.430Z</time>
      </trkpt>
      <trkpt lat="44.50356" lon="5.34916">
        <ele>690.777244</ele>
        <time>2023-08-12T19:01:29.436Z</time>
      </trkpt>
      <trkpt lat="44.50341" lon="5.34948">
        <ele>689.337202</ele>
        <time>2023-08-12T19:01:31.463Z</time>
      </trkpt>
      <trkpt lat="44.50331" lon="5.34977">
        <ele>688.146199</ele>
        <time>2023-08-12T19:01:33.169Z</time>
      </trkpt>
      <trkpt lat="44.50307" lon="5.35009">
        <ele>686.320434</ele>
        <time>2023-08-12T19:01:35.725Z</time>
      </trkpt>
      <trkpt lat="44.50301" lon="5.35025">
        <ele>685.536049</ele>
        <time>2023-08-12T19:01:36.677Z</time>
      </trkpt>
      <trkpt lat="44.50253" lon="5.35093">
        <ele>681.29399</ele>
        <time>2023-08-12T19:01:41.819Z</time>
      </trkpt>
      <trkpt lat="44.50246" lon="5.35099">
        <ele>680.766528</ele>
        <time>2023-08-12T19:01:42.453Z</time>
      </trkpt>
      <trkpt lat="44.50217" lon="5.3511">
        <ele>678.908202</ele>
        <time>2023-08-12T19:01:44.604Z</time>
      </trkpt>
      <trkpt lat="44.50177" lon="5.35159">
        <ele>675.540636</ele>
        <time>2023-08-12T19:01:48.417Z</time>
      </trkpt>
      <trkpt lat="44.50152" lon="5.35199">
        <ele>672.215078</ele>
        <time>2023-08-12T19:01:51.022Z</time>
      </trkpt>
      <trkpt lat="44.50148" lon="5.35236">
        <ele>669.77707</ele>
        <time>2023-08-12T19:01:52.918Z</time>
      </trkpt>
      <trkpt lat="44.50145" lon="5.35314">
        <ele>664.822235</ele>
        <time>2023-08-12T19:01:56.774Z</time>
      </trkpt>
      <trkpt lat="44.50156" lon="5.3538">
        <ele>660.544344</ele>
        <time>2023-08-12T19:02:00.117Z</time>
      </trkpt>
      <trkpt lat="44.50157" lon="5.35411">
        <ele>658.847284</ele>
        <time>2023-08-12T19:02:01.651Z</time>
      </trkpt>
      <trkpt lat="44.50141" lon="5.35452">
        <ele>656.651951</ele>
        <time>2023-08-12T19:02:03.992Z</time>
      </trkpt>
      <trkpt lat="44.50126" lon="5.35468">
        <ele>655.403322</ele>
        <time>2023-08-12T19:02:05.319Z</time>
      </trkpt>
      <trkpt lat="44.50044" lon="5.35494">
        <ele>649.95427</ele>
        <time>2023-08-12T19:02:11.404Z</time>
      </trkpt>
      <trkpt lat="44.50033" lon="5.35503">
        <ele>649.080209</ele>
        <time>2023-08-12T19:02:12.497Z</time>
      </trkpt>
      <trkpt lat="44.50022" lon="5.35518">
        <ele>648.101099</ele>
        <time>2023-08-12T19:02:13.688Z</time>
      </trkpt>
      <trkpt lat="44.50005" lon="5.35565">
        <ele>646.296416</ele>
        <time>2023-08-12T19:02:16.792Z</time>
      </trkpt>
      <trkpt lat="44.49994" lon="5.35586">
        <ele>645.439285</ele>
        <time>2023-08-12T19:02:18.377Z</time>
      </trkpt>
      <trkpt lat="44.49963" lon="5.35608">
        <ele>643.848683</ele>
        <time>2023-08-12T19:02:21.090Z</time>
      </trkpt>
      <trkpt lat="44.49935" lon="5.35634">
        <ele>642.300564</ele>
        <time>2023-08-12T19:02:23.617Z</time>
      </trkpt>
      <trkpt lat="44.4992" lon="5.35662">
        <ele>641.173731</ele>
        <time>2023-08-12T19:02:25.406Z</time>
      </trkpt>
      <trkpt lat="44.49904" lon="5.35726">
        <ele>638.920234</ele>
        <time>2023-08-12T19:02:28.992Z</time>
      </trkpt>
      <trkpt lat="44.49871" lon="5.35815">
        <ele>635.625083</ele>
        <time>2023-08-12T19:02:34.415Z</time>
      </trkpt>
      <trkpt lat="44.49858" lon="5.35875">
        <ele>633.56278</ele>
        <time>2023-08-12T19:02:37.927Z</time>
      </trkpt>
      <trkpt lat="44.49845" lon="5.35898">
        <ele>632.573397</ele>
        <time>2023-08-12T19:02:39.603Z</time>
      </trkpt>
      <trkpt lat="44.49829" lon="5.35916">
        <ele>631.642771</ele>
        <time>2023-08-12T19:02:41.140Z</time>
      </trkpt>
      <trkpt lat="44.49785" lon="5.35949">
        <ele>628.967981</ele>
        <time>2023-08-12T19:02:44.953Z</time>
      </trkpt>
      <trkpt lat="44.49774" lon="5.35976">
        <ele>627.762751</ele>
        <time>2023-08-12T19:02:46.605Z</time>
      </trkpt>
      <trkpt lat="44.49769" lon="5.36">
        <ele>626.755042</ele>
        <time>2023-08-12T19:02:47.998Z</time>
      </trkpt>
      <trkpt lat="44.49774" lon="5.36041">
        <ele>625.148621</ele>
        <time>2023-08-12T19:02:50.182Z</time>
      </trkpt>
      <trkpt lat="44.49784" lon="5.36103">
        <ele>622.646564</ele>
        <time>2023-08-12T19:02:53.551Z</time>
      </trkpt>
      <trkpt lat="44.49792" lon="5.36143">
        <ele>620.876587</ele>
        <time>2023-08-12T19:02:55.684Z</time>
      </trkpt>
      <trkpt lat="44.49798" lon="5.36188">
        <ele>618.174778</ele>
        <time>2023-08-12T19:02:58.048Z</time>
      </trkpt>
      <trkpt lat="44.49793" lon="5.36251">
        <ele>614.497079</ele>
        <time>2023-08-12T19:03:01.209Z</time>
      </trkpt>
      <trkpt lat="44.49775" lon="5.36317">
        <ele>610.330792</ele>
        <time>2023-08-12T19:03:04.772Z</time>
      </trkpt>
      <trkpt lat="44.49732" lon="5.36429">
        <ele>602.526205</ele>
        <time>2023-08-12T19:03:11.068Z</time>
      </trkpt>
      <trkpt lat="44.49714" lon="5.36498">
        <ele>597.753585</ele>
        <time>2023-08-12T19:03:14.697Z</time>
      </trkpt>
      <trkpt lat="44.49681" lon="5.36584">
        <ele>591.464164</ele>
        <time>2023-08-12T19:03:19.525Z</time>
      </trkpt>
      <trkpt lat="44.49673" lon="5.36649">
        <ele>588.072409</ele>
        <time>2023-08-12T19:03:22.831Z</time>
      </trkpt>
      <trkpt lat="44.49667" lon="5.36715">
        <ele>584.938379</ele>
        <time>2023-08-12T19:03:26.229Z</time>
      </trkpt>
      <trkpt lat="44.4967" lon="5.36747">
        <ele>583.431743</ele>
        <time>2023-08-12T19:03:27.884Z</time>
      </trkpt>
      <trkpt lat="44.49676" lon="5.3677">
        <ele>582.299846</ele>
        <time>2023-08-12T19:03:29.139Z</time>
      </trkpt>
      <trkpt lat="44.49678" lon="5.36779">
        <ele>581.837155</ele>
        <time>2023-08-12T19:03:29.667Z</time>
      </trkpt>
      <trkpt lat="44.49672" lon="5.36801">
        <ele>580.762046</ele>
        <time>2023-08-12T19:03:30.876Z</time>
      </trkpt>
      <trkpt lat="44.49648" lon="5.36829">
        <ele>578.707272</ele>
        <time>2023-08-12T19:03:33.259Z</time>
      </trkpt>
      <trkpt lat="44.49611" lon="5.36858">
        <ele>576.983413</ele>
        <time>2023-08-12T19:03:36.657Z</time>
      </trkpt>
      <trkpt lat="44.49578" lon="5.36876">
        <ele>575.606811</ele>
        <time>2023-08-12T19:03:39.674Z</time>
      </trkpt>
      <trkpt lat="44.4946" lon="5.36933">
        <ele>571.019783</ele>
        <time>2023-08-12T19:03:49.388Z</time>
      </trkpt>
      <trkpt lat="44.49437" lon="5.36956">
        <ele>570.257078</ele>
        <time>2023-08-12T19:03:51.545Z</time>
      </trkpt>
      <trkpt lat="44.49402" lon="5.37019">
        <ele>568.704124</ele>
        <time>2023-08-12T19:03:56.059Z</time>
      </trkpt>
      <trkpt lat="44.49365" lon="5.371">
        <ele>566.845548</ele>
        <time>2023-08-12T19:04:02.084Z</time>
      </trkpt>
      <trkpt lat="44.49346" lon="5.37151">
        <ele>566.732784</ele>
        <time>2023-08-12T19:04:07.920Z</time>
      </trkpt>
      <trkpt lat="44.49335" lon="5.37205">
        <ele>566.807852</ele>
        <time>2023-08-12T19:04:13.708Z</time>
      </trkpt>
      <trkpt lat="44.49333" lon="5.37262">
        <ele>566.884245</ele>
        <time>2023-08-12T19:04:19.333Z</time>
      </trkpt>
      <trkpt lat="44.49327" lon="5.37311">
        <ele>566.950433</ele>
        <time>2023-08-12T19:04:24.043Z</time>
      </trkpt>
      <trkpt lat="44.4932" lon="5.37326">
        <ele>566.97433</ele>
        <time>2023-08-12T19:04:26.044Z</time>
      </trkpt>
      <trkpt lat="44.49307" lon="5.37337">
        <ele>567.001971</ele>
        <time>2023-08-12T19:04:27.766Z</time>
      </trkpt>
      <trkpt lat="44.49272" lon="5.37345">
        <ele>566.191993</ele>
        <time>2023-08-12T19:04:31.808Z</time>
      </trkpt>
      <trkpt lat="44.4922" lon="5.37371">
        <ele>564.878557</ele>
        <time>2023-08-12T19:04:37.091Z</time>
      </trkpt>
      <trkpt lat="44.49127" lon="5.37446">
        <ele>562.053956</ele>
        <time>2023-08-12T19:04:45.437Z</time>
      </trkpt>
      <trkpt lat="44.4909" lon="5.37474">
        <ele>560.313031</ele>
        <time>2023-08-12T19:04:48.647Z</time>
      </trkpt>
      <trkpt lat="44.48974" lon="5.37652">
        <ele>553.973323</ele>
        <time>2023-08-12T19:05:02.140Z</time>
      </trkpt>
      <trkpt lat="44.48963" lon="5.37654">
        <ele>553.679112</ele>
        <time>2023-08-12T19:05:03.013Z</time>
      </trkpt>
      <trkpt lat="44.48939" lon="5.37675">
        <ele>552.896115</ele>
        <time>2023-08-12T19:05:05.346Z</time>
      </trkpt>
      <trkpt lat="44.48894" lon="5.37705">
        <ele>551.507098</ele>
        <time>2023-08-12T19:05:09.595Z</time>
      </trkpt>
      <trkpt lat="44.48871" lon="5.37711">
        <ele>550.859544</ele>
        <time>2023-08-12T19:05:11.646Z</time>
      </trkpt>
      <trkpt lat="44.48826" lon="5.37715">
        <ele>550.254198</ele>
        <time>2023-08-12T19:05:15.796Z</time>
      </trkpt>
      <trkpt lat="44.48781" lon="5.37728">
        <ele>550.000108</ele>
        <time>2023-08-12T19:05:20.282Z</time>
      </trkpt>
      <trkpt lat="44.48672" lon="5.37769">
        <ele>549.372032</ele>
        <time>2023-08-12T19:05:33.917Z</time>
      </trkpt>
      <trkpt lat="44.48604" lon="5.37799">
        <ele>548.919959</ele>
        <time>2023-08-12T19:05:42.857Z</time>
      </trkpt>
      <trkpt lat="44.48576" lon="5.37814">
        <ele>548.730469</ele>
        <time>2023-08-12T19:05:45.942Z</time>
      </trkpt>
      <trkpt lat="44.48559" lon="5.37826">
        <ele>548.610779</ele>
        <time>2023-08-12T19:05:47.679Z</time>
      </trkpt>
      <trkpt lat="44.48557" lon="5.37838">
        <ele>548.555646</ele>
        <time>2023-08-12T19:05:48.562Z</time>
      </trkpt>
      <trkpt lat="44.48554" lon="5.37841">
        <ele>548.533464</ele>
        <time>2023-08-12T19:05:48.895Z</time>
      </trkpt>
      <trkpt lat="44.48544" lon="5.3784">
        <ele>548.471164</ele>
        <time>2023-08-12T19:05:49.738Z</time>
      </trkpt>
      <trkpt lat="44.48525" lon="5.3784">
        <ele>548.350406</ele>
        <time>2023-08-12T19:05:51.475Z</time>
      </trkpt>
      <trkpt lat="44.48502" lon="5.37845">
        <ele>548.023396</ele>
        <time>2023-08-12T19:05:53.577Z</time>
      </trkpt>
      <trkpt lat="44.48458" lon="5.37856">
        <ele>547.07726</ele>
        <time>2023-08-12T19:05:57.652Z</time>
      </trkpt>
      <trkpt lat="44.48435" lon="5.37857">
        <ele>546.590268</ele>
        <time>2023-08-12T19:05:59.699Z</time>
      </trkpt>
      <trkpt lat="44.48435" lon="5.37853">
        <ele>546.529857</ele>
        <time>2023-08-12T19:05:59.941Z</time>
      </trkpt>
      <trkpt lat="44.48433" lon="5.37826">
        <ele>546.114103</ele>
        <time>2023-08-12T19:06:01.676Z</time>
      </trkpt>
      <trkpt lat="44.48435" lon="5.3781">
        <ele>545.871981</ele>
        <time>2023-08-12T19:06:02.624Z</time>
      </trkpt>
      <trkpt lat="44.48436" lon="5.37804">
        <ele>545.789075</ele>
        <time>2023-08-12T19:06:02.946Z</time>
      </trkpt>
      <trkpt lat="44.48439" lon="5.3779">
        <ele>545.557734</ele>
        <time>2023-08-12T19:06:03.842Z</time>
      </trkpt>
      <trkpt lat="44.48441" lon="5.37785">
        <ele>545.486203</ele>
        <time>2023-08-12T19:06:04.116Z</time>
      </trkpt>
      <trkpt lat="44.48446" lon="5.37757">
        <ele>545.041299</ele>
        <time>2023-08-12T19:06:05.861Z</time>
      </trkpt>
      <trkpt lat="44.48447" lon="5.37739">
        <ele>544.772752</ele>
        <time>2023-08-12T19:06:06.930Z</time>
      </trkpt>
      <trkpt lat="44.48442" lon="5.37712">
        <ele>544.390062</ele>
        <time>2023-08-12T19:06:08.573Z</time>
      </trkpt>
      <trkpt lat="44.48435" lon="5.37697">
        <ele>544.165685</ele>
        <time>2023-08-12T19:06:09.742Z</time>
      </trkpt>
      <trkpt lat="44.48421" lon="5.3768">
        <ele>543.869142</ele>
        <time>2023-08-12T19:06:11.305Z</time>
      </trkpt>
      <trkpt lat="44.48306" lon="5.37608">
        <ele>541.772295</ele>
        <time>2023-08-12T19:06:23.266Z</time>
      </trkpt>
      <trkpt lat="44.48288" lon="5.37601">
        <ele>541.470572</ele>
        <time>2023-08-12T19:06:24.895Z</time>
      </trkpt>
      <trkpt lat="44.4823" lon="5.37567">
        <ele>540.55878</ele>
        <time>2023-08-12T19:06:30.499Z</time>
      </trkpt>
      <trkpt lat="44.48206" lon="5.37553">
        <ele>540.175765</ele>
        <time>2023-08-12T19:06:32.913Z</time>
      </trkpt>
      <trkpt lat="44.48198" lon="5.37549">
        <ele>540.049524</ele>
        <time>2023-08-12T19:06:33.706Z</time>
      </trkpt>
      <trkpt lat="44.48187" lon="5.37542">
        <ele>539.879763</ele>
        <time>2023-08-12T19:06:34.772Z</time>
      </trkpt>
      <trkpt lat="44.48128" lon="5.37507">
        <ele>538.940796</ele>
        <time>2023-08-12T19:06:40.874Z</time>
      </trkpt>
      <trkpt lat="44.47986" lon="5.37424">
        <ele>537.17386</ele>
        <time>2023-08-12T19:06:55.786Z</time>
      </trkpt>
      <trkpt lat="44.47907" lon="5.3738">
        <ele>536.201405</ele>
        <time>2023-08-12T19:07:03.877Z</time>
      </trkpt>
      <trkpt lat="44.47887" lon="5.37373">
        <ele>535.959607</ele>
        <time>2023-08-12T19:07:05.856Z</time>
      </trkpt>
      <trkpt lat="44.47855" lon="5.37372">
        <ele>535.601109</ele>
        <time>2023-08-12T19:07:08.763Z</time>
      </trkpt>
      <trkpt lat="44.47808" lon="5.37383">
        <ele>535.049921</ele>
        <time>2023-08-12T19:07:13.288Z</time>
      </trkpt>
      <trkpt lat="44.47777" lon="5.37386">
        <ele>534.745575</ele>
        <time>2023-08-12T19:07:16.369Z</time>
      </trkpt>
      <trkpt lat="44.47767" lon="5.37383">
        <ele>534.704984</ele>
        <time>2023-08-12T19:07:17.403Z</time>
      </trkpt>
      <trkpt lat="44.4773" lon="5.37378">
        <ele>534.559118</ele>
        <time>2023-08-12T19:07:21.346Z</time>
      </trkpt>
      <trkpt lat="44.47699" lon="5.37368">
        <ele>534.435366</ele>
        <time>2023-08-12T19:07:24.898Z</time>
      </trkpt>
      <trkpt lat="44.4755" lon="5.37286">
        <ele>533.677991</ele>
        <time>2023-08-12T19:07:43.070Z</time>
      </trkpt>
      <trkpt lat="44.4749" lon="5.3725">
        <ele>533.286857</ele>
        <time>2023-08-12T19:07:49.858Z</time>
      </trkpt>
      <trkpt lat="44.47435" lon="5.37208">
        <ele>532.792384</ele>
        <time>2023-08-12T19:07:56.071Z</time>
      </trkpt>
      <trkpt lat="44.47419" lon="5.37191">
        <ele>532.496864</ele>
        <time>2023-08-12T19:07:58.014Z</time>
      </trkpt>
      <trkpt lat="44.47377" lon="5.37136">
        <ele>531.667413</ele>
        <time>2023-08-12T19:08:03.280Z</time>
      </trkpt>
      <trkpt lat="44.47361" lon="5.37122">
        <ele>531.407633</ele>
        <time>2023-08-12T19:08:04.918Z</time>
      </trkpt>
      <trkpt lat="44.47351" lon="5.37117">
        <ele>531.253258</ele>
        <time>2023-08-12T19:08:05.904Z</time>
      </trkpt>
      <trkpt lat="44.47326" lon="5.37107">
        <ele>530.872635</ele>
        <time>2023-08-12T19:08:08.313Z</time>
      </trkpt>
      <trkpt lat="44.47274" lon="5.37096">
        <ele>530.023855</ele>
        <time>2023-08-12T19:08:13.095Z</time>
      </trkpt>
      <trkpt lat="44.47239" lon="5.37089">
        <ele>529.343324</ele>
        <time>2023-08-12T19:08:16.283Z</time>
      </trkpt>
      <trkpt lat="44.47227" lon="5.37087">
        <ele>529.110699</ele>
        <time>2023-08-12T19:08:17.358Z</time>
      </trkpt>
      <trkpt lat="44.47206" lon="5.37082">
        <ele>528.708979</ele>
        <time>2023-08-12T19:08:19.216Z</time>
      </trkpt>
      <trkpt lat="44.47162" lon="5.37068">
        <ele>527.851647</ele>
        <time>2023-08-12T19:08:23.124Z</time>
      </trkpt>
      <trkpt lat="44.47099" lon="5.37034">
        <ele>526.655229</ele>
        <time>2023-08-12T19:08:29.070Z</time>
      </trkpt>
      <trkpt lat="44.47035" lon="5.36995">
        <ele>525.623157</ele>
        <time>2023-08-12T19:08:35.377Z</time>
      </trkpt>
      <trkpt lat="44.47002" lon="5.36969">
        <ele>525.060578</ele>
        <time>2023-08-12T19:08:38.918Z</time>
      </trkpt>
      <trkpt lat="44.46985" lon="5.36952">
        <ele>524.740806</ele>
        <time>2023-08-12T19:08:40.958Z</time>
      </trkpt>
      <trkpt lat="44.46968" lon="5.36931">
        <ele>524.410161</ele>
        <time>2023-08-12T19:08:43.086Z</time>
      </trkpt>
      <trkpt lat="44.46919" lon="5.3686">
        <ele>524.440546</ele>
        <time>2023-08-12T19:08:50.039Z</time>
      </trkpt>
      <trkpt lat="44.46854" lon="5.36764">
        <ele>524.632351</ele>
        <time>2023-08-12T19:09:01.590Z</time>
      </trkpt>
      <trkpt lat="44.46834" lon="5.36739">
        <ele>524.837993</ele>
        <time>2023-08-12T19:09:06.464Z</time>
      </trkpt>
      <trkpt lat="44.46825" lon="5.3673">
        <ele>525.167481</ele>
        <time>2023-08-12T19:09:08.626Z</time>
      </trkpt>
      <trkpt lat="44.46826" lon="5.36726">
        <ele>525.266037</ele>
        <time>2023-08-12T19:09:09.367Z</time>
      </trkpt>
      <trkpt lat="44.46824" lon="5.36715">
        <ele>525.513819</ele>
        <time>2023-08-12T19:09:11.151Z</time>
      </trkpt>
      <trkpt lat="44.468" lon="5.3666">
        <ele>526.878752</ele>
        <time>2023-08-12T19:09:21.912Z</time>
      </trkpt>
      <trkpt lat="44.46795" lon="5.36643">
        <ele>527.258212</ele>
        <time>2023-08-12T19:09:24.911Z</time>
      </trkpt>
      <trkpt lat="44.46795" lon="5.36635">
        <ele>527.426594</ele>
        <time>2023-08-12T19:09:26.254Z</time>
      </trkpt>
      <trkpt lat="44.46794" lon="5.36601">
        <ele>528.161113</ele>
        <time>2023-08-12T19:09:32.170Z</time>
      </trkpt>
      <trkpt lat="44.46791" lon="5.36589">
        <ele>528.430474</ele>
        <time>2023-08-12T19:09:34.224Z</time>
      </trkpt>
      <trkpt lat="44.46784" lon="5.36578">
        <ele>528.735509</ele>
        <time>2023-08-12T19:09:36.578Z</time>
      </trkpt>
      <trkpt lat="44.46766" lon="5.36563">
        <ele>529.355412</ele>
        <time>2023-08-12T19:09:41.019Z</time>
      </trkpt>
      <trkpt lat="44.46752" lon="5.36547">
        <ele>529.889979</ele>
        <time>2023-08-12T19:09:44.699Z</time>
      </trkpt>
      <trkpt lat="44.46749" lon="5.36537">
        <ele>530.171144</ele>
        <time>2023-08-12T19:09:46.425Z</time>
      </trkpt>
      <trkpt lat="44.46747" lon="5.36497">
        <ele>531.268293</ele>
        <time>2023-08-12T19:09:52.173Z</time>
      </trkpt>
      <trkpt lat="44.46743" lon="5.36486">
        <ele>531.596388</ele>
        <time>2023-08-12T19:09:53.936Z</time>
      </trkpt>
      <trkpt lat="44.46736" lon="5.36482">
        <ele>531.896597</ele>
        <time>2023-08-12T19:09:55.598Z</time>
      </trkpt>
      <trkpt lat="44.46689" lon="5.36496">
        <ele>533.743475</ele>
        <time>2023-08-12T19:10:06.446Z</time>
      </trkpt>
      <trkpt lat="44.46668" lon="5.365">
        <ele>534.533746</ele>
        <time>2023-08-12T19:10:11.677Z</time>
      </trkpt>
      <trkpt lat="44.4665" lon="5.365">
        <ele>535.254768</ele>
        <time>2023-08-12T19:10:16.490Z</time>
      </trkpt>
      <trkpt lat="44.46621" lon="5.36486">
        <ele>536.435605</ele>
        <time>2023-08-12T19:10:24.387Z</time>
      </trkpt>
      <trkpt lat="44.46609" lon="5.36471">
        <ele>537.143353</ele>
        <time>2023-08-12T19:10:28.635Z</time>
      </trkpt>
      <trkpt lat="44.46607" lon="5.36455">
        <ele>538.079094</ele>
        <time>2023-08-12T19:10:31.723Z</time>
      </trkpt>
      <trkpt lat="44.46612" lon="5.3644">
        <ele>539.053164</ele>
        <time>2023-08-12T19:10:35.012Z</time>
      </trkpt>
      <trkpt lat="44.46622" lon="5.36429">
        <ele>540.101529</ele>
        <time>2023-08-12T19:10:38.737Z</time>
      </trkpt>
      <trkpt lat="44.46637" lon="5.36421">
        <ele>541.417028</ele>
        <time>2023-08-12T19:10:43.749Z</time>
      </trkpt>
      <trkpt lat="44.46685" lon="5.36406">
        <ele>545.552977</ele>
        <time>2023-08-12T19:11:02.548Z</time>
      </trkpt>
      <trkpt lat="44.46719" lon="5.36403">
        <ele>548.348193</ele>
        <time>2023-08-12T19:11:18.480Z</time>
      </trkpt>
      <trkpt lat="44.46745" lon="5.36408">
        <ele>550.508479</ele>
        <time>2023-08-12T19:11:29.832Z</time>
      </trkpt>
      <trkpt lat="44.46774" lon="5.36421">
        <ele>553.147957</ele>
        <time>2023-08-12T19:11:44.347Z</time>
      </trkpt>
      <trkpt lat="44.4678" lon="5.36417">
        <ele>553.778162</ele>
        <time>2023-08-12T19:11:47.510Z</time>
      </trkpt>
      <trkpt lat="44.46787" lon="5.36392">
        <ele>555.526853</ele>
        <time>2023-08-12T19:11:57.269Z</time>
      </trkpt>
      <trkpt lat="44.46794" lon="5.36381">
        <ele>556.495661</ele>
        <time>2023-08-12T19:12:02.160Z</time>
      </trkpt>
      <trkpt lat="44.46802" lon="5.36375">
        <ele>557.33991</ele>
        <time>2023-08-12T19:12:06.410Z</time>
      </trkpt>
      <trkpt lat="44.46834" lon="5.36381">
        <ele>560.221203</ele>
        <time>2023-08-12T19:12:20.656Z</time>
      </trkpt>
      <trkpt lat="44.46839" lon="5.36376">
        <ele>560.776597</ele>
        <time>2023-08-12T19:12:23.333Z</time>
      </trkpt>
      <trkpt lat="44.4684" lon="5.36364">
        <ele>561.576601</ele>
        <time>2023-08-12T19:12:27.389Z</time>
      </trkpt>
      <trkpt lat="44.46837" lon="5.36352">
        <ele>562.360234</ele>
        <time>2023-08-12T19:12:30.786Z</time>
      </trkpt>
      <trkpt lat="44.46833" lon="5.36335">
        <ele>563.587454</ele>
        <time>2023-08-12T19:12:35.819Z</time>
      </trkpt>
      <trkpt lat="44.46832" lon="5.36324">
        <ele>564.265243</ele>
        <time>2023-08-12T19:12:38.776Z</time>
      </trkpt>
      <trkpt lat="44.46835" lon="5.36313">
        <ele>565.055071</ele>
        <time>2023-08-12T19:12:42.308Z</time>
      </trkpt>
      <trkpt lat="44.46841" lon="5.36305">
        <ele>565.835748</ele>
        <time>2023-08-12T19:12:45.359Z</time>
      </trkpt>
      <trkpt lat="44.46878" lon="5.36291">
        <ele>568.725037</ele>
        <time>2023-08-12T19:12:57.635Z</time>
      </trkpt>
      <trkpt lat="44.46885" lon="5.36285">
        <ele>569.035487</ele>
        <time>2023-08-12T19:12:59.744Z</time>
      </trkpt>
      <trkpt lat="44.46894" lon="5.3627">
        <ele>569.58256</ele>
        <time>2023-08-12T19:13:03.958Z</time>
      </trkpt>
      <trkpt lat="44.46916" lon="5.36251">
        <ele>570.610872</ele>
        <time>2023-08-12T19:13:10.271Z</time>
      </trkpt>
      <trkpt lat="44.46919" lon="5.36241">
        <ele>570.913465</ele>
        <time>2023-08-12T19:13:12.122Z</time>
      </trkpt>
      <trkpt lat="44.46919" lon="5.36211">
        <ele>571.721159</ele>
        <time>2023-08-12T19:13:15.909Z</time>
      </trkpt>
      <trkpt lat="44.46924" lon="5.36165">
        <ele>573.023072</ele>
        <time>2023-08-12T19:13:22.588Z</time>
      </trkpt>
      <trkpt lat="44.46927" lon="5.36156">
        <ele>573.300829</ele>
        <time>2023-08-12T19:13:23.913Z</time>
      </trkpt>
      <trkpt lat="44.46947" lon="5.36137">
        <ele>574.232501</ele>
        <time>2023-08-12T19:13:28.808Z</time>
      </trkpt>
      <trkpt lat="44.46952" lon="5.36127">
        <ele>574.583906</ele>
        <time>2023-08-12T19:13:30.378Z</time>
      </trkpt>
      <trkpt lat="44.46954" lon="5.36116">
        <ele>574.890236</ele>
        <time>2023-08-12T19:13:31.738Z</time>
      </trkpt>
      <trkpt lat="44.46939" lon="5.36041">
        <ele>579.72634</ele>
        <time>2023-08-12T19:13:45.321Z</time>
      </trkpt>
      <trkpt lat="44.46935" lon="5.36033">
        <ele>580.440382</ele>
        <time>2023-08-12T19:13:47.716Z</time>
      </trkpt>
      <trkpt lat="44.46922" lon="5.36015">
        <ele>582.206616</ele>
        <time>2023-08-12T19:13:53.947Z</time>
      </trkpt>
      <trkpt lat="44.46913" lon="5.35984">
        <ele>584.559766</ele>
        <time>2023-08-12T19:14:04.296Z</time>
      </trkpt>
      <trkpt lat="44.46884" lon="5.35933">
        <ele>589.177845</ele>
        <time>2023-08-12T19:14:28.951Z</time>
      </trkpt>
      <trkpt lat="44.46881" lon="5.35922">
        <ele>590.027116</ele>
        <time>2023-08-12T19:14:34.089Z</time>
      </trkpt>
      <trkpt lat="44.4688" lon="5.35882">
        <ele>592.808856</ele>
        <time>2023-08-12T19:14:50.828Z</time>
      </trkpt>
      <trkpt lat="44.46876" lon="5.35867">
        <ele>594.481984</ele>
        <time>2023-08-12T19:14:58.203Z</time>
      </trkpt>
      <trkpt lat="44.46861" lon="5.3584">
        <ele>598.404456</ele>
        <time>2023-08-12T19:15:13.845Z</time>
      </trkpt>
      <trkpt lat="44.46857" lon="5.3582">
        <ele>600.833543</ele>
        <time>2023-08-12T19:15:24.150Z</time>
      </trkpt>
      <trkpt lat="44.46863" lon="5.35784">
        <ele>605.046703</ele>
        <time>2023-08-12T19:15:42.328Z</time>
      </trkpt>
      <trkpt lat="44.46867" lon="5.35778">
        <ele>605.98172</ele>
        <time>2023-08-12T19:15:46.594Z</time>
      </trkpt>
      <trkpt lat="44.46886" lon="5.35766">
        <ele>609.244647</ele>
        <time>2023-08-12T19:16:00.986Z</time>
      </trkpt>
      <trkpt lat="44.4691" lon="5.35758">
        <ele>613.110413</ele>
        <time>2023-08-12T19:16:18.240Z</time>
      </trkpt>
      <trkpt lat="44.46918" lon="5.35752">
        <ele>614.576046</ele>
        <time>2023-08-12T19:16:24.705Z</time>
      </trkpt>
      <trkpt lat="44.46938" lon="5.35711">
        <ele>620.196853</ele>
        <time>2023-08-12T19:16:47.500Z</time>
      </trkpt>
      <trkpt lat="44.46942" lon="5.35707">
        <ele>621.083059</ele>
        <time>2023-08-12T19:16:50.811Z</time>
      </trkpt>
      <trkpt lat="44.47036" lon="5.35653">
        <ele>629.14148</ele>
        <time>2023-08-12T19:17:32.208Z</time>
      </trkpt>
      <trkpt lat="44.47067" lon="5.35626">
        <ele>631.975998</ele>
        <time>2023-08-12T19:17:41.820Z</time>
      </trkpt>
      <trkpt lat="44.4707" lon="5.35617">
        <ele>632.505836</ele>
        <time>2023-08-12T19:17:43.576Z</time>
      </trkpt>
      <trkpt lat="44.47072" lon="5.35597">
        <ele>633.612066</ele>
        <time>2023-08-12T19:17:46.984Z</time>
      </trkpt>
      <trkpt lat="44.47077" lon="5.3559">
        <ele>634.146715</ele>
        <time>2023-08-12T19:17:48.749Z</time>
      </trkpt>
      <trkpt lat="44.47109" lon="5.35566">
        <ele>636.257293</ele>
        <time>2023-08-12T19:17:57.660Z</time>
      </trkpt>
      <trkpt lat="44.47113" lon="5.35557">
        <ele>636.597369</ele>
        <time>2023-08-12T19:17:59.830Z</time>
      </trkpt>
      <trkpt lat="44.47123" lon="5.3551">
        <ele>638.018395</ele>
        <time>2023-08-12T19:18:08.384Z</time>
      </trkpt>
      <trkpt lat="44.47134" lon="5.35494">
        <ele>638.666362</ele>
        <time>2023-08-12T19:18:12.065Z</time>
      </trkpt>
      <trkpt lat="44.4715" lon="5.35479">
        <ele>639.448199</ele>
        <time>2023-08-12T19:18:16.749Z</time>
      </trkpt>
      <trkpt lat="44.47171" lon="5.35471">
        <ele>640.328906</ele>
        <time>2023-08-12T19:18:21.928Z</time>
      </trkpt>
      <trkpt lat="44.47189" lon="5.35467">
        <ele>641.067942</ele>
        <time>2023-08-12T19:18:26.349Z</time>
      </trkpt>
      <trkpt lat="44.47234" lon="5.35471">
        <ele>642.911438</ele>
        <time>2023-08-12T19:18:38.101Z</time>
      </trkpt>
      <trkpt lat="44.47248" lon="5.35468">
        <ele>643.348649</ele>
        <time>2023-08-12T19:18:41.958Z</time>
      </trkpt>
      <trkpt lat="44.47303" lon="5.35431">
        <ele>645.222086</ele>
        <time>2023-08-12T19:18:58.135Z</time>
      </trkpt>
      <trkpt lat="44.47339" lon="5.35414">
        <ele>646.380134</ele>
        <time>2023-08-12T19:19:06.789Z</time>
      </trkpt>
      <trkpt lat="44.4739" lon="5.35385">
        <ele>648.053867</ele>
        <time>2023-08-12T19:19:16.302Z</time>
      </trkpt>
      <trkpt lat="44.47403" lon="5.35372">
        <ele>648.395406</ele>
        <time>2023-08-12T19:19:18.767Z</time>
      </trkpt>
      <trkpt lat="44.47431" lon="5.35322">
        <ele>648.592689</ele>
        <time>2023-08-12T19:19:24.740Z</time>
      </trkpt>
      <trkpt lat="44.4747" lon="5.35238">
        <ele>648.907793</ele>
        <time>2023-08-12T19:19:33.124Z</time>
      </trkpt>
      <trkpt lat="44.47487" lon="5.35215">
        <ele>649.011632</ele>
        <time>2023-08-12T19:19:35.861Z</time>
      </trkpt>
      <trkpt lat="44.47533" lon="5.35181">
        <ele>649.538872</ele>
        <time>2023-08-12T19:19:42.142Z</time>
      </trkpt>
      <trkpt lat="44.47545" lon="5.35166">
        <ele>649.885328</ele>
        <time>2023-08-12T19:19:44.512Z</time>
      </trkpt>
      <trkpt lat="44.47684" lon="5.34972">
        <ele>654.539332</ele>
        <time>2023-08-12T19:20:24.325Z</time>
      </trkpt>
      <trkpt lat="44.47714" lon="5.34947">
        <ele>655.643551</ele>
        <time>2023-08-12T19:20:32.807Z</time>
      </trkpt>
      <trkpt lat="44.47812" lon="5.34885">
        <ele>659.056078</ele>
        <time>2023-08-12T19:20:56.552Z</time>
      </trkpt>
      <trkpt lat="44.47828" lon="5.34869">
        <ele>659.624121</ele>
        <time>2023-08-12T19:21:01.173Z</time>
      </trkpt>
      <trkpt lat="44.47842" lon="5.34849">
        <ele>660.213097</ele>
        <time>2023-08-12T19:21:06.139Z</time>
      </trkpt>
      <trkpt lat="44.47871" lon="5.34801">
        <ele>661.496099</ele>
        <time>2023-08-12T19:21:16.276Z</time>
      </trkpt>
      <trkpt lat="44.47892" lon="5.34774">
        <ele>662.337976</ele>
        <time>2023-08-12T19:21:22.553Z</time>
      </trkpt>
      <trkpt lat="44.47916" lon="5.34753">
        <ele>663.151181</ele>
        <time>2023-08-12T19:21:27.720Z</time>
      </trkpt>
      <trkpt lat="44.48" lon="5.34706">
        <ele>665.601681</ele>
        <time>2023-08-12T19:21:43.304Z</time>
      </trkpt>
      <trkpt lat="44.48012" lon="5.34695">
        <ele>665.976304</ele>
        <time>2023-08-12T19:21:46.609Z</time>
      </trkpt>
      <trkpt lat="44.48045" lon="5.34608">
        <ele>667.831523</ele>
        <time>2023-08-12T19:22:03.342Z</time>
      </trkpt>
      <trkpt lat="44.48063" lon="5.34586">
        <ele>668.441344</ele>
        <time>2023-08-12T19:22:08.137Z</time>
      </trkpt>
      <trkpt lat="44.48086" lon="5.34571">
        <ele>669.315951</ele>
        <time>2023-08-12T19:22:12.910Z</time>
      </trkpt>
      <trkpt lat="44.48141" lon="5.3456">
        <ele>671.392226</ele>
        <time>2023-08-12T19:22:22.108Z</time>
      </trkpt>
      <trkpt lat="44.48154" lon="5.34555">
        <ele>671.879312</ele>
        <time>2023-08-12T19:22:24.414Z</time>
      </trkpt>
      <trkpt lat="44.48163" lon="5.34546">
        <ele>672.320329</ele>
        <time>2023-08-12T19:22:26.802Z</time>
      </trkpt>
      <trkpt lat="44.48173" lon="5.34528">
        <ele>672.914716</ele>
        <time>2023-08-12T19:22:30.535Z</time>
      </trkpt>
      <trkpt lat="44.48222" lon="5.3446">
        <ele>675.590193</ele>
        <time>2023-08-12T19:22:51.200Z</time>
      </trkpt>
      <trkpt lat="44.48251" lon="5.34407">
        <ele>678.81741</ele>
        <time>2023-08-12T19:23:07.950Z</time>
      </trkpt>
      <trkpt lat="44.48253" lon="5.34391">
        <ele>679.596808</ele>
        <time>2023-08-12T19:23:12.100Z</time>
      </trkpt>
      <trkpt lat="44.48242" lon="5.34254">
        <ele>686.222286</ele>
        <time>2023-08-12T19:23:45.855Z</time>
      </trkpt>
      <trkpt lat="44.48243" lon="5.34222">
        <ele>687.658669</ele>
        <time>2023-08-12T19:23:53.537Z</time>
      </trkpt>
      <trkpt lat="44.48246" lon="5.3419">
        <ele>688.633591</ele>
        <time>2023-08-12T19:24:00.783Z</time>
      </trkpt>
      <trkpt lat="44.48259" lon="5.34122">
        <ele>690.779395</ele>
        <time>2023-08-12T19:24:16.446Z</time>
      </trkpt>
      <trkpt lat="44.4828" lon="5.34033">
        <ele>693.607092</ele>
        <time>2023-08-12T19:24:32.196Z</time>
      </trkpt>
      <trkpt lat="44.48285" lon="5.33995">
        <ele>694.775056</ele>
        <time>2023-08-12T19:24:37.051Z</time>
      </trkpt>
      <trkpt lat="44.48286" lon="5.33956">
        <ele>695.339122</ele>
        <time>2023-08-12T19:24:41.209Z</time>
      </trkpt>
      <trkpt lat="44.48284" lon="5.33875">
        <ele>696.051646</ele>
        <time>2023-08-12T19:24:50.075Z</time>
      </trkpt>
      <trkpt lat="44.48285" lon="5.33851">
        <ele>696.266306</ele>
        <time>2023-08-12T19:24:52.878Z</time>
      </trkpt>
      <trkpt lat="44.48292" lon="5.3383">
        <ele>696.472681</ele>
        <time>2023-08-12T19:24:55.465Z</time>
      </trkpt>
      <trkpt lat="44.48326" lon="5.33773">
        <ele>697.127131</ele>
        <time>2023-08-12T19:25:03.801Z</time>
      </trkpt>
      <trkpt lat="44.48334" lon="5.33755">
        <ele>697.307649</ele>
        <time>2023-08-12T19:25:05.918Z</time>
      </trkpt>
      <trkpt lat="44.48336" lon="5.33734">
        <ele>697.335034</ele>
        <time>2023-08-12T19:25:08.111Z</time>
      </trkpt>
      <trkpt lat="44.48333" lon="5.33672">
        <ele>697.415085</ele>
        <time>2023-08-12T19:25:14.091Z</time>
      </trkpt>
      <trkpt lat="44.48334" lon="5.33616">
        <ele>697.488417</ele>
        <time>2023-08-12T19:25:19.105Z</time>
      </trkpt>
      <trkpt lat="44.48338" lon="5.33601">
        <ele>697.509587</ele>
        <time>2023-08-12T19:25:20.366Z</time>
      </trkpt>
      <trkpt lat="44.48367" lon="5.33556">
        <ele>697.587177</ele>
        <time>2023-08-12T19:25:25.159Z</time>
      </trkpt>
      <trkpt lat="44.48383" lon="5.33523">
        <ele>697.676844</ele>
        <time>2023-08-12T19:25:28.155Z</time>
      </trkpt>
      <trkpt lat="44.48391" lon="5.33512">
        <ele>697.85851</ele>
        <time>2023-08-12T19:25:29.436Z</time>
      </trkpt>
      <trkpt lat="44.48437" lon="5.33485">
        <ele>698.629563</ele>
        <time>2023-08-12T19:25:35.484Z</time>
      </trkpt>
      <trkpt lat="44.48446" lon="5.33478">
        <ele>698.794313</ele>
        <time>2023-08-12T19:25:37.057Z</time>
      </trkpt>
      <trkpt lat="44.48454" lon="5.33466">
        <ele>698.974729</ele>
        <time>2023-08-12T19:25:39.010Z</time>
      </trkpt>
      <trkpt lat="44.48459" lon="5.33452">
        <ele>699.140945</ele>
        <time>2023-08-12T19:25:40.872Z</time>
      </trkpt>
      <trkpt lat="44.48478" lon="5.33352">
        <ele>700.288364</ele>
        <time>2023-08-12T19:25:56.039Z</time>
      </trkpt>
      <trkpt lat="44.48491" lon="5.3331">
        <ele>701.324005</ele>
        <time>2023-08-12T19:26:03.413Z</time>
      </trkpt>
      <trkpt lat="44.48498" lon="5.33299">
        <ele>701.735709</ele>
        <time>2023-08-12T19:26:05.976Z</time>
      </trkpt>
      <trkpt lat="44.48568" lon="5.33219">
        <ele>705.107433</ele>
        <time>2023-08-12T19:26:26.358Z</time>
      </trkpt>
      <trkpt lat="44.48575" lon="5.33207">
        <ele>705.533788</ele>
        <time>2023-08-12T19:26:29.434Z</time>
      </trkpt>
      <trkpt lat="44.48599" lon="5.33132">
        <ele>707.933914</ele>
        <time>2023-08-12T19:26:44.801Z</time>
      </trkpt>
      <trkpt lat="44.48607" lon="5.33119">
        <ele>708.545149</ele>
        <time>2023-08-12T19:26:48.474Z</time>
      </trkpt>
      <trkpt lat="44.48625" lon="5.33103">
        <ele>709.627044</ele>
        <time>2023-08-12T19:26:53.967Z</time>
      </trkpt>
      <trkpt lat="44.48641" lon="5.33093">
        <ele>710.517487</ele>
        <time>2023-08-12T19:26:59.401Z</time>
      </trkpt>
      <trkpt lat="44.48664" lon="5.33055">
        <ele>712.338885</ele>
        <time>2023-08-12T19:27:09.688Z</time>
      </trkpt>
      <trkpt lat="44.48695" lon="5.33019">
        <ele>714.360009</ele>
        <time>2023-08-12T19:27:21.071Z</time>
      </trkpt>
      <trkpt lat="44.48744" lon="5.32971">
        <ele>717.356806</ele>
        <time>2023-08-12T19:27:37.946Z</time>
      </trkpt>
      <trkpt lat="44.48778" lon="5.32921">
        <ele>719.703121</ele>
        <time>2023-08-12T19:27:52.323Z</time>
      </trkpt>
      <trkpt lat="44.48791" lon="5.32909">
        <ele>720.45874</ele>
        <time>2023-08-12T19:27:56.924Z</time>
      </trkpt>
      <trkpt lat="44.48823" lon="5.32888">
        <ele>722.136423</ele>
        <time>2023-08-12T19:28:06.780Z</time>
      </trkpt>
      <trkpt lat="44.48838" lon="5.32875">
        <ele>723.00163</ele>
        <time>2023-08-12T19:28:11.667Z</time>
      </trkpt>
      <trkpt lat="44.48874" lon="5.3282">
        <ele>725.187586</ele>
        <time>2023-08-12T19:28:25.165Z</time>
      </trkpt>
      <trkpt lat="44.48897" lon="5.32791">
        <ele>725.834932</ele>
        <time>2023-08-12T19:28:31.883Z</time>
      </trkpt>
      <trkpt lat="44.48965" lon="5.32736">
        <ele>727.474535</ele>
        <time>2023-08-12T19:28:45.644Z</time>
      </trkpt>
      <trkpt lat="44.48986" lon="5.32705">
        <ele>728.114872</ele>
        <time>2023-08-12T19:28:50.338Z</time>
      </trkpt>
      <trkpt lat="44.4902" lon="5.32637">
        <ele>729.018532</ele>
        <time>2023-08-12T19:28:59.094Z</time>
      </trkpt>
      <trkpt lat="44.49026" lon="5.32613">
        <ele>729.203614</ele>
        <time>2023-08-12T19:29:01.820Z</time>
      </trkpt>
      <trkpt lat="44.49034" lon="5.32542">
        <ele>729.725883</ele>
        <time>2023-08-12T19:29:08.983Z</time>
      </trkpt>
      <trkpt lat="44.49043" lon="5.32524">
        <ele>729.882159</ele>
        <time>2023-08-12T19:29:11.175Z</time>
      </trkpt>
      <trkpt lat="44.49056" lon="5.32508">
        <ele>730.060916</ele>
        <time>2023-08-12T19:29:13.609Z</time>
      </trkpt>
      <trkpt lat="44.49091" lon="5.32485">
        <ele>730.458196</ele>
        <time>2023-08-12T19:29:19.504Z</time>
      </trkpt>
      <trkpt lat="44.49118" lon="5.32462">
        <ele>731.248177</ele>
        <time>2023-08-12T19:29:24.866Z</time>
      </trkpt>
      <trkpt lat="44.49155" lon="5.32394">
        <ele>732.998805</ele>
        <time>2023-08-12T19:29:37.153Z</time>
      </trkpt>
      <trkpt lat="44.49175" lon="5.32363">
        <ele>733.85999</ele>
        <time>2023-08-12T19:29:44.292Z</time>
      </trkpt>
      <trkpt lat="44.49207" lon="5.32278">
        <ele>735.822405</ele>
        <time>2023-08-12T19:30:01.111Z</time>
      </trkpt>
      <trkpt lat="44.49217" lon="5.32263">
        <ele>736.235049</ele>
        <time>2023-08-12T19:30:04.166Z</time>
      </trkpt>
      <trkpt lat="44.49231" lon="5.32251">
        <ele>736.703651</ele>
        <time>2023-08-12T19:30:07.833Z</time>
      </trkpt>
      <trkpt lat="44.4929" lon="5.32223">
        <ele>738.457069</ele>
        <time>2023-08-12T19:30:20.374Z</time>
      </trkpt>
      <trkpt lat="44.49302" lon="5.32213">
        <ele>738.855744</ele>
        <time>2023-08-12T19:30:22.991Z</time>
      </trkpt>
      <trkpt lat="44.49316" lon="5.32186">
        <ele>739.530583</ele>
        <time>2023-08-12T19:30:27.749Z</time>
      </trkpt>
      <trkpt lat="44.49317" lon="5.32172">
        <ele>739.818694</ele>
        <time>2023-08-12T19:30:29.706Z</time>
      </trkpt>
      <trkpt lat="44.49315" lon="5.32151">
        <ele>740.256844</ele>
        <time>2023-08-12T19:30:32.604Z</time>
      </trkpt>
      <trkpt lat="44.49286" lon="5.32003">
        <ele>743.706629</ele>
        <time>2023-08-12T19:30:55.876Z</time>
      </trkpt>
      <trkpt lat="44.49292" lon="5.31955">
        <ele>744.830998</ele>
        <time>2023-08-12T19:31:02.964Z</time>
      </trkpt>
      <trkpt lat="44.49309" lon="5.31889">
        <ele>746.454304</ele>
        <time>2023-08-12T19:31:14.787Z</time>
      </trkpt>
      <trkpt lat="44.49322" lon="5.31862">
        <ele>747.624745</ele>
        <time>2023-08-12T19:31:20.633Z</time>
      </trkpt>
      <trkpt lat="44.49333" lon="5.31845">
        <ele>748.513985</ele>
        <time>2023-08-12T19:31:25.075Z</time>
      </trkpt>
      <trkpt lat="44.4936" lon="5.31815">
        <ele>750.39733</ele>
        <time>2023-08-12T19:31:35.149Z</time>
      </trkpt>
      <trkpt lat="44.49375" lon="5.31788">
        <ele>751.741036</ele>
        <time>2023-08-12T19:31:42.856Z</time>
      </trkpt>
      <trkpt lat="44.49383" lon="5.31762">
        <ele>752.850225</ele>
        <time>2023-08-12T19:31:49.085Z</time>
      </trkpt>
      <trkpt lat="44.49393" lon="5.31715">
        <ele>754.762117</ele>
        <time>2023-08-12T19:32:00.012Z</time>
      </trkpt>
      <trkpt lat="44.49407" lon="5.31656">
        <ele>757.266906</ele>
        <time>2023-08-12T19:32:13.862Z</time>
      </trkpt>
      <trkpt lat="44.49418" lon="5.31598">
        <ele>759.877852</ele>
        <time>2023-08-12T19:32:27.475Z</time>
      </trkpt>
      <trkpt lat="44.49422" lon="5.31534">
        <ele>762.684395</ele>
        <time>2023-08-12T19:32:42.393Z</time>
      </trkpt>
      <trkpt lat="44.49436" lon="5.31445">
        <ele>766.63452</ele>
        <time>2023-08-12T19:33:03.206Z</time>
      </trkpt>
      <trkpt lat="44.49454" lon="5.31386">
        <ele>769.2345</ele>
        <time>2023-08-12T19:33:16.389Z</time>
      </trkpt>
      <trkpt lat="44.49464" lon="5.31363">
        <ele>770.273314</ele>
        <time>2023-08-12T19:33:21.543Z</time>
      </trkpt>
      <trkpt lat="44.49467" lon="5.31348">
        <ele>770.869341</ele>
        <time>2023-08-12T19:33:24.568Z</time>
      </trkpt>
      <trkpt lat="44.49466" lon="5.31334">
        <ele>771.436547</ele>
        <time>2023-08-12T19:33:27.380Z</time>
      </trkpt>
      <trkpt lat="44.49461" lon="5.3132">
        <ele>772.041288</ele>
        <time>2023-08-12T19:33:30.450Z</time>
      </trkpt>
      <trkpt lat="44.49454" lon="5.31308">
        <ele>772.627355</ele>
        <time>2023-08-12T19:33:33.569Z</time>
      </trkpt>
      <trkpt lat="44.49446" lon="5.313">
        <ele>773.181198</ele>
        <time>2023-08-12T19:33:36.519Z</time>
      </trkpt>
      <trkpt lat="44.49417" lon="5.31282">
        <ele>774.927949</ele>
        <time>2023-08-12T19:33:46.047Z</time>
      </trkpt>
      <trkpt lat="44.49402" lon="5.31265">
        <ele>776.012886</ele>
        <time>2023-08-12T19:33:51.998Z</time>
      </trkpt>
      <trkpt lat="44.49368" lon="5.31193">
        <ele>779.600518</ele>
        <time>2023-08-12T19:34:10.765Z</time>
      </trkpt>
      <trkpt lat="44.49364" lon="5.31162">
        <ele>780.949499</ele>
        <time>2023-08-12T19:34:17.579Z</time>
      </trkpt>
      <trkpt lat="44.49368" lon="5.3113">
        <ele>782.344138</ele>
        <time>2023-08-12T19:34:24.582Z</time>
      </trkpt>
      <trkpt lat="44.49375" lon="5.31098">
        <ele>783.772153</ele>
        <time>2023-08-12T19:34:32.023Z</time>
      </trkpt>
      <trkpt lat="44.49371" lon="5.31068">
        <ele>785.095624</ele>
        <time>2023-08-12T19:34:39.117Z</time>
      </trkpt>
      <trkpt lat="44.49361" lon="5.31043">
        <ele>786.342322</ele>
        <time>2023-08-12T19:34:45.846Z</time>
      </trkpt>
      <trkpt lat="44.49353" lon="5.31031">
        <ele>787.033455</ele>
        <time>2023-08-12T19:34:49.623Z</time>
      </trkpt>
      <trkpt lat="44.49328" lon="5.31005">
        <ele>788.926273</ele>
        <time>2023-08-12T19:34:59.820Z</time>
      </trkpt>
      <trkpt lat="44.49314" lon="5.30981">
        <ele>790.200461</ele>
        <time>2023-08-12T19:35:06.710Z</time>
      </trkpt>
      <trkpt lat="44.49276" lon="5.30901">
        <ele>794.174887</ele>
        <time>2023-08-12T19:35:27.205Z</time>
      </trkpt>
      <trkpt lat="44.4923" lon="5.30785">
        <ele>799.535043</ele>
        <time>2023-08-12T19:35:56.094Z</time>
      </trkpt>
      <trkpt lat="44.49229" lon="5.30768">
        <ele>800.161691</ele>
        <time>2023-08-12T19:35:59.666Z</time>
      </trkpt>
      <trkpt lat="44.49232" lon="5.30741">
        <ele>801.130625</ele>
        <time>2023-08-12T19:36:04.982Z</time>
      </trkpt>
      <trkpt lat="44.49249" lon="5.30705">
        <ele>802.674498</ele>
        <time>2023-08-12T19:36:13.528Z</time>
      </trkpt>
      <trkpt lat="44.4927" lon="5.30666">
        <ele>804.424142</ele>
        <time>2023-08-12T19:36:22.955Z</time>
      </trkpt>
      <trkpt lat="44.49281" lon="5.30632">
        <ele>805.747292</ele>
        <time>2023-08-12T19:36:29.900Z</time>
      </trkpt>
      <trkpt lat="44.49284" lon="5.30611">
        <ele>806.536464</ele>
        <time>2023-08-12T19:36:34.194Z</time>
      </trkpt>
      <trkpt lat="44.4928" lon="5.30578">
        <ele>807.729395</ele>
        <time>2023-08-12T19:36:40.831Z</time>
      </trkpt>
      <trkpt lat="44.49275" lon="5.30533">
        <ele>809.237919</ele>
        <time>2023-08-12T19:36:49.986Z</time>
      </trkpt>
      <trkpt lat="44.49247" lon="5.30388">
        <ele>814.25526</ele>
        <time>2023-08-12T19:37:17.760Z</time>
      </trkpt>
      <trkpt lat="44.49245" lon="5.30367">
        <ele>814.987817</ele>
        <time>2023-08-12T19:37:22.181Z</time>
      </trkpt>
      <trkpt lat="44.49247" lon="5.30335">
        <ele>816.045289</ele>
        <time>2023-08-12T19:37:27.894Z</time>
      </trkpt>
      <trkpt lat="44.49262" lon="5.30275">
        <ele>818.887924</ele>
        <time>2023-08-12T19:37:40.765Z</time>
      </trkpt>
      <trkpt lat="44.49267" lon="5.30245">
        <ele>820.307725</ele>
        <time>2023-08-12T19:37:47.449Z</time>
      </trkpt>
      <trkpt lat="44.49272" lon="5.30239">
        <ele>820.711189</ele>
        <time>2023-08-12T19:37:49.590Z</time>
      </trkpt>
      <trkpt lat="44.49278" lon="5.30205">
        <ele>822.3012</ele>
        <time>2023-08-12T19:37:57.624Z</time>
      </trkpt>
      <trkpt lat="44.49294" lon="5.30182">
        <ele>823.734083</ele>
        <time>2023-08-12T19:38:05.530Z</time>
      </trkpt>
      <trkpt lat="44.49294" lon="5.3017">
        <ele>824.273459</ele>
        <time>2023-08-12T19:38:08.538Z</time>
      </trkpt>
      <trkpt lat="44.49289" lon="5.30161">
        <ele>824.80185</ele>
        <time>2023-08-12T19:38:11.107Z</time>
      </trkpt>
      <trkpt lat="44.4927" lon="5.30152">
        <ele>826.04326</ele>
        <time>2023-08-12T19:38:18.250Z</time>
      </trkpt>
      <trkpt lat="44.49259" lon="5.30099">
        <ele>829.037931</ele>
        <time>2023-08-12T19:38:32.377Z</time>
      </trkpt>
      <trkpt lat="44.49233" lon="5.30065">
        <ele>832.299971</ele>
        <time>2023-08-12T19:38:45.290Z</time>
      </trkpt>
      <trkpt lat="44.49216" lon="5.30057">
        <ele>833.97041</ele>
        <time>2023-08-12T19:38:51.782Z</time>
      </trkpt>
      <trkpt lat="44.49222" lon="5.30042">
        <ele>835.14245</ele>
        <time>2023-08-12T19:38:57.028Z</time>
      </trkpt>
      <trkpt lat="44.49245" lon="5.30026">
        <ele>837.541228</ele>
        <time>2023-08-12T19:39:07.111Z</time>
      </trkpt>
      <trkpt lat="44.49266" lon="5.30022">
        <ele>839.501996</ele>
        <time>2023-08-12T19:39:16.503Z</time>
      </trkpt>
      <trkpt lat="44.49275" lon="5.30016">
        <ele>840.363448</ele>
        <time>2023-08-12T19:39:20.857Z</time>
      </trkpt>
      <trkpt lat="44.49315" lon="5.29925">
        <ele>848.024427</ele>
        <time>2023-08-12T19:39:58.640Z</time>
      </trkpt>
      <trkpt lat="44.49315" lon="5.29914">
        <ele>848.900274</ele>
        <time>2023-08-12T19:40:02.755Z</time>
      </trkpt>
      <trkpt lat="44.4931" lon="5.29909">
        <ele>849.568799</ele>
        <time>2023-08-12T19:40:05.760Z</time>
      </trkpt>
      <trkpt lat="44.4928" lon="5.29894">
        <ele>853.035593</ele>
        <time>2023-08-12T19:40:21.206Z</time>
      </trkpt>
      <trkpt lat="44.49272" lon="5.29886">
        <ele>854.058042</ele>
        <time>2023-08-12T19:40:25.725Z</time>
      </trkpt>
      <trkpt lat="44.49256" lon="5.29868">
        <ele>856.36684</ele>
        <time>2023-08-12T19:40:36.095Z</time>
      </trkpt>
      <trkpt lat="44.49225" lon="5.29848">
        <ele>860.107188</ele>
        <time>2023-08-12T19:40:52.416Z</time>
      </trkpt>
      <trkpt lat="44.49207" lon="5.29846">
        <ele>862.061621</ele>
        <time>2023-08-12T19:41:00.408Z</time>
      </trkpt>
      <trkpt lat="44.49187" lon="5.29851">
        <ele>864.000747</ele>
        <time>2023-08-12T19:41:09.361Z</time>
      </trkpt>
      <trkpt lat="44.49173" lon="5.29862">
        <ele>864.834464</ele>
        <time>2023-08-12T19:41:15.916Z</time>
      </trkpt>
      <trkpt lat="44.49168" lon="5.29859">
        <ele>865.14132</ele>
        <time>2023-08-12T19:41:18.319Z</time>
      </trkpt>
      <trkpt lat="44.49168" lon="5.2985">
        <ele>865.457858</ele>
        <time>2023-08-12T19:41:20.653Z</time>
      </trkpt>
      <trkpt lat="44.49181" lon="5.29832">
        <ele>866.415567</ele>
        <time>2023-08-12T19:41:27.212Z</time>
      </trkpt>
      <trkpt lat="44.49196" lon="5.29812">
        <ele>867.458356</ele>
        <time>2023-08-12T19:41:33.736Z</time>
      </trkpt>
      <trkpt lat="44.49206" lon="5.29806">
        <ele>868.060854</ele>
        <time>2023-08-12T19:41:37.047Z</time>
      </trkpt>
      <trkpt lat="44.4921" lon="5.29798">
        <ele>868.384612</ele>
        <time>2023-08-12T19:41:38.580Z</time>
      </trkpt>
      <trkpt lat="44.49208" lon="5.29792">
        <ele>868.649077</ele>
        <time>2023-08-12T19:41:39.855Z</time>
      </trkpt>
      <trkpt lat="44.49202" lon="5.2979">
        <ele>868.939092</ele>
        <time>2023-08-12T19:41:41.168Z</time>
      </trkpt>
      <trkpt lat="44.49185" lon="5.29802">
        <ele>869.960049</ele>
        <time>2023-08-12T19:41:45.226Z</time>
      </trkpt>
      <trkpt lat="44.49135" lon="5.29816">
        <ele>872.596535</ele>
        <time>2023-08-12T19:41:54.998Z</time>
      </trkpt>
      <trkpt lat="44.4912" lon="5.29828">
        <ele>873.358495</ele>
        <time>2023-08-12T19:41:58.160Z</time>
      </trkpt>
      <trkpt lat="44.49102" lon="5.29863">
        <ele>874.410997</ele>
        <time>2023-08-12T19:42:04.155Z</time>
      </trkpt>
      <trkpt lat="44.49089" lon="5.29873">
        <ele>874.900085</ele>
        <time>2023-08-12T19:42:06.903Z</time>
      </trkpt>
      <trkpt lat="44.49058" lon="5.29873">
        <ele>875.955419</ele>
        <time>2023-08-12T19:42:13.260Z</time>
      </trkpt>
      <trkpt lat="44.49051" lon="5.29866">
        <ele>876.26108</ele>
        <time>2023-08-12T19:42:14.969Z</time>
      </trkpt>
      <trkpt lat="44.48987" lon="5.29718">
        <ele>881.735356</ele>
        <time>2023-08-12T19:42:45.882Z</time>
      </trkpt>
      <trkpt lat="44.48963" lon="5.297">
        <ele>883.627854</ele>
        <time>2023-08-12T19:42:55.365Z</time>
      </trkpt>
      <trkpt lat="44.48956" lon="5.29688">
        <ele>884.41673</ele>
        <time>2023-08-12T19:42:59.706Z</time>
      </trkpt>
      <trkpt lat="44.48939" lon="5.29637">
        <ele>887.224562</ele>
        <time>2023-08-12T19:43:15.000Z</time>
      </trkpt>
      <trkpt lat="44.48937" lon="5.2961">
        <ele>888.554554</ele>
        <time>2023-08-12T19:43:22.243Z</time>
      </trkpt>
      <trkpt lat="44.48915" lon="5.29553">
        <ele>891.808097</ele>
        <time>2023-08-12T19:43:39.803Z</time>
      </trkpt>
      <trkpt lat="44.48891" lon="5.29533">
        <ele>893.629876</ele>
        <time>2023-08-12T19:43:49.868Z</time>
      </trkpt>
      <trkpt lat="44.48872" lon="5.29504">
        <ele>895.497482</ele>
        <time>2023-08-12T19:44:00.012Z</time>
      </trkpt>
      <trkpt lat="44.48825" lon="5.29462">
        <ele>899.208667</ele>
        <time>2023-08-12T19:44:18.865Z</time>
      </trkpt>
      <trkpt lat="44.48794" lon="5.29406">
        <ele>902.528021</ele>
        <time>2023-08-12T19:44:34.171Z</time>
      </trkpt>
      <trkpt lat="44.48777" lon="5.29363">
        <ele>904.776344</ele>
        <time>2023-08-12T19:44:44.156Z</time>
      </trkpt>
      <trkpt lat="44.48749" lon="5.29342">
        <ele>906.808747</ele>
        <time>2023-08-12T19:44:53.241Z</time>
      </trkpt>
      <trkpt lat="44.487" lon="5.29334">
        <ele>909.838193</ele>
        <time>2023-08-12T19:45:06.996Z</time>
      </trkpt>
      <trkpt lat="44.48671" lon="5.29316">
        <ele>911.802088</ele>
        <time>2023-08-12T19:45:16.590Z</time>
      </trkpt>
      <trkpt lat="44.4862" lon="5.29307">
        <ele>915.154836</ele>
        <time>2023-08-12T19:45:34.329Z</time>
      </trkpt>
      <trkpt lat="44.48595" lon="5.29295">
        <ele>918.377823</ele>
        <time>2023-08-12T19:45:44.993Z</time>
      </trkpt>
      <trkpt lat="44.4858" lon="5.29294">
        <ele>920.350328</ele>
        <time>2023-08-12T19:45:52.188Z</time>
      </trkpt>
      <trkpt lat="44.48566" lon="5.29288">
        <ele>922.089</ele>
        <time>2023-08-12T19:45:58.861Z</time>
      </trkpt>
      <trkpt lat="44.48526" lon="5.29263">
        <ele>927.553706</ele>
        <time>2023-08-12T19:46:22.350Z</time>
      </trkpt>
      <trkpt lat="44.48484" lon="5.29241">
        <ele>933.121294</ele>
        <time>2023-08-12T19:46:48.678Z</time>
      </trkpt>
      <trkpt lat="44.48456" lon="5.29212">
        <ele>937.409986</ele>
        <time>2023-08-12T19:47:09.597Z</time>
      </trkpt>
      <trkpt lat="44.48416" lon="5.2919">
        <ele>942.857345</ele>
        <time>2023-08-12T19:47:35.484Z</time>
      </trkpt>
      <trkpt lat="44.48404" lon="5.29196">
        <ele>944.543395</ele>
        <time>2023-08-12T19:47:43.342Z</time>
      </trkpt>
      <trkpt lat="44.48392" lon="5.29213">
        <ele>946.704143</ele>
        <time>2023-08-12T19:47:53.438Z</time>
      </trkpt>
      <trkpt lat="44.48376" lon="5.29252">
        <ele>950.864465</ele>
        <time>2023-08-12T19:48:12.169Z</time>
      </trkpt>
      <trkpt lat="44.48356" lon="5.29276">
        <ele>954.208301</ele>
        <time>2023-08-12T19:48:25.837Z</time>
      </trkpt>
      <trkpt lat="44.48334" lon="5.2933">
        <ele>959.954585</ele>
        <time>2023-08-12T19:48:46.629Z</time>
      </trkpt>
      <trkpt lat="44.48306" lon="5.29349">
        <ele>961.122807</ele>
        <time>2023-08-12T19:48:58.207Z</time>
      </trkpt>
      <trkpt lat="44.48278" lon="5.2939">
        <ele>962.291023</ele>
        <time>2023-08-12T19:49:09.801Z</time>
      </trkpt>
      <trkpt lat="44.48262" lon="5.2947">
        <ele>964.01172</ele>
        <time>2023-08-12T19:49:20.531Z</time>
      </trkpt>
      <trkpt lat="44.4826" lon="5.29472">
        <ele>964.094711</ele>
        <time>2023-08-12T19:49:20.897Z</time>
      </trkpt>
      <trkpt lat="44.4821" lon="5.29536">
        <ele>964.808843</ele>
        <time>2023-08-12T19:49:26.985Z</time>
      </trkpt>
      <trkpt lat="44.48164" lon="5.29558">
        <ele>962.959643</ele>
        <time>2023-08-12T19:49:30.734Z</time>
      </trkpt>
      <trkpt lat="44.48145" lon="5.2957">
        <ele>962.155925</ele>
        <time>2023-08-12T19:49:32.321Z</time>
      </trkpt>
      <trkpt lat="44.4807" lon="5.29648">
        <ele>958.587868</ele>
        <time>2023-08-12T19:49:39.422Z</time>
      </trkpt>
      <trkpt lat="44.4801" lon="5.29664">
        <ele>955.181502</ele>
        <time>2023-08-12T19:49:44.232Z</time>
      </trkpt>
      <trkpt lat="44.47979" lon="5.29696">
        <ele>953.063244</ele>
        <time>2023-08-12T19:49:47.182Z</time>
      </trkpt>
      <trkpt lat="44.47965" lon="5.29701">
        <ele>952.28981</ele>
        <time>2023-08-12T19:49:48.237Z</time>
      </trkpt>
      <trkpt lat="44.47951" lon="5.29716">
        <ele>951.294516</ele>
        <time>2023-08-12T19:49:49.566Z</time>
      </trkpt>
      <trkpt lat="44.47938" lon="5.29742">
        <ele>950.062711</ele>
        <time>2023-08-12T19:49:51.193Z</time>
      </trkpt>
      <trkpt lat="44.47921" lon="5.29761">
        <ele>948.882238</ele>
        <time>2023-08-12T19:49:52.723Z</time>
      </trkpt>
      <trkpt lat="44.47905" lon="5.29825">
        <ele>943.948127</ele>
        <time>2023-08-12T19:49:56.125Z</time>
      </trkpt>
      <trkpt lat="44.47901" lon="5.29888">
        <ele>939.197757</ele>
        <time>2023-08-12T19:49:59.242Z</time>
      </trkpt>
      <trkpt lat="44.47875" lon="5.2996">
        <ele>933.116952</ele>
        <time>2023-08-12T19:50:03.165Z</time>
      </trkpt>
      <trkpt lat="44.4787" lon="5.29993">
        <ele>930.636351</ele>
        <time>2023-08-12T19:50:04.750Z</time>
      </trkpt>
      <trkpt lat="44.47854" lon="5.30022">
        <ele>927.642367</ele>
        <time>2023-08-12T19:50:06.503Z</time>
      </trkpt>
      <trkpt lat="44.47823" lon="5.30057">
        <ele>922.834783</ele>
        <time>2023-08-12T19:50:09.212Z</time>
      </trkpt>
      <trkpt lat="44.47773" lon="5.30132">
        <ele>914.200851</ele>
        <time>2023-08-12T19:50:14.136Z</time>
      </trkpt>
      <trkpt lat="44.47767" lon="5.30167">
        <ele>911.094399</ele>
        <time>2023-08-12T19:50:15.926Z</time>
      </trkpt>
      <trkpt lat="44.47742" lon="5.30219">
        <ele>906.064443</ele>
        <time>2023-08-12T19:50:18.976Z</time>
      </trkpt>
      <trkpt lat="44.47715" lon="5.30246">
        <ele>902.409489</ele>
        <time>2023-08-12T19:50:21.294Z</time>
      </trkpt>
      <trkpt lat="44.47688" lon="5.30259">
        <ele>899.331401</ele>
        <time>2023-08-12T19:50:23.244Z</time>
      </trkpt>
      <trkpt lat="44.47652" lon="5.30303">
        <ele>894.172896</ele>
        <time>2023-08-12T19:50:26.509Z</time>
      </trkpt>
      <trkpt lat="44.4756" lon="5.30439">
        <ele>879.702674</ele>
        <time>2023-08-12T19:50:35.605Z</time>
      </trkpt>
      <trkpt lat="44.47495" lon="5.30512">
        <ele>870.660644</ele>
        <time>2023-08-12T19:50:41.267Z</time>
      </trkpt>
      <trkpt lat="44.47471" lon="5.30569">
        <ele>867.543999</ele>
        <time>2023-08-12T19:50:44.597Z</time>
      </trkpt>
      <trkpt lat="44.4745" lon="5.30591">
        <ele>866.163951</ele>
        <time>2023-08-12T19:50:46.464Z</time>
      </trkpt>
      <trkpt lat="44.47427" lon="5.30631">
        <ele>864.223807</ele>
        <time>2023-08-12T19:50:49.176Z</time>
      </trkpt>
      <trkpt lat="44.47405" lon="5.30644">
        <ele>862.97122</ele>
        <time>2023-08-12T19:50:51.029Z</time>
      </trkpt>
      <trkpt lat="44.47385" lon="5.30639">
        <ele>861.870055</ele>
        <time>2023-08-12T19:50:52.734Z</time>
      </trkpt>
      <trkpt lat="44.47338" lon="5.30594">
        <ele>859.330788</ele>
        <time>2023-08-12T19:50:58.100Z</time>
      </trkpt>
      <trkpt lat="44.47294" lon="5.30571">
        <ele>857.95532</ele>
        <time>2023-08-12T19:51:02.704Z</time>
      </trkpt>
      <trkpt lat="44.47217" lon="5.30556">
        <ele>855.708442</ele>
        <time>2023-08-12T19:51:09.131Z</time>
      </trkpt>
      <trkpt lat="44.47165" lon="5.30564">
        <ele>853.414223</ele>
        <time>2023-08-12T19:51:13.080Z</time>
      </trkpt>
      <trkpt lat="44.47102" lon="5.30543">
        <ele>848.769507</ele>
        <time>2023-08-12T19:51:17.763Z</time>
      </trkpt>
      <trkpt lat="44.47088" lon="5.30548">
        <ele>847.762341</ele>
        <time>2023-08-12T19:51:18.756Z</time>
      </trkpt>
      <trkpt lat="44.47075" lon="5.30568">
        <ele>846.335254</ele>
        <time>2023-08-12T19:51:20.161Z</time>
      </trkpt>
      <trkpt lat="44.47054" lon="5.30583">
        <ele>844.65724</ele>
        <time>2023-08-12T19:51:21.791Z</time>
      </trkpt>
      <trkpt lat="44.4703" lon="5.30589">
        <ele>842.960266</ele>
        <time>2023-08-12T19:51:23.450Z</time>
      </trkpt>
      <trkpt lat="44.47005" lon="5.30623">
        <ele>840.371398</ele>
        <time>2023-08-12T19:51:25.932Z</time>
      </trkpt>
      <trkpt lat="44.46989" lon="5.30637">
        <ele>838.943814</ele>
        <time>2023-08-12T19:51:27.285Z</time>
      </trkpt>
      <trkpt lat="44.46976" lon="5.30659">
        <ele>837.439512</ele>
        <time>2023-08-12T19:51:28.723Z</time>
      </trkpt>
      <trkpt lat="44.46961" lon="5.30675">
        <ele>836.015093</ele>
        <time>2023-08-12T19:51:30.086Z</time>
      </trkpt>
      <trkpt lat="44.46927" lon="5.30689">
        <ele>833.329923</ele>
        <time>2023-08-12T19:51:32.661Z</time>
      </trkpt>
      <trkpt lat="44.46907" lon="5.30723">
        <ele>831.003716</ele>
        <time>2023-08-12T19:51:34.884Z</time>
      </trkpt>
      <trkpt lat="44.46869" lon="5.3076">
        <ele>827.649812</ele>
        <time>2023-08-12T19:51:38.179Z</time>
      </trkpt>
      <trkpt lat="44.46853" lon="5.30785">
        <ele>826.092787</ele>
        <time>2023-08-12T19:51:39.898Z</time>
      </trkpt>
      <trkpt lat="44.46842" lon="5.30797">
        <ele>825.187285</ele>
        <time>2023-08-12T19:51:40.895Z</time>
      </trkpt>
      <trkpt lat="44.46813" lon="5.30819">
        <ele>823.077825</ele>
        <time>2023-08-12T19:51:43.240Z</time>
      </trkpt>
      <trkpt lat="44.46701" lon="5.30865">
        <ele>815.941949</ele>
        <time>2023-08-12T19:51:51.841Z</time>
      </trkpt>
      <trkpt lat="44.46683" lon="5.30885">
        <ele>814.825329</ele>
        <time>2023-08-12T19:51:53.669Z</time>
      </trkpt>
      <trkpt lat="44.4664" lon="5.3098">
        <ele>811.077017</ele>
        <time>2023-08-12T19:51:59.768Z</time>
      </trkpt>
      <trkpt lat="44.46584" lon="5.31007">
        <ele>808.303544</ele>
        <time>2023-08-12T19:52:04.327Z</time>
      </trkpt>
      <trkpt lat="44.4651" lon="5.31054">
        <ele>804.039932</ele>
        <time>2023-08-12T19:52:10.468Z</time>
      </trkpt>
      <trkpt lat="44.46395" lon="5.31104">
        <ele>798.185124</ele>
        <time>2023-08-12T19:52:19.327Z</time>
      </trkpt>
      <trkpt lat="44.46376" lon="5.31118">
        <ele>797.439446</ele>
        <time>2023-08-12T19:52:21.006Z</time>
      </trkpt>
      <trkpt lat="44.4625" lon="5.31261">
        <ele>792.049746</ele>
        <time>2023-08-12T19:52:34.552Z</time>
      </trkpt>
      <trkpt lat="44.46183" lon="5.31311">
        <ele>789.791423</ele>
        <time>2023-08-12T19:52:41.052Z</time>
      </trkpt>
      <trkpt lat="44.46134" lon="5.31338">
        <ele>788.2269</ele>
        <time>2023-08-12T19:52:45.291Z</time>
      </trkpt>
      <trkpt lat="44.46106" lon="5.31368">
        <ele>787.082141</ele>
        <time>2023-08-12T19:52:48.067Z</time>
      </trkpt>
      <trkpt lat="44.46061" lon="5.31375">
        <ele>785.299017</ele>
        <time>2023-08-12T19:52:51.619Z</time>
      </trkpt>
      <trkpt lat="44.46008" lon="5.31399">
        <ele>783.137978</ele>
        <time>2023-08-12T19:52:55.899Z</time>
      </trkpt>
      <trkpt lat="44.45961" lon="5.314">
        <ele>781.278479</ele>
        <time>2023-08-12T19:52:59.611Z</time>
      </trkpt>
      <trkpt lat="44.45924" lon="5.31436">
        <ele>779.936165</ele>
        <time>2023-08-12T19:53:03.200Z</time>
      </trkpt>
      <trkpt lat="44.45914" lon="5.31458">
        <ele>779.53311</ele>
        <time>2023-08-12T19:53:04.690Z</time>
      </trkpt>
      <trkpt lat="44.45903" lon="5.31494">
        <ele>778.915382</ele>
        <time>2023-08-12T19:53:07.056Z</time>
      </trkpt>
      <trkpt lat="44.45892" lon="5.3151">
        <ele>778.565152</ele>
        <time>2023-08-12T19:53:08.465Z</time>
      </trkpt>
      <trkpt lat="44.45863" lon="5.31525">
        <ele>777.885528</ele>
        <time>2023-08-12T19:53:11.231Z</time>
      </trkpt>
      <trkpt lat="44.45848" lon="5.31536">
        <ele>777.534713</ele>
        <time>2023-08-12T19:53:12.677Z</time>
      </trkpt>
      <trkpt lat="44.45829" lon="5.31559">
        <ele>776.979261</ele>
        <time>2023-08-12T19:53:15.076Z</time>
      </trkpt>
      <trkpt lat="44.45822" lon="5.31561">
        <ele>776.819796</ele>
        <time>2023-08-12T19:53:15.785Z</time>
      </trkpt>
      <trkpt lat="44.4582" lon="5.31558">
        <ele>776.757039</ele>
        <time>2023-08-12T19:53:16.042Z</time>
      </trkpt>
      <trkpt lat="44.45814" lon="5.31549">
        <ele>776.580443</ele>
        <time>2023-08-12T19:53:16.784Z</time>
      </trkpt>
      <trkpt lat="44.45786" lon="5.31518">
        <ele>776.219452</ele>
        <time>2023-08-12T19:53:20.463Z</time>
      </trkpt>
      <trkpt lat="44.45767" lon="5.31502">
        <ele>776.028891</ele>
        <time>2023-08-12T19:53:22.797Z</time>
      </trkpt>
      <trkpt lat="44.45747" lon="5.31503">
        <ele>775.84958</ele>
        <time>2023-08-12T19:53:24.853Z</time>
      </trkpt>
      <trkpt lat="44.45718" lon="5.31514">
        <ele>775.575963</ele>
        <time>2023-08-12T19:53:27.938Z</time>
      </trkpt>
      <trkpt lat="44.45682" lon="5.31521">
        <ele>775.249762</ele>
        <time>2023-08-12T19:53:31.586Z</time>
      </trkpt>
      <trkpt lat="44.45626" lon="5.31522">
        <ele>774.524674</ele>
        <time>2023-08-12T19:53:37.026Z</time>
      </trkpt>
      <trkpt lat="44.45608" lon="5.3153">
        <ele>774.114451</ele>
        <time>2023-08-12T19:53:38.823Z</time>
      </trkpt>
      <trkpt lat="44.45575" lon="5.31552">
        <ele>773.315152</ele>
        <time>2023-08-12T19:53:42.150Z</time>
      </trkpt>
      <trkpt lat="44.45534" lon="5.31563">
        <ele>772.402842</ele>
        <time>2023-08-12T19:53:45.823Z</time>
      </trkpt>
      <trkpt lat="44.45495" lon="5.31573">
        <ele>771.563846</ele>
        <time>2023-08-12T19:53:49.049Z</time>
      </trkpt>
      <trkpt lat="44.45484" lon="5.31578">
        <ele>771.296905</ele>
        <time>2023-08-12T19:53:50.066Z</time>
      </trkpt>
      <trkpt lat="44.4547" lon="5.3158">
        <ele>770.998673</ele>
        <time>2023-08-12T19:53:51.165Z</time>
      </trkpt>
      <trkpt lat="44.45438" lon="5.31553">
        <ele>769.161131</ele>
        <time>2023-08-12T19:53:54.129Z</time>
      </trkpt>
      <trkpt lat="44.45419" lon="5.31531">
        <ele>767.917253</ele>
        <time>2023-08-12T19:53:56.100Z</time>
      </trkpt>
      <trkpt lat="44.45395" lon="5.31475">
        <ele>765.632615</ele>
        <time>2023-08-12T19:53:59.629Z</time>
      </trkpt>
      <trkpt lat="44.45366" lon="5.31453">
        <ele>764.017672</ele>
        <time>2023-08-12T19:54:02.065Z</time>
      </trkpt>
      <trkpt lat="44.45316" lon="5.31452">
        <ele>761.137081</ele>
        <time>2023-08-12T19:54:05.723Z</time>
      </trkpt>
      <trkpt lat="44.4528" lon="5.31476">
        <ele>757.839105</ele>
        <time>2023-08-12T19:54:08.600Z</time>
      </trkpt>
      <trkpt lat="44.45214" lon="5.31478">
        <ele>752.440893</ele>
        <time>2023-08-12T19:54:13.251Z</time>
      </trkpt>
      <trkpt lat="44.45177" lon="5.31439">
        <ele>748.671972</ele>
        <time>2023-08-12T19:54:16.455Z</time>
      </trkpt>
      <trkpt lat="44.45153" lon="5.31425">
        <ele>746.565857</ele>
        <time>2023-08-12T19:54:18.244Z</time>
      </trkpt>
      <trkpt lat="44.45113" lon="5.3144">
        <ele>743.152956</ele>
        <time>2023-08-12T19:54:21.128Z</time>
      </trkpt>
      <trkpt lat="44.45089" lon="5.31428">
        <ele>741.091337</ele>
        <time>2023-08-12T19:54:22.865Z</time>
      </trkpt>
      <trkpt lat="44.45062" lon="5.31422">
        <ele>738.913787</ele>
        <time>2023-08-12T19:54:24.686Z</time>
      </trkpt>
      <trkpt lat="44.45028" lon="5.31404">
        <ele>735.970609</ele>
        <time>2023-08-12T19:54:27.201Z</time>
      </trkpt>
      <trkpt lat="44.44942" lon="5.31401">
        <ele>734.342812</ele>
        <time>2023-08-12T19:54:34.624Z</time>
      </trkpt>
      <trkpt lat="44.44917" lon="5.31395">
        <ele>735.144078</ele>
        <time>2023-08-12T19:54:40.669Z</time>
      </trkpt>
      <trkpt lat="44.44888" lon="5.3138">
        <ele>736.145026</ele>
        <time>2023-08-12T19:54:51.120Z</time>
      </trkpt>
      <trkpt lat="44.44843" lon="5.31345">
        <ele>737.784374</ele>
        <time>2023-08-12T19:55:09.870Z</time>
      </trkpt>
      <trkpt lat="44.4482" lon="5.31346">
        <ele>738.502992</ele>
        <time>2023-08-12T19:55:16.233Z</time>
      </trkpt>
      <trkpt lat="44.44773" lon="5.31363">
        <ele>737.042537</ele>
        <time>2023-08-12T19:55:29.050Z</time>
      </trkpt>
      <trkpt lat="44.44753" lon="5.31377">
        <ele>736.334831</ele>
        <time>2023-08-12T19:55:33.025Z</time>
      </trkpt>
      <trkpt lat="44.44714" lon="5.31411">
        <ele>734.86604</ele>
        <time>2023-08-12T19:55:37.198Z</time>
      </trkpt>
      <trkpt lat="44.44633" lon="5.31524">
        <ele>726.219075</ele>
        <time>2023-08-12T19:55:44.932Z</time>
      </trkpt>
      <trkpt lat="44.44618" lon="5.31539">
        <ele>723.771047</ele>
        <time>2023-08-12T19:55:46.147Z</time>
      </trkpt>
      <trkpt lat="44.44605" lon="5.31547">
        <ele>721.911941</ele>
        <time>2023-08-12T19:55:47.063Z</time>
      </trkpt>
      <trkpt lat="44.44568" lon="5.31558">
        <ele>716.846912</ele>
        <time>2023-08-12T19:55:49.572Z</time>
      </trkpt>
      <trkpt lat="44.44526" lon="5.31582">
        <ele>710.820626</ele>
        <time>2023-08-12T19:55:52.623Z</time>
      </trkpt>
      <trkpt lat="44.44495" lon="5.31583">
        <ele>707.883008</ele>
        <time>2023-08-12T19:55:54.790Z</time>
      </trkpt>
      <trkpt lat="44.44474" lon="5.31594">
        <ele>706.467514</ele>
        <time>2023-08-12T19:55:56.558Z</time>
      </trkpt>
      <trkpt lat="44.44461" lon="5.31606">
        <ele>705.526801</ele>
        <time>2023-08-12T19:55:57.636Z</time>
      </trkpt>
      <trkpt lat="44.44441" lon="5.31598">
        <ele>704.174428</ele>
        <time>2023-08-12T19:55:59.322Z</time>
      </trkpt>
      <trkpt lat="44.44413" lon="5.31611">
        <ele>702.372389</ele>
        <time>2023-08-12T19:56:01.425Z</time>
      </trkpt>
      <trkpt lat="44.44385" lon="5.31618">
        <ele>700.552669</ele>
        <time>2023-08-12T19:56:03.544Z</time>
      </trkpt>
      <trkpt lat="44.4436" lon="5.31605">
        <ele>698.889434</ele>
        <time>2023-08-12T19:56:05.509Z</time>
      </trkpt>
      <trkpt lat="44.44334" lon="5.31611">
        <ele>697.217425</ele>
        <time>2023-08-12T19:56:07.587Z</time>
      </trkpt>
      <trkpt lat="44.44296" lon="5.31644">
        <ele>694.581736</ele>
        <time>2023-08-12T19:56:11.023Z</time>
      </trkpt>
      <trkpt lat="44.44274" lon="5.31672">
        <ele>692.818274</ele>
        <time>2023-08-12T19:56:13.369Z</time>
      </trkpt>
      <trkpt lat="44.44263" lon="5.31679">
        <ele>692.057396</ele>
        <time>2023-08-12T19:56:14.303Z</time>
      </trkpt>
      <trkpt lat="44.44244" lon="5.31677">
        <ele>690.93099</ele>
        <time>2023-08-12T19:56:15.704Z</time>
      </trkpt>
      <trkpt lat="44.44191" lon="5.31658">
        <ele>687.68339</ele>
        <time>2023-08-12T19:56:19.513Z</time>
      </trkpt>
      <trkpt lat="44.44163" lon="5.31655">
        <ele>686.051195</ele>
        <time>2023-08-12T19:56:21.512Z</time>
      </trkpt>
      <trkpt lat="44.4413" lon="5.31659">
        <ele>684.29011</ele>
        <time>2023-08-12T19:56:23.849Z</time>
      </trkpt>
      <trkpt lat="44.4409" lon="5.31672">
        <ele>682.048882</ele>
        <time>2023-08-12T19:56:26.950Z</time>
      </trkpt>
      <trkpt lat="44.4407" lon="5.31674">
        <ele>680.943082</ele>
        <time>2023-08-12T19:56:28.503Z</time>
      </trkpt>
      <trkpt lat="44.44051" lon="5.31671">
        <ele>679.932253</ele>
        <time>2023-08-12T19:56:29.936Z</time>
      </trkpt>
      <trkpt lat="44.44039" lon="5.31665">
        <ele>679.227721</ele>
        <time>2023-08-12T19:56:30.929Z</time>
      </trkpt>
      <trkpt lat="44.44027" lon="5.3165">
        <ele>678.353172</ele>
        <time>2023-08-12T19:56:32.180Z</time>
      </trkpt>
      <trkpt lat="44.44021" lon="5.31636">
        <ele>677.70765</ele>
        <time>2023-08-12T19:56:33.104Z</time>
      </trkpt>
      <trkpt lat="44.44003" lon="5.31589">
        <ele>675.966948</ele>
        <time>2023-08-12T19:56:36.060Z</time>
      </trkpt>
      <trkpt lat="44.43977" lon="5.31546">
        <ele>674.277806</ele>
        <time>2023-08-12T19:56:39.249Z</time>
      </trkpt>
      <trkpt lat="44.43969" lon="5.31521">
        <ele>673.460172</ele>
        <time>2023-08-12T19:56:40.835Z</time>
      </trkpt>
      <trkpt lat="44.43964" lon="5.31491">
        <ele>672.529808</ele>
        <time>2023-08-12T19:56:42.667Z</time>
      </trkpt>
      <trkpt lat="44.43963" lon="5.31469">
        <ele>671.840935</ele>
        <time>2023-08-12T19:56:43.981Z</time>
      </trkpt>
      <trkpt lat="44.43967" lon="5.31437">
        <ele>670.889487</ele>
        <time>2023-08-12T19:56:45.763Z</time>
      </trkpt>
      <trkpt lat="44.43978" lon="5.31412">
        <ele>669.978681</ele>
        <time>2023-08-12T19:56:47.396Z</time>
      </trkpt>
      <trkpt lat="44.43997" lon="5.31391">
        <ele>668.480768</ele>
        <time>2023-08-12T19:56:49.175Z</time>
      </trkpt>
      <trkpt lat="44.43997" lon="5.31382">
        <ele>667.989654</ele>
        <time>2023-08-12T19:56:49.630Z</time>
      </trkpt>
      <trkpt lat="44.43992" lon="5.31376">
        <ele>667.476733</ele>
        <time>2023-08-12T19:56:50.101Z</time>
      </trkpt>
      <trkpt lat="44.43985" lon="5.31377">
        <ele>666.917678</ele>
        <time>2023-08-12T19:56:50.610Z</time>
      </trkpt>
      <trkpt lat="44.43957" lon="5.31402">
        <ele>664.332605</ele>
        <time>2023-08-12T19:56:52.937Z</time>
      </trkpt>
      <trkpt lat="44.43907" lon="5.31425">
        <ele>660.201397</ele>
        <time>2023-08-12T19:56:56.606Z</time>
      </trkpt>
      <trkpt lat="44.43871" lon="5.31454">
        <ele>656.969647</ele>
        <time>2023-08-12T19:56:59.508Z</time>
      </trkpt>
      <trkpt lat="44.43855" lon="5.31476">
        <ele>655.279856</ele>
        <time>2023-08-12T19:57:01.121Z</time>
      </trkpt>
      <trkpt lat="44.43851" lon="5.31484">
        <ele>654.895972</ele>
        <time>2023-08-12T19:57:01.605Z</time>
      </trkpt>
      <trkpt lat="44.43851" lon="5.315">
        <ele>654.25189</ele>
        <time>2023-08-12T19:57:02.417Z</time>
      </trkpt>
      <trkpt lat="44.43859" lon="5.31524">
        <ele>653.214379</ele>
        <time>2023-08-12T19:57:03.782Z</time>
      </trkpt>
      <trkpt lat="44.43859" lon="5.31529">
        <ele>653.003374</ele>
        <time>2023-08-12T19:57:04.054Z</time>
      </trkpt>
      <trkpt lat="44.43855" lon="5.31536">
        <ele>652.663596</ele>
        <time>2023-08-12T19:57:04.488Z</time>
      </trkpt>
      <trkpt lat="44.43847" lon="5.31532">
        <ele>652.18529</ele>
        <time>2023-08-12T19:57:05.108Z</time>
      </trkpt>
      <trkpt lat="44.4384" lon="5.31521">
        <ele>651.592806</ele>
        <time>2023-08-12T19:57:05.898Z</time>
      </trkpt>
      <trkpt lat="44.43824" lon="5.31496">
        <ele>650.246162</ele>
        <time>2023-08-12T19:57:07.648Z</time>
      </trkpt>
      <trkpt lat="44.4382" lon="5.31481">
        <ele>649.608507</ele>
        <time>2023-08-12T19:57:08.501Z</time>
      </trkpt>
      <trkpt lat="44.43822" lon="5.31464">
        <ele>648.95644</ele>
        <time>2023-08-12T19:57:09.383Z</time>
      </trkpt>
      <trkpt lat="44.43866" lon="5.31364">
        <ele>644.538406</ele>
        <time>2023-08-12T19:57:15.981Z</time>
      </trkpt>
      <trkpt lat="44.43875" lon="5.31336">
        <ele>643.566409</ele>
        <time>2023-08-12T19:57:18.218Z</time>
      </trkpt>
      <trkpt lat="44.43878" lon="5.31308">
        <ele>642.693091</ele>
        <time>2023-08-12T19:57:20.063Z</time>
      </trkpt>
      <trkpt lat="44.43886" lon="5.31289">
        <ele>642.039429</ele>
        <time>2023-08-12T19:57:21.343Z</time>
      </trkpt>
      <trkpt lat="44.43908" lon="5.31261">
        <ele>640.736948</ele>
        <time>2023-08-12T19:57:23.686Z</time>
      </trkpt>
      <trkpt lat="44.43913" lon="5.31238">
        <ele>639.9915</ele>
        <time>2023-08-12T19:57:24.982Z</time>
      </trkpt>
      <trkpt lat="44.43916" lon="5.31214">
        <ele>639.228921</ele>
        <time>2023-08-12T19:57:26.255Z</time>
      </trkpt>
      <trkpt lat="44.43923" lon="5.31202">
        <ele>638.757823</ele>
        <time>2023-08-12T19:57:27.040Z</time>
      </trkpt>
      <trkpt lat="44.4394" lon="5.31199">
        <ele>638.007725</ele>
        <time>2023-08-12T19:57:28.281Z</time>
      </trkpt>
      <trkpt lat="44.43965" lon="5.31201">
        <ele>636.495456</ele>
        <time>2023-08-12T19:57:30.076Z</time>
      </trkpt>
      <trkpt lat="44.43969" lon="5.31196">
        <ele>636.147444</ele>
        <time>2023-08-12T19:57:30.452Z</time>
      </trkpt>
      <trkpt lat="44.43968" lon="5.3119">
        <ele>635.846315</ele>
        <time>2023-08-12T19:57:30.782Z</time>
      </trkpt>
      <trkpt lat="44.43931" lon="5.31184">
        <ele>633.344754</ele>
        <time>2023-08-12T19:57:33.574Z</time>
      </trkpt>
      <trkpt lat="44.43878" lon="5.31165">
        <ele>629.618388</ele>
        <time>2023-08-12T19:57:37.622Z</time>
      </trkpt>
      <trkpt lat="44.43868" lon="5.31164">
        <ele>628.968426</ele>
        <time>2023-08-12T19:57:38.329Z</time>
      </trkpt>
      <trkpt lat="44.43859" lon="5.31169">
        <ele>628.305517</ele>
        <time>2023-08-12T19:57:39.063Z</time>
      </trkpt>
      <trkpt lat="44.43853" lon="5.31167">
        <ele>627.872968</ele>
        <time>2023-08-12T19:57:39.515Z</time>
      </trkpt>
      <trkpt lat="44.43851" lon="5.31163">
        <ele>627.629108</ele>
        <time>2023-08-12T19:57:39.769Z</time>
      </trkpt>
      <trkpt lat="44.43853" lon="5.31154">
        <ele>627.127932</ele>
        <time>2023-08-12T19:57:40.283Z</time>
      </trkpt>
      <trkpt lat="44.4388" lon="5.31154">
        <ele>625.243518</ele>
        <time>2023-08-12T19:57:42.176Z</time>
      </trkpt>
      <trkpt lat="44.43916" lon="5.31156">
        <ele>621.900984</ele>
        <time>2023-08-12T19:57:44.687Z</time>
      </trkpt>
      <trkpt lat="44.43926" lon="5.31149">
        <ele>620.940885</ele>
        <time>2023-08-12T19:57:45.398Z</time>
      </trkpt>
      <trkpt lat="44.43927" lon="5.31143">
        <ele>620.532671</ele>
        <time>2023-08-12T19:57:45.702Z</time>
      </trkpt>
      <trkpt lat="44.43926" lon="5.31135">
        <ele>620.016932</ele>
        <time>2023-08-12T19:57:46.088Z</time>
      </trkpt>
      <trkpt lat="44.43908" lon="5.31098">
        <ele>617.093257</ele>
        <time>2023-08-12T19:57:48.279Z</time>
      </trkpt>
      <trkpt lat="44.439" lon="5.31071">
        <ele>615.147198</ele>
        <time>2023-08-12T19:57:49.760Z</time>
      </trkpt>
      <trkpt lat="44.43901" lon="5.31044">
        <ele>613.412087</ele>
        <time>2023-08-12T19:57:51.063Z</time>
      </trkpt>
      <trkpt lat="44.43913" lon="5.3101">
        <ele>610.901135</ele>
        <time>2023-08-12T19:57:52.967Z</time>
      </trkpt>
      <trkpt lat="44.43912" lon="5.30992">
        <ele>609.702361</ele>
        <time>2023-08-12T19:57:53.860Z</time>
      </trkpt>
      <trkpt lat="44.43901" lon="5.30967">
        <ele>608.131193</ele>
        <time>2023-08-12T19:57:55.292Z</time>
      </trkpt>
      <trkpt lat="44.43871" lon="5.30924">
        <ele>605.419551</ele>
        <time>2023-08-12T19:57:58.238Z</time>
      </trkpt>
      <trkpt lat="44.43825" lon="5.30898">
        <ele>602.270243</ele>
        <time>2023-08-12T19:58:01.765Z</time>
      </trkpt>
      <trkpt lat="44.43812" lon="5.30878">
        <ele>601.053681</ele>
        <time>2023-08-12T19:58:03.199Z</time>
      </trkpt>
      <trkpt lat="44.43808" lon="5.30848">
        <ele>599.685009</ele>
        <time>2023-08-12T19:58:04.862Z</time>
      </trkpt>
      <trkpt lat="44.43831" lon="5.30775">
        <ele>597.864141</ele>
        <time>2023-08-12T19:58:09.842Z</time>
      </trkpt>
      <trkpt lat="44.43846" lon="5.30752">
        <ele>598.224589</ele>
        <time>2023-08-12T19:58:12.996Z</time>
      </trkpt>
      <trkpt lat="44.4391" lon="5.3068">
        <ele>599.503077</ele>
        <time>2023-08-12T19:58:30.816Z</time>
      </trkpt>
      <trkpt lat="44.43956" lon="5.30672">
        <ele>600.235751</ele>
        <time>2023-08-12T19:58:41.585Z</time>
      </trkpt>
      <trkpt lat="44.43997" lon="5.30687">
        <ele>599.229123</ele>
        <time>2023-08-12T19:58:49.423Z</time>
      </trkpt>
      <trkpt lat="44.44023" lon="5.30691">
        <ele>598.41957</ele>
        <time>2023-08-12T19:58:53.016Z</time>
      </trkpt>
      <trkpt lat="44.44054" lon="5.30703">
        <ele>597.427047</ele>
        <time>2023-08-12T19:58:56.033Z</time>
      </trkpt>
      <trkpt lat="44.44084" lon="5.30723">
        <ele>596.411337</ele>
        <time>2023-08-12T19:58:58.669Z</time>
      </trkpt>
      <trkpt lat="44.44094" lon="5.30724">
        <ele>596.096407</ele>
        <time>2023-08-12T19:58:59.422Z</time>
      </trkpt>
      <trkpt lat="44.44101" lon="5.30718">
        <ele>595.870608</ele>
        <time>2023-08-12T19:58:59.960Z</time>
      </trkpt>
      <trkpt lat="44.44105" lon="5.30698">
        <ele>595.404045</ele>
        <time>2023-08-12T19:59:01.046Z</time>
      </trkpt>
      <trkpt lat="44.44123" lon="5.30675">
        <ele>594.189628</ele>
        <time>2023-08-12T19:59:02.720Z</time>
      </trkpt>
      <trkpt lat="44.4414" lon="5.30658">
        <ele>591.371326</ele>
        <time>2023-08-12T19:59:04.174Z</time>
      </trkpt>
      <trkpt lat="44.44171" lon="5.30658">
        <ele>587.351543</ele>
        <time>2023-08-12T19:59:06.213Z</time>
      </trkpt>
      <trkpt lat="44.44178" lon="5.30655">
        <ele>586.405803</ele>
        <time>2023-08-12T19:59:06.691Z</time>
      </trkpt>
      <trkpt lat="44.44182" lon="5.30645">
        <ele>585.284473</ele>
        <time>2023-08-12T19:59:07.251Z</time>
      </trkpt>
      <trkpt lat="44.44179" lon="5.3063">
        <ele>583.818741</ele>
        <time>2023-08-12T19:59:07.987Z</time>
      </trkpt>
      <trkpt lat="44.44147" lon="5.3057">
        <ele>576.763964</ele>
        <time>2023-08-12T19:59:11.529Z</time>
      </trkpt>
      <trkpt lat="44.44111" lon="5.30517">
        <ele>570.310829</ele>
        <time>2023-08-12T19:59:15.022Z</time>
      </trkpt>
      <trkpt lat="44.44087" lon="5.30444">
        <ele>565.188333</ele>
        <time>2023-08-12T19:59:18.958Z</time>
      </trkpt>
      <trkpt lat="44.4409" lon="5.30416">
        <ele>563.330232</ele>
        <time>2023-08-12T19:59:20.391Z</time>
      </trkpt>
      <trkpt lat="44.44128" lon="5.30368">
        <ele>558.830934</ele>
        <time>2023-08-12T19:59:23.972Z</time>
      </trkpt>
      <trkpt lat="44.4413" lon="5.30348">
        <ele>557.552113</ele>
        <time>2023-08-12T19:59:25.003Z</time>
      </trkpt>
      <trkpt lat="44.4412" lon="5.30321">
        <ele>555.619003</ele>
        <time>2023-08-12T19:59:26.593Z</time>
      </trkpt>
      <trkpt lat="44.44115" lon="5.30282">
        <ele>554.295873</ele>
        <time>2023-08-12T19:59:28.737Z</time>
      </trkpt>
      <trkpt lat="44.44105" lon="5.3026">
        <ele>553.667159</ele>
        <time>2023-08-12T19:59:30.198Z</time>
      </trkpt>
      <trkpt lat="44.44061" lon="5.30215">
        <ele>551.815429</ele>
        <time>2023-08-12T19:59:34.591Z</time>
      </trkpt>
      <trkpt lat="44.44002" lon="5.30185">
        <ele>549.671938</ele>
        <time>2023-08-12T19:59:39.766Z</time>
      </trkpt>
      <trkpt lat="44.43985" lon="5.30172">
        <ele>548.987748</ele>
        <time>2023-08-12T19:59:41.550Z</time>
      </trkpt>
      <trkpt lat="44.43967" lon="5.30149">
        <ele>548.299762</ele>
        <time>2023-08-12T19:59:43.863Z</time>
      </trkpt>
      <trkpt lat="44.43959" lon="5.3013">
        <ele>547.871277</ele>
        <time>2023-08-12T19:59:45.281Z</time>
      </trkpt>
      <trkpt lat="44.4396" lon="5.30098">
        <ele>547.238182</ele>
        <time>2023-08-12T19:59:47.289Z</time>
      </trkpt>
      <trkpt lat="44.43982" lon="5.30073">
        <ele>546.458857</ele>
        <time>2023-08-12T19:59:49.723Z</time>
      </trkpt>
      <trkpt lat="44.44041" lon="5.30032">
        <ele>544.633777</ele>
        <time>2023-08-12T19:59:55.111Z</time>
      </trkpt>
      <trkpt lat="44.44055" lon="5.30001">
        <ele>543.878486</ele>
        <time>2023-08-12T19:59:57.178Z</time>
      </trkpt>
      <trkpt lat="44.44057" lon="5.29989">
        <ele>543.270586</ele>
        <time>2023-08-12T19:59:57.956Z</time>
      </trkpt>
      <trkpt lat="44.44053" lon="5.2998">
        <ele>542.775651</ele>
        <time>2023-08-12T19:59:58.557Z</time>
      </trkpt>
      <trkpt lat="44.44031" lon="5.29971">
        <ele>541.291384</ele>
        <time>2023-08-12T20:00:00.331Z</time>
      </trkpt>
      <trkpt lat="44.43995" lon="5.29877">
        <ele>536.39079</ele>
        <time>2023-08-12T20:00:05.874Z</time>
      </trkpt>
      <trkpt lat="44.43995" lon="5.29859">
        <ele>535.566867</ele>
        <time>2023-08-12T20:00:06.775Z</time>
      </trkpt>
      <trkpt lat="44.44039" lon="5.2973">
        <ele>528.280844</ele>
        <time>2023-08-12T20:00:13.892Z</time>
      </trkpt>
      <trkpt lat="44.4405" lon="5.29698">
        <ele>526.341583</ele>
        <time>2023-08-12T20:00:15.621Z</time>
      </trkpt>
      <trkpt lat="44.44066" lon="5.29682">
        <ele>524.810009</ele>
        <time>2023-08-12T20:00:17.000Z</time>
      </trkpt>
      <trkpt lat="44.44064" lon="5.29652">
        <ele>523.115561</ele>
        <time>2023-08-12T20:00:18.546Z</time>
      </trkpt>
      <trkpt lat="44.44032" lon="5.29612">
        <ele>519.820565</ele>
        <time>2023-08-12T20:00:21.621Z</time>
      </trkpt>
      <trkpt lat="44.43984" lon="5.29604">
        <ele>518.356578</ele>
        <time>2023-08-12T20:00:25.312Z</time>
      </trkpt>
      <trkpt lat="44.43961" lon="5.29607">
        <ele>518.3288</ele>
        <time>2023-08-12T20:00:27.207Z</time>
      </trkpt>
      <trkpt lat="44.43951" lon="5.296">
        <ele>518.314504</ele>
        <time>2023-08-12T20:00:28.297Z</time>
      </trkpt>
      <trkpt lat="44.43959" lon="5.29502">
        <ele>518.229327</ele>
        <time>2023-08-12T20:00:37.140Z</time>
      </trkpt>
      <trkpt lat="44.43978" lon="5.2947">
        <ele>518.193465</ele>
        <time>2023-08-12T20:00:43.001Z</time>
      </trkpt>
      <trkpt lat="44.44017" lon="5.29479">
        <ele>518.893766</ele>
        <time>2023-08-12T20:00:54.403Z</time>
      </trkpt>
      <trkpt lat="44.44055" lon="5.29458">
        <ele>520.134163</ele>
        <time>2023-08-12T20:01:09.968Z</time>
      </trkpt>
      <trkpt lat="44.44077" lon="5.29449">
        <ele>520.821803</ele>
        <time>2023-08-12T20:01:16.806Z</time>
      </trkpt>
      <trkpt lat="44.44153" lon="5.29443">
        <ele>523.098711</ele>
        <time>2023-08-12T20:01:32.022Z</time>
      </trkpt>
      <trkpt lat="44.4417" lon="5.29455">
        <ele>523.376804</ele>
        <time>2023-08-12T20:01:33.677Z</time>
      </trkpt>
      <trkpt lat="44.44187" lon="5.29477">
        <ele>521.955458</ele>
        <time>2023-08-12T20:01:35.507Z</time>
      </trkpt>
      <trkpt lat="44.44198" lon="5.29475">
        <ele>521.275011</ele>
        <time>2023-08-12T20:01:36.321Z</time>
      </trkpt>
      <trkpt lat="44.44216" lon="5.2945">
        <ele>519.666371</ele>
        <time>2023-08-12T20:01:38.238Z</time>
      </trkpt>
      <trkpt lat="44.44246" lon="5.29441">
        <ele>517.772591</ele>
        <time>2023-08-12T20:01:40.476Z</time>
      </trkpt>
      <trkpt lat="44.44251" lon="5.29426">
        <ele>517.04999</ele>
        <time>2023-08-12T20:01:41.310Z</time>
      </trkpt>
      <trkpt lat="44.44222" lon="5.29367">
        <ele>513.908324</ele>
        <time>2023-08-12T20:01:44.887Z</time>
      </trkpt>
      <trkpt lat="44.44223" lon="5.29352">
        <ele>513.230077</ele>
        <time>2023-08-12T20:01:45.642Z</time>
      </trkpt>
      <trkpt lat="44.44227" lon="5.29339">
        <ele>512.590408</ele>
        <time>2023-08-12T20:01:46.353Z</time>
      </trkpt>
      <trkpt lat="44.44244" lon="5.29321">
        <ele>510.770923</ele>
        <time>2023-08-12T20:01:47.824Z</time>
      </trkpt>
      <trkpt lat="44.44262" lon="5.29313">
        <ele>509.093469</ele>
        <time>2023-08-12T20:01:49.128Z</time>
      </trkpt>
      <trkpt lat="44.44266" lon="5.29306">
        <ele>508.546629</ele>
        <time>2023-08-12T20:01:49.556Z</time>
      </trkpt>
      <trkpt lat="44.4427" lon="5.293">
        <ele>508.031452</ele>
        <time>2023-08-12T20:01:49.960Z</time>
      </trkpt>
      <trkpt lat="44.44268" lon="5.29287">
        <ele>507.177985</ele>
        <time>2023-08-12T20:01:50.623Z</time>
      </trkpt>
      <trkpt lat="44.44228" lon="5.29209">
        <ele>501.128263</ele>
        <time>2023-08-12T20:01:55.415Z</time>
      </trkpt>
      <trkpt lat="44.44195" lon="5.29112">
        <ele>494.683847</ele>
        <time>2023-08-12T20:02:00.874Z</time>
      </trkpt>
      <trkpt lat="44.44188" lon="5.29032">
        <ele>490.38509</ele>
        <time>2023-08-12T20:02:04.913Z</time>
      </trkpt>
      <trkpt lat="44.44186" lon="5.28955">
        <ele>486.302178</ele>
        <time>2023-08-12T20:02:08.787Z</time>
      </trkpt>
      <trkpt lat="44.44187" lon="5.2885">
        <ele>481.479605</ele>
        <time>2023-08-12T20:02:14.306Z</time>
      </trkpt>
      <trkpt lat="44.44178" lon="5.28819">
        <ele>480.289232</ele>
        <time>2023-08-12T20:02:16.165Z</time>
      </trkpt>
      <trkpt lat="44.44166" lon="5.28776">
        <ele>478.592743</ele>
        <time>2023-08-12T20:02:18.694Z</time>
      </trkpt>
      <trkpt lat="44.44163" lon="5.28701">
        <ele>475.889475</ele>
        <time>2023-08-12T20:02:22.638Z</time>
      </trkpt>
      <trkpt lat="44.44168" lon="5.28687">
        <ele>475.305899</ele>
        <time>2023-08-12T20:02:23.499Z</time>
      </trkpt>
      <trkpt lat="44.44179" lon="5.28671">
        <ele>474.507546</ele>
        <time>2023-08-12T20:02:24.695Z</time>
      </trkpt>
      <trkpt lat="44.44203" lon="5.28648">
        <ele>473.179737</ele>
        <time>2023-08-12T20:02:26.989Z</time>
      </trkpt>
      <trkpt lat="44.44195" lon="5.28645">
        <ele>472.814445</ele>
        <time>2023-08-12T20:02:27.651Z</time>
      </trkpt>
      <trkpt lat="44.44153" lon="5.2867">
        <ele>470.895636</ele>
        <time>2023-08-12T20:02:31.379Z</time>
      </trkpt>
      <trkpt lat="44.44139" lon="5.28679">
        <ele>470.232264</ele>
        <time>2023-08-12T20:02:32.774Z</time>
      </trkpt>
      <trkpt lat="44.44119" lon="5.28692">
        <ele>469.302553</ele>
        <time>2023-08-12T20:02:34.519Z</time>
      </trkpt>
      <trkpt lat="44.44111" lon="5.28716">
        <ele>468.518894</ele>
        <time>2023-08-12T20:02:36.024Z</time>
      </trkpt>
      <trkpt lat="44.44119" lon="5.28816">
        <ele>465.160146</ele>
        <time>2023-08-12T20:02:41.300Z</time>
      </trkpt>
      <trkpt lat="44.44115" lon="5.28836">
        <ele>464.303136</ele>
        <time>2023-08-12T20:02:42.386Z</time>
      </trkpt>
      <trkpt lat="44.441" lon="5.28856">
        <ele>463.127327</ele>
        <time>2023-08-12T20:02:43.889Z</time>
      </trkpt>
      <trkpt lat="44.4408" lon="5.28867">
        <ele>461.897733</ele>
        <time>2023-08-12T20:02:45.484Z</time>
      </trkpt>
      <trkpt lat="44.43987" lon="5.28848">
        <ele>456.438146</ele>
        <time>2023-08-12T20:02:52.509Z</time>
      </trkpt>
      <trkpt lat="44.43984" lon="5.28848">
        <ele>456.281126</ele>
        <time>2023-08-12T20:02:52.707Z</time>
      </trkpt>
      <trkpt lat="44.43956" lon="5.28842">
        <ele>454.812161</ele>
        <time>2023-08-12T20:02:54.769Z</time>
      </trkpt>
      <trkpt lat="44.4391" lon="5.28799">
        <ele>452.037496</ele>
        <time>2023-08-12T20:02:58.756Z</time>
      </trkpt>
      <trkpt lat="44.43891" lon="5.28794">
        <ele>451.061674</ele>
        <time>2023-08-12T20:03:00.173Z</time>
      </trkpt>
      <trkpt lat="44.43857" lon="5.28803">
        <ele>449.318094</ele>
        <time>2023-08-12T20:03:02.777Z</time>
      </trkpt>
      <trkpt lat="44.4383" lon="5.2884">
        <ele>447.384712</ele>
        <time>2023-08-12T20:03:05.834Z</time>
      </trkpt>
      <trkpt lat="44.43807" lon="5.2888">
        <ele>445.967808</ele>
        <time>2023-08-12T20:03:09.056Z</time>
      </trkpt>
      <trkpt lat="44.43733" lon="5.28906">
        <ele>443.218661</ele>
        <time>2023-08-12T20:03:15.606Z</time>
      </trkpt>
      <trkpt lat="44.43731" lon="5.28924">
        <ele>442.736108</ele>
        <time>2023-08-12T20:03:16.701Z</time>
      </trkpt>
      <trkpt lat="44.4375" lon="5.28962">
        <ele>441.568228</ele>
        <time>2023-08-12T20:03:19.246Z</time>
      </trkpt>
      <trkpt lat="44.4375" lon="5.2897">
        <ele>441.365661</ele>
        <time>2023-08-12T20:03:19.690Z</time>
      </trkpt>
      <trkpt lat="44.4374" lon="5.28976">
        <ele>440.977503</ele>
        <time>2023-08-12T20:03:20.523Z</time>
      </trkpt>
      <trkpt lat="44.43691" lon="5.28915">
        <ele>435.331914</ele>
        <time>2023-08-12T20:03:25.299Z</time>
      </trkpt>
      <trkpt lat="44.43636" lon="5.28877">
        <ele>429.259695</ele>
        <time>2023-08-12T20:03:29.523Z</time>
      </trkpt>
      <trkpt lat="44.43559" lon="5.28885">
        <ele>421.691819</ele>
        <time>2023-08-12T20:03:34.692Z</time>
      </trkpt>
      <trkpt lat="44.43544" lon="5.28896">
        <ele>420.110631</ele>
        <time>2023-08-12T20:03:35.821Z</time>
      </trkpt>
      <trkpt lat="44.4352" lon="5.28934">
        <ele>416.752677</ele>
        <time>2023-08-12T20:03:38.269Z</time>
      </trkpt>
      <trkpt lat="44.435" lon="5.28948">
        <ele>414.696241</ele>
        <time>2023-08-12T20:03:39.800Z</time>
      </trkpt>
      <trkpt lat="44.43453" lon="5.28954">
        <ele>410.25457</ele>
        <time>2023-08-12T20:03:43.100Z</time>
      </trkpt>
      <trkpt lat="44.43444" lon="5.28966">
        <ele>409.108423</ele>
        <time>2023-08-12T20:03:44.028Z</time>
      </trkpt>
      <trkpt lat="44.43442" lon="5.28975">
        <ele>408.471461</ele>
        <time>2023-08-12T20:03:44.535Z</time>
      </trkpt>
      <trkpt lat="44.43451" lon="5.29012">
        <ele>405.937934</ele>
        <time>2023-08-12T20:03:46.559Z</time>
      </trkpt>
      <trkpt lat="44.43452" lon="5.29058">
        <ele>405.574364</ele>
        <time>2023-08-12T20:03:49.109Z</time>
      </trkpt>
      <trkpt lat="44.43472" lon="5.29083">
        <ele>405.279924</ele>
        <time>2023-08-12T20:03:51.423Z</time>
      </trkpt>
      <trkpt lat="44.43479" lon="5.29115">
        <ele>405.013072</ele>
        <time>2023-08-12T20:03:55.078Z</time>
      </trkpt>
      <trkpt lat="44.4348" lon="5.2915">
        <ele>404.738779</ele>
        <time>2023-08-12T20:03:58.880Z</time>
      </trkpt>
      <trkpt lat="44.43467" lon="5.29222">
        <ele>404.157396</ele>
        <time>2023-08-12T20:04:04.283Z</time>
      </trkpt>
      <trkpt lat="44.43461" lon="5.29255">
        <ele>404.091572</ele>
        <time>2023-08-12T20:04:07.434Z</time>
      </trkpt>
      <trkpt lat="44.43465" lon="5.29278">
        <ele>404.435895</ele>
        <time>2023-08-12T20:04:10.329Z</time>
      </trkpt>
      <trkpt lat="44.43472" lon="5.29299">
        <ele>404.769894</ele>
        <time>2023-08-12T20:04:14.690Z</time>
      </trkpt>
      <trkpt lat="44.43492" lon="5.29329">
        <ele>405.374976</ele>
        <time>2023-08-12T20:04:21.308Z</time>
      </trkpt>
      <trkpt lat="44.43513" lon="5.29344">
        <ele>405.849373</ele>
        <time>2023-08-12T20:04:26.297Z</time>
      </trkpt>
      <trkpt lat="44.43529" lon="5.29339">
        <ele>406.182389</ele>
        <time>2023-08-12T20:04:30.347Z</time>
      </trkpt>
      <trkpt lat="44.43539" lon="5.2933">
        <ele>406.425466</ele>
        <time>2023-08-12T20:04:32.518Z</time>
      </trkpt>
      <trkpt lat="44.43543" lon="5.29326">
        <ele>406.522321</ele>
        <time>2023-08-12T20:04:33.242Z</time>
      </trkpt>
      <trkpt lat="44.43553" lon="5.29324">
        <ele>406.734785</ele>
        <time>2023-08-12T20:04:35.028Z</time>
      </trkpt>
      <trkpt lat="44.43538" lon="5.29343">
        <ele>407.143764</ele>
        <time>2023-08-12T20:04:39.014Z</time>
      </trkpt>
      <trkpt lat="44.4353" lon="5.2935">
        <ele>407.34815</ele>
        <time>2023-08-12T20:04:40.398Z</time>
      </trkpt>
      <trkpt lat="44.43518" lon="5.29354">
        <ele>407.584877</ele>
        <time>2023-08-12T20:04:42.462Z</time>
      </trkpt>
      <trkpt lat="44.43503" lon="5.29351">
        <ele>407.784971</ele>
        <time>2023-08-12T20:04:44.575Z</time>
      </trkpt>
      <trkpt lat="44.43491" lon="5.29344">
        <ele>407.940683</ele>
        <time>2023-08-12T20:04:45.884Z</time>
      </trkpt>
      <trkpt lat="44.43474" lon="5.29323">
        <ele>408.207631</ele>
        <time>2023-08-12T20:04:49.209Z</time>
      </trkpt>
      <trkpt lat="44.43456" lon="5.29283">
        <ele>408.607413</ele>
        <time>2023-08-12T20:04:54.371Z</time>
      </trkpt>
      <trkpt lat="44.4345" lon="5.29248">
        <ele>408.904014</ele>
        <time>2023-08-12T20:04:59.797Z</time>
      </trkpt>
      <trkpt lat="44.43447" lon="5.29209">
        <ele>409.238444</ele>
        <time>2023-08-12T20:05:07.284Z</time>
      </trkpt>
      <trkpt lat="44.43452" lon="5.29129">
        <ele>409.426943</ele>
        <time>2023-08-12T20:05:13.523Z</time>
      </trkpt>
      <trkpt lat="44.43442" lon="5.29054">
        <ele>408.28878</ele>
        <time>2023-08-12T20:05:18.168Z</time>
      </trkpt>
      <trkpt lat="44.43433" lon="5.2902">
        <ele>407.740077</ele>
        <time>2023-08-12T20:05:20.371Z</time>
      </trkpt>
      <trkpt lat="44.43367" lon="5.28832">
        <ele>404.828285</ele>
        <time>2023-08-12T20:05:32.675Z</time>
      </trkpt>
      <trkpt lat="44.43355" lon="5.2881">
        <ele>404.469885</ele>
        <time>2023-08-12T20:05:34.412Z</time>
      </trkpt>
      <trkpt lat="44.4334" lon="5.28792">
        <ele>404.120522</ele>
        <time>2023-08-12T20:05:36.186Z</time>
      </trkpt>
      <trkpt lat="44.43311" lon="5.28777">
        <ele>403.578398</ele>
        <time>2023-08-12T20:05:39.103Z</time>
      </trkpt>
      <trkpt lat="44.43282" lon="5.28777">
        <ele>403.060938</ele>
        <time>2023-08-12T20:05:42.015Z</time>
      </trkpt>
      <trkpt lat="44.43235" lon="5.28793">
        <ele>402.740101</ele>
        <time>2023-08-12T20:05:47.301Z</time>
      </trkpt>
      <trkpt lat="44.43222" lon="5.28794">
        <ele>402.72239</ele>
        <time>2023-08-12T20:05:48.947Z</time>
      </trkpt>
      <trkpt lat="44.4321" lon="5.28791">
        <ele>402.705754</ele>
        <time>2023-08-12T20:05:50.670Z</time>
      </trkpt>
      <trkpt lat="44.432" lon="5.2878">
        <ele>402.689068</ele>
        <time>2023-08-12T20:05:52.566Z</time>
      </trkpt>
      <trkpt lat="44.43197" lon="5.28768">
        <ele>402.67646</ele>
        <time>2023-08-12T20:05:54.095Z</time>
      </trkpt>
      <trkpt lat="44.43194" lon="5.28745">
        <ele>402.653552</ele>
        <time>2023-08-12T20:05:56.932Z</time>
      </trkpt>
      <trkpt lat="44.43193" lon="5.28651">
        <ele>402.56213</ele>
        <time>2023-08-12T20:06:06.158Z</time>
      </trkpt>
      <trkpt lat="44.43194" lon="5.28617">
        <ele>402.228617</ele>
        <time>2023-08-12T20:06:08.352Z</time>
      </trkpt>
      <trkpt lat="44.432" lon="5.28594">
        <ele>401.549618</ele>
        <time>2023-08-12T20:06:09.780Z</time>
      </trkpt>
      <trkpt lat="44.43224" lon="5.28526">
        <ele>399.392775</ele>
        <time>2023-08-12T20:06:14.038Z</time>
      </trkpt>
      <trkpt lat="44.43287" lon="5.28407">
        <ele>395.307505</ele>
        <time>2023-08-12T20:06:22.051Z</time>
      </trkpt>
      <trkpt lat="44.43315" lon="5.28341">
        <ele>394.225823</ele>
        <time>2023-08-12T20:06:26.043Z</time>
      </trkpt>
      <trkpt lat="44.43322" lon="5.28316">
        <ele>393.839605</ele>
        <time>2023-08-12T20:06:27.541Z</time>
      </trkpt>
      <trkpt lat="44.43326" lon="5.28285">
        <ele>393.403861</ele>
        <time>2023-08-12T20:06:29.214Z</time>
      </trkpt>
      <trkpt lat="44.43324" lon="5.28263">
        <ele>393.081063</ele>
        <time>2023-08-12T20:06:30.992Z</time>
      </trkpt>
      <trkpt lat="44.43317" lon="5.28247">
        <ele>392.816379</ele>
        <time>2023-08-12T20:06:33.179Z</time>
      </trkpt>
      <trkpt lat="44.43292" lon="5.28216">
        <ele>392.161969</ele>
        <time>2023-08-12T20:06:40.435Z</time>
      </trkpt>
      <trkpt lat="44.43276" lon="5.28209">
        <ele>391.882354</ele>
        <time>2023-08-12T20:06:44.037Z</time>
      </trkpt>
      <trkpt lat="44.43257" lon="5.28208">
        <ele>392.271235</ele>
        <time>2023-08-12T20:06:49.254Z</time>
      </trkpt>
      <trkpt lat="44.43203" lon="5.2822">
        <ele>393.342238</ele>
        <time>2023-08-12T20:07:00.179Z</time>
      </trkpt>
      <trkpt lat="44.43189" lon="5.28222">
        <ele>393.620318</ele>
        <time>2023-08-12T20:07:03.492Z</time>
      </trkpt>
      <trkpt lat="44.43178" lon="5.2822">
        <ele>393.82968</ele>
        <time>2023-08-12T20:07:05.161Z</time>
      </trkpt>
      <trkpt lat="44.43169" lon="5.28211">
        <ele>394.060103</ele>
        <time>2023-08-12T20:07:06.360Z</time>
      </trkpt>
      <trkpt lat="44.4316" lon="5.28195">
        <ele>394.350896</ele>
        <time>2023-08-12T20:07:09.336Z</time>
      </trkpt>
      <trkpt lat="44.43157" lon="5.28156">
        <ele>394.897006</ele>
        <time>2023-08-12T20:07:13.641Z</time>
      </trkpt>
      <trkpt lat="44.43162" lon="5.28133">
        <ele>395.247827</ele>
        <time>2023-08-12T20:07:17.226Z</time>
      </trkpt>
      <trkpt lat="44.43205" lon="5.27998">
        <ele>392.399811</ele>
        <time>2023-08-12T20:07:30.294Z</time>
      </trkpt>
      <trkpt lat="44.43208" lon="5.27973">
        <ele>391.84085</ele>
        <time>2023-08-12T20:07:31.609Z</time>
      </trkpt>
      <trkpt lat="44.43202" lon="5.27905">
        <ele>390.329669</ele>
        <time>2023-08-12T20:07:35.086Z</time>
      </trkpt>
      <trkpt lat="44.43196" lon="5.2788">
        <ele>389.732121</ele>
        <time>2023-08-12T20:07:36.384Z</time>
      </trkpt>
      <trkpt lat="44.43186" lon="5.27855">
        <ele>388.882931</ele>
        <time>2023-08-12T20:07:37.876Z</time>
      </trkpt>
      <trkpt lat="44.43162" lon="5.27808">
        <ele>387.229446</ele>
        <time>2023-08-12T20:07:40.856Z</time>
      </trkpt>
      <trkpt lat="44.43139" lon="5.27776">
        <ele>385.919723</ele>
        <time>2023-08-12T20:07:43.334Z</time>
      </trkpt>
      <trkpt lat="44.43112" lon="5.27746">
        <ele>384.547399</ele>
        <time>2023-08-12T20:07:45.999Z</time>
      </trkpt>
      <trkpt lat="44.43098" lon="5.27732">
        <ele>383.826189</ele>
        <time>2023-08-12T20:07:47.410Z</time>
      </trkpt>
      <trkpt lat="44.43068" lon="5.27712">
        <ele>382.624625</ele>
        <time>2023-08-12T20:07:50.971Z</time>
      </trkpt>
      <trkpt lat="44.43033" lon="5.27692">
        <ele>383.306863</ele>
        <time>2023-08-12T20:07:57.951Z</time>
      </trkpt>
      <trkpt lat="44.42988" lon="5.27673">
        <ele>384.141542</ele>
        <time>2023-08-12T20:08:09.228Z</time>
      </trkpt>
      <trkpt lat="44.42979" lon="5.27671">
        <ele>384.298421</ele>
        <time>2023-08-12T20:08:10.971Z</time>
      </trkpt>
      <trkpt lat="44.42965" lon="5.2767">
        <ele>384.549141</ele>
        <time>2023-08-12T20:08:13.864Z</time>
      </trkpt>
      <trkpt lat="44.4295" lon="5.27672">
        <ele>384.819597</ele>
        <time>2023-08-12T20:08:17.947Z</time>
      </trkpt>
      <trkpt lat="44.42921" lon="5.27681">
        <ele>385.33768</ele>
        <time>2023-08-12T20:08:23.881Z</time>
      </trkpt>
      <trkpt lat="44.429" lon="5.27693">
        <ele>385.737518</ele>
        <time>2023-08-12T20:08:27.232Z</time>
      </trkpt>
      <trkpt lat="44.42886" lon="5.27706">
        <ele>385.15762</ele>
        <time>2023-08-12T20:08:29.923Z</time>
      </trkpt>
      <trkpt lat="44.42867" lon="5.2773">
        <ele>384.074036</ele>
        <time>2023-08-12T20:08:32.297Z</time>
      </trkpt>
      <trkpt lat="44.42851" lon="5.27767">
        <ele>382.8043</ele>
        <time>2023-08-12T20:08:34.880Z</time>
      </trkpt>
      <trkpt lat="44.42823" lon="5.2793">
        <ele>377.615749</ele>
        <time>2023-08-12T20:08:43.612Z</time>
      </trkpt>
      <trkpt lat="44.42815" lon="5.2796">
        <ele>376.324542</ele>
        <time>2023-08-12T20:08:45.215Z</time>
      </trkpt>
      <trkpt lat="44.42801" lon="5.27978">
        <ele>375.268167</ele>
        <time>2023-08-12T20:08:46.526Z</time>
      </trkpt>
      <trkpt lat="44.4279" lon="5.27981">
        <ele>374.632841</ele>
        <time>2023-08-12T20:08:47.324Z</time>
      </trkpt>
      <trkpt lat="44.42768" lon="5.27972">
        <ele>373.31866</ele>
        <time>2023-08-12T20:08:48.995Z</time>
      </trkpt>
      <trkpt lat="44.42744" lon="5.27955">
        <ele>371.81715</ele>
        <time>2023-08-12T20:08:50.951Z</time>
      </trkpt>
      <trkpt lat="44.42729" lon="5.27937">
        <ele>370.719709</ele>
        <time>2023-08-12T20:08:52.435Z</time>
      </trkpt>
      <trkpt lat="44.42705" lon="5.27897">
        <ele>368.62121</ele>
        <time>2023-08-12T20:08:55.431Z</time>
      </trkpt>
      <trkpt lat="44.42679" lon="5.27862">
        <ele>367.741928</ele>
        <time>2023-08-12T20:08:58.688Z</time>
      </trkpt>
      <trkpt lat="44.42651" lon="5.27831">
        <ele>367.241109</ele>
        <time>2023-08-12T20:09:02.315Z</time>
      </trkpt>
      <trkpt lat="44.42602" lon="5.2779">
        <ele>366.44846</ele>
        <time>2023-08-12T20:09:07.996Z</time>
      </trkpt>
      <trkpt lat="44.42447" lon="5.27692">
        <ele>364.285976</ele>
        <time>2023-08-12T20:09:24.019Z</time>
      </trkpt>
      <trkpt lat="44.42351" lon="5.27653">
        <ele>363.163529</ele>
        <time>2023-08-12T20:09:33.714Z</time>
      </trkpt>
      <trkpt lat="44.42297" lon="5.27623">
        <ele>362.627799</ele>
        <time>2023-08-12T20:09:39.372Z</time>
      </trkpt>
      <trkpt lat="44.42179" lon="5.27573">
        <ele>361.601087</ele>
        <time>2023-08-12T20:09:51.744Z</time>
      </trkpt>
      <trkpt lat="44.42142" lon="5.27542">
        <ele>361.339638</ele>
        <time>2023-08-12T20:09:56.413Z</time>
      </trkpt>
      <trkpt lat="44.42086" lon="5.2748">
        <ele>360.908849</ele>
        <time>2023-08-12T20:10:04.115Z</time>
      </trkpt>
      <trkpt lat="44.42" lon="5.27372">
        <ele>360.062112</ele>
        <time>2023-08-12T20:10:15.832Z</time>
      </trkpt>
      <trkpt lat="44.41975" lon="5.27345">
        <ele>359.817839</ele>
        <time>2023-08-12T20:10:18.894Z</time>
      </trkpt>
      <trkpt lat="44.41911" lon="5.27297">
        <ele>359.275198</ele>
        <time>2023-08-12T20:10:26.154Z</time>
      </trkpt>
      <trkpt lat="44.41863" lon="5.27241">
        <ele>359.05396</ele>
        <time>2023-08-12T20:10:32.617Z</time>
      </trkpt>
      <trkpt lat="44.41659" lon="5.27044">
        <ele>358.459273</ele>
        <time>2023-08-12T20:11:01.041Z</time>
      </trkpt>
      <trkpt lat="44.41547" lon="5.26951">
        <ele>358.297375</ele>
        <time>2023-08-12T20:11:15.702Z</time>
      </trkpt>
      <trkpt lat="44.41532" lon="5.26932">
        <ele>358.274638</ele>
        <time>2023-08-12T20:11:18.023Z</time>
      </trkpt>
      <trkpt lat="44.41515" lon="5.26901">
        <ele>358.244064</ele>
        <time>2023-08-12T20:11:21.137Z</time>
      </trkpt>
      <trkpt lat="44.41498" lon="5.26859">
        <ele>358.205448</ele>
        <time>2023-08-12T20:11:25.314Z</time>
      </trkpt>
      <trkpt lat="44.41438" lon="5.26734">
        <ele>358.117783</ele>
        <time>2023-08-12T20:11:38.831Z</time>
      </trkpt>
      <trkpt lat="44.41429" lon="5.26693">
        <ele>358.0938</ele>
        <time>2023-08-12T20:11:42.408Z</time>
      </trkpt>
      <trkpt lat="44.41428" lon="5.26666">
        <ele>358.078545</ele>
        <time>2023-08-12T20:11:44.590Z</time>
      </trkpt>
      <trkpt lat="44.41431" lon="5.2662">
        <ele>358.048905</ele>
        <time>2023-08-12T20:11:48.136Z</time>
      </trkpt>
      <trkpt lat="44.41442" lon="5.26497">
        <ele>357.109464</ele>
        <time>2023-08-12T20:11:57.037Z</time>
      </trkpt>
      <trkpt lat="44.41437" lon="5.26459">
        <ele>356.819005</ele>
        <time>2023-08-12T20:11:59.577Z</time>
      </trkpt>
      <trkpt lat="44.41427" lon="5.26421">
        <ele>356.509346</ele>
        <time>2023-08-12T20:12:02.366Z</time>
      </trkpt>
      <trkpt lat="44.41393" lon="5.26342">
        <ele>355.71004</ele>
        <time>2023-08-12T20:12:08.393Z</time>
      </trkpt>
      <trkpt lat="44.41363" lon="5.26292">
        <ele>355.052843</ele>
        <time>2023-08-12T20:12:12.710Z</time>
      </trkpt>
      <trkpt lat="44.41343" lon="5.26268">
        <ele>354.674619</ele>
        <time>2023-08-12T20:12:15.346Z</time>
      </trkpt>
      <trkpt lat="44.41299" lon="5.26231">
        <ele>353.956794</ele>
        <time>2023-08-12T20:12:19.964Z</time>
      </trkpt>
      <trkpt lat="44.41273" lon="5.26198">
        <ele>353.515555</ele>
        <time>2023-08-12T20:12:23.162Z</time>
      </trkpt>
      <trkpt lat="44.41265" lon="5.2618">
        <ele>353.373565</ele>
        <time>2023-08-12T20:12:24.615Z</time>
      </trkpt>
      <trkpt lat="44.41248" lon="5.26126">
        <ele>352.978803</ele>
        <time>2023-08-12T20:12:28.731Z</time>
      </trkpt>
      <trkpt lat="44.4121" lon="5.26054">
        <ele>352.377198</ele>
        <time>2023-08-12T20:12:35.247Z</time>
      </trkpt>
      <trkpt lat="44.41196" lon="5.26018">
        <ele>352.105927</ele>
        <time>2023-08-12T20:12:38.284Z</time>
      </trkpt>
      <trkpt lat="44.41188" lon="5.2598">
        <ele>351.854015</ele>
        <time>2023-08-12T20:12:41.164Z</time>
      </trkpt>
      <trkpt lat="44.41165" lon="5.25841">
        <ele>351.025504</ele>
        <time>2023-08-12T20:12:51.333Z</time>
      </trkpt>
      <trkpt lat="44.41154" lon="5.25812">
        <ele>350.842299</ele>
        <time>2023-08-12T20:12:53.708Z</time>
      </trkpt>
      <trkpt lat="44.41144" lon="5.25794">
        <ele>350.703988</ele>
        <time>2023-08-12T20:12:55.503Z</time>
      </trkpt>
      <trkpt lat="44.41096" lon="5.25735">
        <ele>349.970436</ele>
        <time>2023-08-12T20:13:01.918Z</time>
      </trkpt>
      <trkpt lat="44.41082" lon="5.25706">
        <ele>349.615337</ele>
        <time>2023-08-12T20:13:04.179Z</time>
      </trkpt>
      <trkpt lat="44.41076" lon="5.25674">
        <ele>349.274895</ele>
        <time>2023-08-12T20:13:06.310Z</time>
      </trkpt>
      <trkpt lat="44.41068" lon="5.2558">
        <ele>348.308636</ele>
        <time>2023-08-12T20:13:12.390Z</time>
      </trkpt>
      <trkpt lat="44.41056" lon="5.2553">
        <ele>347.836</ele>
        <time>2023-08-12T20:13:15.904Z</time>
      </trkpt>
      <trkpt lat="44.41049" lon="5.25515">
        <ele>347.726523</ele>
        <time>2023-08-12T20:13:17.106Z</time>
      </trkpt>
      <trkpt lat="44.41027" lon="5.25487">
        <ele>347.476333</ele>
        <time>2023-08-12T20:13:19.998Z</time>
      </trkpt>
      <trkpt lat="44.41014" lon="5.25472">
        <ele>347.33663</ele>
        <time>2023-08-12T20:13:21.600Z</time>
      </trkpt>
      <trkpt lat="44.40987" lon="5.2544">
        <ele>347.031122</ele>
        <time>2023-08-12T20:13:25.146Z</time>
      </trkpt>
      <trkpt lat="44.4097" lon="5.25425">
        <ele>346.866355</ele>
        <time>2023-08-12T20:13:27.084Z</time>
      </trkpt>
      <trkpt lat="44.40922" lon="5.25395">
        <ele>346.415572</ele>
        <time>2023-08-12T20:13:32.577Z</time>
      </trkpt>
      <trkpt lat="44.40905" lon="5.25382">
        <ele>346.487617</ele>
        <time>2023-08-12T20:13:34.769Z</time>
      </trkpt>
      <trkpt lat="44.4089" lon="5.25362">
        <ele>346.598868</ele>
        <time>2023-08-12T20:13:37.260Z</time>
      </trkpt>
      <trkpt lat="44.40821" lon="5.25241">
        <ele>347.179661</ele>
        <time>2023-08-12T20:13:52.212Z</time>
      </trkpt>
      <trkpt lat="44.40795" lon="5.25214">
        <ele>347.382612</ele>
        <time>2023-08-12T20:13:57.030Z</time>
      </trkpt>
      <trkpt lat="44.40769" lon="5.25196">
        <ele>348.269378</ele>
        <time>2023-08-12T20:14:01.720Z</time>
      </trkpt>
      <trkpt lat="44.4077" lon="5.2519">
        <ele>348.408319</ele>
        <time>2023-08-12T20:14:02.741Z</time>
      </trkpt>
      <trkpt lat="44.40763" lon="5.25173">
        <ele>348.850673</ele>
        <time>2023-08-12T20:14:05.665Z</time>
      </trkpt>
      <trkpt lat="44.40738" lon="5.2517">
        <ele>349.612428</ele>
        <time>2023-08-12T20:14:10.570Z</time>
      </trkpt>
      <trkpt lat="44.40714" lon="5.25157">
        <ele>350.412647</ele>
        <time>2023-08-12T20:14:16.068Z</time>
      </trkpt>
      <trkpt lat="44.40675" lon="5.25132">
        <ele>351.718257</ele>
        <time>2023-08-12T20:14:26.145Z</time>
      </trkpt>
      <trkpt lat="44.40667" lon="5.25109">
        <ele>352.283024</ele>
        <time>2023-08-12T20:14:30.818Z</time>
      </trkpt>
      <trkpt lat="44.40667" lon="5.25012">
        <ele>356.221768</ele>
        <time>2023-08-12T20:14:49.769Z</time>
      </trkpt>
      <trkpt lat="44.40653" lon="5.24996">
        <ele>357.421079</ele>
        <time>2023-08-12T20:14:55.400Z</time>
      </trkpt>
      <trkpt lat="44.40589" lon="5.24948">
        <ele>362.352324</ele>
        <time>2023-08-12T20:15:22.089Z</time>
      </trkpt>
      <trkpt lat="44.4058" lon="5.24931">
        <ele>363.365854</ele>
        <time>2023-08-12T20:15:27.846Z</time>
      </trkpt>
      <trkpt lat="44.40573" lon="5.24877">
        <ele>365.994718</ele>
        <time>2023-08-12T20:15:42.798Z</time>
      </trkpt>
      <trkpt lat="44.40565" lon="5.24853">
        <ele>367.282449</ele>
        <time>2023-08-12T20:15:49.949Z</time>
      </trkpt>
      <trkpt lat="44.40522" lon="5.24775">
        <ele>372.073371</ele>
        <time>2023-08-12T20:16:14.728Z</time>
      </trkpt>
      <trkpt lat="44.40496" lon="5.24756">
        <ele>374.065535</ele>
        <time>2023-08-12T20:16:24.126Z</time>
      </trkpt>
      <trkpt lat="44.40472" lon="5.24722">
        <ele>376.365536</ele>
        <time>2023-08-12T20:16:34.088Z</time>
      </trkpt>
      <trkpt lat="44.40397" lon="5.24705">
        <ele>381.016984</ele>
        <time>2023-08-12T20:16:55.590Z</time>
      </trkpt>
      <trkpt lat="44.40361" lon="5.24708">
        <ele>383.247676</ele>
        <time>2023-08-12T20:17:06.901Z</time>
      </trkpt>
      <trkpt lat="44.40337" lon="5.24703">
        <ele>384.68618</ele>
        <time>2023-08-12T20:17:14.341Z</time>
      </trkpt>
      <trkpt lat="44.40315" lon="5.24685">
        <ele>386.253544</ele>
        <time>2023-08-12T20:17:22.814Z</time>
      </trkpt>
      <trkpt lat="44.40307" lon="5.24671">
        <ele>387.015683</ele>
        <time>2023-08-12T20:17:26.926Z</time>
      </trkpt>
      <trkpt lat="44.40306" lon="5.24661">
        <ele>387.445972</ele>
        <time>2023-08-12T20:17:29.367Z</time>
      </trkpt>
      <trkpt lat="44.40316" lon="5.24627">
        <ele>389.321346</ele>
        <time>2023-08-12T20:17:38.319Z</time>
      </trkpt>
      <trkpt lat="44.40344" lon="5.24585">
        <ele>392.539416</ele>
        <time>2023-08-12T20:17:53.022Z</time>
      </trkpt>
      <trkpt lat="44.40352" lon="5.2456">
        <ele>394.065525</ele>
        <time>2023-08-12T20:18:00.426Z</time>
      </trkpt>
      <trkpt lat="44.40351" lon="5.24537">
        <ele>395.387314</ele>
        <time>2023-08-12T20:18:07.128Z</time>
      </trkpt>
      <trkpt lat="44.40343" lon="5.24513">
        <ele>396.834703</ele>
        <time>2023-08-12T20:18:14.668Z</time>
      </trkpt>
      <trkpt lat="44.40343" lon="5.245">
        <ele>397.583726</ele>
        <time>2023-08-12T20:18:18.574Z</time>
      </trkpt>
      <trkpt lat="44.40347" lon="5.24496">
        <ele>397.986791</ele>
        <time>2023-08-12T20:18:20.703Z</time>
      </trkpt>
      <trkpt lat="44.40352" lon="5.24495">
        <ele>398.424647</ele>
        <time>2023-08-12T20:18:22.991Z</time>
      </trkpt>
      <trkpt lat="44.40381" lon="5.2459">
        <ele>403.424355</ele>
        <time>2023-08-12T20:18:50.779Z</time>
      </trkpt>
      <trkpt lat="44.40392" lon="5.24615">
        <ele>404.471939</ele>
        <time>2023-08-12T20:18:57.410Z</time>
      </trkpt>
      <trkpt lat="44.40406" lon="5.24626">
        <ele>405.243515</ele>
        <time>2023-08-12T20:19:01.813Z</time>
      </trkpt>
      <trkpt lat="44.40411" lon="5.24614">
        <ele>405.742411</ele>
        <time>2023-08-12T20:19:04.500Z</time>
      </trkpt>
      <trkpt lat="44.40399" lon="5.24589">
        <ele>406.786827</ele>
        <time>2023-08-12T20:19:09.778Z</time>
      </trkpt>
      <trkpt lat="44.40397" lon="5.24545">
        <ele>408.330883</ele>
        <time>2023-08-12T20:19:16.777Z</time>
      </trkpt>
      <trkpt lat="44.40385" lon="5.24503">
        <ele>409.929724</ele>
        <time>2023-08-12T20:19:23.555Z</time>
      </trkpt>
      <trkpt lat="44.40367" lon="5.24396">
        <ele>415.877127</ele>
        <time>2023-08-12T20:19:42.579Z</time>
      </trkpt>
      <trkpt lat="44.40337" lon="5.24331">
        <ele>420.643648</ele>
        <time>2023-08-12T20:20:02.983Z</time>
      </trkpt>
      <trkpt lat="44.40326" lon="5.24267">
        <ele>424.710232</ele>
        <time>2023-08-12T20:20:26.749Z</time>
      </trkpt>
      <trkpt lat="44.4033" lon="5.24232">
        <ele>427.156298</ele>
        <time>2023-08-12T20:20:40.522Z</time>
      </trkpt>
      <trkpt lat="44.40375" lon="5.24162">
        <ele>438.482175</ele>
        <time>2023-08-12T20:21:22.569Z</time>
      </trkpt>
      <trkpt lat="44.40422" lon="5.24151">
        <ele>446.455899</ele>
        <time>2023-08-12T20:21:54.598Z</time>
      </trkpt>
      <trkpt lat="44.40479" lon="5.24109">
        <ele>457.337261</ele>
        <time>2023-08-12T20:22:41.982Z</time>
      </trkpt>
      <trkpt lat="44.40512" lon="5.24067">
        <ele>464.187216</ele>
        <time>2023-08-12T20:23:14.003Z</time>
      </trkpt>
      <trkpt lat="44.40533" lon="5.2405">
        <ele>468.013837</ele>
        <time>2023-08-12T20:23:30.981Z</time>
      </trkpt>
      <trkpt lat="44.40577" lon="5.24035">
        <ele>474.964703</ele>
        <time>2023-08-12T20:23:59.195Z</time>
      </trkpt>
      <trkpt lat="44.40638" lon="5.24047">
        <ele>484.523563</ele>
        <time>2023-08-12T20:24:31.715Z</time>
      </trkpt>
      <trkpt lat="44.40693" lon="5.24049">
        <ele>488.529318</ele>
        <time>2023-08-12T20:24:55.876Z</time>
      </trkpt>
      <trkpt lat="44.40721" lon="5.24066">
        <ele>490.782048</ele>
        <time>2023-08-12T20:25:07.888Z</time>
      </trkpt>
      <trkpt lat="44.40772" lon="5.24041">
        <ele>494.741933</ele>
        <time>2023-08-12T20:25:26.091Z</time>
      </trkpt>
      <trkpt lat="44.40805" lon="5.23992">
        <ele>497.795316</ele>
        <time>2023-08-12T20:25:37.438Z</time>
      </trkpt>
      <trkpt lat="44.40844" lon="5.23944">
        <ele>498.472911</ele>
        <time>2023-08-12T20:25:44.689Z</time>
      </trkpt>
      <trkpt lat="44.40891" lon="5.23925">
        <ele>499.095606</ele>
        <time>2023-08-12T20:25:49.939Z</time>
      </trkpt>
      <trkpt lat="44.40914" lon="5.23895">
        <ele>499.500054</ele>
        <time>2023-08-12T20:25:53.817Z</time>
      </trkpt>
      <trkpt lat="44.4093" lon="5.2385">
        <ele>499.96188</ele>
        <time>2023-08-12T20:25:59.957Z</time>
      </trkpt>
      <trkpt lat="44.40939" lon="5.23808">
        <ele>500.951884</ele>
        <time>2023-08-12T20:26:06.035Z</time>
      </trkpt>
      <trkpt lat="44.40959" lon="5.23769">
        <ele>502.150526</ele>
        <time>2023-08-12T20:26:13.517Z</time>
      </trkpt>
      <trkpt lat="44.40973" lon="5.23704">
        <ele>503.806125</ele>
        <time>2023-08-12T20:26:24.296Z</time>
      </trkpt>
      <trkpt lat="44.40986" lon="5.23685">
        <ele>504.464808</ele>
        <time>2023-08-12T20:26:28.810Z</time>
      </trkpt>
      <trkpt lat="44.41013" lon="5.23682">
        <ele>505.393846</ele>
        <time>2023-08-12T20:26:36.030Z</time>
      </trkpt>
      <trkpt lat="44.41087" lon="5.23688">
        <ele>507.616292</ele>
        <time>2023-08-12T20:26:57.491Z</time>
      </trkpt>
      <trkpt lat="44.41165" lon="5.23744">
        <ele>510.020518</ele>
        <time>2023-08-12T20:27:15.560Z</time>
      </trkpt>
      <trkpt lat="44.41193" lon="5.23773">
        <ele>510.977731</ele>
        <time>2023-08-12T20:27:20.208Z</time>
      </trkpt>
      <trkpt lat="44.41203" lon="5.23778">
        <ele>511.216278</ele>
        <time>2023-08-12T20:27:21.296Z</time>
      </trkpt>
      <trkpt lat="44.41208" lon="5.23776">
        <ele>511.282441</ele>
        <time>2023-08-12T20:27:21.805Z</time>
      </trkpt>
      <trkpt lat="44.41218" lon="5.23772">
        <ele>511.39894</ele>
        <time>2023-08-12T20:27:22.879Z</time>
      </trkpt>
      <trkpt lat="44.41229" lon="5.23771">
        <ele>511.526886</ele>
        <time>2023-08-12T20:27:24.762Z</time>
      </trkpt>
      <trkpt lat="44.41252" lon="5.23788">
        <ele>511.816282</ele>
        <time>2023-08-12T20:27:27.556Z</time>
      </trkpt>
      <trkpt lat="44.4126" lon="5.23789">
        <ele>511.915841</ele>
        <time>2023-08-12T20:27:29.192Z</time>
      </trkpt>
      <trkpt lat="44.41276" lon="5.23785">
        <ele>512.099852</ele>
        <time>2023-08-12T20:27:31.092Z</time>
      </trkpt>
      <trkpt lat="44.41304" lon="5.23771">
        <ele>512.441048</ele>
        <time>2023-08-12T20:27:35.726Z</time>
      </trkpt>
      <trkpt lat="44.41309" lon="5.23768">
        <ele>512.495241</ele>
        <time>2023-08-12T20:27:36.233Z</time>
      </trkpt>
      <trkpt lat="44.41314" lon="5.23766">
        <ele>512.555834</ele>
        <time>2023-08-12T20:27:36.913Z</time>
      </trkpt>
      <trkpt lat="44.41323" lon="5.23755">
        <ele>512.691674</ele>
        <time>2023-08-12T20:27:38.862Z</time>
      </trkpt>
      <trkpt lat="44.41338" lon="5.23718">
        <ele>513.039764</ele>
        <time>2023-08-12T20:27:43.384Z</time>
      </trkpt>
      <trkpt lat="44.4134" lon="5.23668">
        <ele>514.086746</ele>
        <time>2023-08-12T20:27:51.112Z</time>
      </trkpt>
      <trkpt lat="44.41322" lon="5.23591">
        <ele>516.702788</ele>
        <time>2023-08-12T20:28:05.559Z</time>
      </trkpt>
      <trkpt lat="44.4131" lon="5.23559">
        <ele>517.849037</ele>
        <time>2023-08-12T20:28:12.913Z</time>
      </trkpt>
      <trkpt lat="44.4131" lon="5.23529">
        <ele>518.81637</ele>
        <time>2023-08-12T20:28:19.221Z</time>
      </trkpt>
      <trkpt lat="44.41327" lon="5.23488">
        <ele>520.367914</ele>
        <time>2023-08-12T20:28:30.056Z</time>
      </trkpt>
      <trkpt lat="44.41393" lon="5.23433">
        <ele>523.422871</ele>
        <time>2023-08-12T20:28:52.200Z</time>
      </trkpt>
      <trkpt lat="44.41429" lon="5.23358">
        <ele>525.83653</ele>
        <time>2023-08-12T20:29:06.835Z</time>
      </trkpt>
      <trkpt lat="44.41458" lon="5.2332">
        <ele>527.295067</ele>
        <time>2023-08-12T20:29:14.441Z</time>
      </trkpt>
      <trkpt lat="44.41497" lon="5.23279">
        <ele>529.008098</ele>
        <time>2023-08-12T20:29:24.377Z</time>
      </trkpt>
      <trkpt lat="44.41514" lon="5.2325">
        <ele>529.879815</ele>
        <time>2023-08-12T20:29:29.892Z</time>
      </trkpt>
      <trkpt lat="44.41524" lon="5.23224">
        <ele>530.570654</ele>
        <time>2023-08-12T20:29:34.285Z</time>
      </trkpt>
      <trkpt lat="44.41521" lon="5.23173">
        <ele>531.781056</ele>
        <time>2023-08-12T20:29:42.672Z</time>
      </trkpt>
      <trkpt lat="44.41515" lon="5.23138">
        <ele>532.608309</ele>
        <time>2023-08-12T20:29:48.671Z</time>
      </trkpt>
      <trkpt lat="44.41515" lon="5.23113">
        <ele>533.192595</ele>
        <time>2023-08-12T20:29:52.854Z</time>
      </trkpt>
      <trkpt lat="44.4152" lon="5.23094">
        <ele>533.670267</ele>
        <time>2023-08-12T20:29:56.427Z</time>
      </trkpt>
      <trkpt lat="44.41523" lon="5.23055">
        <ele>534.998855</ele>
        <time>2023-08-12T20:30:03.142Z</time>
      </trkpt>
      <trkpt lat="44.41513" lon="5.23021">
        <ele>536.425786</ele>
        <time>2023-08-12T20:30:10.691Z</time>
      </trkpt>
      <trkpt lat="44.41523" lon="5.22947">
        <ele>539.370786</ele>
        <time>2023-08-12T20:30:28.365Z</time>
      </trkpt>
      <trkpt lat="44.41551" lon="5.22857">
        <ele>543.20951</ele>
        <time>2023-08-12T20:30:54.113Z</time>
      </trkpt>
      <trkpt lat="44.4157" lon="5.22834">
        <ele>544.83961</ele>
        <time>2023-08-12T20:31:03.920Z</time>
      </trkpt>
      <trkpt lat="44.41582" lon="5.22807">
        <ele>546.434933</ele>
        <time>2023-08-12T20:31:12.561Z</time>
      </trkpt>
      <trkpt lat="44.4162" lon="5.22707">
        <ele>552.269242</ele>
        <time>2023-08-12T20:31:44.006Z</time>
      </trkpt>
      <trkpt lat="44.41667" lon="5.22678">
        <ele>555.998949</ele>
        <time>2023-08-12T20:32:04.497Z</time>
      </trkpt>
      <trkpt lat="44.41687" lon="5.22676">
        <ele>557.618775</ele>
        <time>2023-08-12T20:32:12.976Z</time>
      </trkpt>
      <trkpt lat="44.41709" lon="5.22681">
        <ele>559.522707</ele>
        <time>2023-08-12T20:32:21.849Z</time>
      </trkpt>
      <trkpt lat="44.41713" lon="5.22662">
        <ele>560.756733</ele>
        <time>2023-08-12T20:32:28.105Z</time>
      </trkpt>
      <trkpt lat="44.41722" lon="5.22647">
        <ele>561.930234</ele>
        <time>2023-08-12T20:32:33.797Z</time>
      </trkpt>
      <trkpt lat="44.4172" lon="5.22605">
        <ele>564.519126</ele>
        <time>2023-08-12T20:32:46.727Z</time>
      </trkpt>
      <trkpt lat="44.41745" lon="5.22598">
        <ele>566.792307</ele>
        <time>2023-08-12T20:32:57.192Z</time>
      </trkpt>
      <trkpt lat="44.41756" lon="5.22602">
        <ele>567.758998</ele>
        <time>2023-08-12T20:33:01.617Z</time>
      </trkpt>
      <trkpt lat="44.41834" lon="5.22543">
        <ele>575.018634</ele>
        <time>2023-08-12T20:33:39.384Z</time>
      </trkpt>
      <trkpt lat="44.41864" lon="5.22505">
        <ele>578.033674</ele>
        <time>2023-08-12T20:33:57.280Z</time>
      </trkpt>
      <trkpt lat="44.41904" lon="5.2248">
        <ele>581.326289</ele>
        <time>2023-08-12T20:34:13.766Z</time>
      </trkpt>
      <trkpt lat="44.41938" lon="5.22448">
        <ele>584.366403</ele>
        <time>2023-08-12T20:34:26.117Z</time>
      </trkpt>
      <trkpt lat="44.4195" lon="5.22444">
        <ele>585.3418</ele>
        <time>2023-08-12T20:34:29.681Z</time>
      </trkpt>
      <trkpt lat="44.4199" lon="5.22448">
        <ele>585.622127</ele>
        <time>2023-08-12T20:34:38.846Z</time>
      </trkpt>
      <trkpt lat="44.41996" lon="5.22443">
        <ele>585.567966</ele>
        <time>2023-08-12T20:34:40.117Z</time>
      </trkpt>
      <trkpt lat="44.42006" lon="5.22431">
        <ele>585.459346</ele>
        <time>2023-08-12T20:34:42.386Z</time>
      </trkpt>
      <trkpt lat="44.42042" lon="5.22353">
        <ele>584.935399</ele>
        <time>2023-08-12T20:34:49.375Z</time>
      </trkpt>
      <trkpt lat="44.42054" lon="5.22341">
        <ele>584.813885</ele>
        <time>2023-08-12T20:34:50.606Z</time>
      </trkpt>
      <trkpt lat="44.42079" lon="5.22334">
        <ele>584.613608</ele>
        <time>2023-08-12T20:34:52.536Z</time>
      </trkpt>
      <trkpt lat="44.42107" lon="5.22303">
        <ele>583.926117</ele>
        <time>2023-08-12T20:34:55.086Z</time>
      </trkpt>
      <trkpt lat="44.42123" lon="5.22265">
        <ele>582.794597</ele>
        <time>2023-08-12T20:34:57.381Z</time>
      </trkpt>
      <trkpt lat="44.42141" lon="5.22238">
        <ele>581.859738</ele>
        <time>2023-08-12T20:34:59.343Z</time>
      </trkpt>
      <trkpt lat="44.42175" lon="5.22157">
        <ele>579.468634</ele>
        <time>2023-08-12T20:35:05.009Z</time>
      </trkpt>
      <trkpt lat="44.42185" lon="5.22147">
        <ele>579.038538</ele>
        <time>2023-08-12T20:35:06.509Z</time>
      </trkpt>
      <trkpt lat="44.42194" lon="5.22145">
        <ele>578.701309</ele>
        <time>2023-08-12T20:35:07.491Z</time>
      </trkpt>
      <trkpt lat="44.42221" lon="5.22157">
        <ele>577.752416</ele>
        <time>2023-08-12T20:35:10.087Z</time>
      </trkpt>
      <trkpt lat="44.42245" lon="5.22153">
        <ele>577.016274</ele>
        <time>2023-08-12T20:35:12.103Z</time>
      </trkpt>
      <trkpt lat="44.42263" lon="5.22168">
        <ele>576.377397</ele>
        <time>2023-08-12T20:35:13.930Z</time>
      </trkpt>
      <trkpt lat="44.42274" lon="5.22183">
        <ele>575.904678</ele>
        <time>2023-08-12T20:35:15.187Z</time>
      </trkpt>
      <trkpt lat="44.42287" lon="5.22192">
        <ele>575.470598</ele>
        <time>2023-08-12T20:35:16.446Z</time>
      </trkpt>
      <trkpt lat="44.42301" lon="5.22197">
        <ele>575.023866</ele>
        <time>2023-08-12T20:35:17.599Z</time>
      </trkpt>
      <trkpt lat="44.42311" lon="5.22206">
        <ele>574.662142</ele>
        <time>2023-08-12T20:35:18.580Z</time>
      </trkpt>
      <trkpt lat="44.42321" lon="5.22214">
        <ele>574.314672</ele>
        <time>2023-08-12T20:35:19.542Z</time>
      </trkpt>
      <trkpt lat="44.42347" lon="5.22213">
        <ele>573.5258</ele>
        <time>2023-08-12T20:35:21.609Z</time>
      </trkpt>
      <trkpt lat="44.4241" lon="5.22199">
        <ele>569.988544</ele>
        <time>2023-08-12T20:35:26.566Z</time>
      </trkpt>
      <trkpt lat="44.42418" lon="5.22199">
        <ele>569.30285</ele>
        <time>2023-08-12T20:35:27.237Z</time>
      </trkpt>
      <trkpt lat="44.42427" lon="5.22202">
        <ele>568.619812</ele>
        <time>2023-08-12T20:35:27.904Z</time>
      </trkpt>
      <trkpt lat="44.42447" lon="5.22227">
        <ele>566.516405</ele>
        <time>2023-08-12T20:35:29.844Z</time>
      </trkpt>
      <trkpt lat="44.42462" lon="5.22236">
        <ele>565.190479</ele>
        <time>2023-08-12T20:35:31.024Z</time>
      </trkpt>
      <trkpt lat="44.42475" lon="5.22241">
        <ele>564.147847</ele>
        <time>2023-08-12T20:35:31.923Z</time>
      </trkpt>
      <trkpt lat="44.42507" lon="5.22245">
        <ele>561.641021</ele>
        <time>2023-08-12T20:35:34.123Z</time>
      </trkpt>
      <trkpt lat="44.42512" lon="5.22243">
        <ele>561.193766</ele>
        <time>2023-08-12T20:35:34.520Z</time>
      </trkpt>
      <trkpt lat="44.42514" lon="5.22237">
        <ele>560.798966</ele>
        <time>2023-08-12T20:35:34.877Z</time>
      </trkpt>
      <trkpt lat="44.42512" lon="5.22232">
        <ele>560.496729</ele>
        <time>2023-08-12T20:35:35.158Z</time>
      </trkpt>
      <trkpt lat="44.4248" lon="5.22228">
        <ele>557.85027</ele>
        <time>2023-08-12T20:35:37.312Z</time>
      </trkpt>
      <trkpt lat="44.42444" lon="5.22198">
        <ele>553.208175</ele>
        <time>2023-08-12T20:35:40.223Z</time>
      </trkpt>
      <trkpt lat="44.42435" lon="5.22186">
        <ele>551.891109</ele>
        <time>2023-08-12T20:35:41.034Z</time>
      </trkpt>
      <trkpt lat="44.42433" lon="5.22178">
        <ele>551.268348</ele>
        <time>2023-08-12T20:35:41.410Z</time>
      </trkpt>
      <trkpt lat="44.42437" lon="5.22176">
        <ele>550.809052</ele>
        <time>2023-08-12T20:35:41.693Z</time>
      </trkpt>
      <trkpt lat="44.42455" lon="5.22193">
        <ele>548.470167</ele>
        <time>2023-08-12T20:35:43.179Z</time>
      </trkpt>
      <trkpt lat="44.42486" lon="5.22205">
        <ele>544.98334</ele>
        <time>2023-08-12T20:35:45.362Z</time>
      </trkpt>
      <trkpt lat="44.42506" lon="5.22198">
        <ele>542.706254</ele>
        <time>2023-08-12T20:35:46.767Z</time>
      </trkpt>
      <trkpt lat="44.42527" lon="5.22177">
        <ele>539.904731</ele>
        <time>2023-08-12T20:35:48.565Z</time>
      </trkpt>
      <trkpt lat="44.42535" lon="5.22173">
        <ele>539.065703</ele>
        <time>2023-08-12T20:35:49.088Z</time>
      </trkpt>
      <trkpt lat="44.42576" lon="5.22175">
        <ele>535.525694</ele>
        <time>2023-08-12T20:35:51.966Z</time>
      </trkpt>
      <trkpt lat="44.42592" lon="5.22171">
        <ele>534.138676</ele>
        <time>2023-08-12T20:35:53.126Z</time>
      </trkpt>
      <trkpt lat="44.426" lon="5.22173">
        <ele>533.402051</ele>
        <time>2023-08-12T20:35:53.721Z</time>
      </trkpt>
      <trkpt lat="44.42616" lon="5.22255">
        <ele>528.239023</ele>
        <time>2023-08-12T20:35:57.920Z</time>
      </trkpt>
      <trkpt lat="44.42622" lon="5.22308">
        <ele>524.975334</ele>
        <time>2023-08-12T20:36:00.681Z</time>
      </trkpt>
      <trkpt lat="44.42631" lon="5.22328">
        <ele>523.604839</ele>
        <time>2023-08-12T20:36:01.912Z</time>
      </trkpt>
      <trkpt lat="44.42666" lon="5.22355">
        <ele>519.546386</ele>
        <time>2023-08-12T20:36:04.927Z</time>
      </trkpt>
      <trkpt lat="44.42692" lon="5.22368">
        <ele>516.877912</ele>
        <time>2023-08-12T20:36:06.831Z</time>
      </trkpt>
      <trkpt lat="44.42695" lon="5.22378">
        <ele>516.036989</ele>
        <time>2023-08-12T20:36:07.415Z</time>
      </trkpt>
      <trkpt lat="44.42708" lon="5.22389">
        <ele>514.567127</ele>
        <time>2023-08-12T20:36:08.432Z</time>
      </trkpt>
      <trkpt lat="44.4271" lon="5.22383">
        <ele>514.094281</ele>
        <time>2023-08-12T20:36:08.762Z</time>
      </trkpt>
      <trkpt lat="44.4271" lon="5.22377">
        <ele>513.649574</ele>
        <time>2023-08-12T20:36:09.066Z</time>
      </trkpt>
      <trkpt lat="44.42674" lon="5.22327">
        <ele>508.641474</ele>
        <time>2023-08-12T20:36:12.455Z</time>
      </trkpt>
      <trkpt lat="44.42669" lon="5.22311">
        <ele>507.37344</ele>
        <time>2023-08-12T20:36:13.298Z</time>
      </trkpt>
      <trkpt lat="44.42667" lon="5.22305">
        <ele>506.927174</ele>
        <time>2023-08-12T20:36:13.595Z</time>
      </trkpt>
      <trkpt lat="44.42669" lon="5.22299">
        <ele>506.383687</ele>
        <time>2023-08-12T20:36:13.956Z</time>
      </trkpt>
      <trkpt lat="44.42681" lon="5.22289">
        <ele>504.934083</ele>
        <time>2023-08-12T20:36:14.868Z</time>
      </trkpt>
      <trkpt lat="44.42691" lon="5.22275">
        <ele>503.335195</ele>
        <time>2023-08-12T20:36:15.806Z</time>
      </trkpt>
      <trkpt lat="44.42695" lon="5.22258">
        <ele>501.867615</ele>
        <time>2023-08-12T20:36:16.671Z</time>
      </trkpt>
      <trkpt lat="44.42698" lon="5.22228">
        <ele>499.382349</ele>
        <time>2023-08-12T20:36:18.146Z</time>
      </trkpt>
      <trkpt lat="44.42693" lon="5.22184">
        <ele>495.774531</ele>
        <time>2023-08-12T20:36:20.312Z</time>
      </trkpt>
      <trkpt lat="44.42694" lon="5.22172">
        <ele>494.800743</ele>
        <time>2023-08-12T20:36:20.899Z</time>
      </trkpt>
      <trkpt lat="44.42713" lon="5.22133">
        <ele>490.889838</ele>
        <time>2023-08-12T20:36:23.233Z</time>
      </trkpt>
      <trkpt lat="44.42733" lon="5.22113">
        <ele>488.115855</ele>
        <time>2023-08-12T20:36:24.885Z</time>
      </trkpt>
      <trkpt lat="44.4274" lon="5.22119">
        <ele>487.295988</ele>
        <time>2023-08-12T20:36:25.373Z</time>
      </trkpt>
      <trkpt lat="44.42737" lon="5.22125">
        <ele>486.701947</ele>
        <time>2023-08-12T20:36:25.723Z</time>
      </trkpt>
      <trkpt lat="44.42717" lon="5.22152">
        <ele>483.669547</ele>
        <time>2023-08-12T20:36:27.681Z</time>
      </trkpt>
      <trkpt lat="44.42714" lon="5.22168">
        <ele>482.495122</ele>
        <time>2023-08-12T20:36:28.487Z</time>
      </trkpt>
      <trkpt lat="44.42713" lon="5.22184">
        <ele>481.316985</ele>
        <time>2023-08-12T20:36:29.307Z</time>
      </trkpt>
      <trkpt lat="44.42726" lon="5.22208">
        <ele>479.175949</ele>
        <time>2023-08-12T20:36:30.768Z</time>
      </trkpt>
      <trkpt lat="44.4273" lon="5.22225">
        <ele>477.868882</ele>
        <time>2023-08-12T20:36:31.666Z</time>
      </trkpt>
      <trkpt lat="44.42736" lon="5.22234">
        <ele>477.001481</ele>
        <time>2023-08-12T20:36:32.256Z</time>
      </trkpt>
      <trkpt lat="44.42742" lon="5.22235">
        <ele>476.335109</ele>
        <time>2023-08-12T20:36:32.700Z</time>
      </trkpt>
      <trkpt lat="44.42747" lon="5.22228">
        <ele>475.625838</ele>
        <time>2023-08-12T20:36:33.178Z</time>
      </trkpt>
      <trkpt lat="44.42743" lon="5.22213">
        <ele>474.478796</ele>
        <time>2023-08-12T20:36:33.976Z</time>
      </trkpt>
      <trkpt lat="44.42739" lon="5.22191">
        <ele>472.848206</ele>
        <time>2023-08-12T20:36:35.106Z</time>
      </trkpt>
      <trkpt lat="44.4274" lon="5.22174">
        <ele>471.590737</ele>
        <time>2023-08-12T20:36:35.957Z</time>
      </trkpt>
      <trkpt lat="44.42766" lon="5.22132">
        <ele>467.599658</ele>
        <time>2023-08-12T20:36:38.697Z</time>
      </trkpt>
      <trkpt lat="44.42774" lon="5.2211">
        <ele>466.04935</ele>
        <time>2023-08-12T20:36:39.901Z</time>
      </trkpt>
      <trkpt lat="44.42776" lon="5.22093">
        <ele>465.016279</ele>
        <time>2023-08-12T20:36:40.749Z</time>
      </trkpt>
      <trkpt lat="44.42763" lon="5.22044">
        <ele>461.929782</ele>
        <time>2023-08-12T20:36:43.348Z</time>
      </trkpt>
      <trkpt lat="44.4277" lon="5.2197">
        <ele>457.563883</ele>
        <time>2023-08-12T20:36:47.088Z</time>
      </trkpt>
      <trkpt lat="44.42777" lon="5.21973">
        <ele>457.031346</ele>
        <time>2023-08-12T20:36:47.545Z</time>
      </trkpt>
      <trkpt lat="44.42779" lon="5.21982">
        <ele>456.42778</ele>
        <time>2023-08-12T20:36:48.063Z</time>
      </trkpt>
      <trkpt lat="44.42782" lon="5.22039">
        <ele>453.1012</ele>
        <time>2023-08-12T20:36:50.961Z</time>
      </trkpt>
      <trkpt lat="44.42787" lon="5.22053">
        <ele>452.153802</ele>
        <time>2023-08-12T20:36:51.790Z</time>
      </trkpt>
      <trkpt lat="44.42805" lon="5.22082">
        <ele>449.980267</ele>
        <time>2023-08-12T20:36:53.757Z</time>
      </trkpt>
      <trkpt lat="44.42812" lon="5.22119">
        <ele>447.821544</ele>
        <time>2023-08-12T20:36:55.737Z</time>
      </trkpt>
      <trkpt lat="44.42815" lon="5.22174">
        <ele>444.625918</ele>
        <time>2023-08-12T20:36:58.565Z</time>
      </trkpt>
      <trkpt lat="44.42833" lon="5.2221">
        <ele>442.112108</ele>
        <time>2023-08-12T20:37:00.774Z</time>
      </trkpt>
      <trkpt lat="44.42839" lon="5.22211">
        <ele>441.615217</ele>
        <time>2023-08-12T20:37:01.200Z</time>
      </trkpt>
      <trkpt lat="44.42842" lon="5.22206">
        <ele>441.238506</ele>
        <time>2023-08-12T20:37:01.525Z</time>
      </trkpt>
      <trkpt lat="44.42836" lon="5.22169">
        <ele>439.101762</ele>
        <time>2023-08-12T20:37:03.405Z</time>
      </trkpt>
      <trkpt lat="44.42839" lon="5.22159">
        <ele>438.49379</ele>
        <time>2023-08-12T20:37:03.927Z</time>
      </trkpt>
      <trkpt lat="44.42858" lon="5.22141">
        <ele>436.635256</ele>
        <time>2023-08-12T20:37:05.495Z</time>
      </trkpt>
      <trkpt lat="44.42907" lon="5.2212">
        <ele>432.301753</ele>
        <time>2023-08-12T20:37:09.045Z</time>
      </trkpt>
      <trkpt lat="44.42922" lon="5.22123">
        <ele>431.024857</ele>
        <time>2023-08-12T20:37:10.101Z</time>
      </trkpt>
      <trkpt lat="44.42934" lon="5.22122">
        <ele>429.969749</ele>
        <time>2023-08-12T20:37:10.966Z</time>
      </trkpt>
      <trkpt lat="44.42944" lon="5.22113">
        <ele>428.979813</ele>
        <time>2023-08-12T20:37:11.776Z</time>
      </trkpt>
      <trkpt lat="44.4293" lon="5.2207">
        <ele>426.092743</ele>
        <time>2023-08-12T20:37:14.169Z</time>
      </trkpt>
      <trkpt lat="44.42904" lon="5.22023">
        <ele>422.588758</ele>
        <time>2023-08-12T20:37:17.162Z</time>
      </trkpt>
      <trkpt lat="44.42895" lon="5.22003">
        <ele>422.112654</ele>
        <time>2023-08-12T20:37:18.445Z</time>
      </trkpt>
      <trkpt lat="44.42876" lon="5.21911">
        <ele>420.214398</ele>
        <time>2023-08-12T20:37:23.940Z</time>
      </trkpt>
      <trkpt lat="44.42864" lon="5.21872">
        <ele>419.390286</ele>
        <time>2023-08-12T20:37:26.582Z</time>
      </trkpt>
      <trkpt lat="44.42852" lon="5.21847">
        <ele>418.798634</ele>
        <time>2023-08-12T20:37:28.575Z</time>
      </trkpt>
      <trkpt lat="44.42843" lon="5.21836">
        <ele>418.470669</ele>
        <time>2023-08-12T20:37:29.744Z</time>
      </trkpt>
      <trkpt lat="44.42786" lon="5.21772">
        <ele>418.40263</ele>
        <time>2023-08-12T20:37:38.610Z</time>
      </trkpt>
      <trkpt lat="44.42777" lon="5.21748">
        <ele>418.734585</ele>
        <time>2023-08-12T20:37:41.580Z</time>
      </trkpt>
      <trkpt lat="44.42864" lon="5.2171">
        <ele>420.31967</ele>
        <time>2023-08-12T20:37:59.182Z</time>
      </trkpt>
      <trkpt lat="44.42873" lon="5.21706">
        <ele>420.490317</ele>
        <time>2023-08-12T20:38:01.380Z</time>
      </trkpt>
      <trkpt lat="44.42905" lon="5.21678">
        <ele>421.384054</ele>
        <time>2023-08-12T20:38:10.164Z</time>
      </trkpt>
      <trkpt lat="44.43104" lon="5.21457">
        <ele>430.145045</ele>
        <time>2023-08-12T20:39:03.057Z</time>
      </trkpt>
      <trkpt lat="44.43243" lon="5.21329">
        <ele>439.484898</ele>
        <time>2023-08-12T20:39:56.016Z</time>
      </trkpt>
      <trkpt lat="44.43269" lon="5.21314">
        <ele>441.382169</ele>
        <time>2023-08-12T20:40:07.381Z</time>
      </trkpt>
      <trkpt lat="44.43319" lon="5.21291">
        <ele>444.959858</ele>
        <time>2023-08-12T20:40:26.488Z</time>
      </trkpt>
      <trkpt lat="44.43344" lon="5.21287">
        <ele>446.458524</ele>
        <time>2023-08-12T20:40:34.796Z</time>
      </trkpt>
      <trkpt lat="44.43394" lon="5.21288">
        <ele>448.284088</ele>
        <time>2023-08-12T20:40:48.874Z</time>
      </trkpt>
      <trkpt lat="44.43411" lon="5.21285">
        <ele>448.880716</ele>
        <time>2023-08-12T20:40:52.754Z</time>
      </trkpt>
      <trkpt lat="44.435" lon="5.21236">
        <ele>452.359341</ele>
        <time>2023-08-12T20:41:13.330Z</time>
      </trkpt>
      <trkpt lat="44.43513" lon="5.21229">
        <ele>452.745938</ele>
        <time>2023-08-12T20:41:15.362Z</time>
      </trkpt>
      <trkpt lat="44.43522" lon="5.21224">
        <ele>452.812471</ele>
        <time>2023-08-12T20:41:16.829Z</time>
      </trkpt>
      <trkpt lat="44.43527" lon="5.21221">
        <ele>452.850511</ele>
        <time>2023-08-12T20:41:17.665Z</time>
      </trkpt>
      <trkpt lat="44.43544" lon="5.21211">
        <ele>452.980768</ele>
        <time>2023-08-12T20:41:19.804Z</time>
      </trkpt>
      <trkpt lat="44.43574" lon="5.21198">
        <ele>453.204108</ele>
        <time>2023-08-12T20:41:23.085Z</time>
      </trkpt>
      <trkpt lat="44.43639" lon="5.21179">
        <ele>453.675882</ele>
        <time>2023-08-12T20:41:30.677Z</time>
      </trkpt>
      <trkpt lat="44.43673" lon="5.21161">
        <ele>453.927978</ele>
        <time>2023-08-12T20:41:35.867Z</time>
      </trkpt>
      <trkpt lat="44.43692" lon="5.21138">
        <ele>454.550312</ele>
        <time>2023-08-12T20:41:40.544Z</time>
      </trkpt>
      <trkpt lat="44.43729" lon="5.21077">
        <ele>456.470969</ele>
        <time>2023-08-12T20:41:52.076Z</time>
      </trkpt>
      <trkpt lat="44.43736" lon="5.21069">
        <ele>456.804782</ele>
        <time>2023-08-12T20:41:54.374Z</time>
      </trkpt>
      <trkpt lat="44.43778" lon="5.2102">
        <ele>458.657347</ele>
        <time>2023-08-12T20:42:07.248Z</time>
      </trkpt>
      <trkpt lat="44.43809" lon="5.20979">
        <ele>460.11211</ele>
        <time>2023-08-12T20:42:18.490Z</time>
      </trkpt>
      <trkpt lat="44.43835" lon="5.20962">
        <ele>461.837742</ele>
        <time>2023-08-12T20:42:26.855Z</time>
      </trkpt>
      <trkpt lat="44.4386" lon="5.20954">
        <ele>463.33417</ele>
        <time>2023-08-12T20:42:34.840Z</time>
      </trkpt>
      <trkpt lat="44.43881" lon="5.20957">
        <ele>464.625482</ele>
        <time>2023-08-12T20:42:42.215Z</time>
      </trkpt>
      <trkpt lat="44.43912" lon="5.20962">
        <ele>466.518577</ele>
        <time>2023-08-12T20:42:53.169Z</time>
      </trkpt>
      <trkpt lat="44.43981" lon="5.20947">
        <ele>470.709834</ele>
        <time>2023-08-12T20:43:17.427Z</time>
      </trkpt>
      <trkpt lat="44.4409" lon="5.20956">
        <ele>474.213067</ele>
        <time>2023-08-12T20:43:41.969Z</time>
      </trkpt>
      <trkpt lat="44.44112" lon="5.20954">
        <ele>474.911066</ele>
        <time>2023-08-12T20:43:46.155Z</time>
      </trkpt>
      <trkpt lat="44.44131" lon="5.20938">
        <ele>475.585028</ele>
        <time>2023-08-12T20:43:50.636Z</time>
      </trkpt>
      <trkpt lat="44.44165" lon="5.2091">
        <ele>476.888865</ele>
        <time>2023-08-12T20:43:58.926Z</time>
      </trkpt>
      <trkpt lat="44.44176" lon="5.20907">
        <ele>477.317831</ele>
        <time>2023-08-12T20:44:01.120Z</time>
      </trkpt>
      <trkpt lat="44.4419" lon="5.20908">
        <ele>477.864164</ele>
        <time>2023-08-12T20:44:03.419Z</time>
      </trkpt>
      <trkpt lat="44.44201" lon="5.20912">
        <ele>478.325041</ele>
        <time>2023-08-12T20:44:05.257Z</time>
      </trkpt>
      <trkpt lat="44.44293" lon="5.20968">
        <ele>482.158999</ele>
        <time>2023-08-12T20:44:26.151Z</time>
      </trkpt>
      <trkpt lat="44.44306" lon="5.20971">
        <ele>482.668216</ele>
        <time>2023-08-12T20:44:30.403Z</time>
      </trkpt>
      <trkpt lat="44.44373" lon="5.20977">
        <ele>488.512834</ele>
        <time>2023-08-12T20:44:57.864Z</time>
      </trkpt>
      <trkpt lat="44.44391" lon="5.20981">
        <ele>490.416253</ele>
        <time>2023-08-12T20:45:05.933Z</time>
      </trkpt>
      <trkpt lat="44.44439" lon="5.21004">
        <ele>495.84322</ele>
        <time>2023-08-12T20:45:30.514Z</time>
      </trkpt>
      <trkpt lat="44.44466" lon="5.21027">
        <ele>499.164504</ele>
        <time>2023-08-12T20:45:46.894Z</time>
      </trkpt>
      <trkpt lat="44.4451" lon="5.21084">
        <ele>505.793909</ele>
        <time>2023-08-12T20:46:18.593Z</time>
      </trkpt>
      <trkpt lat="44.44524" lon="5.21106">
        <ele>508.226625</ele>
        <time>2023-08-12T20:46:29.532Z</time>
      </trkpt>
      <trkpt lat="44.44547" lon="5.21167">
        <ele>513.899079</ele>
        <time>2023-08-12T20:46:53.444Z</time>
      </trkpt>
      <trkpt lat="44.44562" lon="5.21196">
        <ele>516.815095</ele>
        <time>2023-08-12T20:47:05.299Z</time>
      </trkpt>
      <trkpt lat="44.44589" lon="5.21237">
        <ele>521.428295</ele>
        <time>2023-08-12T20:47:23.688Z</time>
      </trkpt>
      <trkpt lat="44.44609" lon="5.2125">
        <ele>524.111103</ele>
        <time>2023-08-12T20:47:33.729Z</time>
      </trkpt>
      <trkpt lat="44.4463" lon="5.21248">
        <ele>526.954318</ele>
        <time>2023-08-12T20:47:43.339Z</time>
      </trkpt>
      <trkpt lat="44.44663" lon="5.21229">
        <ele>531.908324</ele>
        <time>2023-08-12T20:48:00.523Z</time>
      </trkpt>
      <trkpt lat="44.44678" lon="5.21229">
        <ele>533.998048</ele>
        <time>2023-08-12T20:48:08.089Z</time>
      </trkpt>
      <trkpt lat="44.44701" lon="5.21213">
        <ele>537.594389</ele>
        <time>2023-08-12T20:48:21.716Z</time>
      </trkpt>
      <trkpt lat="44.44719" lon="5.21196">
        <ele>540.564407</ele>
        <time>2023-08-12T20:48:33.921Z</time>
      </trkpt>
      <trkpt lat="44.44759" lon="5.21185">
        <ele>546.128403</ele>
        <time>2023-08-12T20:48:59.192Z</time>
      </trkpt>
      <trkpt lat="44.448" lon="5.21163">
        <ele>552.999715</ele>
        <time>2023-08-12T20:49:31.534Z</time>
      </trkpt>
      <trkpt lat="44.44831" lon="5.21158">
        <ele>558.01417</ele>
        <time>2023-08-12T20:49:57.199Z</time>
      </trkpt>
      <trkpt lat="44.4492" lon="5.21184">
        <ele>572.843396</ele>
        <time>2023-08-12T20:51:00.022Z</time>
      </trkpt>
      <trkpt lat="44.44932" lon="5.21193">
        <ele>575.166723</ele>
        <time>2023-08-12T20:51:07.434Z</time>
      </trkpt>
      <trkpt lat="44.4494" lon="5.21206">
        <ele>577.048121</ele>
        <time>2023-08-12T20:51:12.593Z</time>
      </trkpt>
      <trkpt lat="44.44956" lon="5.21227">
        <ele>577.746637</ele>
        <time>2023-08-12T20:51:21.665Z</time>
      </trkpt>
      <trkpt lat="44.44967" lon="5.21232">
        <ele>577.935456</ele>
        <time>2023-08-12T20:51:25.348Z</time>
      </trkpt>
      <trkpt lat="44.45009" lon="5.21235">
        <ele>578.608237</ele>
        <time>2023-08-12T20:51:35.101Z</time>
      </trkpt>
      <trkpt lat="44.45041" lon="5.21241">
        <ele>579.126023</ele>
        <time>2023-08-12T20:51:39.219Z</time>
      </trkpt>
      <trkpt lat="44.45048" lon="5.21239">
        <ele>579.238552</ele>
        <time>2023-08-12T20:51:39.849Z</time>
      </trkpt>
      <trkpt lat="44.45079" lon="5.21195">
        <ele>579.95162</ele>
        <time>2023-08-12T20:51:43.481Z</time>
      </trkpt>
      <trkpt lat="44.45111" lon="5.2116">
        <ele>579.792281</ele>
        <time>2023-08-12T20:51:46.404Z</time>
      </trkpt>
      <trkpt lat="44.45124" lon="5.21154">
        <ele>579.367195</ele>
        <time>2023-08-12T20:51:47.454Z</time>
      </trkpt>
      <trkpt lat="44.45135" lon="5.21154">
        <ele>579.024342</ele>
        <time>2023-08-12T20:51:48.297Z</time>
      </trkpt>
      <trkpt lat="44.45198" lon="5.21169">
        <ele>577.107328</ele>
        <time>2023-08-12T20:51:53.378Z</time>
      </trkpt>
      <trkpt lat="44.45224" lon="5.21181">
        <ele>576.278739</ele>
        <time>2023-08-12T20:51:55.869Z</time>
      </trkpt>
      <trkpt lat="44.45256" lon="5.21207">
        <ele>575.172226</ele>
        <time>2023-08-12T20:51:59.488Z</time>
      </trkpt>
      <trkpt lat="44.45272" lon="5.21228">
        <ele>574.489412</ele>
        <time>2023-08-12T20:52:01.729Z</time>
      </trkpt>
      <trkpt lat="44.45284" lon="5.21228">
        <ele>574.091693</ele>
        <time>2023-08-12T20:52:03.005Z</time>
      </trkpt>
      <trkpt lat="44.45297" lon="5.21225">
        <ele>573.654639</ele>
        <time>2023-08-12T20:52:04.263Z</time>
      </trkpt>
      <trkpt lat="44.45308" lon="5.21218">
        <ele>573.25619</ele>
        <time>2023-08-12T20:52:05.372Z</time>
      </trkpt>
      <trkpt lat="44.45324" lon="5.21203">
        <ele>572.632917</ele>
        <time>2023-08-12T20:52:07.008Z</time>
      </trkpt>
      <trkpt lat="44.45376" lon="5.21175">
        <ele>570.805148</ele>
        <time>2023-08-12T20:52:11.481Z</time>
      </trkpt>
      <trkpt lat="44.45403" lon="5.21164">
        <ele>569.884182</ele>
        <time>2023-08-12T20:52:13.584Z</time>
      </trkpt>
      <trkpt lat="44.45465" lon="5.21116">
        <ele>567.624816</ele>
        <time>2023-08-12T20:52:18.852Z</time>
      </trkpt>
      <trkpt lat="44.45528" lon="5.211">
        <ele>565.670074</ele>
        <time>2023-08-12T20:52:23.718Z</time>
      </trkpt>
      <trkpt lat="44.45553" lon="5.21088">
        <ele>564.857694</ele>
        <time>2023-08-12T20:52:25.938Z</time>
      </trkpt>
      <trkpt lat="44.45568" lon="5.21086">
        <ele>564.420293</ele>
        <time>2023-08-12T20:52:27.183Z</time>
      </trkpt>
      <trkpt lat="44.45702" lon="5.21104">
        <ele>566.663892</ele>
        <time>2023-08-12T20:52:50.952Z</time>
      </trkpt>
      <trkpt lat="44.45732" lon="5.21113">
        <ele>567.610232</ele>
        <time>2023-08-12T20:52:59.207Z</time>
      </trkpt>
      <trkpt lat="44.45788" lon="5.21137">
        <ele>569.933314</ele>
        <time>2023-08-12T20:53:16.287Z</time>
      </trkpt>
      <trkpt lat="44.45801" lon="5.21137">
        <ele>570.795039</ele>
        <time>2023-08-12T20:53:20.047Z</time>
      </trkpt>
      <trkpt lat="44.45849" lon="5.21125">
        <ele>574.185188</ele>
        <time>2023-08-12T20:53:36.078Z</time>
      </trkpt>
      <trkpt lat="44.459" lon="5.21128">
        <ele>577.781751</ele>
        <time>2023-08-12T20:53:54.526Z</time>
      </trkpt>
      <trkpt lat="44.45942" lon="5.21128">
        <ele>580.693547</ele>
        <time>2023-08-12T20:54:10.169Z</time>
      </trkpt>
      <trkpt lat="44.45959" lon="5.21126">
        <ele>581.863329</ele>
        <time>2023-08-12T20:54:16.420Z</time>
      </trkpt>
      <trkpt lat="44.46012" lon="5.21109">
        <ele>585.895627</ele>
        <time>2023-08-12T20:54:36.406Z</time>
      </trkpt>
      <trkpt lat="44.46066" lon="5.2108">
        <ele>590.156242</ele>
        <time>2023-08-12T20:54:56.455Z</time>
      </trkpt>
      <trkpt lat="44.46089" lon="5.21074">
        <ele>591.837009</ele>
        <time>2023-08-12T20:55:04.096Z</time>
      </trkpt>
      <trkpt lat="44.46118" lon="5.21072">
        <ele>594.034178</ele>
        <time>2023-08-12T20:55:14.148Z</time>
      </trkpt>
      <trkpt lat="44.46168" lon="5.21082">
        <ele>598.446006</ele>
        <time>2023-08-12T20:55:31.741Z</time>
      </trkpt>
      <trkpt lat="44.46237" lon="5.21115">
        <ele>605.06069</ele>
        <time>2023-08-12T20:56:01.658Z</time>
      </trkpt>
      <trkpt lat="44.46255" lon="5.21126">
        <ele>606.852946</ele>
        <time>2023-08-12T20:56:10.567Z</time>
      </trkpt>
      <trkpt lat="44.46307" lon="5.2117">
        <ele>612.330668</ele>
        <time>2023-08-12T20:56:38.842Z</time>
      </trkpt>
      <trkpt lat="44.46324" lon="5.21189">
        <ele>614.195303</ele>
        <time>2023-08-12T20:56:48.682Z</time>
      </trkpt>
      <trkpt lat="44.46337" lon="5.21205">
        <ele>615.674932</ele>
        <time>2023-08-12T20:56:56.069Z</time>
      </trkpt>
      <trkpt lat="44.46352" lon="5.21232">
        <ele>617.77655</ele>
        <time>2023-08-12T20:57:06.299Z</time>
      </trkpt>
      <trkpt lat="44.46365" lon="5.21247">
        <ele>619.228067</ele>
        <time>2023-08-12T20:57:12.936Z</time>
      </trkpt>
      <trkpt lat="44.46378" lon="5.21252">
        <ele>620.381087</ele>
        <time>2023-08-12T20:57:18.319Z</time>
      </trkpt>
      <trkpt lat="44.46425" lon="5.21256">
        <ele>624.389928</ele>
        <time>2023-08-12T20:57:35.433Z</time>
      </trkpt>
      <trkpt lat="44.46504" lon="5.21281">
        <ele>628.947069</ele>
        <time>2023-08-12T20:58:01.501Z</time>
      </trkpt>
      <trkpt lat="44.46525" lon="5.21278">
        <ele>629.855776</ele>
        <time>2023-08-12T20:58:06.852Z</time>
      </trkpt>
      <trkpt lat="44.46558" lon="5.21285">
        <ele>631.291032</ele>
        <time>2023-08-12T20:58:14.589Z</time>
      </trkpt>
      <trkpt lat="44.46613" lon="5.21306">
        <ele>633.732401</ele>
        <time>2023-08-12T20:58:26.898Z</time>
      </trkpt>
      <trkpt lat="44.46645" lon="5.21315">
        <ele>634.604098</ele>
        <time>2023-08-12T20:58:33.584Z</time>
      </trkpt>
      <trkpt lat="44.46749" lon="5.2135">
        <ele>636.344942</ele>
        <time>2023-08-12T20:58:51.843Z</time>
      </trkpt>
      <trkpt lat="44.46843" lon="5.21368">
        <ele>638.333673</ele>
        <time>2023-08-12T20:59:05.596Z</time>
      </trkpt>
      <trkpt lat="44.46883" lon="5.21375">
        <ele>639.380231</ele>
        <time>2023-08-12T20:59:12.283Z</time>
      </trkpt>
      <trkpt lat="44.4689" lon="5.21376">
        <ele>639.573207</ele>
        <time>2023-08-12T20:59:13.919Z</time>
      </trkpt>
      <trkpt lat="44.47035" lon="5.21411">
        <ele>644.7963</ele>
        <time>2023-08-12T20:59:49.642Z</time>
      </trkpt>
      <trkpt lat="44.47074" lon="5.21422">
        <ele>646.801671</ele>
        <time>2023-08-12T21:00:01.688Z</time>
      </trkpt>
      <trkpt lat="44.47105" lon="5.21436">
        <ele>648.45974</ele>
        <time>2023-08-12T21:00:11.333Z</time>
      </trkpt>
      <trkpt lat="44.47132" lon="5.21442">
        <ele>649.825186</ele>
        <time>2023-08-12T21:00:19.143Z</time>
      </trkpt>
      <trkpt lat="44.47199" lon="5.21447">
        <ele>653.651809</ele>
        <time>2023-08-12T21:00:39.141Z</time>
      </trkpt>
      <trkpt lat="44.4726" lon="5.21457">
        <ele>657.329831</ele>
        <time>2023-08-12T21:00:58.375Z</time>
      </trkpt>
      <trkpt lat="44.47272" lon="5.21465">
        <ele>658.149054</ele>
        <time>2023-08-12T21:01:02.670Z</time>
      </trkpt>
      <trkpt lat="44.47303" lon="5.21502">
        <ele>660.612624</ele>
        <time>2023-08-12T21:01:16.112Z</time>
      </trkpt>
      <trkpt lat="44.47336" lon="5.21517">
        <ele>662.439932</ele>
        <time>2023-08-12T21:01:27.431Z</time>
      </trkpt>
      <trkpt lat="44.47352" lon="5.21528">
        <ele>663.237993</ele>
        <time>2023-08-12T21:01:33.572Z</time>
      </trkpt>
      <trkpt lat="44.47413" lon="5.21588">
        <ele>666.382921</ele>
        <time>2023-08-12T21:01:54.498Z</time>
      </trkpt>
      <trkpt lat="44.47439" lon="5.21625">
        <ele>667.957988</ele>
        <time>2023-08-12T21:02:02.722Z</time>
      </trkpt>
      <trkpt lat="44.47455" lon="5.21643">
        <ele>668.83539</ele>
        <time>2023-08-12T21:02:06.365Z</time>
      </trkpt>
      <trkpt lat="44.47594" lon="5.21728">
        <ele>671.825509</ele>
        <time>2023-08-12T21:02:31.009Z</time>
      </trkpt>
      <trkpt lat="44.47628" lon="5.21752">
        <ele>672.465487</ele>
        <time>2023-08-12T21:02:37.552Z</time>
      </trkpt>
      <trkpt lat="44.47672" lon="5.21792">
        <ele>674.092976</ele>
        <time>2023-08-12T21:02:47.994Z</time>
      </trkpt>
      <trkpt lat="44.47678" lon="5.21799">
        <ele>674.34134</ele>
        <time>2023-08-12T21:02:49.630Z</time>
      </trkpt>
      <trkpt lat="44.4771" lon="5.21865">
        <ele>676.20258</ele>
        <time>2023-08-12T21:03:02.362Z</time>
      </trkpt>
      <trkpt lat="44.47726" lon="5.21868">
        <ele>676.747489</ele>
        <time>2023-08-12T21:03:06.391Z</time>
      </trkpt>
      <trkpt lat="44.47804" lon="5.21863">
        <ele>679.753109</ele>
        <time>2023-08-12T21:03:25.979Z</time>
      </trkpt>
      <trkpt lat="44.47828" lon="5.2187">
        <ele>680.984065</ele>
        <time>2023-08-12T21:03:32.114Z</time>
      </trkpt>
      <trkpt lat="44.47865" lon="5.21895">
        <ele>682.998474</ele>
        <time>2023-08-12T21:03:42.574Z</time>
      </trkpt>
      <trkpt lat="44.47879" lon="5.21899">
        <ele>683.716801</ele>
        <time>2023-08-12T21:03:46.542Z</time>
      </trkpt>
      <trkpt lat="44.47892" lon="5.21899">
        <ele>684.39179</ele>
        <time>2023-08-12T21:03:50.335Z</time>
      </trkpt>
      <trkpt lat="44.47933" lon="5.21884">
        <ele>686.520408</ele>
        <time>2023-08-12T21:04:02.779Z</time>
      </trkpt>
      <trkpt lat="44.48036" lon="5.21877">
        <ele>693.34842</ele>
        <time>2023-08-12T21:04:37.151Z</time>
      </trkpt>
      <trkpt lat="44.48062" lon="5.21884">
        <ele>695.202377</ele>
        <time>2023-08-12T21:04:46.638Z</time>
      </trkpt>
      <trkpt lat="44.48102" lon="5.219">
        <ele>698.127674</ele>
        <time>2023-08-12T21:05:01.753Z</time>
      </trkpt>
      <trkpt lat="44.48146" lon="5.21907">
        <ele>701.243881</ele>
        <time>2023-08-12T21:05:17.652Z</time>
      </trkpt>
      <trkpt lat="44.4816" lon="5.21912">
        <ele>702.232822</ele>
        <time>2023-08-12T21:05:22.668Z</time>
      </trkpt>
      <trkpt lat="44.48175" lon="5.21923">
        <ele>703.390648</ele>
        <time>2023-08-12T21:05:28.603Z</time>
      </trkpt>
      <trkpt lat="44.48201" lon="5.21952">
        <ele>705.698016</ele>
        <time>2023-08-12T21:05:40.243Z</time>
      </trkpt>
      <trkpt lat="44.48214" lon="5.2196">
        <ele>706.688702</ele>
        <time>2023-08-12T21:05:45.211Z</time>
      </trkpt>
      <trkpt lat="44.48236" lon="5.21962">
        <ele>708.232073</ele>
        <time>2023-08-12T21:05:52.782Z</time>
      </trkpt>
      <trkpt lat="44.48268" lon="5.21959">
        <ele>710.419994</ele>
        <time>2023-08-12T21:06:03.233Z</time>
      </trkpt>
      <trkpt lat="44.48281" lon="5.21953">
        <ele>711.342639</ele>
        <time>2023-08-12T21:06:07.632Z</time>
      </trkpt>
      <trkpt lat="44.48354" lon="5.21897">
        <ele>716.761855</ele>
        <time>2023-08-12T21:06:33.748Z</time>
      </trkpt>
      <trkpt lat="44.48379" lon="5.21883">
        <ele>718.528591</ele>
        <time>2023-08-12T21:06:42.153Z</time>
      </trkpt>
      <trkpt lat="44.4843" lon="5.21864">
        <ele>721.864567</ele>
        <time>2023-08-12T21:06:58.490Z</time>
      </trkpt>
      <trkpt lat="44.48461" lon="5.21839">
        <ele>724.1549</ele>
        <time>2023-08-12T21:07:10.679Z</time>
      </trkpt>
      <trkpt lat="44.48472" lon="5.21836">
        <ele>724.903265</ele>
        <time>2023-08-12T21:07:14.844Z</time>
      </trkpt>
      <trkpt lat="44.48481" lon="5.21839">
        <ele>725.471843</ele>
        <time>2023-08-12T21:07:18.256Z</time>
      </trkpt>
      <trkpt lat="44.4849" lon="5.21849">
        <ele>726.210306</ele>
        <time>2023-08-12T21:07:23.013Z</time>
      </trkpt>
      <trkpt lat="44.48495" lon="5.21869">
        <ele>727.184549</ele>
        <time>2023-08-12T21:07:28.233Z</time>
      </trkpt>
      <trkpt lat="44.48494" lon="5.21887">
        <ele>728.017092</ele>
        <time>2023-08-12T21:07:32.867Z</time>
      </trkpt>
      <trkpt lat="44.48485" lon="5.21917">
        <ele>729.523633</ele>
        <time>2023-08-12T21:07:40.846Z</time>
      </trkpt>
      <trkpt lat="44.48486" lon="5.21938">
        <ele>730.51206</ele>
        <time>2023-08-12T21:07:46.018Z</time>
      </trkpt>
      <trkpt lat="44.48492" lon="5.21972">
        <ele>732.146577</ele>
        <time>2023-08-12T21:07:53.845Z</time>
      </trkpt>
      <trkpt lat="44.48492" lon="5.21988">
        <ele>732.869931</ele>
        <time>2023-08-12T21:07:57.505Z</time>
      </trkpt>
      <trkpt lat="44.48487" lon="5.22015">
        <ele>734.16915</ele>
        <time>2023-08-12T21:08:03.353Z</time>
      </trkpt>
      <trkpt lat="44.48488" lon="5.22028">
        <ele>734.793883</ele>
        <time>2023-08-12T21:08:06.029Z</time>
      </trkpt>
      <trkpt lat="44.48493" lon="5.22036">
        <ele>735.253286</ele>
        <time>2023-08-12T21:08:08.304Z</time>
      </trkpt>
      <trkpt lat="44.485" lon="5.22038">
        <ele>735.728866</ele>
        <time>2023-08-12T21:08:10.666Z</time>
      </trkpt>
      <trkpt lat="44.48505" lon="5.22033">
        <ele>736.009609</ele>
        <time>2023-08-12T21:08:12.285Z</time>
      </trkpt>
      <trkpt lat="44.48535" lon="5.21966">
        <ele>738.546973</ele>
        <time>2023-08-12T21:08:27.355Z</time>
      </trkpt>
      <trkpt lat="44.48576" lon="5.21902">
        <ele>741.330905</ele>
        <time>2023-08-12T21:08:43.323Z</time>
      </trkpt>
      <trkpt lat="44.48581" lon="5.21885">
        <ele>741.918856</ele>
        <time>2023-08-12T21:08:46.759Z</time>
      </trkpt>
      <trkpt lat="44.48578" lon="5.21837">
        <ele>743.490927</ele>
        <time>2023-08-12T21:08:54.228Z</time>
      </trkpt>
      <trkpt lat="44.4858" lon="5.21815">
        <ele>744.345995</ele>
        <time>2023-08-12T21:08:57.756Z</time>
      </trkpt>
      <trkpt lat="44.48588" lon="5.21792">
        <ele>745.546085</ele>
        <time>2023-08-12T21:09:02.286Z</time>
      </trkpt>
      <trkpt lat="44.48603" lon="5.21767">
        <ele>747.114599</ele>
        <time>2023-08-12T21:09:09.086Z</time>
      </trkpt>
      <trkpt lat="44.48612" lon="5.21765">
        <ele>747.727557</ele>
        <time>2023-08-12T21:09:12.047Z</time>
      </trkpt>
      <trkpt lat="44.48619" lon="5.21771">
        <ele>748.304747</ele>
        <time>2023-08-12T21:09:14.995Z</time>
      </trkpt>
      <trkpt lat="44.48623" lon="5.21782">
        <ele>748.897079</ele>
        <time>2023-08-12T21:09:18.099Z</time>
      </trkpt>
      <trkpt lat="44.48624" lon="5.21821">
        <ele>750.728474</ele>
        <time>2023-08-12T21:09:28.013Z</time>
      </trkpt>
      <trkpt lat="44.4863" lon="5.21838">
        <ele>751.591278</ele>
        <time>2023-08-12T21:09:32.950Z</time>
      </trkpt>
      <trkpt lat="44.48642" lon="5.21862">
        <ele>753.01958</ele>
        <time>2023-08-12T21:09:41.233Z</time>
      </trkpt>
      <trkpt lat="44.48645" lon="5.21877">
        <ele>753.751186</ele>
        <time>2023-08-12T21:09:45.582Z</time>
      </trkpt>
      <trkpt lat="44.48643" lon="5.21889">
        <ele>754.319218</ele>
        <time>2023-08-12T21:09:48.804Z</time>
      </trkpt>
      <trkpt lat="44.48616" lon="5.21944">
        <ele>757.52858</ele>
        <time>2023-08-12T21:10:06.471Z</time>
      </trkpt>
      <trkpt lat="44.48612" lon="5.21965">
        <ele>758.550045</ele>
        <time>2023-08-12T21:10:12.097Z</time>
      </trkpt>
      <trkpt lat="44.48611" lon="5.21984">
        <ele>759.485727</ele>
        <time>2023-08-12T21:10:16.866Z</time>
      </trkpt>
      <trkpt lat="44.48612" lon="5.22011">
        <ele>760.799592</ele>
        <time>2023-08-12T21:10:23.562Z</time>
      </trkpt>
      <trkpt lat="44.48616" lon="5.22018">
        <ele>761.256507</ele>
        <time>2023-08-12T21:10:25.897Z</time>
      </trkpt>
      <trkpt lat="44.48625" lon="5.2202">
        <ele>761.833175</ele>
        <time>2023-08-12T21:10:28.708Z</time>
      </trkpt>
      <trkpt lat="44.4863" lon="5.22016">
        <ele>762.221124</ele>
        <time>2023-08-12T21:10:30.553Z</time>
      </trkpt>
      <trkpt lat="44.48635" lon="5.22007">
        <ele>762.75093</ele>
        <time>2023-08-12T21:10:33.131Z</time>
      </trkpt>
      <trkpt lat="44.4864" lon="5.2198">
        <ele>764.086636</ele>
        <time>2023-08-12T21:10:39.824Z</time>
      </trkpt>
      <trkpt lat="44.48652" lon="5.21948">
        <ele>765.850341</ele>
        <time>2023-08-12T21:10:48.463Z</time>
      </trkpt>
      <trkpt lat="44.48668" lon="5.21922">
        <ele>767.468589</ele>
        <time>2023-08-12T21:10:55.695Z</time>
      </trkpt>
      <trkpt lat="44.487" lon="5.2188">
        <ele>770.105505</ele>
        <time>2023-08-12T21:11:08.354Z</time>
      </trkpt>
      <trkpt lat="44.48748" lon="5.21839">
        <ele>773.364476</ele>
        <time>2023-08-12T21:11:23.535Z</time>
      </trkpt>
      <trkpt lat="44.488" lon="5.21749">
        <ele>778.171264</ele>
        <time>2023-08-12T21:11:49.497Z</time>
      </trkpt>
      <trkpt lat="44.48845" lon="5.21692">
        <ele>781.794377</ele>
        <time>2023-08-12T21:12:11.410Z</time>
      </trkpt>
      <trkpt lat="44.48876" lon="5.21637">
        <ele>784.812535</ele>
        <time>2023-08-12T21:12:28.463Z</time>
      </trkpt>
      <trkpt lat="44.48899" lon="5.21617">
        <ele>786.418242</ele>
        <time>2023-08-12T21:12:36.720Z</time>
      </trkpt>
      <trkpt lat="44.48918" lon="5.21605">
        <ele>787.666123</ele>
        <time>2023-08-12T21:12:42.777Z</time>
      </trkpt>
      <trkpt lat="44.48926" lon="5.216">
        <ele>788.202981</ele>
        <time>2023-08-12T21:12:45.168Z</time>
      </trkpt>
      <trkpt lat="44.48942" lon="5.21596">
        <ele>789.158426</ele>
        <time>2023-08-12T21:12:49.255Z</time>
      </trkpt>
      <trkpt lat="44.48953" lon="5.21599">
        <ele>789.139649</ele>
        <time>2023-08-12T21:12:51.993Z</time>
      </trkpt>
      <trkpt lat="44.48963" lon="5.21607">
        <ele>789.08172</ele>
        <time>2023-08-12T21:12:54.660Z</time>
      </trkpt>
      <trkpt lat="44.48983" lon="5.21632">
        <ele>788.955284</ele>
        <time>2023-08-12T21:12:59.916Z</time>
      </trkpt>
      <trkpt lat="44.49002" lon="5.21647">
        <ele>788.847245</ele>
        <time>2023-08-12T21:13:03.511Z</time>
      </trkpt>
      <trkpt lat="44.49014" lon="5.2165">
        <ele>788.791104</ele>
        <time>2023-08-12T21:13:05.146Z</time>
      </trkpt>
      <trkpt lat="44.49025" lon="5.2165">
        <ele>788.734715</ele>
        <time>2023-08-12T21:13:06.464Z</time>
      </trkpt>
      <trkpt lat="44.49098" lon="5.21621">
        <ele>788.369683</ele>
        <time>2023-08-12T21:13:12.800Z</time>
      </trkpt>
      <trkpt lat="44.49141" lon="5.21614">
        <ele>785.952713</ele>
        <time>2023-08-12T21:13:15.986Z</time>
      </trkpt>
      <trkpt lat="44.49146" lon="5.21609">
        <ele>785.524211</ele>
        <time>2023-08-12T21:13:16.430Z</time>
      </trkpt>
      <trkpt lat="44.49147" lon="5.21603">
        <ele>785.192566</ele>
        <time>2023-08-12T21:13:16.768Z</time>
      </trkpt>
      <trkpt lat="44.49144" lon="5.21592">
        <ele>784.597487</ele>
        <time>2023-08-12T21:13:17.374Z</time>
      </trkpt>
      <trkpt lat="44.49114" lon="5.21594">
        <ele>782.528754</ele>
        <time>2023-08-12T21:13:19.457Z</time>
      </trkpt>
      <trkpt lat="44.49103" lon="5.21592">
        <ele>781.754242</ele>
        <time>2023-08-12T21:13:20.242Z</time>
      </trkpt>
      <trkpt lat="44.49069" lon="5.21563">
        <ele>778.89784</ele>
        <time>2023-08-12T21:13:23.126Z</time>
      </trkpt>
      <trkpt lat="44.49061" lon="5.21553">
        <ele>778.130201</ele>
        <time>2023-08-12T21:13:23.894Z</time>
      </trkpt>
      <trkpt lat="44.49058" lon="5.21545">
        <ele>777.722877</ele>
        <time>2023-08-12T21:13:24.297Z</time>
      </trkpt>
      <trkpt lat="44.49058" lon="5.21528">
        <ele>776.861304</ele>
        <time>2023-08-12T21:13:25.162Z</time>
      </trkpt>
      <trkpt lat="44.49061" lon="5.21512">
        <ele>776.024276</ele>
        <time>2023-08-12T21:13:25.989Z</time>
      </trkpt>
      <trkpt lat="44.49086" lon="5.21485">
        <ele>773.566986</ele>
        <time>2023-08-12T21:13:28.217Z</time>
      </trkpt>
      <trkpt lat="44.49091" lon="5.21477">
        <ele>772.930731</ele>
        <time>2023-08-12T21:13:28.783Z</time>
      </trkpt>
      <trkpt lat="44.49095" lon="5.21467">
        <ele>772.311226</ele>
        <time>2023-08-12T21:13:29.331Z</time>
      </trkpt>
      <trkpt lat="44.49094" lon="5.21437">
        <ele>770.633282</ele>
        <time>2023-08-12T21:13:30.827Z</time>
      </trkpt>
      <trkpt lat="44.49094" lon="5.21423">
        <ele>769.85405</ele>
        <time>2023-08-12T21:13:31.525Z</time>
      </trkpt>
      <trkpt lat="44.49099" lon="5.21405">
        <ele>768.796525</ele>
        <time>2023-08-12T21:13:32.470Z</time>
      </trkpt>
      <trkpt lat="44.49104" lon="5.21399">
        <ele>768.260263</ele>
        <time>2023-08-12T21:13:32.948Z</time>
      </trkpt>
      <trkpt lat="44.49114" lon="5.21393">
        <ele>767.419245</ele>
        <time>2023-08-12T21:13:33.703Z</time>
      </trkpt>
      <trkpt lat="44.49125" lon="5.21391">
        <ele>766.540512</ele>
        <time>2023-08-12T21:13:34.491Z</time>
      </trkpt>
      <trkpt lat="44.49168" lon="5.21426">
        <ele>762.617129</ele>
        <time>2023-08-12T21:13:38.047Z</time>
      </trkpt>
      <trkpt lat="44.49182" lon="5.21429">
        <ele>761.529536</ele>
        <time>2023-08-12T21:13:39.039Z</time>
      </trkpt>
      <trkpt lat="44.49198" lon="5.21429">
        <ele>760.62909</ele>
        <time>2023-08-12T21:13:40.247Z</time>
      </trkpt>
      <trkpt lat="44.49238" lon="5.21415">
        <ele>758.365261</ele>
        <time>2023-08-12T21:13:43.355Z</time>
      </trkpt>
      <trkpt lat="44.49322" lon="5.21374">
        <ele>753.548448</ele>
        <time>2023-08-12T21:13:49.980Z</time>
      </trkpt>
      <trkpt lat="44.49332" lon="5.21366">
        <ele>752.900981</ele>
        <time>2023-08-12T21:13:50.865Z</time>
      </trkpt>
      <trkpt lat="44.49341" lon="5.21354">
        <ele>752.226634</ele>
        <time>2023-08-12T21:13:51.784Z</time>
      </trkpt>
      <trkpt lat="44.49348" lon="5.21335">
        <ele>751.472038</ele>
        <time>2023-08-12T21:13:52.889Z</time>
      </trkpt>
      <trkpt lat="44.49353" lon="5.21298">
        <ele>750.234463</ele>
        <time>2023-08-12T21:13:54.981Z</time>
      </trkpt>
      <trkpt lat="44.49358" lon="5.21283">
        <ele>749.707633</ele>
        <time>2023-08-12T21:13:55.890Z</time>
      </trkpt>
      <trkpt lat="44.49369" lon="5.21272">
        <ele>749.110919</ele>
        <time>2023-08-12T21:13:56.912Z</time>
      </trkpt>
      <trkpt lat="44.49411" lon="5.21257">
        <ele>747.11254</ele>
        <time>2023-08-12T21:14:00.395Z</time>
      </trkpt>
      <trkpt lat="44.49424" lon="5.21254">
        <ele>746.518994</ele>
        <time>2023-08-12T21:14:01.449Z</time>
      </trkpt>
      <trkpt lat="44.49437" lon="5.21247">
        <ele>745.885666</ele>
        <time>2023-08-12T21:14:02.576Z</time>
      </trkpt>
      <trkpt lat="44.49448" lon="5.21232">
        <ele>745.215912</ele>
        <time>2023-08-12T21:14:03.756Z</time>
      </trkpt>
      <trkpt lat="44.4946" lon="5.21184">
        <ele>743.569059</ele>
        <time>2023-08-12T21:14:06.523Z</time>
      </trkpt>
      <trkpt lat="44.495" lon="5.21074">
        <ele>737.348559</ele>
        <time>2023-08-12T21:14:12.824Z</time>
      </trkpt>
      <trkpt lat="44.49513" lon="5.21052">
        <ele>735.884796</ele>
        <time>2023-08-12T21:14:14.319Z</time>
      </trkpt>
      <trkpt lat="44.49528" lon="5.21038">
        <ele>734.590044</ele>
        <time>2023-08-12T21:14:15.641Z</time>
      </trkpt>
      <trkpt lat="44.49544" lon="5.21032">
        <ele>733.389943</ele>
        <time>2023-08-12T21:14:16.848Z</time>
      </trkpt>
      <trkpt lat="44.49554" lon="5.21033">
        <ele>732.706082</ele>
        <time>2023-08-12T21:14:17.530Z</time>
      </trkpt>
      <trkpt lat="44.49564" lon="5.21036">
        <ele>732.00929</ele>
        <time>2023-08-12T21:14:18.225Z</time>
      </trkpt>
      <trkpt lat="44.49578" lon="5.21048">
        <ele>730.863061</ele>
        <time>2023-08-12T21:14:19.351Z</time>
      </trkpt>
      <trkpt lat="44.49603" lon="5.21092">
        <ele>727.455341</ele>
        <time>2023-08-12T21:14:22.195Z</time>
      </trkpt>
      <trkpt lat="44.49617" lon="5.21106">
        <ele>726.054546</ele>
        <time>2023-08-12T21:14:23.355Z</time>
      </trkpt>
      <trkpt lat="44.49667" lon="5.21149">
        <ele>721.148072</ele>
        <time>2023-08-12T21:14:27.393Z</time>
      </trkpt>
      <trkpt lat="44.49701" lon="5.21166">
        <ele>718.111037</ele>
        <time>2023-08-12T21:14:29.939Z</time>
      </trkpt>
      <trkpt lat="44.49737" lon="5.21177">
        <ele>715.345263</ele>
        <time>2023-08-12T21:14:32.638Z</time>
      </trkpt>
      <trkpt lat="44.49797" lon="5.21199">
        <ele>712.585822</ele>
        <time>2023-08-12T21:14:37.378Z</time>
      </trkpt>
      <trkpt lat="44.4981" lon="5.21201">
        <ele>712.021678</ele>
        <time>2023-08-12T21:14:38.390Z</time>
      </trkpt>
      <trkpt lat="44.49821" lon="5.21195">
        <ele>711.483101</ele>
        <time>2023-08-12T21:14:39.378Z</time>
      </trkpt>
      <trkpt lat="44.49831" lon="5.21184">
        <ele>710.949898</ele>
        <time>2023-08-12T21:14:40.345Z</time>
      </trkpt>
      <trkpt lat="44.49861" lon="5.21122">
        <ele>708.563783</ele>
        <time>2023-08-12T21:14:44.754Z</time>
      </trkpt>
      <trkpt lat="44.49944" lon="5.21043">
        <ele>702.933641</ele>
        <time>2023-08-12T21:14:52.395Z</time>
      </trkpt>
      <trkpt lat="44.49959" lon="5.21036">
        <ele>701.989919</ele>
        <time>2023-08-12T21:14:53.563Z</time>
      </trkpt>
      <trkpt lat="44.49967" lon="5.21035">
        <ele>701.506805</ele>
        <time>2023-08-12T21:14:54.160Z</time>
      </trkpt>
      <trkpt lat="44.49976" lon="5.21039">
        <ele>700.988511</ele>
        <time>2023-08-12T21:14:54.800Z</time>
      </trkpt>
      <trkpt lat="44.4998" lon="5.21043">
        <ele>700.718401</ele>
        <time>2023-08-12T21:14:55.124Z</time>
      </trkpt>
      <trkpt lat="44.49992" lon="5.2107">
        <ele>699.377016</ele>
        <time>2023-08-12T21:14:56.754Z</time>
      </trkpt>
      <trkpt lat="44.49999" lon="5.21106">
        <ele>697.771512</ele>
        <time>2023-08-12T21:14:58.685Z</time>
      </trkpt>
      <trkpt lat="44.50001" lon="5.2115">
        <ele>695.81207</ele>
        <time>2023-08-12T21:15:00.905Z</time>
      </trkpt>
      <trkpt lat="44.50008" lon="5.21163">
        <ele>695.078605</ele>
        <time>2023-08-12T21:15:01.712Z</time>
      </trkpt>
      <trkpt lat="44.5004" lon="5.21187">
        <ele>692.72637</ele>
        <time>2023-08-12T21:15:04.296Z</time>
      </trkpt>
      <trkpt lat="44.50082" lon="5.21214">
        <ele>689.744048</ele>
        <time>2023-08-12T21:15:07.598Z</time>
      </trkpt>
      <trkpt lat="44.50109" lon="5.21226">
        <ele>687.945929</ele>
        <time>2023-08-12T21:15:09.661Z</time>
      </trkpt>
      <trkpt lat="44.50142" lon="5.21228">
        <ele>685.771045</ele>
        <time>2023-08-12T21:15:12.207Z</time>
      </trkpt>
      <trkpt lat="44.50174" lon="5.21214">
        <ele>684.408232</ele>
        <time>2023-08-12T21:15:14.805Z</time>
      </trkpt>
      <trkpt lat="44.5025" lon="5.21167">
        <ele>681.253466</ele>
        <time>2023-08-12T21:15:21.423Z</time>
      </trkpt>
      <trkpt lat="44.50304" lon="5.21129">
        <ele>678.952171</ele>
        <time>2023-08-12T21:15:26.286Z</time>
      </trkpt>
      <trkpt lat="44.50319" lon="5.21124">
        <ele>678.355467</ele>
        <time>2023-08-12T21:15:27.488Z</time>
      </trkpt>
      <trkpt lat="44.5033" lon="5.21123">
        <ele>677.921543</ele>
        <time>2023-08-12T21:15:28.336Z</time>
      </trkpt>
      <trkpt lat="44.50367" lon="5.21135">
        <ele>676.351396</ele>
        <time>2023-08-12T21:15:31.382Z</time>
      </trkpt>
      <trkpt lat="44.50418" lon="5.21165">
        <ele>674.115324</ele>
        <time>2023-08-12T21:15:35.623Z</time>
      </trkpt>
      <trkpt lat="44.50432" lon="5.21169">
        <ele>673.553621</ele>
        <time>2023-08-12T21:15:36.678Z</time>
      </trkpt>
      <trkpt lat="44.50493" lon="5.21173">
        <ele>671.290655</ele>
        <time>2023-08-12T21:15:41.363Z</time>
      </trkpt>
      <trkpt lat="44.50512" lon="5.21177">
        <ele>671.019343</ele>
        <time>2023-08-12T21:15:42.870Z</time>
      </trkpt>
      <trkpt lat="44.50553" lon="5.21193">
        <ele>670.439173</ele>
        <time>2023-08-12T21:15:46.405Z</time>
      </trkpt>
      <trkpt lat="44.50581" lon="5.21191">
        <ele>670.04032</ele>
        <time>2023-08-12T21:15:49.801Z</time>
      </trkpt>
      <trkpt lat="44.50624" lon="5.21163">
        <ele>669.389646</ele>
        <time>2023-08-12T21:15:55.858Z</time>
      </trkpt>
      <trkpt lat="44.50637" lon="5.2116">
        <ele>669.203666</ele>
        <time>2023-08-12T21:15:57.734Z</time>
      </trkpt>
      <trkpt lat="44.50647" lon="5.21163">
        <ele>669.058004</ele>
        <time>2023-08-12T21:15:58.690Z</time>
      </trkpt>
      <trkpt lat="44.50655" lon="5.21169">
        <ele>668.928633</ele>
        <time>2023-08-12T21:15:59.829Z</time>
      </trkpt>
      <trkpt lat="44.50668" lon="5.21199">
        <ele>668.557094</ele>
        <time>2023-08-12T21:16:02.548Z</time>
      </trkpt>
      <trkpt lat="44.50675" lon="5.21224">
        <ele>668.273185</ele>
        <time>2023-08-12T21:16:05.021Z</time>
      </trkpt>
      <trkpt lat="44.50679" lon="5.21231">
        <ele>668.182444</ele>
        <time>2023-08-12T21:16:05.938Z</time>
      </trkpt>
      <trkpt lat="44.50689" lon="5.21235">
        <ele>668.02212</ele>
        <time>2023-08-12T21:16:06.882Z</time>
      </trkpt>
      <trkpt lat="44.50722" lon="5.21243">
        <ele>667.518998</ele>
        <time>2023-08-12T21:16:10.703Z</time>
      </trkpt>
      <trkpt lat="44.50851" lon="5.21258">
        <ele>663.897183</ele>
        <time>2023-08-12T21:16:21.605Z</time>
      </trkpt>
      <trkpt lat="44.50913" lon="5.21264">
        <ele>660.463359</ele>
        <time>2023-08-12T21:16:26.035Z</time>
      </trkpt>
      <trkpt lat="44.5093" lon="5.21262">
        <ele>659.520963</ele>
        <time>2023-08-12T21:16:27.263Z</time>
      </trkpt>
      <trkpt lat="44.50988" lon="5.21234">
        <ele>656.157378</ele>
        <time>2023-08-12T21:16:31.773Z</time>
      </trkpt>
      <trkpt lat="44.50999" lon="5.21232">
        <ele>655.777867</ele>
        <time>2023-08-12T21:16:32.533Z</time>
      </trkpt>
      <trkpt lat="44.51009" lon="5.21234">
        <ele>655.370035</ele>
        <time>2023-08-12T21:16:33.353Z</time>
      </trkpt>
      <trkpt lat="44.51029" lon="5.21244">
        <ele>654.583403</ele>
        <time>2023-08-12T21:16:34.945Z</time>
      </trkpt>
      <trkpt lat="44.511" lon="5.21289">
        <ele>651.696158</ele>
        <time>2023-08-12T21:16:41.077Z</time>
      </trkpt>
      <trkpt lat="44.51131" lon="5.21308">
        <ele>650.43764</ele>
        <time>2023-08-12T21:16:43.957Z</time>
      </trkpt>
      <trkpt lat="44.5119" lon="5.21374">
        <ele>648.46163</ele>
        <time>2023-08-12T21:16:50.867Z</time>
      </trkpt>
      <trkpt lat="44.51347" lon="5.21484">
        <ele>643.670994</ele>
        <time>2023-08-12T21:17:05.989Z</time>
      </trkpt>
      <trkpt lat="44.5139" lon="5.21506">
        <ele>641.738391</ele>
        <time>2023-08-12T21:17:09.550Z</time>
      </trkpt>
      <trkpt lat="44.51396" lon="5.21516">
        <ele>641.341597</ele>
        <time>2023-08-12T21:17:10.334Z</time>
      </trkpt>
      <trkpt lat="44.51411" lon="5.21523">
        <ele>640.651206</ele>
        <time>2023-08-12T21:17:11.572Z</time>
      </trkpt>
      <trkpt lat="44.51448" lon="5.21529">
        <ele>639.077981</ele>
        <time>2023-08-12T21:17:14.331Z</time>
      </trkpt>
      <trkpt lat="44.51464" lon="5.21529">
        <ele>638.392714</ele>
        <time>2023-08-12T21:17:15.514Z</time>
      </trkpt>
      <trkpt lat="44.51489" lon="5.21522">
        <ele>637.002124</ele>
        <time>2023-08-12T21:17:17.294Z</time>
      </trkpt>
      <trkpt lat="44.51511" lon="5.21531">
        <ele>635.569339</ele>
        <time>2023-08-12T21:17:18.968Z</time>
      </trkpt>
      <trkpt lat="44.51527" lon="5.21533">
        <ele>634.547745</ele>
        <time>2023-08-12T21:17:20.146Z</time>
      </trkpt>
      <trkpt lat="44.51559" lon="5.21545">
        <ele>632.528621</ele>
        <time>2023-08-12T21:17:22.479Z</time>
      </trkpt>
      <trkpt lat="44.51583" lon="5.21547">
        <ele>630.99382</ele>
        <time>2023-08-12T21:17:24.244Z</time>
      </trkpt>
      <trkpt lat="44.51608" lon="5.21562">
        <ele>629.33942</ele>
        <time>2023-08-12T21:17:26.189Z</time>
      </trkpt>
      <trkpt lat="44.51617" lon="5.21567">
        <ele>628.77327</ele>
        <time>2023-08-12T21:17:26.851Z</time>
      </trkpt>
      <trkpt lat="44.51627" lon="5.21568">
        <ele>628.109298</ele>
        <time>2023-08-12T21:17:27.653Z</time>
      </trkpt>
      <trkpt lat="44.51643" lon="5.21578">
        <ele>627.047698</ele>
        <time>2023-08-12T21:17:28.940Z</time>
      </trkpt>
      <trkpt lat="44.51666" lon="5.21582">
        <ele>627.126117</ele>
        <time>2023-08-12T21:17:30.825Z</time>
      </trkpt>
      <trkpt lat="44.51676" lon="5.21566">
        <ele>627.25386</ele>
        <time>2023-08-12T21:17:32.210Z</time>
      </trkpt>
      <trkpt lat="44.51678" lon="5.21557">
        <ele>627.307238</ele>
        <time>2023-08-12T21:17:32.735Z</time>
      </trkpt>
      <trkpt lat="44.51683" lon="5.21558">
        <ele>627.348148</ele>
        <time>2023-08-12T21:17:33.251Z</time>
      </trkpt>
      <trkpt lat="44.51694" lon="5.2156">
        <ele>627.43497</ele>
        <time>2023-08-12T21:17:34.407Z</time>
      </trkpt>
      <trkpt lat="44.51672" lon="5.21591">
        <ele>627.693364</ele>
        <time>2023-08-12T21:17:38.315Z</time>
      </trkpt>
      <trkpt lat="44.51641" lon="5.21625">
        <ele>628.022363</ele>
        <time>2023-08-12T21:17:45.771Z</time>
      </trkpt>
      <trkpt lat="44.51624" lon="5.21648">
        <ele>628.212658</ele>
        <time>2023-08-12T21:17:51.381Z</time>
      </trkpt>
      <trkpt lat="44.51601" lon="5.21668">
        <ele>628.445678</ele>
        <time>2023-08-12T21:17:59.179Z</time>
      </trkpt>
      <trkpt lat="44.51577" lon="5.21706">
        <ele>630.301928</ele>
        <time>2023-08-12T21:18:10.364Z</time>
      </trkpt>
      <trkpt lat="44.5155" lon="5.21807">
        <ele>634.187306</ele>
        <time>2023-08-12T21:18:34.937Z</time>
      </trkpt>
      <trkpt lat="44.51538" lon="5.2186">
        <ele>636.179186</ele>
        <time>2023-08-12T21:18:46.546Z</time>
      </trkpt>
      <trkpt lat="44.51519" lon="5.21894">
        <ele>637.61968</ele>
        <time>2023-08-12T21:18:53.473Z</time>
      </trkpt>
      <trkpt lat="44.51477" lon="5.21982">
        <ele>639.18675</ele>
        <time>2023-08-12T21:19:07.177Z</time>
      </trkpt>
      <trkpt lat="44.51436" lon="5.22096">
        <ele>641.056918</ele>
        <time>2023-08-12T21:19:22.423Z</time>
      </trkpt>
      <trkpt lat="44.51428" lon="5.22146">
        <ele>642.002599</ele>
        <time>2023-08-12T21:19:28.559Z</time>
      </trkpt>
      <trkpt lat="44.51412" lon="5.22218">
        <ele>643.482227</ele>
        <time>2023-08-12T21:19:37.909Z</time>
      </trkpt>
      <trkpt lat="44.51403" lon="5.22247">
        <ele>644.086658</ele>
        <time>2023-08-12T21:19:42.165Z</time>
      </trkpt>
      <trkpt lat="44.51393" lon="5.22275">
        <ele>644.703379</ele>
        <time>2023-08-12T21:19:46.985Z</time>
      </trkpt>
      <trkpt lat="44.51339" lon="5.22377">
        <ele>648.047831</ele>
        <time>2023-08-12T21:20:09.980Z</time>
      </trkpt>
      <trkpt lat="44.51319" lon="5.22429">
        <ele>650.153155</ele>
        <time>2023-08-12T21:20:22.057Z</time>
      </trkpt>
      <trkpt lat="44.51298" lon="5.22539">
        <ele>654.254788</ele>
        <time>2023-08-12T21:20:46.415Z</time>
      </trkpt>
      <trkpt lat="44.51298" lon="5.22612">
        <ele>656.934694</ele>
        <time>2023-08-12T21:21:00.784Z</time>
      </trkpt>
      <trkpt lat="44.51293" lon="5.22654">
        <ele>658.53833</ele>
        <time>2023-08-12T21:21:08.981Z</time>
      </trkpt>
      <trkpt lat="44.51288" lon="5.22673">
        <ele>659.310592</ele>
        <time>2023-08-12T21:21:12.849Z</time>
      </trkpt>
      <trkpt lat="44.51253" lon="5.22735">
        <ele>662.232794</ele>
        <time>2023-08-12T21:21:28.413Z</time>
      </trkpt>
      <trkpt lat="44.51248" lon="5.22748">
        <ele>662.80022</ele>
        <time>2023-08-12T21:21:31.726Z</time>
      </trkpt>
      <trkpt lat="44.51246" lon="5.22772">
        <ele>663.687712</ele>
        <time>2023-08-12T21:21:37.070Z</time>
      </trkpt>
      <trkpt lat="44.51252" lon="5.22805">
        <ele>665.035848</ele>
        <time>2023-08-12T21:21:44.905Z</time>
      </trkpt>
      <trkpt lat="44.51301" lon="5.22893">
        <ele>669.871522</ele>
        <time>2023-08-12T21:22:09.214Z</time>
      </trkpt>
      <trkpt lat="44.51315" lon="5.22927">
        <ele>671.5888</ele>
        <time>2023-08-12T21:22:17.958Z</time>
      </trkpt>
      <trkpt lat="44.51316" lon="5.22941">
        <ele>672.22124</ele>
        <time>2023-08-12T21:22:21.132Z</time>
      </trkpt>
      <trkpt lat="44.51313" lon="5.2296">
        <ele>673.061663</ele>
        <time>2023-08-12T21:22:25.436Z</time>
      </trkpt>
      <trkpt lat="44.51308" lon="5.22971">
        <ele>673.644251</ele>
        <time>2023-08-12T21:22:28.273Z</time>
      </trkpt>
      <trkpt lat="44.51258" lon="5.23024">
        <ele>677.520764</ele>
        <time>2023-08-12T21:22:49.518Z</time>
      </trkpt>
      <trkpt lat="44.51232" lon="5.23065">
        <ele>679.952362</ele>
        <time>2023-08-12T21:23:01.835Z</time>
      </trkpt>
      <trkpt lat="44.51223" lon="5.23076">
        <ele>680.73773</ele>
        <time>2023-08-12T21:23:05.801Z</time>
      </trkpt>
      <trkpt lat="44.51195" lon="5.23095">
        <ele>682.625212</ele>
        <time>2023-08-12T21:23:14.848Z</time>
      </trkpt>
      <trkpt lat="44.51193" lon="5.23105">
        <ele>683.125173</ele>
        <time>2023-08-12T21:23:17.315Z</time>
      </trkpt>
      <trkpt lat="44.51197" lon="5.23112">
        <ele>683.523643</ele>
        <time>2023-08-12T21:23:19.401Z</time>
      </trkpt>
      <trkpt lat="44.51201" lon="5.23113">
        <ele>683.785434</ele>
        <time>2023-08-12T21:23:20.639Z</time>
      </trkpt>
      <trkpt lat="44.51214" lon="5.23108">
        <ele>684.597005</ele>
        <time>2023-08-12T21:23:24.350Z</time>
      </trkpt>
      <trkpt lat="44.51269" lon="5.23053">
        <ele>688.661573</ele>
        <time>2023-08-12T21:23:46.313Z</time>
      </trkpt>
      <trkpt lat="44.51298" lon="5.23036">
        <ele>690.425423</ele>
        <time>2023-08-12T21:23:57.789Z</time>
      </trkpt>
      <trkpt lat="44.51318" lon="5.2303">
        <ele>691.610731</ele>
        <time>2023-08-12T21:24:04.515Z</time>
      </trkpt>
      <trkpt lat="44.51419" lon="5.23014">
        <ele>697.395106</ele>
        <time>2023-08-12T21:24:32.336Z</time>
      </trkpt>
      <trkpt lat="44.51423" lon="5.23019">
        <ele>697.655859</ele>
        <time>2023-08-12T21:24:33.859Z</time>
      </trkpt>
      <trkpt lat="44.51424" lon="5.23026">
        <ele>697.899917</ele>
        <time>2023-08-12T21:24:35.325Z</time>
      </trkpt>
      <trkpt lat="44.51422" lon="5.23033">
        <ele>698.172851</ele>
        <time>2023-08-12T21:24:36.900Z</time>
      </trkpt>
      <trkpt lat="44.51412" lon="5.2304">
        <ele>698.708188</ele>
        <time>2023-08-12T21:24:39.702Z</time>
      </trkpt>
      <trkpt lat="44.5137" lon="5.23042">
        <ele>700.79989</ele>
        <time>2023-08-12T21:24:50.889Z</time>
      </trkpt>
      <trkpt lat="44.51329" lon="5.23055">
        <ele>702.86976</ele>
        <time>2023-08-12T21:25:02.255Z</time>
      </trkpt>
      <trkpt lat="44.51308" lon="5.23072">
        <ele>704.116285</ele>
        <time>2023-08-12T21:25:09.523Z</time>
      </trkpt>
      <trkpt lat="44.51302" lon="5.23082">
        <ele>704.549034</ele>
        <time>2023-08-12T21:25:11.576Z</time>
      </trkpt>
      <trkpt lat="44.51298" lon="5.23096">
        <ele>705.096303</ele>
        <time>2023-08-12T21:25:14.974Z</time>
      </trkpt>
      <trkpt lat="44.51301" lon="5.23187">
        <ele>709.506361</ele>
        <time>2023-08-12T21:25:32.994Z</time>
      </trkpt>
      <trkpt lat="44.51298" lon="5.23223">
        <ele>711.509004</ele>
        <time>2023-08-12T21:25:41.928Z</time>
      </trkpt>
      <trkpt lat="44.51273" lon="5.23316">
        <ele>716.923754</ele>
        <time>2023-08-12T21:26:09.760Z</time>
      </trkpt>
      <trkpt lat="44.51266" lon="5.23336">
        <ele>718.141167</ele>
        <time>2023-08-12T21:26:16.512Z</time>
      </trkpt>
      <trkpt lat="44.51222" lon="5.23415">
        <ele>724.275637</ele>
        <time>2023-08-12T21:26:47.560Z</time>
      </trkpt>
      <trkpt lat="44.51211" lon="5.23427">
        <ele>725.495595</ele>
        <time>2023-08-12T21:26:53.342Z</time>
      </trkpt>
      <trkpt lat="44.51174" lon="5.23449">
        <ele>729.035001</ele>
        <time>2023-08-12T21:27:09.886Z</time>
      </trkpt>
      <trkpt lat="44.51158" lon="5.23468">
        <ele>730.923324</ele>
        <time>2023-08-12T21:27:18.421Z</time>
      </trkpt>
      <trkpt lat="44.51142" lon="5.23526">
        <ele>734.843686</ele>
        <time>2023-08-12T21:27:35.195Z</time>
      </trkpt>
      <trkpt lat="44.51134" lon="5.23543">
        <ele>736.042698</ele>
        <time>2023-08-12T21:27:40.547Z</time>
      </trkpt>
      <trkpt lat="44.5112" lon="5.23562">
        <ele>737.266821</ele>
        <time>2023-08-12T21:27:47.767Z</time>
      </trkpt>
      <trkpt lat="44.51099" lon="5.23582">
        <ele>738.837255</ele>
        <time>2023-08-12T21:27:56.924Z</time>
      </trkpt>
      <trkpt lat="44.51079" lon="5.23591">
        <ele>740.11473</ele>
        <time>2023-08-12T21:28:04.432Z</time>
      </trkpt>
      <trkpt lat="44.51058" lon="5.23605">
        <ele>741.594395</ele>
        <time>2023-08-12T21:28:12.739Z</time>
      </trkpt>
      <trkpt lat="44.51008" lon="5.23652">
        <ele>745.325597</ele>
        <time>2023-08-12T21:28:31.281Z</time>
      </trkpt>
      <trkpt lat="44.50946" lon="5.23691">
        <ele>748.069959</ele>
        <time>2023-08-12T21:28:46.244Z</time>
      </trkpt>
      <trkpt lat="44.50864" lon="5.23749">
        <ele>750.468169</ele>
        <time>2023-08-12T21:29:02.568Z</time>
      </trkpt>
      <trkpt lat="44.50849" lon="5.23764">
        <ele>750.950596</ele>
        <time>2023-08-12T21:29:06.058Z</time>
      </trkpt>
      <trkpt lat="44.50818" lon="5.23803">
        <ele>752.58257</ele>
        <time>2023-08-12T21:29:14.137Z</time>
      </trkpt>
      <trkpt lat="44.50799" lon="5.2382">
        <ele>754.190759</ele>
        <time>2023-08-12T21:29:18.731Z</time>
      </trkpt>
      <trkpt lat="44.50784" lon="5.23841">
        <ele>755.638853</ele>
        <time>2023-08-12T21:29:23.745Z</time>
      </trkpt>
      <trkpt lat="44.50781" lon="5.23864">
        <ele>756.853472</ele>
        <time>2023-08-12T21:29:28.393Z</time>
      </trkpt>
      <trkpt lat="44.50789" lon="5.23931">
        <ele>760.210756</ele>
        <time>2023-08-12T21:29:44.693Z</time>
      </trkpt>
      <trkpt lat="44.50786" lon="5.23957">
        <ele>761.559332</ele>
        <time>2023-08-12T21:29:52.641Z</time>
      </trkpt>
      <trkpt lat="44.50779" lon="5.23975">
        <ele>762.590166</ele>
        <time>2023-08-12T21:29:59.012Z</time>
      </trkpt>
      <trkpt lat="44.50762" lon="5.24003">
        <ele>764.411128</ele>
        <time>2023-08-12T21:30:11.614Z</time>
      </trkpt>
      <trkpt lat="44.50757" lon="5.24017">
        <ele>765.816111</ele>
        <time>2023-08-12T21:30:17.753Z</time>
      </trkpt>
      <trkpt lat="44.50755" lon="5.24028">
        <ele>766.832465</ele>
        <time>2023-08-12T21:30:22.374Z</time>
      </trkpt>
      <trkpt lat="44.50764" lon="5.24179">
        <ele>780.16172</ele>
        <time>2023-08-12T21:31:26.963Z</time>
      </trkpt>
      <trkpt lat="44.50752" lon="5.24271">
        <ele>786.673477</ele>
        <time>2023-08-12T21:31:57.659Z</time>
      </trkpt>
      <trkpt lat="44.50738" lon="5.2434">
        <ele>787.172976</ele>
        <time>2023-08-12T21:32:10.462Z</time>
      </trkpt>
      <trkpt lat="44.50744" lon="5.24353">
        <ele>787.277636</ele>
        <time>2023-08-12T21:32:11.817Z</time>
      </trkpt>
      <trkpt lat="44.50752" lon="5.24352">
        <ele>787.353676</ele>
        <time>2023-08-12T21:32:12.731Z</time>
      </trkpt>
      <trkpt lat="44.50758" lon="5.24337">
        <ele>787.482397</ele>
        <time>2023-08-12T21:32:14.183Z</time>
      </trkpt>
      <trkpt lat="44.50772" lon="5.24272">
        <ele>787.947315</ele>
        <time>2023-08-12T21:32:18.030Z</time>
      </trkpt>
      <trkpt lat="44.50788" lon="5.24217">
        <ele>788.257869</ele>
        <time>2023-08-12T21:32:21.354Z</time>
      </trkpt>
      <trkpt lat="44.50791" lon="5.24162">
        <ele>788.175449</ele>
        <time>2023-08-12T21:32:24.333Z</time>
      </trkpt>
      <trkpt lat="44.508" lon="5.24085">
        <ele>788.057593</ele>
        <time>2023-08-12T21:32:28.784Z</time>
      </trkpt>
      <trkpt lat="44.50802" lon="5.24079">
        <ele>788.048268</ele>
        <time>2023-08-12T21:32:29.181Z</time>
      </trkpt>
      <trkpt lat="44.50811" lon="5.24078">
        <ele>788.029956</ele>
        <time>2023-08-12T21:32:30.473Z</time>
      </trkpt>
      <trkpt lat="44.50815" lon="5.24085">
        <ele>788.015516</ele>
        <time>2023-08-12T21:32:31.975Z</time>
      </trkpt>
      <trkpt lat="44.50816" lon="5.24091">
        <ele>788.006246</ele>
        <time>2023-08-12T21:32:32.635Z</time>
      </trkpt>
      <trkpt lat="44.50806" lon="5.24124">
        <ele>787.952794</ele>
        <time>2023-08-12T21:32:37.131Z</time>
      </trkpt>
      <trkpt lat="44.50803" lon="5.24139">
        <ele>787.928431</ele>
        <time>2023-08-12T21:32:40.689Z</time>
      </trkpt>
      <trkpt lat="44.50806" lon="5.24229">
        <ele>793.360355</ele>
        <time>2023-08-12T21:33:05.095Z</time>
      </trkpt>
      <trkpt lat="44.50805" lon="5.24247">
        <ele>794.800648</ele>
        <time>2023-08-12T21:33:11.263Z</time>
      </trkpt>
      <trkpt lat="44.50796" lon="5.24296">
        <ele>798.725729</ele>
        <time>2023-08-12T21:33:30.768Z</time>
      </trkpt>
      <trkpt lat="44.50793" lon="5.24376">
        <ele>805.024169</ele>
        <time>2023-08-12T21:34:01.473Z</time>
      </trkpt>
      <trkpt lat="44.50778" lon="5.24464">
        <ele>812.143713</ele>
        <time>2023-08-12T21:34:36.219Z</time>
      </trkpt>
      <trkpt lat="44.50775" lon="5.24499">
        <ele>814.890284</ele>
        <time>2023-08-12T21:34:49.201Z</time>
      </trkpt>
      <trkpt lat="44.50772" lon="5.24575">
        <ele>820.884368</ele>
        <time>2023-08-12T21:35:16.228Z</time>
      </trkpt>
      <trkpt lat="44.5077" lon="5.24648">
        <ele>826.653163</ele>
        <time>2023-08-12T21:35:40.161Z</time>
      </trkpt>
      <trkpt lat="44.50772" lon="5.24729">
        <ele>828.809646</ele>
        <time>2023-08-12T21:35:58.468Z</time>
      </trkpt>
      <trkpt lat="44.50779" lon="5.24814">
        <ele>830.333571</ele>
        <time>2023-08-12T21:36:08.814Z</time>
      </trkpt>
      <trkpt lat="44.50787" lon="5.24871">
        <ele>831.352555</ele>
        <time>2023-08-12T21:36:13.662Z</time>
      </trkpt>
      <trkpt lat="44.508" lon="5.24852">
        <ele>831.807699</ele>
        <time>2023-08-12T21:36:15.305Z</time>
      </trkpt>
      <trkpt lat="44.50809" lon="5.24832">
        <ele>831.858128</ele>
        <time>2023-08-12T21:36:17.277Z</time>
      </trkpt>
      <trkpt lat="44.50827" lon="5.24805">
        <ele>831.112655</ele>
        <time>2023-08-12T21:36:19.604Z</time>
      </trkpt>
      <trkpt lat="44.5086" lon="5.24783">
        <ele>830.066427</ele>
        <time>2023-08-12T21:36:22.865Z</time>
      </trkpt>
      <trkpt lat="44.50869" lon="5.24772">
        <ele>829.71429</ele>
        <time>2023-08-12T21:36:24.008Z</time>
      </trkpt>
      <trkpt lat="44.50877" lon="5.24759">
        <ele>829.35964</ele>
        <time>2023-08-12T21:36:24.974Z</time>
      </trkpt>
      <trkpt lat="44.50896" lon="5.24713">
        <ele>828.275295</ele>
        <time>2023-08-12T21:36:27.971Z</time>
      </trkpt>
      <trkpt lat="44.50907" lon="5.24683">
        <ele>827.607626</ele>
        <time>2023-08-12T21:36:29.794Z</time>
      </trkpt>
      <trkpt lat="44.50911" lon="5.24657">
        <ele>827.04835</ele>
        <time>2023-08-12T21:36:31.337Z</time>
      </trkpt>
      <trkpt lat="44.50917" lon="5.24641">
        <ele>826.471926</ele>
        <time>2023-08-12T21:36:32.311Z</time>
      </trkpt>
      <trkpt lat="44.5094" lon="5.24614">
        <ele>824.747545</ele>
        <time>2023-08-12T21:36:34.609Z</time>
      </trkpt>
      <trkpt lat="44.50964" lon="5.24567">
        <ele>822.421935</ele>
        <time>2023-08-12T21:36:37.609Z</time>
      </trkpt>
      <trkpt lat="44.50987" lon="5.24549">
        <ele>820.958093</ele>
        <time>2023-08-12T21:36:39.444Z</time>
      </trkpt>
      <trkpt lat="44.51011" lon="5.24512">
        <ele>818.933984</ele>
        <time>2023-08-12T21:36:42.069Z</time>
      </trkpt>
      <trkpt lat="44.51026" lon="5.24501">
        <ele>817.971014</ele>
        <time>2023-08-12T21:36:43.339Z</time>
      </trkpt>
      <trkpt lat="44.51046" lon="5.24497">
        <ele>816.823083</ele>
        <time>2023-08-12T21:36:44.880Z</time>
      </trkpt>
      <trkpt lat="44.51069" lon="5.24499">
        <ele>815.274739</ele>
        <time>2023-08-12T21:36:46.645Z</time>
      </trkpt>
      <trkpt lat="44.511" lon="5.24505">
        <ele>813.207425</ele>
        <time>2023-08-12T21:36:48.916Z</time>
      </trkpt>
      <trkpt lat="44.51111" lon="5.24501">
        <ele>812.436258</ele>
        <time>2023-08-12T21:36:49.730Z</time>
      </trkpt>
      <trkpt lat="44.51114" lon="5.24495">
        <ele>812.08792</ele>
        <time>2023-08-12T21:36:50.102Z</time>
      </trkpt>
      <trkpt lat="44.51116" lon="5.24482">
        <ele>811.437637</ele>
        <time>2023-08-12T21:36:50.785Z</time>
      </trkpt>
      <trkpt lat="44.51109" lon="5.24456">
        <ele>810.12895</ele>
        <time>2023-08-12T21:36:52.150Z</time>
      </trkpt>
      <trkpt lat="44.51111" lon="5.24433">
        <ele>809.061895</ele>
        <time>2023-08-12T21:36:53.274Z</time>
      </trkpt>
      <trkpt lat="44.51115" lon="5.24388">
        <ele>806.891823</ele>
        <time>2023-08-12T21:36:55.565Z</time>
      </trkpt>
      <trkpt lat="44.5112" lon="5.24371">
        <ele>806.007672</ele>
        <time>2023-08-12T21:36:56.518Z</time>
      </trkpt>
      <trkpt lat="44.51135" lon="5.24344">
        <ele>804.486775</ele>
        <time>2023-08-12T21:36:58.287Z</time>
      </trkpt>
      <trkpt lat="44.51146" lon="5.2434">
        <ele>803.992387</ele>
        <time>2023-08-12T21:36:59.157Z</time>
      </trkpt>
      <trkpt lat="44.5119" lon="5.24354">
        <ele>802.031718</ele>
        <time>2023-08-12T21:37:02.709Z</time>
      </trkpt>
      <trkpt lat="44.51211" lon="5.24368">
        <ele>801.051512</ele>
        <time>2023-08-12T21:37:04.567Z</time>
      </trkpt>
      <trkpt lat="44.51249" lon="5.2437">
        <ele>799.416946</ele>
        <time>2023-08-12T21:37:07.432Z</time>
      </trkpt>
      <trkpt lat="44.51269" lon="5.24375">
        <ele>798.538892</ele>
        <time>2023-08-12T21:37:08.946Z</time>
      </trkpt>
      <trkpt lat="44.51294" lon="5.24393">
        <ele>797.338968</ele>
        <time>2023-08-12T21:37:11.076Z</time>
      </trkpt>
      <trkpt lat="44.51331" lon="5.24427">
        <ele>797.852591</ele>
        <time>2023-08-12T21:37:15.005Z</time>
      </trkpt>
      <trkpt lat="44.51346" lon="5.2443">
        <ele>798.252877</ele>
        <time>2023-08-12T21:37:17.241Z</time>
      </trkpt>
      <trkpt lat="44.51365" lon="5.24423">
        <ele>798.756227</ele>
        <time>2023-08-12T21:37:20.680Z</time>
      </trkpt>
      <trkpt lat="44.51387" lon="5.24425">
        <ele>799.322841</ele>
        <time>2023-08-12T21:37:25.411Z</time>
      </trkpt>
      <trkpt lat="44.51427" lon="5.24458">
        <ele>800.529835</ele>
        <time>2023-08-12T21:37:38.125Z</time>
      </trkpt>
      <trkpt lat="44.51472" lon="5.24476">
        <ele>801.972345</ele>
        <time>2023-08-12T21:37:52.971Z</time>
      </trkpt>
      <trkpt lat="44.51493" lon="5.24492">
        <ele>803.59846</ele>
        <time>2023-08-12T21:38:00.869Z</time>
      </trkpt>
      <trkpt lat="44.51508" lon="5.24494">
        <ele>804.629755</ele>
        <time>2023-08-12T21:38:05.982Z</time>
      </trkpt>
      <trkpt lat="44.51529" lon="5.24487">
        <ele>806.098353</ele>
        <time>2023-08-12T21:38:13.440Z</time>
      </trkpt>
      <trkpt lat="44.51544" lon="5.24487">
        <ele>807.123956</ele>
        <time>2023-08-12T21:38:18.699Z</time>
      </trkpt>
      <trkpt lat="44.51579" lon="5.24494">
        <ele>809.559214</ele>
        <time>2023-08-12T21:38:31.173Z</time>
      </trkpt>
      <trkpt lat="44.51639" lon="5.24458">
        <ele>814.031658</ele>
        <time>2023-08-12T21:38:53.734Z</time>
      </trkpt>
      <trkpt lat="44.51647" lon="5.24455">
        <ele>814.539444</ele>
        <time>2023-08-12T21:38:56.393Z</time>
      </trkpt>
      <trkpt lat="44.51672" lon="5.24457">
        <ele>816.114073</ele>
        <time>2023-08-12T21:39:04.321Z</time>
      </trkpt>
      <trkpt lat="44.51684" lon="5.24453">
        <ele>816.921868</ele>
        <time>2023-08-12T21:39:08.517Z</time>
      </trkpt>
      <trkpt lat="44.5169" lon="5.24445">
        <ele>817.446925</ele>
        <time>2023-08-12T21:39:11.201Z</time>
      </trkpt>
      <trkpt lat="44.51701" lon="5.24422">
        <ele>818.680671</ele>
        <time>2023-08-12T21:39:17.458Z</time>
      </trkpt>
      <trkpt lat="44.51715" lon="5.24408">
        <ele>819.833188</ele>
        <time>2023-08-12T21:39:23.545Z</time>
      </trkpt>
      <trkpt lat="44.51745" lon="5.24392">
        <ele>821.86541</ele>
        <time>2023-08-12T21:39:34.163Z</time>
      </trkpt>
      <trkpt lat="44.51774" lon="5.24398">
        <ele>823.708506</ele>
        <time>2023-08-12T21:39:43.550Z</time>
      </trkpt>
      <trkpt lat="44.51796" lon="5.24398">
        <ele>825.167434</ele>
        <time>2023-08-12T21:39:50.663Z</time>
      </trkpt>
      <trkpt lat="44.51833" lon="5.2438">
        <ele>827.158107</ele>
        <time>2023-08-12T21:40:01.882Z</time>
      </trkpt>
      <trkpt lat="44.51861" lon="5.24359">
        <ele>828.714199</ele>
        <time>2023-08-12T21:40:10.371Z</time>
      </trkpt>
      <trkpt lat="44.51881" lon="5.24335">
        <ele>830.005717</ele>
        <time>2023-08-12T21:40:17.950Z</time>
      </trkpt>
      <trkpt lat="44.51889" lon="5.24331">
        <ele>830.445721</ele>
        <time>2023-08-12T21:40:20.865Z</time>
      </trkpt>
      <trkpt lat="44.51897" lon="5.24329">
        <ele>830.832873</ele>
        <time>2023-08-12T21:40:23.473Z</time>
      </trkpt>
      <trkpt lat="44.51925" lon="5.2434">
        <ele>832.24964</ele>
        <time>2023-08-12T21:40:32.184Z</time>
      </trkpt>
      <trkpt lat="44.51978" lon="5.24379">
        <ele>834.628207</ele>
        <time>2023-08-12T21:40:46.597Z</time>
      </trkpt>
      <trkpt lat="44.51992" lon="5.24382">
        <ele>834.868427</ele>
        <time>2023-08-12T21:40:49.220Z</time>
      </trkpt>
      <trkpt lat="44.52008" lon="5.24372">
        <ele>835.159129</ele>
        <time>2023-08-12T21:40:52.121Z</time>
      </trkpt>
      <trkpt lat="44.52023" lon="5.24352">
        <ele>835.512597</ele>
        <time>2023-08-12T21:40:55.281Z</time>
      </trkpt>
      <trkpt lat="44.52035" lon="5.24345">
        <ele>835.732802</ele>
        <time>2023-08-12T21:40:57.083Z</time>
      </trkpt>
      <trkpt lat="44.52045" lon="5.2435">
        <ele>835.91472</ele>
        <time>2023-08-12T21:40:58.808Z</time>
      </trkpt>
      <trkpt lat="44.52047" lon="5.24379">
        <ele>836.27301</ele>
        <time>2023-08-12T21:41:01.013Z</time>
      </trkpt>
      <trkpt lat="44.52056" lon="5.24401">
        <ele>836.578325</ele>
        <time>2023-08-12T21:41:03.661Z</time>
      </trkpt>
      <trkpt lat="44.52063" lon="5.24406">
        <ele>836.714886</ele>
        <time>2023-08-12T21:41:04.618Z</time>
      </trkpt>
      <trkpt lat="44.52071" lon="5.24408">
        <ele>836.850977</ele>
        <time>2023-08-12T21:41:05.654Z</time>
      </trkpt>
      <trkpt lat="44.52093" lon="5.24401">
        <ele>837.225206</ele>
        <time>2023-08-12T21:41:09.431Z</time>
      </trkpt>
      <trkpt lat="44.52105" lon="5.244">
        <ele>837.566019</ele>
        <time>2023-08-12T21:41:11.479Z</time>
      </trkpt>
      <trkpt lat="44.52128" lon="5.24416">
        <ele>838.873287</ele>
        <time>2023-08-12T21:41:16.808Z</time>
      </trkpt>
      <trkpt lat="44.52156" lon="5.24445">
        <ele>840.644888</ele>
        <time>2023-08-12T21:41:23.959Z</time>
      </trkpt>
      <trkpt lat="44.52179" lon="5.24454">
        <ele>841.88238</ele>
        <time>2023-08-12T21:41:28.700Z</time>
      </trkpt>
      <trkpt lat="44.52214" lon="5.24455">
        <ele>843.666373</ele>
        <time>2023-08-12T21:41:39.503Z</time>
      </trkpt>
      <trkpt lat="44.52273" lon="5.24444">
        <ele>846.867362</ele>
        <time>2023-08-12T21:42:02.129Z</time>
      </trkpt>
      <trkpt lat="44.52319" lon="5.24428">
        <ele>851.613568</ele>
        <time>2023-08-12T21:42:22.749Z</time>
      </trkpt>
      <trkpt lat="44.52384" lon="5.24395">
        <ele>858.642131</ele>
        <time>2023-08-12T21:42:56.467Z</time>
      </trkpt>
      <trkpt lat="44.52501" lon="5.24351">
        <ele>869.6301</ele>
        <time>2023-08-12T21:43:48.950Z</time>
      </trkpt>
      <trkpt lat="44.52546" lon="5.24337">
        <ele>873.364332</ele>
        <time>2023-08-12T21:44:06.401Z</time>
      </trkpt>
      <trkpt lat="44.526" lon="5.24313">
        <ele>877.872384</ele>
        <time>2023-08-12T21:44:25.907Z</time>
      </trkpt>
      <trkpt lat="44.52689" lon="5.24268">
        <ele>883.126006</ele>
        <time>2023-08-12T21:44:54.528Z</time>
      </trkpt>
      <trkpt lat="44.52713" lon="5.24261">
        <ele>884.340636</ele>
        <time>2023-08-12T21:45:01.111Z</time>
      </trkpt>
      <trkpt lat="44.52771" lon="5.2425">
        <ele>887.212262</ele>
        <time>2023-08-12T21:45:16.004Z</time>
      </trkpt>
      <trkpt lat="44.52841" lon="5.24243">
        <ele>889.903902</ele>
        <time>2023-08-12T21:45:32.658Z</time>
      </trkpt>
      <trkpt lat="44.52855" lon="5.24246">
        <ele>890.396884</ele>
        <time>2023-08-12T21:45:35.470Z</time>
      </trkpt>
      <trkpt lat="44.52866" lon="5.24256">
        <ele>890.854496</ele>
        <time>2023-08-12T21:45:38.006Z</time>
      </trkpt>
      <trkpt lat="44.52888" lon="5.24257">
        <ele>891.587649</ele>
        <time>2023-08-12T21:45:42.062Z</time>
      </trkpt>
      <trkpt lat="44.52961" lon="5.24243">
        <ele>894.129607</ele>
        <time>2023-08-12T21:45:57.829Z</time>
      </trkpt>
      <trkpt lat="44.52976" lon="5.24246">
        <ele>894.97252</ele>
        <time>2023-08-12T21:46:01.847Z</time>
      </trkpt>
      <trkpt lat="44.53009" lon="5.24274">
        <ele>897.550675</ele>
        <time>2023-08-12T21:46:13.134Z</time>
      </trkpt>
      <trkpt lat="44.53062" lon="5.24292">
        <ele>901.174976</ele>
        <time>2023-08-12T21:46:32.187Z</time>
      </trkpt>
      <trkpt lat="44.53087" lon="5.24311">
        <ele>903.133917</ele>
        <time>2023-08-12T21:46:43.108Z</time>
      </trkpt>
      <trkpt lat="44.53148" lon="5.24319">
        <ele>907.360202</ele>
        <time>2023-08-12T21:47:05.248Z</time>
      </trkpt>
      <trkpt lat="44.53181" lon="5.24332">
        <ele>910.156195</ele>
        <time>2023-08-12T21:47:18.409Z</time>
      </trkpt>
      <trkpt lat="44.53192" lon="5.24343">
        <ele>911.27937</ele>
        <time>2023-08-12T21:47:23.451Z</time>
      </trkpt>
      <trkpt lat="44.53203" lon="5.24369">
        <ele>913.019458</ele>
        <time>2023-08-12T21:47:32.166Z</time>
      </trkpt>
      <trkpt lat="44.53217" lon="5.24394">
        <ele>914.855279</ele>
        <time>2023-08-12T21:47:41.300Z</time>
      </trkpt>
      <trkpt lat="44.53218" lon="5.24402">
        <ele>915.370829</ele>
        <time>2023-08-12T21:47:44.048Z</time>
      </trkpt>
      <trkpt lat="44.53217" lon="5.24407">
        <ele>915.672161</ele>
        <time>2023-08-12T21:47:45.640Z</time>
      </trkpt>
      <trkpt lat="44.53161" lon="5.24463">
        <ele>921.06315</ele>
        <time>2023-08-12T21:48:12.556Z</time>
      </trkpt>
      <trkpt lat="44.5315" lon="5.24481">
        <ele>921.624864</ele>
        <time>2023-08-12T21:48:17.995Z</time>
      </trkpt>
      <trkpt lat="44.53149" lon="5.24494">
        <ele>921.944404</ele>
        <time>2023-08-12T21:48:20.962Z</time>
      </trkpt>
      <trkpt lat="44.53162" lon="5.2456">
        <ele>923.581752</ele>
        <time>2023-08-12T21:48:34.029Z</time>
      </trkpt>
      <trkpt lat="44.53174" lon="5.24585">
        <ele>924.327688</ele>
        <time>2023-08-12T21:48:38.432Z</time>
      </trkpt>
      <trkpt lat="44.53181" lon="5.24589">
        <ele>924.581945</ele>
        <time>2023-08-12T21:48:40.074Z</time>
      </trkpt>
      <trkpt lat="44.53254" lon="5.24631">
        <ele>926.647179</ele>
        <time>2023-08-12T21:48:52.696Z</time>
      </trkpt>
      <trkpt lat="44.53263" lon="5.24633">
        <ele>926.264465</ele>
        <time>2023-08-12T21:48:53.770Z</time>
      </trkpt>
      <trkpt lat="44.53299" lon="5.2464">
        <ele>924.551828</ele>
        <time>2023-08-12T21:48:57.268Z</time>
      </trkpt>
      <trkpt lat="44.53326" lon="5.24632">
        <ele>923.308318</ele>
        <time>2023-08-12T21:48:59.387Z</time>
      </trkpt>
      <trkpt lat="44.5337" lon="5.24614">
        <ele>921.18767</ele>
        <time>2023-08-12T21:49:02.728Z</time>
      </trkpt>
      <trkpt lat="44.53404" lon="5.24589">
        <ele>919.374622</ele>
        <time>2023-08-12T21:49:05.495Z</time>
      </trkpt>
      <trkpt lat="44.53452" lon="5.24575">
        <ele>916.581012</ele>
        <time>2023-08-12T21:49:08.898Z</time>
      </trkpt>
      <trkpt lat="44.53474" lon="5.24575">
        <ele>915.242235</ele>
        <time>2023-08-12T21:49:10.403Z</time>
      </trkpt>
      <trkpt lat="44.53498" lon="5.24588">
        <ele>913.583244</ele>
        <time>2023-08-12T21:49:12.288Z</time>
      </trkpt>
      <trkpt lat="44.53522" lon="5.24592">
        <ele>912.105587</ele>
        <time>2023-08-12T21:49:13.983Z</time>
      </trkpt>
      <trkpt lat="44.53578" lon="5.24578">
        <ele>908.582947</ele>
        <time>2023-08-12T21:49:18.214Z</time>
      </trkpt>
      <trkpt lat="44.53664" lon="5.24534">
        <ele>906.163309</ele>
        <time>2023-08-12T21:49:26.815Z</time>
      </trkpt>
      <trkpt lat="44.5367" lon="5.24519">
        <ele>905.949337</ele>
        <time>2023-08-12T21:49:28.250Z</time>
      </trkpt>
      <trkpt lat="44.5367" lon="5.2451">
        <ele>905.83336</ele>
        <time>2023-08-12T21:49:28.893Z</time>
      </trkpt>
      <trkpt lat="44.53667" lon="5.24501">
        <ele>905.712163</ele>
        <time>2023-08-12T21:49:29.654Z</time>
      </trkpt>
      <trkpt lat="44.53654" lon="5.24483">
        <ele>905.388902</ele>
        <time>2023-08-12T21:49:31.578Z</time>
      </trkpt>
      <trkpt lat="44.53648" lon="5.24463">
        <ele>905.116436</ele>
        <time>2023-08-12T21:49:32.982Z</time>
      </trkpt>
      <trkpt lat="44.53652" lon="5.24432">
        <ele>904.723814</ele>
        <time>2023-08-12T21:49:35.111Z</time>
      </trkpt>
      <trkpt lat="44.5367" lon="5.24357">
        <ele>902.315645</ele>
        <time>2023-08-12T21:49:39.877Z</time>
      </trkpt>
      <trkpt lat="44.53676" lon="5.24345">
        <ele>901.70766</ele>
        <time>2023-08-12T21:49:40.652Z</time>
      </trkpt>
      <trkpt lat="44.53682" lon="5.24338">
        <ele>901.183099</ele>
        <time>2023-08-12T21:49:41.342Z</time>
      </trkpt>
      <trkpt lat="44.53714" lon="5.24339">
        <ele>899.229695</ele>
        <time>2023-08-12T21:49:43.763Z</time>
      </trkpt>
      <trkpt lat="44.53744" lon="5.2433">
        <ele>897.31652</ele>
        <time>2023-08-12T21:49:45.999Z</time>
      </trkpt>
      <trkpt lat="44.5383" lon="5.24279">
        <ele>890.887122</ele>
        <time>2023-08-12T21:49:52.439Z</time>
      </trkpt>
      <trkpt lat="44.53881" lon="5.24266">
        <ele>886.34156</ele>
        <time>2023-08-12T21:49:56.001Z</time>
      </trkpt>
      <trkpt lat="44.53886" lon="5.24268">
        <ele>885.848172</ele>
        <time>2023-08-12T21:49:56.390Z</time>
      </trkpt>
      <trkpt lat="44.53915" lon="5.24271">
        <ele>883.348853</ele>
        <time>2023-08-12T21:49:58.376Z</time>
      </trkpt>
      <trkpt lat="44.53935" lon="5.24262">
        <ele>881.440288</ele>
        <time>2023-08-12T21:49:59.902Z</time>
      </trkpt>
      <trkpt lat="44.53966" lon="5.24256">
        <ele>878.788503</ele>
        <time>2023-08-12T21:50:02.068Z</time>
      </trkpt>
      <trkpt lat="44.53992" lon="5.2426">
        <ele>877.042096</ele>
        <time>2023-08-12T21:50:04.000Z</time>
      </trkpt>
      <trkpt lat="44.54022" lon="5.2428">
        <ele>875.946561</ele>
        <time>2023-08-12T21:50:06.530Z</time>
      </trkpt>
      <trkpt lat="44.54039" lon="5.24296">
        <ele>875.28364</ele>
        <time>2023-08-12T21:50:08.100Z</time>
      </trkpt>
      <trkpt lat="44.54073" lon="5.24301">
        <ele>874.1703</ele>
        <time>2023-08-12T21:50:10.910Z</time>
      </trkpt>
      <trkpt lat="44.54238" lon="5.24235">
        <ele>867.89072</ele>
        <time>2023-08-12T21:50:26.998Z</time>
      </trkpt>
      <trkpt lat="44.54269" lon="5.24203">
        <ele>866.363468</ele>
        <time>2023-08-12T21:50:29.907Z</time>
      </trkpt>
      <trkpt lat="44.54283" lon="5.24194">
        <ele>865.737185</ele>
        <time>2023-08-12T21:50:31.037Z</time>
      </trkpt>
      <trkpt lat="44.54303" lon="5.24194">
        <ele>864.940709</ele>
        <time>2023-08-12T21:50:32.460Z</time>
      </trkpt>
      <trkpt lat="44.54335" lon="5.24216">
        <ele>862.597069</ele>
        <time>2023-08-12T21:50:34.977Z</time>
      </trkpt>
      <trkpt lat="44.54409" lon="5.24296">
        <ele>854.657353</ele>
        <time>2023-08-12T21:50:41.433Z</time>
      </trkpt>
      <trkpt lat="44.5443" lon="5.2431">
        <ele>852.672709</ele>
        <time>2023-08-12T21:50:43.040Z</time>
      </trkpt>
      <trkpt lat="44.54485" lon="5.24313">
        <ele>848.224836</ele>
        <time>2023-08-12T21:50:46.921Z</time>
      </trkpt>
      <trkpt lat="44.54507" lon="5.24314">
        <ele>846.864971</ele>
        <time>2023-08-12T21:50:48.510Z</time>
      </trkpt>
      <trkpt lat="44.54523" lon="5.24309">
        <ele>845.879312</ele>
        <time>2023-08-12T21:50:49.718Z</time>
      </trkpt>
      <trkpt lat="44.54536" lon="5.24293">
        <ele>844.789906</ele>
        <time>2023-08-12T21:50:51.049Z</time>
      </trkpt>
      <trkpt lat="44.54543" lon="5.24289">
        <ele>844.328791</ele>
        <time>2023-08-12T21:50:51.637Z</time>
      </trkpt>
      <trkpt lat="44.54552" lon="5.2429">
        <ele>843.776674</ele>
        <time>2023-08-12T21:50:52.351Z</time>
      </trkpt>
      <trkpt lat="44.54605" lon="5.24316">
        <ele>840.395548</ele>
        <time>2023-08-12T21:50:56.731Z</time>
      </trkpt>
      <trkpt lat="44.54615" lon="5.24317">
        <ele>839.761993</ele>
        <time>2023-08-12T21:50:57.516Z</time>
      </trkpt>
      <trkpt lat="44.54624" lon="5.24311">
        <ele>839.142652</ele>
        <time>2023-08-12T21:50:58.272Z</time>
      </trkpt>
      <trkpt lat="44.54647" lon="5.24255">
        <ele>834.8042</ele>
        <time>2023-08-12T21:51:01.528Z</time>
      </trkpt>
      <trkpt lat="44.54661" lon="5.24246">
        <ele>832.878327</ele>
        <time>2023-08-12T21:51:02.617Z</time>
      </trkpt>
      <trkpt lat="44.54722" lon="5.24251">
        <ele>825.484047</ele>
        <time>2023-08-12T21:51:06.721Z</time>
      </trkpt>
      <trkpt lat="44.54739" lon="5.24259">
        <ele>823.334973</ele>
        <time>2023-08-12T21:51:07.903Z</time>
      </trkpt>
      <trkpt lat="44.54759" lon="5.24276">
        <ele>820.486566</ele>
        <time>2023-08-12T21:51:09.470Z</time>
      </trkpt>
      <trkpt lat="44.54777" lon="5.24322">
        <ele>816.076156</ele>
        <time>2023-08-12T21:51:11.921Z</time>
      </trkpt>
      <trkpt lat="44.54808" lon="5.24381">
        <ele>810.844012</ele>
        <time>2023-08-12T21:51:15.475Z</time>
      </trkpt>
      <trkpt lat="44.54826" lon="5.24425">
        <ele>807.245951</ele>
        <time>2023-08-12T21:51:17.961Z</time>
      </trkpt>
      <trkpt lat="44.54831" lon="5.24437">
        <ele>806.244042</ele>
        <time>2023-08-12T21:51:18.653Z</time>
      </trkpt>
      <trkpt lat="44.54845" lon="5.24452">
        <ele>804.489701</ele>
        <time>2023-08-12T21:51:19.885Z</time>
      </trkpt>
      <trkpt lat="44.54894" lon="5.24464">
        <ele>799.568811</ele>
        <time>2023-08-12T21:51:23.392Z</time>
      </trkpt>
      <trkpt lat="44.54924" lon="5.24483">
        <ele>797.008031</ele>
        <time>2023-08-12T21:51:25.725Z</time>
      </trkpt>
      <trkpt lat="44.54928" lon="5.24483">
        <ele>796.686406</ele>
        <time>2023-08-12T21:51:26.074Z</time>
      </trkpt>
      <trkpt lat="44.54935" lon="5.24478">
        <ele>796.194145</ele>
        <time>2023-08-12T21:51:26.623Z</time>
      </trkpt>
      <trkpt lat="44.54948" lon="5.2445">
        <ele>794.649257</ele>
        <time>2023-08-12T21:51:28.371Z</time>
      </trkpt>
      <trkpt lat="44.54953" lon="5.2445">
        <ele>794.301131</ele>
        <time>2023-08-12T21:51:28.764Z</time>
      </trkpt>
      <trkpt lat="44.54955" lon="5.24461">
        <ele>793.811188</ele>
        <time>2023-08-12T21:51:29.333Z</time>
      </trkpt>
      <trkpt lat="44.54945" lon="5.24497">
        <ele>791.973749</ele>
        <time>2023-08-12T21:51:31.501Z</time>
      </trkpt>
      <trkpt lat="44.54937" lon="5.24508">
        <ele>791.254823</ele>
        <time>2023-08-12T21:51:32.329Z</time>
      </trkpt>
      <trkpt lat="44.54871" lon="5.24507">
        <ele>786.955837</ele>
        <time>2023-08-12T21:51:37.060Z</time>
      </trkpt>
      <trkpt lat="44.54853" lon="5.24514">
        <ele>785.872001</ele>
        <time>2023-08-12T21:51:38.398Z</time>
      </trkpt>
      <trkpt lat="44.54838" lon="5.24511">
        <ele>785.07848</ele>
        <time>2023-08-12T21:51:39.458Z</time>
      </trkpt>
      <trkpt lat="44.5483" lon="5.24514">
        <ele>784.660054</ele>
        <time>2023-08-12T21:51:40.022Z</time>
      </trkpt>
      <trkpt lat="44.5483" lon="5.24524">
        <ele>784.317423</ele>
        <time>2023-08-12T21:51:40.477Z</time>
      </trkpt>
      <trkpt lat="44.54835" lon="5.24529">
        <ele>783.993037</ele>
        <time>2023-08-12T21:51:40.915Z</time>
      </trkpt>
      <trkpt lat="44.54853" lon="5.24532">
        <ele>783.04287</ele>
        <time>2023-08-12T21:51:42.196Z</time>
      </trkpt>
      <trkpt lat="44.54876" lon="5.24544">
        <ele>781.795879</ele>
        <time>2023-08-12T21:51:43.902Z</time>
      </trkpt>
      <trkpt lat="44.549" lon="5.2457">
        <ele>780.214821</ele>
        <time>2023-08-12T21:51:46.177Z</time>
      </trkpt>
      <trkpt lat="44.5496" lon="5.24629">
        <ele>776.965779</ele>
        <time>2023-08-12T21:51:53.687Z</time>
      </trkpt>
      <trkpt lat="44.54979" lon="5.24642">
        <ele>776.62226</ele>
        <time>2023-08-12T21:51:57.252Z</time>
      </trkpt>
      <trkpt lat="44.54986" lon="5.2464">
        <ele>776.521319</ele>
        <time>2023-08-12T21:51:58.239Z</time>
      </trkpt>
      <trkpt lat="44.54991" lon="5.24633">
        <ele>776.407637</ele>
        <time>2023-08-12T21:51:59.302Z</time>
      </trkpt>
      <trkpt lat="44.55022" lon="5.2456">
        <ele>775.420453</ele>
        <time>2023-08-12T21:52:06.940Z</time>
      </trkpt>
      <trkpt lat="44.55032" lon="5.24543">
        <ele>775.177477</ele>
        <time>2023-08-12T21:52:08.259Z</time>
      </trkpt>
      <trkpt lat="44.55045" lon="5.24531">
        <ele>774.922891</ele>
        <time>2023-08-12T21:52:09.626Z</time>
      </trkpt>
      <trkpt lat="44.55071" lon="5.24514">
        <ele>774.46843</ele>
        <time>2023-08-12T21:52:11.862Z</time>
      </trkpt>
      <trkpt lat="44.55078" lon="5.24512">
        <ele>774.354151</ele>
        <time>2023-08-12T21:52:12.413Z</time>
      </trkpt>
      <trkpt lat="44.55082" lon="5.24516">
        <ele>774.057054</ele>
        <time>2023-08-12T21:52:12.795Z</time>
      </trkpt>
      <trkpt lat="44.55081" lon="5.24526">
        <ele>773.287917</ele>
        <time>2023-08-12T21:52:13.363Z</time>
      </trkpt>
      <trkpt lat="44.55068" lon="5.24533">
        <ele>771.977362</ele>
        <time>2023-08-12T21:52:14.329Z</time>
      </trkpt>
      <trkpt lat="44.55054" lon="5.24546">
        <ele>770.296922</ele>
        <time>2023-08-12T21:52:15.544Z</time>
      </trkpt>
      <trkpt lat="44.55032" lon="5.24589">
        <ele>766.542018</ele>
        <time>2023-08-12T21:52:18.166Z</time>
      </trkpt>
      <trkpt lat="44.55002" lon="5.24726">
        <ele>756.298884</ele>
        <time>2023-08-12T21:52:25.081Z</time>
      </trkpt>
      <trkpt lat="44.54996" lon="5.24739">
        <ele>755.30221</ele>
        <time>2023-08-12T21:52:25.776Z</time>
      </trkpt>
      <trkpt lat="44.54977" lon="5.24749">
        <ele>753.341545</ele>
        <time>2023-08-12T21:52:27.142Z</time>
      </trkpt>
      <trkpt lat="44.54965" lon="5.24751">
        <ele>752.176152</ele>
        <time>2023-08-12T21:52:27.956Z</time>
      </trkpt>
      <trkpt lat="44.54908" lon="5.24735">
        <ele>746.581435</ele>
        <time>2023-08-12T21:52:31.896Z</time>
      </trkpt>
      <trkpt lat="44.54887" lon="5.24738">
        <ele>744.595155</ele>
        <time>2023-08-12T21:52:33.334Z</time>
      </trkpt>
      <trkpt lat="44.54849" lon="5.2475">
        <ele>740.848902</ele>
        <time>2023-08-12T21:52:36.167Z</time>
      </trkpt>
      <trkpt lat="44.5481" lon="5.24743">
        <ele>738.6533</ele>
        <time>2023-08-12T21:52:39.474Z</time>
      </trkpt>
      <trkpt lat="44.54793" lon="5.24734">
        <ele>738.280648</ele>
        <time>2023-08-12T21:52:41.083Z</time>
      </trkpt>
      <trkpt lat="44.54786" lon="5.24717">
        <ele>738.001226</ele>
        <time>2023-08-12T21:52:42.248Z</time>
      </trkpt>
      <trkpt lat="44.54784" lon="5.24678">
        <ele>737.435826</ele>
        <time>2023-08-12T21:52:44.579Z</time>
      </trkpt>
      <trkpt lat="44.54781" lon="5.2467">
        <ele>737.302697</ele>
        <time>2023-08-12T21:52:45.106Z</time>
      </trkpt>
      <trkpt lat="44.54761" lon="5.24647">
        <ele>736.770826</ele>
        <time>2023-08-12T21:52:47.479Z</time>
      </trkpt>
      <trkpt lat="44.54758" lon="5.2464">
        <ele>736.64169</ele>
        <time>2023-08-12T21:52:48.027Z</time>
      </trkpt>
      <trkpt lat="44.54754" lon="5.24602">
        <ele>736.07733</ele>
        <time>2023-08-12T21:52:50.887Z</time>
      </trkpt>
      <trkpt lat="44.54745" lon="5.2458">
        <ele>735.716188</ele>
        <time>2023-08-12T21:52:52.815Z</time>
      </trkpt>
      <trkpt lat="44.54736" lon="5.24567">
        <ele>735.441948</ele>
        <time>2023-08-12T21:52:54.671Z</time>
      </trkpt>
      <trkpt lat="44.54726" lon="5.24563">
        <ele>735.106336</ele>
        <time>2023-08-12T21:52:55.676Z</time>
      </trkpt>
      <trkpt lat="44.54686" lon="5.24587">
        <ele>733.471534</ele>
        <time>2023-08-12T21:53:00.260Z</time>
      </trkpt>
      <trkpt lat="44.54677" lon="5.24588">
        <ele>733.140146</ele>
        <time>2023-08-12T21:53:01.185Z</time>
      </trkpt>
      <trkpt lat="44.54609" lon="5.24573">
        <ele>730.600814</ele>
        <time>2023-08-12T21:53:06.581Z</time>
      </trkpt>
      <trkpt lat="44.54607" lon="5.24576">
        <ele>730.467833</ele>
        <time>2023-08-12T21:53:06.845Z</time>
      </trkpt>
      <trkpt lat="44.54607" lon="5.24583">
        <ele>730.278121</ele>
        <time>2023-08-12T21:53:07.223Z</time>
      </trkpt>
      <trkpt lat="44.5463" lon="5.24589">
        <ele>729.410255</ele>
        <time>2023-08-12T21:53:08.886Z</time>
      </trkpt>
      <trkpt lat="44.54683" lon="5.24615">
        <ele>725.573336</ele>
        <time>2023-08-12T21:53:12.892Z</time>
      </trkpt>
      <trkpt lat="44.54697" lon="5.24625">
        <ele>724.259348</ele>
        <time>2023-08-12T21:53:14.018Z</time>
      </trkpt>
      <trkpt lat="44.54703" lon="5.24632">
        <ele>723.612173</ele>
        <time>2023-08-12T21:53:14.569Z</time>
      </trkpt>
      <trkpt lat="44.54705" lon="5.24647">
        <ele>722.714083</ele>
        <time>2023-08-12T21:53:15.324Z</time>
      </trkpt>
      <trkpt lat="44.54706" lon="5.24703">
        <ele>719.391164</ele>
        <time>2023-08-12T21:53:18.118Z</time>
      </trkpt>
      <trkpt lat="44.54709" lon="5.24718">
        <ele>718.478816</ele>
        <time>2023-08-12T21:53:18.882Z</time>
      </trkpt>
      <trkpt lat="44.54761" lon="5.24852">
        <ele>709.339565</ele>
        <time>2023-08-12T21:53:26.421Z</time>
      </trkpt>
      <trkpt lat="44.5478" lon="5.24876">
        <ele>707.166901</ele>
        <time>2023-08-12T21:53:28.212Z</time>
      </trkpt>
      <trkpt lat="44.54822" lon="5.24911">
        <ele>703.010227</ele>
        <time>2023-08-12T21:53:31.661Z</time>
      </trkpt>
      <trkpt lat="44.54834" lon="5.24932">
        <ele>701.40682</ele>
        <time>2023-08-12T21:53:32.998Z</time>
      </trkpt>
      <trkpt lat="44.54862" lon="5.24963">
        <ele>698.398973</ele>
        <time>2023-08-12T21:53:35.548Z</time>
      </trkpt>
      <trkpt lat="44.54913" lon="5.25013">
        <ele>694.652148</ele>
        <time>2023-08-12T21:53:40.040Z</time>
      </trkpt>
      <trkpt lat="44.54934" lon="5.25023">
        <ele>693.362045</ele>
        <time>2023-08-12T21:53:41.618Z</time>
      </trkpt>
      <trkpt lat="44.54953" lon="5.25048">
        <ele>691.775776</ele>
        <time>2023-08-12T21:53:43.571Z</time>
      </trkpt>
      <trkpt lat="44.54966" lon="5.25059">
        <ele>690.872899</ele>
        <time>2023-08-12T21:53:44.697Z</time>
      </trkpt>
      <trkpt lat="44.55021" lon="5.25092">
        <ele>687.288102</ele>
        <time>2023-08-12T21:53:49.208Z</time>
      </trkpt>
      <trkpt lat="44.5503" lon="5.25087">
        <ele>686.709964</ele>
        <time>2023-08-12T21:53:49.972Z</time>
      </trkpt>
      <trkpt lat="44.55036" lon="5.25071">
        <ele>685.99876</ele>
        <time>2023-08-12T21:53:50.924Z</time>
      </trkpt>
      <trkpt lat="44.55048" lon="5.25058">
        <ele>685.10666</ele>
        <time>2023-08-12T21:53:52.106Z</time>
      </trkpt>
      <trkpt lat="44.55057" lon="5.25058">
        <ele>684.643625</ele>
        <time>2023-08-12T21:53:52.725Z</time>
      </trkpt>
      <trkpt lat="44.55084" lon="5.25108">
        <ele>682.119772</ele>
        <time>2023-08-12T21:53:56.067Z</time>
      </trkpt>
      <trkpt lat="44.55088" lon="5.25141">
        <ele>680.787863</ele>
        <time>2023-08-12T21:53:57.814Z</time>
      </trkpt>
      <trkpt lat="44.55093" lon="5.25155">
        <ele>680.13935</ele>
        <time>2023-08-12T21:53:58.661Z</time>
      </trkpt>
      <trkpt lat="44.55111" lon="5.25183">
        <ele>678.611579</ele>
        <time>2023-08-12T21:54:00.640Z</time>
      </trkpt>
      <trkpt lat="44.55172" lon="5.25193">
        <ele>674.867047</ele>
        <time>2023-08-12T21:54:05.092Z</time>
      </trkpt>
      <trkpt lat="44.55183" lon="5.25188">
        <ele>674.144977</ele>
        <time>2023-08-12T21:54:05.915Z</time>
      </trkpt>
      <trkpt lat="44.55193" lon="5.25187">
        <ele>673.493679</ele>
        <time>2023-08-12T21:54:06.660Z</time>
      </trkpt>
      <trkpt lat="44.5521" lon="5.25196">
        <ele>672.331997</ele>
        <time>2023-08-12T21:54:07.991Z</time>
      </trkpt>
      <trkpt lat="44.55235" lon="5.2522">
        <ele>670.441157</ele>
        <time>2023-08-12T21:54:10.169Z</time>
      </trkpt>
      <trkpt lat="44.55239" lon="5.25234">
        <ele>669.774952</ele>
        <time>2023-08-12T21:54:10.941Z</time>
      </trkpt>
      <trkpt lat="44.55238" lon="5.25252">
        <ele>668.923448</ele>
        <time>2023-08-12T21:54:11.926Z</time>
      </trkpt>
      <trkpt lat="44.55241" lon="5.25264">
        <ele>668.366281</ele>
        <time>2023-08-12T21:54:12.569Z</time>
      </trkpt>
      <trkpt lat="44.55284" lon="5.2529">
        <ele>665.522351</ele>
        <time>2023-08-12T21:54:16.043Z</time>
      </trkpt>
      <trkpt lat="44.55297" lon="5.25312">
        <ele>664.468593</ele>
        <time>2023-08-12T21:54:17.540Z</time>
      </trkpt>
      <trkpt lat="44.55309" lon="5.25349">
        <ele>662.979732</ele>
        <time>2023-08-12T21:54:19.692Z</time>
      </trkpt>
      <trkpt lat="44.55315" lon="5.25359">
        <ele>662.498104</ele>
        <time>2023-08-12T21:54:20.388Z</time>
      </trkpt>
      <trkpt lat="44.55326" lon="5.25365">
        <ele>661.877994</ele>
        <time>2023-08-12T21:54:21.310Z</time>
      </trkpt>
      <trkpt lat="44.55331" lon="5.25375">
        <ele>661.434416</ele>
        <time>2023-08-12T21:54:21.973Z</time>
      </trkpt>
      <trkpt lat="44.5533" lon="5.25395">
        <ele>660.697763</ele>
        <time>2023-08-12T21:54:23.045Z</time>
      </trkpt>
      <trkpt lat="44.55333" lon="5.25407">
        <ele>660.215572</ele>
        <time>2023-08-12T21:54:23.758Z</time>
      </trkpt>
      <trkpt lat="44.55362" lon="5.25455">
        <ele>657.906921</ele>
        <time>2023-08-12T21:54:27.169Z</time>
      </trkpt>
      <trkpt lat="44.55373" lon="5.25457">
        <ele>657.326239</ele>
        <time>2023-08-12T21:54:28.022Z</time>
      </trkpt>
      <trkpt lat="44.55382" lon="5.25448">
        <ele>656.791398</ele>
        <time>2023-08-12T21:54:28.833Z</time>
      </trkpt>
      <trkpt lat="44.55404" lon="5.25408">
        <ele>655.488628</ele>
        <time>2023-08-12T21:54:31.541Z</time>
      </trkpt>
      <trkpt lat="44.55412" lon="5.25399">
        <ele>655.129737</ele>
        <time>2023-08-12T21:54:32.303Z</time>
      </trkpt>
      <trkpt lat="44.55416" lon="5.25397">
        <ele>654.954122</ele>
        <time>2023-08-12T21:54:32.673Z</time>
      </trkpt>
      <trkpt lat="44.55428" lon="5.25399">
        <ele>654.530422</ele>
        <time>2023-08-12T21:54:33.546Z</time>
      </trkpt>
      <trkpt lat="44.55433" lon="5.25404">
        <ele>654.296965</ele>
        <time>2023-08-12T21:54:34.023Z</time>
      </trkpt>
      <trkpt lat="44.55436" lon="5.2542">
        <ele>653.866375</ele>
        <time>2023-08-12T21:54:34.927Z</time>
      </trkpt>
      <trkpt lat="44.55429" lon="5.2547">
        <ele>652.555282</ele>
        <time>2023-08-12T21:54:37.684Z</time>
      </trkpt>
      <trkpt lat="44.55431" lon="5.25495">
        <ele>651.906621</ele>
        <time>2023-08-12T21:54:39.109Z</time>
      </trkpt>
      <trkpt lat="44.55463" lon="5.25548">
        <ele>650.320377</ele>
        <time>2023-08-12T21:54:43.774Z</time>
      </trkpt>
      <trkpt lat="44.55502" lon="5.25583">
        <ele>650.273591</ele>
        <time>2023-08-12T21:54:48.971Z</time>
      </trkpt>
      <trkpt lat="44.55523" lon="5.25614">
        <ele>650.243188</ele>
        <time>2023-08-12T21:54:53.171Z</time>
      </trkpt>
      <trkpt lat="44.55534" lon="5.25631">
        <ele>650.226755</ele>
        <time>2023-08-12T21:54:55.133Z</time>
      </trkpt>
      <trkpt lat="44.55544" lon="5.25658">
        <ele>650.205212</ele>
        <time>2023-08-12T21:54:58.597Z</time>
      </trkpt>
      <trkpt lat="44.55569" lon="5.25696">
        <ele>650.167685</ele>
        <time>2023-08-12T21:55:03.714Z</time>
      </trkpt>
      <trkpt lat="44.55577" lon="5.25718">
        <ele>650.150233</ele>
        <time>2023-08-12T21:55:05.682Z</time>
      </trkpt>
      <trkpt lat="44.55585" lon="5.25728">
        <ele>649.953433</ele>
        <time>2023-08-12T21:55:07.022Z</time>
      </trkpt>
      <trkpt lat="44.5562" lon="5.2576">
        <ele>648.539773</ele>
        <time>2023-08-12T21:55:11.397Z</time>
      </trkpt>
      <trkpt lat="44.55627" lon="5.25777">
        <ele>648.067446</ele>
        <time>2023-08-12T21:55:12.642Z</time>
      </trkpt>
      <trkpt lat="44.55661" lon="5.25813">
        <ele>646.651216</ele>
        <time>2023-08-12T21:55:16.204Z</time>
      </trkpt>
      <trkpt lat="44.55704" lon="5.25887">
        <ele>644.342497</ele>
        <time>2023-08-12T21:55:21.274Z</time>
      </trkpt>
      <trkpt lat="44.55766" lon="5.25936">
        <ele>640.043571</ele>
        <time>2023-08-12T21:55:26.320Z</time>
      </trkpt>
      <trkpt lat="44.55776" lon="5.25971">
        <ele>638.29986</ele>
        <time>2023-08-12T21:55:28.279Z</time>
      </trkpt>
      <trkpt lat="44.55822" lon="5.25995">
        <ele>635.14502</ele>
        <time>2023-08-12T21:55:31.863Z</time>
      </trkpt>
      <trkpt lat="44.55866" lon="5.26027">
        <ele>631.921989</ele>
        <time>2023-08-12T21:55:35.541Z</time>
      </trkpt>
      <trkpt lat="44.55893" lon="5.26081">
        <ele>628.844606</ele>
        <time>2023-08-12T21:55:38.970Z</time>
      </trkpt>
      <trkpt lat="44.55898" lon="5.26111">
        <ele>627.380785</ele>
        <time>2023-08-12T21:55:40.593Z</time>
      </trkpt>
      <trkpt lat="44.55929" lon="5.26173">
        <ele>623.823903</ele>
        <time>2023-08-12T21:55:44.516Z</time>
      </trkpt>
      <trkpt lat="44.55942" lon="5.26187">
        <ele>622.73111</ele>
        <time>2023-08-12T21:55:45.707Z</time>
      </trkpt>
      <trkpt lat="44.55964" lon="5.26204">
        <ele>621.06426</ele>
        <time>2023-08-12T21:55:47.512Z</time>
      </trkpt>
      <trkpt lat="44.56028" lon="5.2626">
        <ele>614.860008</ele>
        <time>2023-08-12T21:55:52.815Z</time>
      </trkpt>
      <trkpt lat="44.56043" lon="5.26284">
        <ele>612.99589</ele>
        <time>2023-08-12T21:55:54.367Z</time>
      </trkpt>
      <trkpt lat="44.56097" lon="5.26404">
        <ele>605.087545</ele>
        <time>2023-08-12T21:56:01.418Z</time>
      </trkpt>
      <trkpt lat="44.56101" lon="5.26429">
        <ele>604.252851</ele>
        <time>2023-08-12T21:56:02.733Z</time>
      </trkpt>
      <trkpt lat="44.56102" lon="5.2645">
        <ele>603.545977</ele>
        <time>2023-08-12T21:56:03.850Z</time>
      </trkpt>
      <trkpt lat="44.56108" lon="5.26474">
        <ele>602.744296</ele>
        <time>2023-08-12T21:56:05.142Z</time>
      </trkpt>
      <trkpt lat="44.56117" lon="5.26497">
        <ele>601.895201</ele>
        <time>2023-08-12T21:56:06.513Z</time>
      </trkpt>
      <trkpt lat="44.56134" lon="5.26512">
        <ele>600.991688</ele>
        <time>2023-08-12T21:56:08.005Z</time>
      </trkpt>
      <trkpt lat="44.56157" lon="5.26524">
        <ele>599.894558</ele>
        <time>2023-08-12T21:56:09.862Z</time>
      </trkpt>
      <trkpt lat="44.56219" lon="5.26529">
        <ele>597.69016</ele>
        <time>2023-08-12T21:56:15.634Z</time>
      </trkpt>
      <trkpt lat="44.56254" lon="5.26546">
        <ele>598.4172</ele>
        <time>2023-08-12T21:56:22.242Z</time>
      </trkpt>
      <trkpt lat="44.5627" lon="5.26562">
        <ele>598.788866</ele>
        <time>2023-08-12T21:56:26.481Z</time>
      </trkpt>
      <trkpt lat="44.56278" lon="5.26577">
        <ele>599.049547</ele>
        <time>2023-08-12T21:56:28.768Z</time>
      </trkpt>
      <trkpt lat="44.56283" lon="5.26597">
        <ele>599.352974</ele>
        <time>2023-08-12T21:56:32.372Z</time>
      </trkpt>
      <trkpt lat="44.56289" lon="5.26612">
        <ele>599.587245</ele>
        <time>2023-08-12T21:56:34.638Z</time>
      </trkpt>
      <trkpt lat="44.563" lon="5.26625">
        <ele>599.857333</ele>
        <time>2023-08-12T21:56:37.085Z</time>
      </trkpt>
      <trkpt lat="44.56307" lon="5.26643">
        <ele>600.140802</ele>
        <time>2023-08-12T21:56:40.645Z</time>
      </trkpt>
      <trkpt lat="44.56315" lon="5.26677">
        <ele>600.644567</ele>
        <time>2023-08-12T21:56:46.077Z</time>
      </trkpt>
      <trkpt lat="44.56329" lon="5.26705">
        <ele>600.991149</ele>
        <time>2023-08-12T21:56:51.075Z</time>
      </trkpt>
      <trkpt lat="44.56342" lon="5.26717">
        <ele>600.975333</ele>
        <time>2023-08-12T21:56:54.815Z</time>
      </trkpt>
      <trkpt lat="44.56413" lon="5.26746">
        <ele>600.899289</ele>
        <time>2023-08-12T21:57:08.843Z</time>
      </trkpt>
      <trkpt lat="44.56424" lon="5.26761">
        <ele>600.883346</ele>
        <time>2023-08-12T21:57:10.806Z</time>
      </trkpt>
      <trkpt lat="44.56433" lon="5.26788">
        <ele>600.86158</ele>
        <time>2023-08-12T21:57:12.753Z</time>
      </trkpt>
      <trkpt lat="44.56444" lon="5.26804">
        <ele>600.845288</ele>
        <time>2023-08-12T21:57:13.987Z</time>
      </trkpt>
      <trkpt lat="44.56481" lon="5.26825">
        <ele>600.491896</ele>
        <time>2023-08-12T21:57:16.994Z</time>
      </trkpt>
      <trkpt lat="44.56504" lon="5.26829">
        <ele>599.506867</ele>
        <time>2023-08-12T21:57:18.780Z</time>
      </trkpt>
      <trkpt lat="44.5656" lon="5.2683">
        <ele>597.146745</ele>
        <time>2023-08-12T21:57:23.222Z</time>
      </trkpt>
      <trkpt lat="44.56578" lon="5.26834">
        <ele>596.38318</ele>
        <time>2023-08-12T21:57:24.681Z</time>
      </trkpt>
      <trkpt lat="44.5662" lon="5.26854">
        <ele>594.541162</ele>
        <time>2023-08-12T21:57:28.060Z</time>
      </trkpt>
      <trkpt lat="44.56625" lon="5.26857">
        <ele>594.336372</ele>
        <time>2023-08-12T21:57:28.422Z</time>
      </trkpt>
      <trkpt lat="44.56631" lon="5.2686">
        <ele>594.054451</ele>
        <time>2023-08-12T21:57:28.927Z</time>
      </trkpt>
      <trkpt lat="44.5664" lon="5.26874">
        <ele>593.492842</ele>
        <time>2023-08-12T21:57:29.946Z</time>
      </trkpt>
      <trkpt lat="44.56655" lon="5.2691">
        <ele>592.739292</ele>
        <time>2023-08-12T21:57:32.180Z</time>
      </trkpt>
      <trkpt lat="44.56668" lon="5.26934">
        <ele>592.258331</ele>
        <time>2023-08-12T21:57:33.848Z</time>
      </trkpt>
      <trkpt lat="44.56687" lon="5.26956">
        <ele>591.704894</ele>
        <time>2023-08-12T21:57:35.909Z</time>
      </trkpt>
      <trkpt lat="44.56708" lon="5.26974">
        <ele>591.173946</ele>
        <time>2023-08-12T21:57:38.092Z</time>
      </trkpt>
      <trkpt lat="44.56724" lon="5.26978">
        <ele>590.809686</ele>
        <time>2023-08-12T21:57:39.728Z</time>
      </trkpt>
      <trkpt lat="44.56746" lon="5.26974">
        <ele>590.318151</ele>
        <time>2023-08-12T21:57:42.197Z</time>
      </trkpt>
      <trkpt lat="44.56766" lon="5.26976">
        <ele>589.877183</ele>
        <time>2023-08-12T21:57:44.530Z</time>
      </trkpt>
      <trkpt lat="44.56785" lon="5.26985">
        <ele>589.425037</ele>
        <time>2023-08-12T21:57:46.718Z</time>
      </trkpt>
      <trkpt lat="44.56805" lon="5.27004">
        <ele>588.896216</ele>
        <time>2023-08-12T21:57:49.018Z</time>
      </trkpt>
      <trkpt lat="44.56813" lon="5.27021">
        <ele>588.572522</ele>
        <time>2023-08-12T21:57:50.369Z</time>
      </trkpt>
      <trkpt lat="44.56819" lon="5.27044">
        <ele>588.200413</ele>
        <time>2023-08-12T21:57:51.905Z</time>
      </trkpt>
      <trkpt lat="44.56818" lon="5.27065">
        <ele>587.863386</ele>
        <time>2023-08-12T21:57:53.256Z</time>
      </trkpt>
      <trkpt lat="44.56824" lon="5.27095">
        <ele>587.392732</ele>
        <time>2023-08-12T21:57:55.184Z</time>
      </trkpt>
      <trkpt lat="44.56836" lon="5.27119">
        <ele>586.921249</ele>
        <time>2023-08-12T21:57:57.100Z</time>
      </trkpt>
      <trkpt lat="44.56884" lon="5.27153">
        <ele>585.747365</ele>
        <time>2023-08-12T21:58:01.851Z</time>
      </trkpt>
      <trkpt lat="44.56896" lon="5.27167">
        <ele>585.420442</ele>
        <time>2023-08-12T21:58:03.116Z</time>
      </trkpt>
      <trkpt lat="44.56922" lon="5.27241">
        <ele>581.524221</ele>
        <time>2023-08-12T21:58:07.519Z</time>
      </trkpt>
      <trkpt lat="44.56957" lon="5.27359">
        <ele>575.322765</ele>
        <time>2023-08-12T21:58:13.922Z</time>
      </trkpt>
      <trkpt lat="44.56986" lon="5.27434">
        <ele>571.438014</ele>
        <time>2023-08-12T21:58:18.237Z</time>
      </trkpt>
      <trkpt lat="44.56996" lon="5.27469">
        <ele>569.872039</ele>
        <time>2023-08-12T21:58:20.157Z</time>
      </trkpt>
      <trkpt lat="44.56999" lon="5.27478">
        <ele>569.47454</ele>
        <time>2023-08-12T21:58:20.654Z</time>
      </trkpt>
      <trkpt lat="44.57002" lon="5.27489">
        <ele>569.001547</ele>
        <time>2023-08-12T21:58:21.245Z</time>
      </trkpt>
      <trkpt lat="44.57008" lon="5.27496">
        <ele>568.555423</ele>
        <time>2023-08-12T21:58:21.797Z</time>
      </trkpt>
      <trkpt lat="44.57015" lon="5.27499">
        <ele>568.131236</ele>
        <time>2023-08-12T21:58:22.322Z</time>
      </trkpt>
      <trkpt lat="44.5704" lon="5.27506">
        <ele>566.664335</ele>
        <time>2023-08-12T21:58:24.179Z</time>
      </trkpt>
      <trkpt lat="44.57042" lon="5.27494">
        <ele>566.167132</ele>
        <time>2023-08-12T21:58:24.799Z</time>
      </trkpt>
      <trkpt lat="44.57045" lon="5.27493">
        <ele>565.976027</ele>
        <time>2023-08-12T21:58:25.041Z</time>
      </trkpt>
      <trkpt lat="44.57093" lon="5.2751">
        <ele>563.08147</ele>
        <time>2023-08-12T21:58:28.836Z</time>
      </trkpt>
      <trkpt lat="44.57222" lon="5.27528">
        <ele>561.618018</ele>
        <time>2023-08-12T21:58:42.308Z</time>
      </trkpt>
      <trkpt lat="44.57312" lon="5.27565">
        <ele>560.749308</ele>
        <time>2023-08-12T21:58:53.639Z</time>
      </trkpt>
      <trkpt lat="44.57353" lon="5.27575">
        <ele>560.335347</ele>
        <time>2023-08-12T21:58:57.802Z</time>
      </trkpt>
      <trkpt lat="44.57378" lon="5.27587">
        <ele>560.067209</ele>
        <time>2023-08-12T21:59:00.415Z</time>
      </trkpt>
      <trkpt lat="44.57478" lon="5.27622">
        <ele>558.549708</ele>
        <time>2023-08-12T21:59:09.863Z</time>
      </trkpt>
      <trkpt lat="44.57507" lon="5.27618">
        <ele>557.753587</ele>
        <time>2023-08-12T21:59:12.347Z</time>
      </trkpt>
      <trkpt lat="44.5756" lon="5.27603">
        <ele>556.274481</ele>
        <time>2023-08-12T21:59:16.728Z</time>
      </trkpt>
      <trkpt lat="44.57622" lon="5.27569">
        <ele>554.463323</ele>
        <time>2023-08-12T21:59:22.094Z</time>
      </trkpt>
      <trkpt lat="44.57646" lon="5.27568">
        <ele>553.969988</ele>
        <time>2023-08-12T21:59:24.051Z</time>
      </trkpt>
      <trkpt lat="44.57663" lon="5.27568">
        <ele>553.620245</ele>
        <time>2023-08-12T21:59:25.488Z</time>
      </trkpt>
      <trkpt lat="44.57688" lon="5.27573">
        <ele>553.107933</ele>
        <time>2023-08-12T21:59:27.640Z</time>
      </trkpt>
      <trkpt lat="44.57695" lon="5.27577">
        <ele>552.955893</ele>
        <time>2023-08-12T21:59:28.274Z</time>
      </trkpt>
      <trkpt lat="44.57732" lon="5.27645">
        <ele>551.718926</ele>
        <time>2023-08-12T21:59:33.654Z</time>
      </trkpt>
      <trkpt lat="44.57746" lon="5.27667">
        <ele>551.299453</ele>
        <time>2023-08-12T21:59:35.549Z</time>
      </trkpt>
      <trkpt lat="44.57768" lon="5.27697">
        <ele>550.741349</ele>
        <time>2023-08-12T21:59:38.488Z</time>
      </trkpt>
      <trkpt lat="44.57777" lon="5.27705">
        <ele>550.679367</ele>
        <time>2023-08-12T21:59:39.632Z</time>
      </trkpt>
      <trkpt lat="44.57798" lon="5.27718">
        <ele>550.550281</ele>
        <time>2023-08-12T21:59:41.979Z</time>
      </trkpt>
      <trkpt lat="44.57816" lon="5.27722">
        <ele>550.446834</ele>
        <time>2023-08-12T21:59:44.124Z</time>
      </trkpt>
      <trkpt lat="44.5783" lon="5.27722">
        <ele>550.365691</ele>
        <time>2023-08-12T21:59:45.786Z</time>
      </trkpt>
      <trkpt lat="44.57859" lon="5.27715">
        <ele>550.201346</ele>
        <time>2023-08-12T21:59:49.063Z</time>
      </trkpt>
      <trkpt lat="44.57915" lon="5.27685">
        <ele>549.856318</ele>
        <time>2023-08-12T21:59:55.588Z</time>
      </trkpt>
      <trkpt lat="44.57938" lon="5.27678">
        <ele>549.688364</ele>
        <time>2023-08-12T21:59:57.984Z</time>
      </trkpt>
      <trkpt lat="44.57965" lon="5.27677">
        <ele>549.239015</ele>
        <time>2023-08-12T22:00:00.713Z</time>
      </trkpt>
      <trkpt lat="44.5801" lon="5.27689">
        <ele>548.492616</ele>
        <time>2023-08-12T22:00:05.074Z</time>
      </trkpt>
      <trkpt lat="44.58038" lon="5.2769">
        <ele>548.028311</ele>
        <time>2023-08-12T22:00:07.621Z</time>
      </trkpt>
      <trkpt lat="44.58079" lon="5.27686">
        <ele>547.336814</ele>
        <time>2023-08-12T22:00:11.224Z</time>
      </trkpt>
      <trkpt lat="44.58134" lon="5.27668">
        <ele>546.394632</ele>
        <time>2023-08-12T22:00:15.919Z</time>
      </trkpt>
      <trkpt lat="44.58191" lon="5.27663">
        <ele>545.439636</ele>
        <time>2023-08-12T22:00:20.779Z</time>
      </trkpt>
      <trkpt lat="44.58205" lon="5.27664">
        <ele>545.200085</ele>
        <time>2023-08-12T22:00:22.076Z</time>
      </trkpt>
      <trkpt lat="44.58218" lon="5.27671">
        <ele>544.975762</ele>
        <time>2023-08-12T22:00:23.318Z</time>
      </trkpt>
      <trkpt lat="44.58242" lon="5.27687">
        <ele>544.516188</ele>
        <time>2023-08-12T22:00:25.963Z</time>
      </trkpt>
      <trkpt lat="44.58292" lon="5.27738">
        <ele>543.632424</ele>
        <time>2023-08-12T22:00:32.107Z</time>
      </trkpt>
      <trkpt lat="44.58312" lon="5.2775">
        <ele>543.479342</ele>
        <time>2023-08-12T22:00:34.333Z</time>
      </trkpt>
      <trkpt lat="44.58324" lon="5.27751">
        <ele>543.393735</ele>
        <time>2023-08-12T22:00:35.528Z</time>
      </trkpt>
      <trkpt lat="44.58345" lon="5.27746">
        <ele>543.24298</ele>
        <time>2023-08-12T22:00:37.678Z</time>
      </trkpt>
      <trkpt lat="44.58379" lon="5.27729">
        <ele>542.994084</ele>
        <time>2023-08-12T22:00:41.228Z</time>
      </trkpt>
      <trkpt lat="44.58419" lon="5.27735">
        <ele>542.708831</ele>
        <time>2023-08-12T22:00:45.533Z</time>
      </trkpt>
      <trkpt lat="44.58446" lon="5.27731">
        <ele>542.52379</ele>
        <time>2023-08-12T22:00:48.452Z</time>
      </trkpt>
      <trkpt lat="44.58524" lon="5.27727">
        <ele>541.756096</ele>
        <time>2023-08-12T22:00:56.858Z</time>
      </trkpt>
      <trkpt lat="44.58649" lon="5.2769">
        <ele>540.322234</ele>
        <time>2023-08-12T22:01:08.711Z</time>
      </trkpt>
      <trkpt lat="44.5869" lon="5.27683">
        <ele>539.572727</ele>
        <time>2023-08-12T22:01:12.562Z</time>
      </trkpt>
      <trkpt lat="44.58719" lon="5.27674">
        <ele>539.031388</ele>
        <time>2023-08-12T22:01:15.304Z</time>
      </trkpt>
      <trkpt lat="44.58768" lon="5.27672">
        <ele>538.136927</ele>
        <time>2023-08-12T22:01:19.724Z</time>
      </trkpt>
      <trkpt lat="44.58837" lon="5.27647">
        <ele>536.649757</ele>
        <time>2023-08-12T22:01:25.733Z</time>
      </trkpt>
      <trkpt lat="44.58897" lon="5.27631">
        <ele>535.128113</ele>
        <time>2023-08-12T22:01:30.843Z</time>
      </trkpt>
      <trkpt lat="44.58926" lon="5.27634">
        <ele>534.419142</ele>
        <time>2023-08-12T22:01:33.304Z</time>
      </trkpt>
      <trkpt lat="44.59012" lon="5.27658">
        <ele>532.38952</ele>
        <time>2023-08-12T22:01:40.841Z</time>
      </trkpt>
      <trkpt lat="44.59073" lon="5.27666">
        <ele>531.18729</ele>
        <time>2023-08-12T22:01:46.071Z</time>
      </trkpt>
      <trkpt lat="44.59163" lon="5.27713">
        <ele>529.515859</ele>
        <time>2023-08-12T22:01:54.525Z</time>
      </trkpt>
      <trkpt lat="44.59179" lon="5.27729">
        <ele>529.831595</ele>
        <time>2023-08-12T22:01:56.455Z</time>
      </trkpt>
      <trkpt lat="44.59207" lon="5.27801">
        <ele>530.752434</ele>
        <time>2023-08-12T22:02:02.653Z</time>
      </trkpt>
      <trkpt lat="44.59218" lon="5.27816">
        <ele>531.001153</ele>
        <time>2023-08-12T22:02:04.775Z</time>
      </trkpt>
      <trkpt lat="44.59228" lon="5.27822">
        <ele>531.175439</ele>
        <time>2023-08-12T22:02:06.526Z</time>
      </trkpt>
      <trkpt lat="44.59268" lon="5.27831">
        <ele>531.81877</ele>
        <time>2023-08-12T22:02:14.310Z</time>
      </trkpt>
      <trkpt lat="44.59283" lon="5.27843">
        <ele>532.091141</ele>
        <time>2023-08-12T22:02:17.892Z</time>
      </trkpt>
      <trkpt lat="44.59305" lon="5.27869">
        <ele>534.086441</ele>
        <time>2023-08-12T22:02:27.365Z</time>
      </trkpt>
      <trkpt lat="44.59314" lon="5.27875">
        <ele>535.181618</ele>
        <time>2023-08-12T22:02:31.680Z</time>
      </trkpt>
      <trkpt lat="44.59333" lon="5.2788">
        <ele>537.269253</ele>
        <time>2023-08-12T22:02:40.303Z</time>
      </trkpt>
      <trkpt lat="44.59355" lon="5.27892">
        <ele>539.893691</ele>
        <time>2023-08-12T22:02:51.775Z</time>
      </trkpt>
      <trkpt lat="44.59385" lon="5.27913">
        <ele>543.48891</ele>
        <time>2023-08-12T22:03:09.380Z</time>
      </trkpt>
      <trkpt lat="44.59403" lon="5.27933">
        <ele>545.998188</ele>
        <time>2023-08-12T22:03:22.427Z</time>
      </trkpt>
      <trkpt lat="44.59406" lon="5.27943">
        <ele>546.786869</ele>
        <time>2023-08-12T22:03:26.443Z</time>
      </trkpt>
      <trkpt lat="44.59404" lon="5.27952">
        <ele>547.515088</ele>
        <time>2023-08-12T22:03:29.502Z</time>
      </trkpt>
      <trkpt lat="44.59389" lon="5.27974">
        <ele>549.848649</ele>
        <time>2023-08-12T22:03:41.772Z</time>
      </trkpt>
      <trkpt lat="44.59388" lon="5.27985">
        <ele>550.710244</ele>
        <time>2023-08-12T22:03:45.983Z</time>
      </trkpt>
      <trkpt lat="44.59391" lon="5.28">
        <ele>551.86485</ele>
        <time>2023-08-12T22:03:51.332Z</time>
      </trkpt>
      <trkpt lat="44.594" lon="5.28016">
        <ele>552.934816</ele>
        <time>2023-08-12T22:03:59.129Z</time>
      </trkpt>
      <trkpt lat="44.59414" lon="5.28078">
        <ele>556.381467</ele>
        <time>2023-08-12T22:04:21.502Z</time>
      </trkpt>
      <trkpt lat="44.59433" lon="5.28107">
        <ele>558.463368</ele>
        <time>2023-08-12T22:04:33.558Z</time>
      </trkpt>
      <trkpt lat="44.5946" lon="5.2814">
        <ele>561.078615</ele>
        <time>2023-08-12T22:04:47.444Z</time>
      </trkpt>
      <trkpt lat="44.59477" lon="5.28178">
        <ele>563.453988</ele>
        <time>2023-08-12T22:04:56.385Z</time>
      </trkpt>
      <trkpt lat="44.59535" lon="5.28326">
        <ele>561.69932</ele>
        <time>2023-08-12T22:05:06.548Z</time>
      </trkpt>
      <trkpt lat="44.59558" lon="5.28362">
        <ele>560.530792</ele>
        <time>2023-08-12T22:05:09.091Z</time>
      </trkpt>
      <trkpt lat="44.59588" lon="5.28394">
        <ele>559.235424</ele>
        <time>2023-08-12T22:05:11.885Z</time>
      </trkpt>
      <trkpt lat="44.59684" lon="5.28464">
        <ele>553.588563</ele>
        <time>2023-08-12T22:05:19.801Z</time>
      </trkpt>
      <trkpt lat="44.59738" lon="5.28502">
        <ele>550.375157</ele>
        <time>2023-08-12T22:05:24.236Z</time>
      </trkpt>
      <trkpt lat="44.59804" lon="5.28527">
        <ele>549.39483</ele>
        <time>2023-08-12T22:05:29.870Z</time>
      </trkpt>
      <trkpt lat="44.5982" lon="5.28532">
        <ele>549.436103</ele>
        <time>2023-08-12T22:05:31.585Z</time>
      </trkpt>
      <trkpt lat="44.59829" lon="5.2853">
        <ele>549.458919</ele>
        <time>2023-08-12T22:05:32.953Z</time>
      </trkpt>
      <trkpt lat="44.59835" lon="5.28523">
        <ele>549.479521</ele>
        <time>2023-08-12T22:05:33.837Z</time>
      </trkpt>
      <trkpt lat="44.59846" lon="5.28499">
        <ele>549.532485</ele>
        <time>2023-08-12T22:05:37.486Z</time>
      </trkpt>
      <trkpt lat="44.59857" lon="5.28485">
        <ele>549.572162</ele>
        <time>2023-08-12T22:05:40.512Z</time>
      </trkpt>
      <trkpt lat="44.59871" lon="5.28473">
        <ele>549.613192</ele>
        <time>2023-08-12T22:05:43.988Z</time>
      </trkpt>
      <trkpt lat="44.59943" lon="5.28445">
        <ele>549.762254</ele>
        <time>2023-08-12T22:06:00.288Z</time>
      </trkpt>
      <trkpt lat="44.59956" lon="5.28449">
        <ele>549.774782</ele>
        <time>2023-08-12T22:06:02.604Z</time>
      </trkpt>
      <trkpt lat="44.59967" lon="5.28458">
        <ele>549.78581</ele>
        <time>2023-08-12T22:06:04.049Z</time>
      </trkpt>
      <trkpt lat="44.59973" lon="5.28474">
        <ele>549.797713</ele>
        <time>2023-08-12T22:06:05.363Z</time>
      </trkpt>
      <trkpt lat="44.59986" lon="5.28496">
        <ele>549.816291</ele>
        <time>2023-08-12T22:06:07.496Z</time>
      </trkpt>
      <trkpt lat="44.60003" lon="5.28509">
        <ele>549.834415</ele>
        <time>2023-08-12T22:06:09.555Z</time>
      </trkpt>
      <trkpt lat="44.60028" lon="5.28517">
        <ele>549.858217</ele>
        <time>2023-08-12T22:06:12.197Z</time>
      </trkpt>
      <trkpt lat="44.60095" lon="5.28506">
        <ele>548.22781</ele>
        <time>2023-08-12T22:06:19.403Z</time>
      </trkpt>
      <trkpt lat="44.60125" lon="5.28508">
        <ele>545.589263</ele>
        <time>2023-08-12T22:06:22.400Z</time>
      </trkpt>
      <trkpt lat="44.60144" lon="5.28513">
        <ele>543.917475</ele>
        <time>2023-08-12T22:06:23.758Z</time>
      </trkpt>
      <trkpt lat="44.60155" lon="5.28522">
        <ele>542.824949</ele>
        <time>2023-08-12T22:06:24.607Z</time>
      </trkpt>
      <trkpt lat="44.60165" lon="5.28539">
        <ele>541.472076</ele>
        <time>2023-08-12T22:06:25.702Z</time>
      </trkpt>
      <trkpt lat="44.60171" lon="5.28557">
        <ele>540.243629</ele>
        <time>2023-08-12T22:06:26.642Z</time>
      </trkpt>
      <trkpt lat="44.60177" lon="5.28654">
        <ele>534.176282</ele>
        <time>2023-08-12T22:06:31.318Z</time>
      </trkpt>
      <trkpt lat="44.6018" lon="5.28672">
        <ele>532.571241</ele>
        <time>2023-08-12T22:06:32.223Z</time>
      </trkpt>
      <trkpt lat="44.60185" lon="5.28682">
        <ele>531.553199</ele>
        <time>2023-08-12T22:06:32.810Z</time>
      </trkpt>
      <trkpt lat="44.60206" lon="5.28692">
        <ele>528.894872</ele>
        <time>2023-08-12T22:06:34.273Z</time>
      </trkpt>
      <trkpt lat="44.60235" lon="5.28708">
        <ele>525.085228</ele>
        <time>2023-08-12T22:06:36.411Z</time>
      </trkpt>
      <trkpt lat="44.60268" lon="5.28739">
        <ele>520.295488</ele>
        <time>2023-08-12T22:06:39.083Z</time>
      </trkpt>
      <trkpt lat="44.60356" lon="5.28775">
        <ele>511.11733</ele>
        <time>2023-08-12T22:06:45.266Z</time>
      </trkpt>
      <trkpt lat="44.60373" lon="5.28773">
        <ele>510.254785</ele>
        <time>2023-08-12T22:06:46.456Z</time>
      </trkpt>
      <trkpt lat="44.60434" lon="5.28753">
        <ele>506.978011</ele>
        <time>2023-08-12T22:06:51.309Z</time>
      </trkpt>
      <trkpt lat="44.60448" lon="5.28751">
        <ele>506.234574</ele>
        <time>2023-08-12T22:06:52.481Z</time>
      </trkpt>
      <trkpt lat="44.60575" lon="5.28838">
        <ele>503.492593</ele>
        <time>2023-08-12T22:07:06.375Z</time>
      </trkpt>
      <trkpt lat="44.60702" lon="5.2901">
        <ele>504.521862</ele>
        <time>2023-08-12T22:07:35.335Z</time>
      </trkpt>
      <trkpt lat="44.60724" lon="5.29029">
        <ele>504.766297</ele>
        <time>2023-08-12T22:07:39.789Z</time>
      </trkpt>
      <trkpt lat="44.60762" lon="5.29052">
        <ele>505.150953</ele>
        <time>2023-08-12T22:07:45.429Z</time>
      </trkpt>
      <trkpt lat="44.60763" lon="5.29052">
        <ele>505.160962</ele>
        <time>2023-08-12T22:07:45.582Z</time>
      </trkpt>
      <trkpt lat="44.60772" lon="5.29059">
        <ele>505.263171</ele>
        <time>2023-08-12T22:07:46.893Z</time>
      </trkpt>
      <trkpt lat="44.60777" lon="5.29062">
        <ele>505.31271</ele>
        <time>2023-08-12T22:07:47.438Z</time>
      </trkpt>
      <trkpt lat="44.6081" lon="5.29082">
        <ele>505.356273</ele>
        <time>2023-08-12T22:07:51.588Z</time>
      </trkpt>
      <trkpt lat="44.60817" lon="5.29091">
        <ele>505.30286</ele>
        <time>2023-08-12T22:07:52.813Z</time>
      </trkpt>
      <trkpt lat="44.60822" lon="5.29115">
        <ele>505.206026</ele>
        <time>2023-08-12T22:07:54.798Z</time>
      </trkpt>
      <trkpt lat="44.60812" lon="5.29153">
        <ele>505.049114</ele>
        <time>2023-08-12T22:07:57.799Z</time>
      </trkpt>
      <trkpt lat="44.60806" lon="5.29173">
        <ele>504.96484</ele>
        <time>2023-08-12T22:07:59.336Z</time>
      </trkpt>
      <trkpt lat="44.60806" lon="5.29186">
        <ele>504.91302</ele>
        <time>2023-08-12T22:08:00.369Z</time>
      </trkpt>
      <trkpt lat="44.60817" lon="5.2921">
        <ele>504.80273</ele>
        <time>2023-08-12T22:08:02.320Z</time>
      </trkpt>
      <trkpt lat="44.60832" lon="5.2923">
        <ele>504.685686</ele>
        <time>2023-08-12T22:08:04.339Z</time>
      </trkpt>
      <trkpt lat="44.60893" lon="5.29257">
        <ele>504.959937</ele>
        <time>2023-08-12T22:08:10.633Z</time>
      </trkpt>
      <trkpt lat="44.60901" lon="5.29269">
        <ele>505.182519</ele>
        <time>2023-08-12T22:08:11.823Z</time>
      </trkpt>
      <trkpt lat="44.60918" lon="5.29305">
        <ele>505.763411</ele>
        <time>2023-08-12T22:08:15.618Z</time>
      </trkpt>
      <trkpt lat="44.6094" lon="5.29327">
        <ele>506.253109</ele>
        <time>2023-08-12T22:08:20.137Z</time>
      </trkpt>
      <trkpt lat="44.6095" lon="5.2933">
        <ele>506.458376</ele>
        <time>2023-08-12T22:08:22.132Z</time>
      </trkpt>
      <trkpt lat="44.60984" lon="5.2933">
        <ele>507.081931</ele>
        <time>2023-08-12T22:08:29.388Z</time>
      </trkpt>
      <trkpt lat="44.61014" lon="5.29341">
        <ele>507.667536</ele>
        <time>2023-08-12T22:08:37.176Z</time>
      </trkpt>
      <trkpt lat="44.61059" lon="5.29369">
        <ele>509.880157</ele>
        <time>2023-08-12T22:08:51.253Z</time>
      </trkpt>
      <trkpt lat="44.61131" lon="5.29397">
        <ele>513.652593</ele>
        <time>2023-08-12T22:09:14.693Z</time>
      </trkpt>
      <trkpt lat="44.61144" lon="5.29397">
        <ele>514.275001</ele>
        <time>2023-08-12T22:09:18.224Z</time>
      </trkpt>
      <trkpt lat="44.61173" lon="5.29381">
        <ele>515.84127</ele>
        <time>2023-08-12T22:09:26.460Z</time>
      </trkpt>
      <trkpt lat="44.61227" lon="5.29369">
        <ele>517.827804</ele>
        <time>2023-08-12T22:09:40.144Z</time>
      </trkpt>
      <trkpt lat="44.61245" lon="5.2937">
        <ele>518.332383</ele>
        <time>2023-08-12T22:09:44.615Z</time>
      </trkpt>
      <trkpt lat="44.61336" lon="5.29404">
        <ele>520.871611</ele>
        <time>2023-08-12T22:10:04.095Z</time>
      </trkpt>
      <trkpt lat="44.61357" lon="5.29406">
        <ele>521.422546</ele>
        <time>2023-08-12T22:10:07.270Z</time>
      </trkpt>
      <trkpt lat="44.61405" lon="5.2939">
        <ele>522.048007</ele>
        <time>2023-08-12T22:10:13.663Z</time>
      </trkpt>
      <trkpt lat="44.61481" lon="5.29346">
        <ele>522.654606</ele>
        <time>2023-08-12T22:10:24.002Z</time>
      </trkpt>
      <trkpt lat="44.61493" lon="5.29343">
        <ele>522.747128</ele>
        <time>2023-08-12T22:10:25.685Z</time>
      </trkpt>
      <trkpt lat="44.61508" lon="5.29346">
        <ele>522.860889</ele>
        <time>2023-08-12T22:10:27.999Z</time>
      </trkpt>
      <trkpt lat="44.61544" lon="5.29365">
        <ele>523.276752</ele>
        <time>2023-08-12T22:10:33.814Z</time>
      </trkpt>
      <trkpt lat="44.61592" lon="5.2937">
        <ele>525.138622</ele>
        <time>2023-08-12T22:10:41.911Z</time>
      </trkpt>
      <trkpt lat="44.61606" lon="5.29377">
        <ele>525.704922</ele>
        <time>2023-08-12T22:10:44.827Z</time>
      </trkpt>
      <trkpt lat="44.61639" lon="5.29423">
        <ele>527.483462</ele>
        <time>2023-08-12T22:10:55.316Z</time>
      </trkpt>
      <trkpt lat="44.61648" lon="5.29443">
        <ele>528.132287</ele>
        <time>2023-08-12T22:10:59.811Z</time>
      </trkpt>
      <trkpt lat="44.61659" lon="5.29482">
        <ele>529.29583</ele>
        <time>2023-08-12T22:11:09.047Z</time>
      </trkpt>
      <trkpt lat="44.61669" lon="5.29494">
        <ele>529.809677</ele>
        <time>2023-08-12T22:11:13.739Z</time>
      </trkpt>
      <trkpt lat="44.61681" lon="5.29496">
        <ele>530.397108</ele>
        <time>2023-08-12T22:11:18.119Z</time>
      </trkpt>
      <trkpt lat="44.61695" lon="5.2949">
        <ele>531.294514</ele>
        <time>2023-08-12T22:11:23.779Z</time>
      </trkpt>
      <trkpt lat="44.61718" lon="5.29461">
        <ele>533.148566</ele>
        <time>2023-08-12T22:11:35.655Z</time>
      </trkpt>
      <trkpt lat="44.61763" lon="5.29428">
        <ele>536.217866</ele>
        <time>2023-08-12T22:11:52.143Z</time>
      </trkpt>
      <trkpt lat="44.61781" lon="5.29411">
        <ele>537.546383</ele>
        <time>2023-08-12T22:11:58.590Z</time>
      </trkpt>
      <trkpt lat="44.61797" lon="5.29387">
        <ele>538.966964</ele>
        <time>2023-08-12T22:12:05.245Z</time>
      </trkpt>
      <trkpt lat="44.61811" lon="5.29355">
        <ele>540.600276</ele>
        <time>2023-08-12T22:12:12.468Z</time>
      </trkpt>
      <trkpt lat="44.61821" lon="5.29346">
        <ele>541.115157</ele>
        <time>2023-08-12T22:12:15.886Z</time>
      </trkpt>
      <trkpt lat="44.61829" lon="5.29346">
        <ele>541.321407</ele>
        <time>2023-08-12T22:12:18.062Z</time>
      </trkpt>
      <trkpt lat="44.61836" lon="5.2935">
        <ele>541.497897</ele>
        <time>2023-08-12T22:12:19.976Z</time>
      </trkpt>
      <trkpt lat="44.61842" lon="5.29358">
        <ele>541.69789</ele>
        <time>2023-08-12T22:12:21.999Z</time>
      </trkpt>
      <trkpt lat="44.61845" lon="5.29371">
        <ele>541.940295</ele>
        <time>2023-08-12T22:12:24.680Z</time>
      </trkpt>
      <trkpt lat="44.6184" lon="5.29409">
        <ele>542.605901</ele>
        <time>2023-08-12T22:12:31.116Z</time>
      </trkpt>
      <trkpt lat="44.6185" lon="5.29454">
        <ele>543.424155</ele>
        <time>2023-08-12T22:12:38.291Z</time>
      </trkpt>
      <trkpt lat="44.6185" lon="5.29501">
        <ele>544.223145</ele>
        <time>2023-08-12T22:12:44.005Z</time>
      </trkpt>
      <trkpt lat="44.61853" lon="5.2952">
        <ele>544.566792</ele>
        <time>2023-08-12T22:12:46.151Z</time>
      </trkpt>
      <trkpt lat="44.61868" lon="5.29565">
        <ele>545.283519</ele>
        <time>2023-08-12T22:12:49.806Z</time>
      </trkpt>
      <trkpt lat="44.61872" lon="5.29592">
        <ele>544.997276</ele>
        <time>2023-08-12T22:12:51.972Z</time>
      </trkpt>
      <trkpt lat="44.61872" lon="5.2962">
        <ele>544.689953</ele>
        <time>2023-08-12T22:12:54.620Z</time>
      </trkpt>
      <trkpt lat="44.61876" lon="5.29637">
        <ele>544.505215</ele>
        <time>2023-08-12T22:12:56.041Z</time>
      </trkpt>
      <trkpt lat="44.61882" lon="5.29647">
        <ele>544.361501</ele>
        <time>2023-08-12T22:12:57.011Z</time>
      </trkpt>
      <trkpt lat="44.61895" lon="5.29646">
        <ele>544.174066</ele>
        <time>2023-08-12T22:12:58.453Z</time>
      </trkpt>
      <trkpt lat="44.61926" lon="5.29615">
        <ele>543.600584</ele>
        <time>2023-08-12T22:13:01.968Z</time>
      </trkpt>
      <trkpt lat="44.61967" lon="5.29591">
        <ele>542.934885</ele>
        <time>2023-08-12T22:13:05.655Z</time>
      </trkpt>
      <trkpt lat="44.62" lon="5.29587">
        <ele>542.181111</ele>
        <time>2023-08-12T22:13:08.261Z</time>
      </trkpt>
      <trkpt lat="44.62027" lon="5.29591">
        <ele>541.206238</ele>
        <time>2023-08-12T22:13:10.445Z</time>
      </trkpt>
      <trkpt lat="44.62042" lon="5.29602">
        <ele>540.620931</ele>
        <time>2023-08-12T22:13:11.751Z</time>
      </trkpt>
      <trkpt lat="44.62062" lon="5.29625">
        <ele>539.700942</ele>
        <time>2023-08-12T22:13:13.799Z</time>
      </trkpt>
      <trkpt lat="44.62083" lon="5.29656">
        <ele>538.64388</ele>
        <time>2023-08-12T22:13:16.117Z</time>
      </trkpt>
      <trkpt lat="44.62094" lon="5.29663">
        <ele>538.207964</ele>
        <time>2023-08-12T22:13:17.095Z</time>
      </trkpt>
      <trkpt lat="44.62107" lon="5.29661">
        <ele>537.769691</ele>
        <time>2023-08-12T22:13:18.077Z</time>
      </trkpt>
      <trkpt lat="44.62135" lon="5.29632">
        <ele>536.548132</ele>
        <time>2023-08-12T22:13:20.912Z</time>
      </trkpt>
      <trkpt lat="44.62145" lon="5.29626">
        <ele>536.187766</ele>
        <time>2023-08-12T22:13:21.780Z</time>
      </trkpt>
      <trkpt lat="44.62154" lon="5.2963">
        <ele>535.833117</ele>
        <time>2023-08-12T22:13:22.651Z</time>
      </trkpt>
      <trkpt lat="44.62162" lon="5.29638">
        <ele>535.504535</ele>
        <time>2023-08-12T22:13:23.519Z</time>
      </trkpt>
      <trkpt lat="44.62167" lon="5.29671">
        <ele>534.632787</ele>
        <time>2023-08-12T22:13:25.830Z</time>
      </trkpt>
      <trkpt lat="44.62181" lon="5.29708">
        <ele>533.583274</ele>
        <time>2023-08-12T22:13:28.734Z</time>
      </trkpt>
      <trkpt lat="44.62182" lon="5.29721">
        <ele>533.24811</ele>
        <time>2023-08-12T22:13:29.635Z</time>
      </trkpt>
      <trkpt lat="44.6218" lon="5.29731">
        <ele>532.966133</ele>
        <time>2023-08-12T22:13:30.355Z</time>
      </trkpt>
      <trkpt lat="44.6217" lon="5.29753">
        <ele>532.296978</ele>
        <time>2023-08-12T22:13:31.902Z</time>
      </trkpt>
      <trkpt lat="44.62168" lon="5.29764">
        <ele>532.015976</ele>
        <time>2023-08-12T22:13:32.542Z</time>
      </trkpt>
      <trkpt lat="44.62174" lon="5.29798">
        <ele>531.146701</ele>
        <time>2023-08-12T22:13:34.396Z</time>
      </trkpt>
      <trkpt lat="44.62173" lon="5.2981">
        <ele>530.825884</ele>
        <time>2023-08-12T22:13:35.058Z</time>
      </trkpt>
      <trkpt lat="44.6217" lon="5.2982">
        <ele>530.541189</ele>
        <time>2023-08-12T22:13:35.643Z</time>
      </trkpt>
      <trkpt lat="44.62162" lon="5.2983">
        <ele>530.156938</ele>
        <time>2023-08-12T22:13:36.429Z</time>
      </trkpt>
      <trkpt lat="44.6213" lon="5.29848">
        <ele>527.463039</ele>
        <time>2023-08-12T22:13:38.849Z</time>
      </trkpt>
      <trkpt lat="44.62108" lon="5.29865">
        <ele>525.253238</ele>
        <time>2023-08-12T22:13:40.594Z</time>
      </trkpt>
      <trkpt lat="44.62091" lon="5.29869">
        <ele>523.693858</ele>
        <time>2023-08-12T22:13:41.821Z</time>
      </trkpt>
      <trkpt lat="44.62051" lon="5.29866">
        <ele>520.145941</ele>
        <time>2023-08-12T22:13:44.594Z</time>
      </trkpt>
      <trkpt lat="44.62038" lon="5.29872">
        <ele>518.996345</ele>
        <time>2023-08-12T22:13:45.488Z</time>
      </trkpt>
      <trkpt lat="44.62031" lon="5.29881">
        <ele>518.138179</ele>
        <time>2023-08-12T22:13:46.155Z</time>
      </trkpt>
      <trkpt lat="44.62027" lon="5.29903">
        <ele>516.698041</ele>
        <time>2023-08-12T22:13:47.260Z</time>
      </trkpt>
      <trkpt lat="44.62024" lon="5.29948">
        <ele>513.934151</ele>
        <time>2023-08-12T22:13:49.459Z</time>
      </trkpt>
      <trkpt lat="44.62015" lon="5.30031">
        <ele>511.748519</ele>
        <time>2023-08-12T22:13:53.625Z</time>
      </trkpt>
      <trkpt lat="44.62019" lon="5.30047">
        <ele>511.293239</ele>
        <time>2023-08-12T22:13:54.540Z</time>
      </trkpt>
      <trkpt lat="44.62052" lon="5.30126">
        <ele>508.906862</ele>
        <time>2023-08-12T22:14:00.249Z</time>
      </trkpt>
      <trkpt lat="44.62059" lon="5.30157">
        <ele>508.047359</ele>
        <time>2023-08-12T22:14:04.260Z</time>
      </trkpt>
      <trkpt lat="44.62082" lon="5.30278">
        <ele>507.810513</ele>
        <time>2023-08-12T22:14:22.816Z</time>
      </trkpt>
      <trkpt lat="44.62083" lon="5.30299">
        <ele>507.90108</ele>
        <time>2023-08-12T22:14:25.636Z</time>
      </trkpt>
      <trkpt lat="44.62075" lon="5.30328">
        <ele>508.027766</ele>
        <time>2023-08-12T22:14:29.280Z</time>
      </trkpt>
      <trkpt lat="44.62054" lon="5.30377">
        <ele>508.265396</ele>
        <time>2023-08-12T22:14:34.616Z</time>
      </trkpt>
      <trkpt lat="44.62042" lon="5.30397">
        <ele>508.373009</ele>
        <time>2023-08-12T22:14:36.316Z</time>
      </trkpt>
      <trkpt lat="44.62028" lon="5.30413">
        <ele>508.116558</ele>
        <time>2023-08-12T22:14:37.885Z</time>
      </trkpt>
      <trkpt lat="44.61975" lon="5.30449">
        <ele>504.666648</ele>
        <time>2023-08-12T22:14:42.452Z</time>
      </trkpt>
      <trkpt lat="44.61953" lon="5.30468">
        <ele>503.178785</ele>
        <time>2023-08-12T22:14:44.305Z</time>
      </trkpt>
      <trkpt lat="44.61906" lon="5.3049">
        <ele>500.28924</ele>
        <time>2023-08-12T22:14:47.828Z</time>
      </trkpt>
      <trkpt lat="44.61902" lon="5.30496">
        <ele>499.961037</ele>
        <time>2023-08-12T22:14:48.228Z</time>
      </trkpt>
      <trkpt lat="44.61902" lon="5.30506">
        <ele>499.529926</ele>
        <time>2023-08-12T22:14:48.748Z</time>
      </trkpt>
      <trkpt lat="44.61906" lon="5.30513">
        <ele>499.158676</ele>
        <time>2023-08-12T22:14:49.197Z</time>
      </trkpt>
      <trkpt lat="44.61917" lon="5.3052">
        <ele>498.45237</ele>
        <time>2023-08-12T22:14:50.056Z</time>
      </trkpt>
      <trkpt lat="44.61965" lon="5.30542">
        <ele>495.003431</ele>
        <time>2023-08-12T22:14:53.685Z</time>
      </trkpt>
      <trkpt lat="44.61982" lon="5.30555">
        <ele>493.679189</ele>
        <time>2023-08-12T22:14:55.059Z</time>
      </trkpt>
      <trkpt lat="44.62009" lon="5.30567">
        <ele>491.714004</ele>
        <time>2023-08-12T22:14:57.105Z</time>
      </trkpt>
      <trkpt lat="44.62026" lon="5.30566">
        <ele>490.555339</ele>
        <time>2023-08-12T22:14:58.313Z</time>
      </trkpt>
      <trkpt lat="44.62054" lon="5.30554">
        <ele>488.480555</ele>
        <time>2023-08-12T22:15:00.485Z</time>
      </trkpt>
      <trkpt lat="44.62092" lon="5.30557">
        <ele>485.854005</ele>
        <time>2023-08-12T22:15:03.201Z</time>
      </trkpt>
      <trkpt lat="44.62157" lon="5.30549">
        <ele>481.186431</ele>
        <time>2023-08-12T22:15:07.852Z</time>
      </trkpt>
      <trkpt lat="44.62181" lon="5.30555">
        <ele>479.446283</ele>
        <time>2023-08-12T22:15:09.560Z</time>
      </trkpt>
      <trkpt lat="44.62201" lon="5.30564">
        <ele>477.909166</ele>
        <time>2023-08-12T22:15:11.092Z</time>
      </trkpt>
      <trkpt lat="44.6223" lon="5.30581">
        <ele>475.643552</ele>
        <time>2023-08-12T22:15:13.342Z</time>
      </trkpt>
      <trkpt lat="44.6228" lon="5.306">
        <ele>472.375253</ele>
        <time>2023-08-12T22:15:17.038Z</time>
      </trkpt>
      <trkpt lat="44.62312" lon="5.30627">
        <ele>471.493439</ele>
        <time>2023-08-12T22:15:19.854Z</time>
      </trkpt>
      <trkpt lat="44.62337" lon="5.30654">
        <ele>470.762409</ele>
        <time>2023-08-12T22:15:22.360Z</time>
      </trkpt>
      <trkpt lat="44.62345" lon="5.3066">
        <ele>470.542071</ele>
        <time>2023-08-12T22:15:23.162Z</time>
      </trkpt>
      <trkpt lat="44.62358" lon="5.30661">
        <ele>470.236606</ele>
        <time>2023-08-12T22:15:24.519Z</time>
      </trkpt>
      <trkpt lat="44.62368" lon="5.30657">
        <ele>469.98577</ele>
        <time>2023-08-12T22:15:26.056Z</time>
      </trkpt>
      <trkpt lat="44.62391" lon="5.30636">
        <ele>469.361279</ele>
        <time>2023-08-12T22:15:29.881Z</time>
      </trkpt>
      <trkpt lat="44.62426" lon="5.3062">
        <ele>468.479524</ele>
        <time>2023-08-12T22:15:34.172Z</time>
      </trkpt>
      <trkpt lat="44.62464" lon="5.30608">
        <ele>468.110812</ele>
        <time>2023-08-12T22:15:38.327Z</time>
      </trkpt>
      <trkpt lat="44.6248" lon="5.30588">
        <ele>467.953754</ele>
        <time>2023-08-12T22:15:41.359Z</time>
      </trkpt>
      <trkpt lat="44.62488" lon="5.3057">
        <ele>467.839575</ele>
        <time>2023-08-12T22:15:42.640Z</time>
      </trkpt>
      <trkpt lat="44.62496" lon="5.3054">
        <ele>467.6773</ele>
        <time>2023-08-12T22:15:45.579Z</time>
      </trkpt>
      <trkpt lat="44.62503" lon="5.30548">
        <ele>467.615901</ele>
        <time>2023-08-12T22:15:46.219Z</time>
      </trkpt>
      <trkpt lat="44.62502" lon="5.30557">
        <ele>467.569971</ele>
        <time>2023-08-12T22:15:46.736Z</time>
      </trkpt>
      <trkpt lat="44.62494" lon="5.30588">
        <ele>467.398118</ele>
        <time>2023-08-12T22:15:49.127Z</time>
      </trkpt>
      <trkpt lat="44.62486" lon="5.30615">
        <ele>467.24537</ele>
        <time>2023-08-12T22:15:50.788Z</time>
      </trkpt>
      <trkpt lat="44.62481" lon="5.30625">
        <ele>467.183562</ele>
        <time>2023-08-12T22:15:52.087Z</time>
      </trkpt>
      <trkpt lat="44.62476" lon="5.3063">
        <ele>467.135742</ele>
        <time>2023-08-12T22:15:52.746Z</time>
      </trkpt>
      <trkpt lat="44.62453" lon="5.30633">
        <ele>467.204463</ele>
        <time>2023-08-12T22:15:54.733Z</time>
      </trkpt>
      <trkpt lat="44.62424" lon="5.30644">
        <ele>467.725987</ele>
        <time>2023-08-12T22:16:00.578Z</time>
      </trkpt>
      <trkpt lat="44.62406" lon="5.30656">
        <ele>468.06624</ele>
        <time>2023-08-12T22:16:05.914Z</time>
      </trkpt>
      <trkpt lat="44.62393" lon="5.30671">
        <ele>468.364312</ele>
        <time>2023-08-12T22:16:07.464Z</time>
      </trkpt>
      <trkpt lat="44.62364" lon="5.30711">
        <ele>469.072981</ele>
        <time>2023-08-12T22:16:14.347Z</time>
      </trkpt>
      <trkpt lat="44.62333" lon="5.30733">
        <ele>469.660049</ele>
        <time>2023-08-12T22:16:21.351Z</time>
      </trkpt>
      <trkpt lat="44.62314" lon="5.3078">
        <ele>470.502885</ele>
        <time>2023-08-12T22:16:30.051Z</time>
      </trkpt>
      <trkpt lat="44.62315" lon="5.30789">
        <ele>470.724763</ele>
        <time>2023-08-12T22:16:32.002Z</time>
      </trkpt>
      <trkpt lat="44.62323" lon="5.30797">
        <ele>471.056848</ele>
        <time>2023-08-12T22:16:34.162Z</time>
      </trkpt>
      <trkpt lat="44.62355" lon="5.30827">
        <ele>472.368312</ele>
        <time>2023-08-12T22:16:43.192Z</time>
      </trkpt>
      <trkpt lat="44.62363" lon="5.30829">
        <ele>472.648034</ele>
        <time>2023-08-12T22:16:44.857Z</time>
      </trkpt>
      <trkpt lat="44.62373" lon="5.30827">
        <ele>473.005759</ele>
        <time>2023-08-12T22:16:47.580Z</time>
      </trkpt>
      <trkpt lat="44.62385" lon="5.30817">
        <ele>473.481593</ele>
        <time>2023-08-12T22:16:51.656Z</time>
      </trkpt>
      <trkpt lat="44.62405" lon="5.30793">
        <ele>474.371403</ele>
        <time>2023-08-12T22:16:58.633Z</time>
      </trkpt>
      <trkpt lat="44.6245" lon="5.30782">
        <ele>475.948086</ele>
        <time>2023-08-12T22:17:08.579Z</time>
      </trkpt>
      <trkpt lat="44.62497" lon="5.30781">
        <ele>478.133984</ele>
        <time>2023-08-12T22:17:15.360Z</time>
      </trkpt>
      <trkpt lat="44.62503" lon="5.30787">
        <ele>478.472677</ele>
        <time>2023-08-12T22:17:16.695Z</time>
      </trkpt>
      <trkpt lat="44.62502" lon="5.30792">
        <ele>478.644085</ele>
        <time>2023-08-12T22:17:17.375Z</time>
      </trkpt>
      <trkpt lat="44.625" lon="5.30796">
        <ele>478.840613</ele>
        <time>2023-08-12T22:17:18.163Z</time>
      </trkpt>
      <trkpt lat="44.6248" lon="5.30793">
        <ele>479.816091</ele>
        <time>2023-08-12T22:17:23.017Z</time>
      </trkpt>
      <trkpt lat="44.62464" lon="5.30797">
        <ele>480.622215</ele>
        <time>2023-08-12T22:17:27.236Z</time>
      </trkpt>
      <trkpt lat="44.62428" lon="5.30814">
        <ele>482.559234</ele>
        <time>2023-08-12T22:17:39.617Z</time>
      </trkpt>
      <trkpt lat="44.62413" lon="5.30826">
        <ele>483.428173</ele>
        <time>2023-08-12T22:17:45.745Z</time>
      </trkpt>
      <trkpt lat="44.62402" lon="5.30842">
        <ele>484.193922</ele>
        <time>2023-08-12T22:17:51.321Z</time>
      </trkpt>
      <trkpt lat="44.62374" lon="5.30876">
        <ele>486.435034</ele>
        <time>2023-08-12T22:18:05.115Z</time>
      </trkpt>
      <trkpt lat="44.6236" lon="5.30899">
        <ele>488.038779</ele>
        <time>2023-08-12T22:18:12.874Z</time>
      </trkpt>
      <trkpt lat="44.62333" lon="5.30962">
        <ele>491.991034</ele>
        <time>2023-08-12T22:18:30.628Z</time>
      </trkpt>
      <trkpt lat="44.62314" lon="5.31029">
        <ele>495.888315</ele>
        <time>2023-08-12T22:18:48.242Z</time>
      </trkpt>
      <trkpt lat="44.62285" lon="5.31073">
        <ele>499.122547</ele>
        <time>2023-08-12T22:19:04.219Z</time>
      </trkpt>
      <trkpt lat="44.62275" lon="5.31095">
        <ele>500.788318</ele>
        <time>2023-08-12T22:19:11.639Z</time>
      </trkpt>
      <trkpt lat="44.62261" lon="5.3116">
        <ele>505.210219</ele>
        <time>2023-08-12T22:19:32.456Z</time>
      </trkpt>
      <trkpt lat="44.62256" lon="5.31167">
        <ele>505.821867</ele>
        <time>2023-08-12T22:19:35.342Z</time>
      </trkpt>
      <trkpt lat="44.62246" lon="5.31168">
        <ele>506.726627</ele>
        <time>2023-08-12T22:19:39.723Z</time>
      </trkpt>
      <trkpt lat="44.62217" lon="5.31153">
        <ele>509.505269</ele>
        <time>2023-08-12T22:19:52.929Z</time>
      </trkpt>
      <trkpt lat="44.62199" lon="5.3115">
        <ele>511.21673</ele>
        <time>2023-08-12T22:20:00.987Z</time>
      </trkpt>
      <trkpt lat="44.62166" lon="5.31153">
        <ele>514.241342</ele>
        <time>2023-08-12T22:20:14.976Z</time>
      </trkpt>
      <trkpt lat="44.62148" lon="5.31172">
        <ele>515.773668</ele>
        <time>2023-08-12T22:20:23.905Z</time>
      </trkpt>
      <trkpt lat="44.62122" lon="5.31221">
        <ele>517.74931</ele>
        <time>2023-08-12T22:20:39.886Z</time>
      </trkpt>
      <trkpt lat="44.62105" lon="5.31267">
        <ele>519.427902</ele>
        <time>2023-08-12T22:20:50.839Z</time>
      </trkpt>
      <trkpt lat="44.62099" lon="5.31295">
        <ele>520.357009</ele>
        <time>2023-08-12T22:20:55.292Z</time>
      </trkpt>
      <trkpt lat="44.621" lon="5.31316">
        <ele>521.043913</ele>
        <time>2023-08-12T22:20:58.473Z</time>
      </trkpt>
      <trkpt lat="44.62105" lon="5.31335">
        <ele>521.697359</ele>
        <time>2023-08-12T22:21:00.376Z</time>
      </trkpt>
      <trkpt lat="44.62111" lon="5.31344">
        <ele>522.103841</ele>
        <time>2023-08-12T22:21:01.759Z</time>
      </trkpt>
      <trkpt lat="44.62119" lon="5.31344">
        <ele>522.499045</ele>
        <time>2023-08-12T22:21:03.005Z</time>
      </trkpt>
      <trkpt lat="44.62128" lon="5.31335">
        <ele>523.006277</ele>
        <time>2023-08-12T22:21:04.360Z</time>
      </trkpt>
      <trkpt lat="44.62143" lon="5.3129">
        <ele>524.570178</ele>
        <time>2023-08-12T22:21:09.164Z</time>
      </trkpt>
      <trkpt lat="44.62157" lon="5.31274">
        <ele>525.374735</ele>
        <time>2023-08-12T22:21:11.830Z</time>
      </trkpt>
      <trkpt lat="44.62169" lon="5.3127">
        <ele>525.942561</ele>
        <time>2023-08-12T22:21:13.945Z</time>
      </trkpt>
      <trkpt lat="44.62183" lon="5.31277">
        <ele>526.610866</ele>
        <time>2023-08-12T22:21:16.573Z</time>
      </trkpt>
      <trkpt lat="44.62215" lon="5.31306">
        <ele>528.284371</ele>
        <time>2023-08-12T22:21:25.209Z</time>
      </trkpt>
      <trkpt lat="44.62227" lon="5.31322">
        <ele>529.019522</ele>
        <time>2023-08-12T22:21:29.969Z</time>
      </trkpt>
      <trkpt lat="44.62236" lon="5.31338">
        <ele>529.683441</ele>
        <time>2023-08-12T22:21:34.700Z</time>
      </trkpt>
      <trkpt lat="44.62231" lon="5.31497">
        <ele>538.229071</ele>
        <time>2023-08-12T22:22:23.122Z</time>
      </trkpt>
      <trkpt lat="44.62227" lon="5.31533">
        <ele>540.650644</ele>
        <time>2023-08-12T22:22:35.764Z</time>
      </trkpt>
      <trkpt lat="44.62215" lon="5.31572">
        <ele>543.490665</ele>
        <time>2023-08-12T22:22:49.845Z</time>
      </trkpt>
      <trkpt lat="44.62211" lon="5.31591">
        <ele>544.811721</ele>
        <time>2023-08-12T22:22:55.695Z</time>
      </trkpt>
      <trkpt lat="44.62214" lon="5.31609">
        <ele>545.984752</ele>
        <time>2023-08-12T22:23:00.760Z</time>
      </trkpt>
      <trkpt lat="44.62243" lon="5.31642">
        <ele>548.920812</ele>
        <time>2023-08-12T22:23:14.275Z</time>
      </trkpt>
      <trkpt lat="44.62251" lon="5.3166">
        <ele>549.774891</ele>
        <time>2023-08-12T22:23:19.325Z</time>
      </trkpt>
      <trkpt lat="44.62256" lon="5.31694">
        <ele>551.181971</ele>
        <time>2023-08-12T22:23:26.862Z</time>
      </trkpt>
      <trkpt lat="44.62258" lon="5.31742">
        <ele>553.108012</ele>
        <time>2023-08-12T22:23:36.409Z</time>
      </trkpt>
      <trkpt lat="44.62265" lon="5.31778">
        <ele>554.577301</ele>
        <time>2023-08-12T22:23:43.619Z</time>
      </trkpt>
      <trkpt lat="44.62278" lon="5.31809">
        <ele>556.018274</ele>
        <time>2023-08-12T22:23:50.652Z</time>
      </trkpt>
      <trkpt lat="44.62278" lon="5.31823">
        <ele>556.548644</ele>
        <time>2023-08-12T22:23:53.225Z</time>
      </trkpt>
      <trkpt lat="44.62275" lon="5.31835">
        <ele>557.051373</ele>
        <time>2023-08-12T22:23:55.661Z</time>
      </trkpt>
      <trkpt lat="44.62247" lon="5.31868">
        <ele>558.798395</ele>
        <time>2023-08-12T22:24:05.795Z</time>
      </trkpt>
      <trkpt lat="44.62239" lon="5.31883">
        <ele>559.260451</ele>
        <time>2023-08-12T22:24:09.396Z</time>
      </trkpt>
      <trkpt lat="44.62238" lon="5.31914">
        <ele>560.032514</ele>
        <time>2023-08-12T22:24:15.132Z</time>
      </trkpt>
      <trkpt lat="44.62254" lon="5.31932">
        <ele>560.748382</ele>
        <time>2023-08-12T22:24:20.089Z</time>
      </trkpt>
      <trkpt lat="44.62257" lon="5.31942">
        <ele>561.028485</ele>
        <time>2023-08-12T22:24:21.720Z</time>
      </trkpt>
      <trkpt lat="44.62254" lon="5.31973">
        <ele>561.815221</ele>
        <time>2023-08-12T22:24:25.913Z</time>
      </trkpt>
      <trkpt lat="44.62236" lon="5.32021">
        <ele>563.180462</ele>
        <time>2023-08-12T22:24:31.355Z</time>
      </trkpt>
      <trkpt lat="44.62236" lon="5.32039">
        <ele>563.641755</ele>
        <time>2023-08-12T22:24:34.331Z</time>
      </trkpt>
      <trkpt lat="44.62243" lon="5.32052">
        <ele>564.040192</ele>
        <time>2023-08-12T22:24:36.876Z</time>
      </trkpt>
      <trkpt lat="44.62257" lon="5.32066">
        <ele>564.673317</ele>
        <time>2023-08-12T22:24:42.161Z</time>
      </trkpt>
      <trkpt lat="44.6227" lon="5.32102">
        <ele>566.019398</ele>
        <time>2023-08-12T22:24:50.117Z</time>
      </trkpt>
      <trkpt lat="44.62312" lon="5.32176">
        <ele>569.233195</ele>
        <time>2023-08-12T22:25:09.327Z</time>
      </trkpt>
      <trkpt lat="44.6231" lon="5.32187">
        <ele>569.623571</ele>
        <time>2023-08-12T22:25:11.992Z</time>
      </trkpt>
      <trkpt lat="44.62302" lon="5.32201">
        <ele>570.218536</ele>
        <time>2023-08-12T22:25:15.531Z</time>
      </trkpt>
      <trkpt lat="44.62278" lon="5.32216">
        <ele>571.490663</ele>
        <time>2023-08-12T22:25:23.005Z</time>
      </trkpt>
      <trkpt lat="44.62255" lon="5.3222">
        <ele>572.59636</ele>
        <time>2023-08-12T22:25:28.521Z</time>
      </trkpt>
      <trkpt lat="44.62248" lon="5.32227">
        <ele>572.998942</ele>
        <time>2023-08-12T22:25:31.060Z</time>
      </trkpt>
      <trkpt lat="44.62247" lon="5.32237">
        <ele>573.120757</ele>
        <time>2023-08-12T22:25:33.249Z</time>
      </trkpt>
      <trkpt lat="44.62251" lon="5.32251">
        <ele>573.071255</ele>
        <time>2023-08-12T22:25:35.997Z</time>
      </trkpt>
      <trkpt lat="44.62261" lon="5.32266">
        <ele>573.006351</ele>
        <time>2023-08-12T22:25:39.807Z</time>
      </trkpt>
      <trkpt lat="44.62276" lon="5.32282">
        <ele>572.922228</ele>
        <time>2023-08-12T22:25:44.771Z</time>
      </trkpt>
      <trkpt lat="44.62282" lon="5.323">
        <ele>572.858778</ele>
        <time>2023-08-12T22:25:48.104Z</time>
      </trkpt>
      <trkpt lat="44.62283" lon="5.32318">
        <ele>572.802572</ele>
        <time>2023-08-12T22:25:51.693Z</time>
      </trkpt>
      <trkpt lat="44.62271" lon="5.32392">
        <ele>572.56133</ele>
        <time>2023-08-12T22:25:57.337Z</time>
      </trkpt>
      <trkpt lat="44.62272" lon="5.32421">
        <ele>572.46861</ele>
        <time>2023-08-12T22:25:58.865Z</time>
      </trkpt>
      <trkpt lat="44.62277" lon="5.32453">
        <ele>572.364251</ele>
        <time>2023-08-12T22:26:00.523Z</time>
      </trkpt>
      <trkpt lat="44.62297" lon="5.32515">
        <ele>570.974415</ele>
        <time>2023-08-12T22:26:03.912Z</time>
      </trkpt>
      <trkpt lat="44.62313" lon="5.32579">
        <ele>569.406709</ele>
        <time>2023-08-12T22:26:07.431Z</time>
      </trkpt>
      <trkpt lat="44.62317" lon="5.32605">
        <ele>568.796251</ele>
        <time>2023-08-12T22:26:08.885Z</time>
      </trkpt>
      <trkpt lat="44.62317" lon="5.32634">
        <ele>568.143073</ele>
        <time>2023-08-12T22:26:10.499Z</time>
      </trkpt>
      <trkpt lat="44.62311" lon="5.32642">
        <ele>567.866694</ele>
        <time>2023-08-12T22:26:11.272Z</time>
      </trkpt>
      <trkpt lat="44.62302" lon="5.32644">
        <ele>567.572936</ele>
        <time>2023-08-12T22:26:12.141Z</time>
      </trkpt>
      <trkpt lat="44.62281" lon="5.3263">
        <ele>566.832322</ele>
        <time>2023-08-12T22:26:15.090Z</time>
      </trkpt>
      <trkpt lat="44.62244" lon="5.32613">
        <ele>569.553372</ele>
        <time>2023-08-12T22:26:26.114Z</time>
      </trkpt>
      <trkpt lat="44.62223" lon="5.32609">
        <ele>571.643098</ele>
        <time>2023-08-12T22:26:34.758Z</time>
      </trkpt>
      <trkpt lat="44.62192" lon="5.32611">
        <ele>574.753546</ele>
        <time>2023-08-12T22:26:50.305Z</time>
      </trkpt>
      <trkpt lat="44.6217" lon="5.32617">
        <ele>577.09356</ele>
        <time>2023-08-12T22:27:03.283Z</time>
      </trkpt>
      <trkpt lat="44.62131" lon="5.32633">
        <ele>581.144908</ele>
        <time>2023-08-12T22:27:26.255Z</time>
      </trkpt>
      <trkpt lat="44.62105" lon="5.32649">
        <ele>583.9635</ele>
        <time>2023-08-12T22:27:41.193Z</time>
      </trkpt>
      <trkpt lat="44.62084" lon="5.3267">
        <ele>586.089818</ele>
        <time>2023-08-12T22:27:54.128Z</time>
      </trkpt>
      <trkpt lat="44.62075" lon="5.32683">
        <ele>587.060395</ele>
        <time>2023-08-12T22:27:59.948Z</time>
      </trkpt>
      <trkpt lat="44.62068" lon="5.327">
        <ele>588.067723</ele>
        <time>2023-08-12T22:28:05.888Z</time>
      </trkpt>
      <trkpt lat="44.62066" lon="5.32715">
        <ele>588.873065</ele>
        <time>2023-08-12T22:28:10.491Z</time>
      </trkpt>
      <trkpt lat="44.62069" lon="5.32723">
        <ele>589.357569</ele>
        <time>2023-08-12T22:28:13.021Z</time>
      </trkpt>
      <trkpt lat="44.62074" lon="5.32729">
        <ele>589.833087</ele>
        <time>2023-08-12T22:28:15.380Z</time>
      </trkpt>
      <trkpt lat="44.6209" lon="5.32722">
        <ele>591.096142</ele>
        <time>2023-08-12T22:28:21.860Z</time>
      </trkpt>
      <trkpt lat="44.62109" lon="5.3272">
        <ele>592.529279</ele>
        <time>2023-08-12T22:28:28.506Z</time>
      </trkpt>
      <trkpt lat="44.62143" lon="5.32739">
        <ele>595.243338</ele>
        <time>2023-08-12T22:28:39.358Z</time>
      </trkpt>
      <trkpt lat="44.62177" lon="5.32754">
        <ele>597.843286</ele>
        <time>2023-08-12T22:28:47.922Z</time>
      </trkpt>
      <trkpt lat="44.62213" lon="5.32799">
        <ele>598.521226</ele>
        <time>2023-08-12T22:28:57.410Z</time>
      </trkpt>
      <trkpt lat="44.62226" lon="5.32821">
        <ele>598.761737</ele>
        <time>2023-08-12T22:29:00.485Z</time>
      </trkpt>
      <trkpt lat="44.6223" lon="5.32835">
        <ele>598.882812</ele>
        <time>2023-08-12T22:29:02.104Z</time>
      </trkpt>
      <trkpt lat="44.62229" lon="5.32848">
        <ele>598.994027</ele>
        <time>2023-08-12T22:29:03.292Z</time>
      </trkpt>
      <trkpt lat="44.62216" lon="5.32885">
        <ele>599.333364</ele>
        <time>2023-08-12T22:29:06.979Z</time>
      </trkpt>
      <trkpt lat="44.62212" lon="5.32921">
        <ele>599.643549</ele>
        <time>2023-08-12T22:29:09.737Z</time>
      </trkpt>
      <trkpt lat="44.622" lon="5.32984">
        <ele>600.433432</ele>
        <time>2023-08-12T22:29:14.753Z</time>
      </trkpt>
      <trkpt lat="44.62183" lon="5.33026">
        <ele>601.763339</ele>
        <time>2023-08-12T22:29:19.798Z</time>
      </trkpt>
      <trkpt lat="44.62182" lon="5.33046">
        <ele>602.33732</ele>
        <time>2023-08-12T22:29:22.340Z</time>
      </trkpt>
      <trkpt lat="44.62186" lon="5.3311">
        <ele>604.126456</ele>
        <time>2023-08-12T22:29:32.880Z</time>
      </trkpt>
      <trkpt lat="44.62181" lon="5.33119">
        <ele>604.447842</ele>
        <time>2023-08-12T22:29:35.462Z</time>
      </trkpt>
      <trkpt lat="44.62153" lon="5.33132">
        <ele>605.618316</ele>
        <time>2023-08-12T22:29:44.392Z</time>
      </trkpt>
      <trkpt lat="44.62143" lon="5.33138">
        <ele>606.048127</ele>
        <time>2023-08-12T22:29:48.803Z</time>
      </trkpt>
      <trkpt lat="44.6212" lon="5.33153">
        <ele>607.033738</ele>
        <time>2023-08-12T22:29:57.739Z</time>
      </trkpt>
      <trkpt lat="44.62024" lon="5.33181">
        <ele>613.471572</ele>
        <time>2023-08-12T22:30:32.553Z</time>
      </trkpt>
      <trkpt lat="44.62009" lon="5.33193">
        <ele>614.593837</ele>
        <time>2023-08-12T22:30:38.210Z</time>
      </trkpt>
      <trkpt lat="44.62" lon="5.33208">
        <ele>615.515107</ele>
        <time>2023-08-12T22:30:43.264Z</time>
      </trkpt>
      <trkpt lat="44.61997" lon="5.33227">
        <ele>616.470059</ele>
        <time>2023-08-12T22:30:48.332Z</time>
      </trkpt>
      <trkpt lat="44.61998" lon="5.33258">
        <ele>617.915855</ele>
        <time>2023-08-12T22:30:55.114Z</time>
      </trkpt>
      <trkpt lat="44.62001" lon="5.33277">
        <ele>618.827976</ele>
        <time>2023-08-12T22:30:59.709Z</time>
      </trkpt>
      <trkpt lat="44.62005" lon="5.33283">
        <ele>619.087717</ele>
        <time>2023-08-12T22:31:01.136Z</time>
      </trkpt>
      <trkpt lat="44.62017" lon="5.33286">
        <ele>619.369714</ele>
        <time>2023-08-12T22:31:04.200Z</time>
      </trkpt>
      <trkpt lat="44.62024" lon="5.33281">
        <ele>619.550146</ele>
        <time>2023-08-12T22:31:06.514Z</time>
      </trkpt>
      <trkpt lat="44.62033" lon="5.33258">
        <ele>619.987051</ele>
        <time>2023-08-12T22:31:10.686Z</time>
      </trkpt>
      <trkpt lat="44.62041" lon="5.3325">
        <ele>620.195189</ele>
        <time>2023-08-12T22:31:12.662Z</time>
      </trkpt>
      <trkpt lat="44.62073" lon="5.33265">
        <ele>620.962058</ele>
        <time>2023-08-12T22:31:18.548Z</time>
      </trkpt>
      <trkpt lat="44.62104" lon="5.33275">
        <ele>621.690222</ele>
        <time>2023-08-12T22:31:22.788Z</time>
      </trkpt>
      <trkpt lat="44.62141" lon="5.33279">
        <ele>622.542698</ele>
        <time>2023-08-12T22:31:26.609Z</time>
      </trkpt>
      <trkpt lat="44.62147" lon="5.33289">
        <ele>622.756304</ele>
        <time>2023-08-12T22:31:27.622Z</time>
      </trkpt>
      <trkpt lat="44.62208" lon="5.3344">
        <ele>626.465246</ele>
        <time>2023-08-12T22:31:54.687Z</time>
      </trkpt>
      <trkpt lat="44.62222" lon="5.33463">
        <ele>627.140126</ele>
        <time>2023-08-12T22:31:58.266Z</time>
      </trkpt>
      <trkpt lat="44.62239" lon="5.3348">
        <ele>627.786809</ele>
        <time>2023-08-12T22:32:03.119Z</time>
      </trkpt>
      <trkpt lat="44.62242" lon="5.33488">
        <ele>627.968198</ele>
        <time>2023-08-12T22:32:04.280Z</time>
      </trkpt>
      <trkpt lat="44.6224" lon="5.33506">
        <ele>628.380504</ele>
        <time>2023-08-12T22:32:07.535Z</time>
      </trkpt>
      <trkpt lat="44.62206" lon="5.33582">
        <ele>632.39189</ele>
        <time>2023-08-12T22:32:26.444Z</time>
      </trkpt>
      <trkpt lat="44.62202" lon="5.33601">
        <ele>633.366101</ele>
        <time>2023-08-12T22:32:31.834Z</time>
      </trkpt>
      <trkpt lat="44.62204" lon="5.33611">
        <ele>633.849504</ele>
        <time>2023-08-12T22:32:34.240Z</time>
      </trkpt>
      <trkpt lat="44.62212" lon="5.33631">
        <ele>634.996514</ele>
        <time>2023-08-12T22:32:39.253Z</time>
      </trkpt>
      <trkpt lat="44.62214" lon="5.33648">
        <ele>635.852399</ele>
        <time>2023-08-12T22:32:44.168Z</time>
      </trkpt>
      <trkpt lat="44.62211" lon="5.33656">
        <ele>636.318518</ele>
        <time>2023-08-12T22:32:46.422Z</time>
      </trkpt>
      <trkpt lat="44.62188" lon="5.33687">
        <ele>638.532322</ele>
        <time>2023-08-12T22:32:57.887Z</time>
      </trkpt>
      <trkpt lat="44.62168" lon="5.33727">
        <ele>640.897005</ele>
        <time>2023-08-12T22:33:10.646Z</time>
      </trkpt>
      <trkpt lat="44.62153" lon="5.33764">
        <ele>643.828494</ele>
        <time>2023-08-12T22:33:23.102Z</time>
      </trkpt>
      <trkpt lat="44.62149" lon="5.33782">
        <ele>645.142455</ele>
        <time>2023-08-12T22:33:28.902Z</time>
      </trkpt>
      <trkpt lat="44.62148" lon="5.33819">
        <ele>647.688267</ele>
        <time>2023-08-12T22:33:40.828Z</time>
      </trkpt>
      <trkpt lat="44.62154" lon="5.33902">
        <ele>653.553938</ele>
        <time>2023-08-12T22:34:12.144Z</time>
      </trkpt>
      <trkpt lat="44.62154" lon="5.33926">
        <ele>655.220246</ele>
        <time>2023-08-12T22:34:20.006Z</time>
      </trkpt>
      <trkpt lat="44.6213" lon="5.34046">
        <ele>661.169192</ele>
        <time>2023-08-12T22:34:51.087Z</time>
      </trkpt>
      <trkpt lat="44.62129" lon="5.34068">
        <ele>661.917383</ele>
        <time>2023-08-12T22:34:55.159Z</time>
      </trkpt>
      <trkpt lat="44.62121" lon="5.34097">
        <ele>662.935642</ele>
        <time>2023-08-12T22:35:00.209Z</time>
      </trkpt>
      <trkpt lat="44.62132" lon="5.34174">
        <ele>665.548469</ele>
        <time>2023-08-12T22:35:10.899Z</time>
      </trkpt>
      <trkpt lat="44.62143" lon="5.34214">
        <ele>666.982953</ele>
        <time>2023-08-12T22:35:18.401Z</time>
      </trkpt>
      <trkpt lat="44.62142" lon="5.34231">
        <ele>667.33356</ele>
        <time>2023-08-12T22:35:20.845Z</time>
      </trkpt>
      <trkpt lat="44.62138" lon="5.34245">
        <ele>667.608301</ele>
        <time>2023-08-12T22:35:23.480Z</time>
      </trkpt>
      <trkpt lat="44.62156" lon="5.34372">
        <ele>669.867989</ele>
        <time>2023-08-12T22:35:44.801Z</time>
      </trkpt>
      <trkpt lat="44.62152" lon="5.34383">
        <ele>670.078003</ele>
        <time>2023-08-12T22:35:45.896Z</time>
      </trkpt>
      <trkpt lat="44.62137" lon="5.344">
        <ele>670.555806</ele>
        <time>2023-08-12T22:35:50.342Z</time>
      </trkpt>
      <trkpt lat="44.62137" lon="5.34413">
        <ele>670.793882</ele>
        <time>2023-08-12T22:35:51.933Z</time>
      </trkpt>
      <trkpt lat="44.62139" lon="5.34424">
        <ele>671.000099</ele>
        <time>2023-08-12T22:35:53.049Z</time>
      </trkpt>
      <trkpt lat="44.62158" lon="5.3445">
        <ele>671.572943</ele>
        <time>2023-08-12T22:35:57.245Z</time>
      </trkpt>
      <trkpt lat="44.6216" lon="5.34492">
        <ele>671.817188</ele>
        <time>2023-08-12T22:36:00.644Z</time>
      </trkpt>
      <trkpt lat="44.62164" lon="5.34511">
        <ele>671.932747</ele>
        <time>2023-08-12T22:36:01.786Z</time>
      </trkpt>
      <trkpt lat="44.62176" lon="5.34543">
        <ele>672.141872</ele>
        <time>2023-08-12T22:36:04.018Z</time>
      </trkpt>
      <trkpt lat="44.62192" lon="5.3461">
        <ele>672.553739</ele>
        <time>2023-08-12T22:36:12.293Z</time>
      </trkpt>
      <trkpt lat="44.62225" lon="5.34651">
        <ele>672.907323</ele>
        <time>2023-08-12T22:36:19.545Z</time>
      </trkpt>
      <trkpt lat="44.62234" lon="5.34659">
        <ele>672.991622</ele>
        <time>2023-08-12T22:36:21.398Z</time>
      </trkpt>
      <trkpt lat="44.62246" lon="5.34665">
        <ele>673.630058</ele>
        <time>2023-08-12T22:36:24.917Z</time>
      </trkpt>
      <trkpt lat="44.62264" lon="5.34668">
        <ele>674.575026</ele>
        <time>2023-08-12T22:36:28.889Z</time>
      </trkpt>
      <trkpt lat="44.62269" lon="5.34673">
        <ele>674.858903</ele>
        <time>2023-08-12T22:36:29.929Z</time>
      </trkpt>
      <trkpt lat="44.6227" lon="5.34682">
        <ele>675.185208</ele>
        <time>2023-08-12T22:36:31.446Z</time>
      </trkpt>
      <trkpt lat="44.62267" lon="5.34688">
        <ele>675.448353</ele>
        <time>2023-08-12T22:36:32.554Z</time>
      </trkpt>
      <trkpt lat="44.62246" lon="5.34702">
        <ele>676.648543</ele>
        <time>2023-08-12T22:36:35.990Z</time>
      </trkpt>
      <trkpt lat="44.62194" lon="5.3472">
        <ele>679.424397</ele>
        <time>2023-08-12T22:36:49.687Z</time>
      </trkpt>
      <trkpt lat="44.62163" lon="5.3475">
        <ele>681.363438</ele>
        <time>2023-08-12T22:37:04.113Z</time>
      </trkpt>
      <trkpt lat="44.62161" lon="5.34756">
        <ele>681.619434</ele>
        <time>2023-08-12T22:37:06.496Z</time>
      </trkpt>
      <trkpt lat="44.62164" lon="5.34775">
        <ele>682.31212</ele>
        <time>2023-08-12T22:37:12.691Z</time>
      </trkpt>
      <trkpt lat="44.62167" lon="5.34784">
        <ele>682.577432</ele>
        <time>2023-08-12T22:37:16.476Z</time>
      </trkpt>
      <trkpt lat="44.62173" lon="5.34787">
        <ele>682.818511</ele>
        <time>2023-08-12T22:37:19.045Z</time>
      </trkpt>
      <trkpt lat="44.62197" lon="5.34778">
        <ele>683.783383</ele>
        <time>2023-08-12T22:37:32.720Z</time>
      </trkpt>
      <trkpt lat="44.62204" lon="5.34781">
        <ele>684.058396</ele>
        <time>2023-08-12T22:37:35.650Z</time>
      </trkpt>
      <trkpt lat="44.62205" lon="5.34794">
        <ele>684.404567</ele>
        <time>2023-08-12T22:37:38.342Z</time>
      </trkpt>
      <trkpt lat="44.62202" lon="5.34838">
        <ele>685.618105</ele>
        <time>2023-08-12T22:37:49.084Z</time>
      </trkpt>
      <trkpt lat="44.62198" lon="5.34866">
        <ele>686.38945</ele>
        <time>2023-08-12T22:37:54.220Z</time>
      </trkpt>
      <trkpt lat="44.62194" lon="5.34922">
        <ele>687.90035</ele>
        <time>2023-08-12T22:37:58.558Z</time>
      </trkpt>
      <trkpt lat="44.62195" lon="5.34928">
        <ele>688.058375</ele>
        <time>2023-08-12T22:37:58.919Z</time>
      </trkpt>
      <trkpt lat="44.62208" lon="5.34936">
        <ele>688.594783</ele>
        <time>2023-08-12T22:37:59.930Z</time>
      </trkpt>
      <trkpt lat="44.62217" lon="5.34937">
        <ele>688.942943</ele>
        <time>2023-08-12T22:38:01.104Z</time>
      </trkpt>
      <trkpt lat="44.62227" lon="5.34934">
        <ele>688.774405</ele>
        <time>2023-08-12T22:38:02.195Z</time>
      </trkpt>
      <trkpt lat="44.62234" lon="5.34924">
        <ele>688.164112</ele>
        <time>2023-08-12T22:38:02.970Z</time>
      </trkpt>
      <trkpt lat="44.62266" lon="5.34822">
        <ele>683.454756</ele>
        <time>2023-08-12T22:38:09.016Z</time>
      </trkpt>
      <trkpt lat="44.62273" lon="5.34812">
        <ele>682.854187</ele>
        <time>2023-08-12T22:38:09.789Z</time>
      </trkpt>
      <trkpt lat="44.6234" lon="5.34764">
        <ele>678.399555</ele>
        <time>2023-08-12T22:38:15.009Z</time>
      </trkpt>
      <trkpt lat="44.62358" lon="5.34737">
        <ele>676.942405</ele>
        <time>2023-08-12T22:38:16.882Z</time>
      </trkpt>
      <trkpt lat="44.62363" lon="5.34728">
        <ele>676.531199</ele>
        <time>2023-08-12T22:38:17.412Z</time>
      </trkpt>
      <trkpt lat="44.6238" lon="5.34669">
        <ele>674.044876</ele>
        <time>2023-08-12T22:38:20.702Z</time>
      </trkpt>
      <trkpt lat="44.62386" lon="5.34601">
        <ele>671.39873</ele>
        <time>2023-08-12T22:38:24.431Z</time>
      </trkpt>
      <trkpt lat="44.62383" lon="5.34579">
        <ele>670.525633</ele>
        <time>2023-08-12T22:38:25.712Z</time>
      </trkpt>
      <trkpt lat="44.62371" lon="5.34552">
        <ele>669.296052</ele>
        <time>2023-08-12T22:38:27.547Z</time>
      </trkpt>
      <trkpt lat="44.62323" lon="5.34502">
        <ele>669.826661</ele>
        <time>2023-08-12T22:38:32.721Z</time>
      </trkpt>
      <trkpt lat="44.6232" lon="5.34487">
        <ele>670.089006</ele>
        <time>2023-08-12T22:38:33.894Z</time>
      </trkpt>
      <trkpt lat="44.62325" lon="5.34471">
        <ele>670.40518</ele>
        <time>2023-08-12T22:38:35.627Z</time>
      </trkpt>
      <trkpt lat="44.62335" lon="5.34455">
        <ele>670.78557</ele>
        <time>2023-08-12T22:38:37.746Z</time>
      </trkpt>
      <trkpt lat="44.62344" lon="5.34432">
        <ele>671.255872</ele>
        <time>2023-08-12T22:38:41.300Z</time>
      </trkpt>
      <trkpt lat="44.62349" lon="5.34409">
        <ele>671.677147</ele>
        <time>2023-08-12T22:38:45.026Z</time>
      </trkpt>
      <trkpt lat="44.62348" lon="5.34383">
        <ele>672.152353</ele>
        <time>2023-08-12T22:38:50.416Z</time>
      </trkpt>
      <trkpt lat="44.62339" lon="5.34351">
        <ele>672.754695</ele>
        <time>2023-08-12T22:38:58.518Z</time>
      </trkpt>
      <trkpt lat="44.62331" lon="5.34308">
        <ele>675.403508</ele>
        <time>2023-08-12T22:39:11.203Z</time>
      </trkpt>
      <trkpt lat="44.6233" lon="5.34271">
        <ele>678.932864</ele>
        <time>2023-08-12T22:39:23.158Z</time>
      </trkpt>
      <trkpt lat="44.62333" lon="5.34235">
        <ele>682.482216</ele>
        <time>2023-08-12T22:39:36.368Z</time>
      </trkpt>
      <trkpt lat="44.62342" lon="5.34203">
        <ele>685.766261</ele>
        <time>2023-08-12T22:39:50.621Z</time>
      </trkpt>
      <trkpt lat="44.62352" lon="5.34179">
        <ele>688.499113</ele>
        <time>2023-08-12T22:40:03.141Z</time>
      </trkpt>
      <trkpt lat="44.62417" lon="5.34092">
        <ele>700.328622</ele>
        <time>2023-08-12T22:41:02.654Z</time>
      </trkpt>
      <trkpt lat="44.62433" lon="5.34083">
        <ele>702.465606</ele>
        <time>2023-08-12T22:41:14.306Z</time>
      </trkpt>
      <trkpt lat="44.62443" lon="5.34082">
        <ele>703.620745</ele>
        <time>2023-08-12T22:41:20.249Z</time>
      </trkpt>
      <trkpt lat="44.62452" lon="5.34091">
        <ele>705.033918</ele>
        <time>2023-08-12T22:41:28.100Z</time>
      </trkpt>
      <trkpt lat="44.62462" lon="5.34107">
        <ele>706.850013</ele>
        <time>2023-08-12T22:41:36.865Z</time>
      </trkpt>
      <trkpt lat="44.62479" lon="5.34142">
        <ele>710.370372</ele>
        <time>2023-08-12T22:41:53.005Z</time>
      </trkpt>
      <trkpt lat="44.6249" lon="5.34174">
        <ele>713.47559</ele>
        <time>2023-08-12T22:42:05.332Z</time>
      </trkpt>
      <trkpt lat="44.62497" lon="5.34208">
        <ele>716.440824</ele>
        <time>2023-08-12T22:42:14.070Z</time>
      </trkpt>
      <trkpt lat="44.62494" lon="5.34236">
        <ele>718.896532</ele>
        <time>2023-08-12T22:42:21.313Z</time>
      </trkpt>
      <trkpt lat="44.62475" lon="5.34319">
        <ele>720.886675</ele>
        <time>2023-08-12T22:42:33.939Z</time>
      </trkpt>
      <trkpt lat="44.62455" lon="5.34366">
        <ele>722.008309</ele>
        <time>2023-08-12T22:42:38.507Z</time>
      </trkpt>
      <trkpt lat="44.62446" lon="5.34404">
        <ele>722.832565</ele>
        <time>2023-08-12T22:42:42.602Z</time>
      </trkpt>
      <trkpt lat="44.62449" lon="5.34432">
        <ele>723.436118</ele>
        <time>2023-08-12T22:42:46.865Z</time>
      </trkpt>
      <trkpt lat="44.62465" lon="5.34482">
        <ele>724.817667</ele>
        <time>2023-08-12T22:42:55.791Z</time>
      </trkpt>
      <trkpt lat="44.62485" lon="5.34513">
        <ele>726.999985</ele>
        <time>2023-08-12T22:43:03.427Z</time>
      </trkpt>
      <trkpt lat="44.62511" lon="5.34561">
        <ele>730.168392</ele>
        <time>2023-08-12T22:43:16.811Z</time>
      </trkpt>
      <trkpt lat="44.62532" lon="5.34583">
        <ele>732.054336</ele>
        <time>2023-08-12T22:43:26.446Z</time>
      </trkpt>
      <trkpt lat="44.62538" lon="5.34599">
        <ele>732.98112</ele>
        <time>2023-08-12T22:43:31.975Z</time>
      </trkpt>
      <trkpt lat="44.62543" lon="5.34622">
        <ele>734.214277</ele>
        <time>2023-08-12T22:43:39.439Z</time>
      </trkpt>
      <trkpt lat="44.62544" lon="5.34687">
        <ele>737.563034</ele>
        <time>2023-08-12T22:44:00.163Z</time>
      </trkpt>
      <trkpt lat="44.62542" lon="5.3471">
        <ele>738.374772</ele>
        <time>2023-08-12T22:44:08.071Z</time>
      </trkpt>
      <trkpt lat="44.62532" lon="5.34758">
        <ele>740.091885</ele>
        <time>2023-08-12T22:44:22.962Z</time>
      </trkpt>
      <trkpt lat="44.6253" lon="5.34799">
        <ele>741.509924</ele>
        <time>2023-08-12T22:44:33.277Z</time>
      </trkpt>
      <trkpt lat="44.62534" lon="5.34815">
        <ele>742.093169</ele>
        <time>2023-08-12T22:44:36.710Z</time>
      </trkpt>
      <trkpt lat="44.62578" lon="5.34863">
        <ele>744.769397</ele>
        <time>2023-08-12T22:44:47.438Z</time>
      </trkpt>
      <trkpt lat="44.62598" lon="5.34886">
        <ele>746.043204</ele>
        <time>2023-08-12T22:44:50.844Z</time>
      </trkpt>
      <trkpt lat="44.6263" lon="5.3492">
        <ele>744.177197</ele>
        <time>2023-08-12T22:44:54.439Z</time>
      </trkpt>
      <trkpt lat="44.62648" lon="5.34938">
        <ele>742.920572</ele>
        <time>2023-08-12T22:44:56.235Z</time>
      </trkpt>
      <trkpt lat="44.62702" lon="5.34971">
        <ele>739.624073</ele>
        <time>2023-08-12T22:45:00.489Z</time>
      </trkpt>
      <trkpt lat="44.62729" lon="5.34998">
        <ele>737.798355</ele>
        <time>2023-08-12T22:45:02.764Z</time>
      </trkpt>
      <trkpt lat="44.62745" lon="5.35009">
        <ele>736.818994</ele>
        <time>2023-08-12T22:45:03.977Z</time>
      </trkpt>
      <trkpt lat="44.62777" lon="5.35021">
        <ele>735.533474</ele>
        <time>2023-08-12T22:45:06.281Z</time>
      </trkpt>
      <trkpt lat="44.6279" lon="5.35032">
        <ele>735.0569</ele>
        <time>2023-08-12T22:45:07.390Z</time>
      </trkpt>
      <trkpt lat="44.62825" lon="5.35082">
        <ele>733.529786</ele>
        <time>2023-08-12T22:45:11.278Z</time>
      </trkpt>
      <trkpt lat="44.6283" lon="5.35096">
        <ele>733.207833</ele>
        <time>2023-08-12T22:45:12.203Z</time>
      </trkpt>
      <trkpt lat="44.62838" lon="5.35148">
        <ele>732.057098</ele>
        <time>2023-08-12T22:45:16.032Z</time>
      </trkpt>
      <trkpt lat="44.62837" lon="5.35159">
        <ele>731.808417</ele>
        <time>2023-08-12T22:45:17.074Z</time>
      </trkpt>
      <trkpt lat="44.62831" lon="5.3517">
        <ele>731.505218</ele>
        <time>2023-08-12T22:45:18.428Z</time>
      </trkpt>
      <trkpt lat="44.62804" lon="5.35187">
        <ele>730.872586</ele>
        <time>2023-08-12T22:45:22.490Z</time>
      </trkpt>
      <trkpt lat="44.62779" lon="5.35195">
        <ele>732.046594</ele>
        <time>2023-08-12T22:45:26.700Z</time>
      </trkpt>
      <trkpt lat="44.62759" lon="5.35212">
        <ele>733.127425</ele>
        <time>2023-08-12T22:45:31.937Z</time>
      </trkpt>
      <trkpt lat="44.62754" lon="5.35228">
        <ele>733.671592</ele>
        <time>2023-08-12T22:45:35.003Z</time>
      </trkpt>
      <trkpt lat="44.62754" lon="5.35237">
        <ele>733.981369</ele>
        <time>2023-08-12T22:45:37.117Z</time>
      </trkpt>
      <trkpt lat="44.62759" lon="5.35245">
        <ele>734.320206</ele>
        <time>2023-08-12T22:45:39.544Z</time>
      </trkpt>
      <trkpt lat="44.62795" lon="5.35275">
        <ele>736.227944</ele>
        <time>2023-08-12T22:45:54.558Z</time>
      </trkpt>
      <trkpt lat="44.62841" lon="5.35309">
        <ele>738.576274</ele>
        <time>2023-08-12T22:46:13.222Z</time>
      </trkpt>
      <trkpt lat="44.62852" lon="5.35325">
        <ele>738.849671</ele>
        <time>2023-08-12T22:46:17.770Z</time>
      </trkpt>
      <trkpt lat="44.62855" lon="5.35337">
        <ele>738.790831</ele>
        <time>2023-08-12T22:46:19.768Z</time>
      </trkpt>
      <trkpt lat="44.62858" lon="5.35427">
        <ele>738.384389</ele>
        <time>2023-08-12T22:46:27.568Z</time>
      </trkpt>
      <trkpt lat="44.62849" lon="5.35509">
        <ele>738.010765</ele>
        <time>2023-08-12T22:46:32.460Z</time>
      </trkpt>
      <trkpt lat="44.62854" lon="5.35537">
        <ele>737.880178</ele>
        <time>2023-08-12T22:46:34.120Z</time>
      </trkpt>
      <trkpt lat="44.62884" lon="5.35597">
        <ele>737.519884</ele>
        <time>2023-08-12T22:46:38.323Z</time>
      </trkpt>
      <trkpt lat="44.62885" lon="5.35613">
        <ele>737.43964</ele>
        <time>2023-08-12T22:46:39.163Z</time>
      </trkpt>
      <trkpt lat="44.62883" lon="5.35629">
        <ele>737.356352</ele>
        <time>2023-08-12T22:46:40.033Z</time>
      </trkpt>
      <trkpt lat="44.62855" lon="5.35649">
        <ele>737.131047</ele>
        <time>2023-08-12T22:46:42.418Z</time>
      </trkpt>
      <trkpt lat="44.62843" lon="5.35667">
        <ele>737.004798</ele>
        <time>2023-08-12T22:46:43.934Z</time>
      </trkpt>
      <trkpt lat="44.62825" lon="5.35747">
        <ele>736.575267</ele>
        <time>2023-08-12T22:46:51.900Z</time>
      </trkpt>
      <trkpt lat="44.62818" lon="5.35765">
        <ele>736.50351</ele>
        <time>2023-08-12T22:46:56.437Z</time>
      </trkpt>
      <trkpt lat="44.62805" lon="5.35775">
        <ele>737.500051</ele>
        <time>2023-08-12T22:47:01.651Z</time>
      </trkpt>
      <trkpt lat="44.62779" lon="5.35805">
        <ele>739.647093</ele>
        <time>2023-08-12T22:47:15.647Z</time>
      </trkpt>
      <trkpt lat="44.62776" lon="5.35819">
        <ele>740.358201</ele>
        <time>2023-08-12T22:47:20.990Z</time>
      </trkpt>
      <trkpt lat="44.62781" lon="5.3584">
        <ele>741.371223</ele>
        <time>2023-08-12T22:47:28.108Z</time>
      </trkpt>
      <trkpt lat="44.62782" lon="5.35853">
        <ele>741.961773</ele>
        <time>2023-08-12T22:47:31.949Z</time>
      </trkpt>
      <trkpt lat="44.62765" lon="5.3587">
        <ele>743.288088</ele>
        <time>2023-08-12T22:47:40.839Z</time>
      </trkpt>
      <trkpt lat="44.62747" lon="5.359">
        <ele>745.115158</ele>
        <time>2023-08-12T22:47:49.717Z</time>
      </trkpt>
      <trkpt lat="44.62734" lon="5.35934">
        <ele>746.925355</ele>
        <time>2023-08-12T22:47:57.876Z</time>
      </trkpt>
      <trkpt lat="44.62732" lon="5.35966">
        <ele>747.906766</ele>
        <time>2023-08-12T22:48:03.771Z</time>
      </trkpt>
      <trkpt lat="44.62736" lon="5.36002">
        <ele>746.326581</ele>
        <time>2023-08-12T22:48:09.263Z</time>
      </trkpt>
      <trkpt lat="44.62741" lon="5.36037">
        <ele>744.807777</ele>
        <time>2023-08-12T22:48:12.811Z</time>
      </trkpt>
      <trkpt lat="44.62749" lon="5.3606">
        <ele>743.741253</ele>
        <time>2023-08-12T22:48:14.370Z</time>
      </trkpt>
      <trkpt lat="44.62761" lon="5.36077">
        <ele>742.705419</ele>
        <time>2023-08-12T22:48:15.675Z</time>
      </trkpt>
      <trkpt lat="44.6277" lon="5.36076">
        <ele>742.183732</ele>
        <time>2023-08-12T22:48:16.295Z</time>
      </trkpt>
      <trkpt lat="44.62775" lon="5.36069">
        <ele>741.744367</ele>
        <time>2023-08-12T22:48:16.813Z</time>
      </trkpt>
      <trkpt lat="44.62779" lon="5.36054">
        <ele>741.064432</ele>
        <time>2023-08-12T22:48:17.603Z</time>
      </trkpt>
      <trkpt lat="44.6277" lon="5.36002">
        <ele>738.825378</ele>
        <time>2023-08-12T22:48:20.120Z</time>
      </trkpt>
      <trkpt lat="44.6277" lon="5.35986">
        <ele>738.109965</ele>
        <time>2023-08-12T22:48:20.912Z</time>
      </trkpt>
      <trkpt lat="44.62784" lon="5.35955">
        <ele>736.038408</ele>
        <time>2023-08-12T22:48:22.619Z</time>
      </trkpt>
      <trkpt lat="44.62807" lon="5.35945">
        <ele>733.68892</ele>
        <time>2023-08-12T22:48:24.182Z</time>
      </trkpt>
      <trkpt lat="44.62822" lon="5.35944">
        <ele>732.190048</ele>
        <time>2023-08-12T22:48:25.185Z</time>
      </trkpt>
      <trkpt lat="44.62836" lon="5.35935">
        <ele>730.668962</ele>
        <time>2023-08-12T22:48:26.218Z</time>
      </trkpt>
      <trkpt lat="44.62842" lon="5.35913">
        <ele>728.982454</ele>
        <time>2023-08-12T22:48:27.395Z</time>
      </trkpt>
      <trkpt lat="44.62862" lon="5.359">
        <ele>726.763686</ele>
        <time>2023-08-12T22:48:28.968Z</time>
      </trkpt>
      <trkpt lat="44.62871" lon="5.35886">
        <ele>725.427155</ele>
        <time>2023-08-12T22:48:29.943Z</time>
      </trkpt>
      <trkpt lat="44.62878" lon="5.35861">
        <ele>723.518033</ele>
        <time>2023-08-12T22:48:31.347Z</time>
      </trkpt>
      <trkpt lat="44.62897" lon="5.3584">
        <ele>721.140152</ele>
        <time>2023-08-12T22:48:33.138Z</time>
      </trkpt>
      <trkpt lat="44.62918" lon="5.35831">
        <ele>719.449641</ele>
        <time>2023-08-12T22:48:34.741Z</time>
      </trkpt>
      <trkpt lat="44.63001" lon="5.35833">
        <ele>718.209061</ele>
        <time>2023-08-12T22:48:41.029Z</time>
      </trkpt>
      <trkpt lat="44.63023" lon="5.35842">
        <ele>717.876437</ele>
        <time>2023-08-12T22:48:42.826Z</time>
      </trkpt>
      <trkpt lat="44.63036" lon="5.35837">
        <ele>717.681364</ele>
        <time>2023-08-12T22:48:44.066Z</time>
      </trkpt>
      <trkpt lat="44.63106" lon="5.35712">
        <ele>723.583092</ele>
        <time>2023-08-12T22:49:14.468Z</time>
      </trkpt>
      <trkpt lat="44.63111" lon="5.35681">
        <ele>726.194446</ele>
        <time>2023-08-12T22:49:25.033Z</time>
      </trkpt>
      <trkpt lat="44.63119" lon="5.3567">
        <ele>727.431005</ele>
        <time>2023-08-12T22:49:30.552Z</time>
      </trkpt>
      <trkpt lat="44.63129" lon="5.35668">
        <ele>728.584455</ele>
        <time>2023-08-12T22:49:35.324Z</time>
      </trkpt>
      <trkpt lat="44.63167" lon="5.35691">
        <ele>733.329462</ele>
        <time>2023-08-12T22:49:59.855Z</time>
      </trkpt>
      <trkpt lat="44.63175" lon="5.35709">
        <ele>735.07708</ele>
        <time>2023-08-12T22:50:09.965Z</time>
      </trkpt>
      <trkpt lat="44.6318" lon="5.35739">
        <ele>737.689918</ele>
        <time>2023-08-12T22:50:25.320Z</time>
      </trkpt>
      <trkpt lat="44.63188" lon="5.35767">
        <ele>741.885877</ele>
        <time>2023-08-12T22:50:41.238Z</time>
      </trkpt>
      <trkpt lat="44.63207" lon="5.35807">
        <ele>748.512847</ele>
        <time>2023-08-12T22:51:08.780Z</time>
      </trkpt>
      <trkpt lat="44.63241" lon="5.35863">
        <ele>758.744012</ele>
        <time>2023-08-12T22:51:53.112Z</time>
      </trkpt>
      <trkpt lat="44.63284" lon="5.35884">
        <ele>767.62016</ele>
        <time>2023-08-12T22:52:29.869Z</time>
      </trkpt>
      <trkpt lat="44.63328" lon="5.35927">
        <ele>773.337744</ele>
        <time>2023-08-12T22:53:05.409Z</time>
      </trkpt>
      <trkpt lat="44.63339" lon="5.35954">
        <ele>773.955265</ele>
        <time>2023-08-12T22:53:14.332Z</time>
      </trkpt>
      <trkpt lat="44.63347" lon="5.35999">
        <ele>774.865343</ele>
        <time>2023-08-12T22:53:22.170Z</time>
      </trkpt>
      <trkpt lat="44.63365" lon="5.36069">
        <ele>776.334088</ele>
        <time>2023-08-12T22:53:26.984Z</time>
      </trkpt>
      <trkpt lat="44.63378" lon="5.36091">
        <ele>776.892613</ele>
        <time>2023-08-12T22:53:28.514Z</time>
      </trkpt>
      <trkpt lat="44.63387" lon="5.36101">
        <ele>777.227497</ele>
        <time>2023-08-12T22:53:29.407Z</time>
      </trkpt>
      <trkpt lat="44.63401" lon="5.36105">
        <ele>777.12593</ele>
        <time>2023-08-12T22:53:30.417Z</time>
      </trkpt>
      <trkpt lat="44.63412" lon="5.36097">
        <ele>775.447991</ele>
        <time>2023-08-12T22:53:31.270Z</time>
      </trkpt>
      <trkpt lat="44.63421" lon="5.36065">
        <ele>772.091623</ele>
        <time>2023-08-12T22:53:32.940Z</time>
      </trkpt>
      <trkpt lat="44.63418" lon="5.36008">
        <ele>766.485216</ele>
        <time>2023-08-12T22:53:35.658Z</time>
      </trkpt>
      <trkpt lat="44.63445" lon="5.35926">
        <ele>757.60807</ele>
        <time>2023-08-12T22:53:39.874Z</time>
      </trkpt>
      <trkpt lat="44.63475" lon="5.35882">
        <ele>752.261055</ele>
        <time>2023-08-12T22:53:42.728Z</time>
      </trkpt>
      <trkpt lat="44.63479" lon="5.35866">
        <ele>751.6876</ele>
        <time>2023-08-12T22:53:43.511Z</time>
      </trkpt>
      <trkpt lat="44.63477" lon="5.35853">
        <ele>751.203563</ele>
        <time>2023-08-12T22:53:44.179Z</time>
      </trkpt>
      <trkpt lat="44.63463" lon="5.35829">
        <ele>750.122295</ele>
        <time>2023-08-12T22:53:45.671Z</time>
      </trkpt>
      <trkpt lat="44.63451" lon="5.35742">
        <ele>747.052734</ele>
        <time>2023-08-12T22:53:50.205Z</time>
      </trkpt>
      <trkpt lat="44.6343" lon="5.35683">
        <ele>744.761859</ele>
        <time>2023-08-12T22:53:58.303Z</time>
      </trkpt>
      <trkpt lat="44.63399" lon="5.35637">
        <ele>747.905238</ele>
        <time>2023-08-12T22:54:16.191Z</time>
      </trkpt>
      <trkpt lat="44.63394" lon="5.35616">
        <ele>750.269634</ele>
        <time>2023-08-12T22:54:24.376Z</time>
      </trkpt>
      <trkpt lat="44.63401" lon="5.35592">
        <ele>753.067944</ele>
        <time>2023-08-12T22:54:35.490Z</time>
      </trkpt>
      <trkpt lat="44.63411" lon="5.35574">
        <ele>755.5785</ele>
        <time>2023-08-12T22:54:46.348Z</time>
      </trkpt>
      <trkpt lat="44.63477" lon="5.35506">
        <ele>767.939253</ele>
        <time>2023-08-12T22:55:47.001Z</time>
      </trkpt>
      <trkpt lat="44.63495" lon="5.35494">
        <ele>771.017151</ele>
        <time>2023-08-12T22:56:01.795Z</time>
      </trkpt>
      <trkpt lat="44.63533" lon="5.35483">
        <ele>775.165958</ele>
        <time>2023-08-12T22:56:27.995Z</time>
      </trkpt>
      <trkpt lat="44.63577" lon="5.35487">
        <ele>779.871307</ele>
        <time>2023-08-12T22:56:52.729Z</time>
      </trkpt>
      <trkpt lat="44.63594" lon="5.3548">
        <ele>781.864751</ele>
        <time>2023-08-12T22:57:00.615Z</time>
      </trkpt>
      <trkpt lat="44.63601" lon="5.35472">
        <ele>782.805834</ele>
        <time>2023-08-12T22:57:04.519Z</time>
      </trkpt>
      <trkpt lat="44.63606" lon="5.35455">
        <ele>784.203281</ele>
        <time>2023-08-12T22:57:09.406Z</time>
      </trkpt>
      <trkpt lat="44.63605" lon="5.35431">
        <ele>786.062796</ele>
        <time>2023-08-12T22:57:15.061Z</time>
      </trkpt>
      <trkpt lat="44.63536" lon="5.35317">
        <ele>794.690045</ele>
        <time>2023-08-12T22:57:38.962Z</time>
      </trkpt>
      <trkpt lat="44.63493" lon="5.35257">
        <ele>798.641251</ele>
        <time>2023-08-12T22:57:55.039Z</time>
      </trkpt>
      <trkpt lat="44.63469" lon="5.35232">
        <ele>800.576011</ele>
        <time>2023-08-12T22:58:06.706Z</time>
      </trkpt>
      <trkpt lat="44.63466" lon="5.35215">
        <ele>801.405083</ele>
        <time>2023-08-12T22:58:12.589Z</time>
      </trkpt>
      <trkpt lat="44.6348" lon="5.35181">
        <ele>804.805751</ele>
        <time>2023-08-12T22:58:27.066Z</time>
      </trkpt>
      <trkpt lat="44.63517" lon="5.35136">
        <ele>812.531736</ele>
        <time>2023-08-12T22:58:57.469Z</time>
      </trkpt>
      <trkpt lat="44.63552" lon="5.35109">
        <ele>818.842973</ele>
        <time>2023-08-12T22:59:24.139Z</time>
      </trkpt>
      <trkpt lat="44.63573" lon="5.35103">
        <ele>822.267212</ele>
        <time>2023-08-12T22:59:38.950Z</time>
      </trkpt>
      <trkpt lat="44.63585" lon="5.35106">
        <ele>824.294779</ele>
        <time>2023-08-12T22:59:47.877Z</time>
      </trkpt>
      <trkpt lat="44.63635" lon="5.35135">
        <ele>832.546129</ele>
        <time>2023-08-12T23:00:25.362Z</time>
      </trkpt>
      <trkpt lat="44.63677" lon="5.35139">
        <ele>838.352155</ele>
        <time>2023-08-12T23:00:53.361Z</time>
      </trkpt>
      <trkpt lat="44.6372" lon="5.35137">
        <ele>844.283777</ele>
        <time>2023-08-12T23:01:20.027Z</time>
      </trkpt>
      <trkpt lat="44.6375" lon="5.35143">
        <ele>848.439832</ele>
        <time>2023-08-12T23:01:36.690Z</time>
      </trkpt>
      <trkpt lat="44.63767" lon="5.35155">
        <ele>851.033941</ele>
        <time>2023-08-12T23:01:45.776Z</time>
      </trkpt>
      <trkpt lat="44.63783" lon="5.35172">
        <ele>853.789278</ele>
        <time>2023-08-12T23:01:54.637Z</time>
      </trkpt>
      <trkpt lat="44.63792" lon="5.35193">
        <ele>855.591809</ele>
        <time>2023-08-12T23:02:01.635Z</time>
      </trkpt>
      <trkpt lat="44.63803" lon="5.3524">
        <ele>856.450354</ele>
        <time>2023-08-12T23:02:13.190Z</time>
      </trkpt>
      <trkpt lat="44.63813" lon="5.35262">
        <ele>856.905717</ele>
        <time>2023-08-12T23:02:18.077Z</time>
      </trkpt>
      <trkpt lat="44.63823" lon="5.35274">
        <ele>857.216096</ele>
        <time>2023-08-12T23:02:20.755Z</time>
      </trkpt>
      <trkpt lat="44.63825" lon="5.35281">
        <ele>857.355969</ele>
        <time>2023-08-12T23:02:21.898Z</time>
      </trkpt>
      <trkpt lat="44.63823" lon="5.35291">
        <ele>857.528772</ele>
        <time>2023-08-12T23:02:23.193Z</time>
      </trkpt>
      <trkpt lat="44.63817" lon="5.35286">
        <ele>857.712087</ele>
        <time>2023-08-12T23:02:24.521Z</time>
      </trkpt>
      <trkpt lat="44.63763" lon="5.35212">
        <ele>859.55073</ele>
        <time>2023-08-12T23:02:31.864Z</time>
      </trkpt>
      <trkpt lat="44.63739" lon="5.35193">
        <ele>860.384647</ele>
        <time>2023-08-12T23:02:34.224Z</time>
      </trkpt>
      <trkpt lat="44.63715" lon="5.352">
        <ele>861.205764</ele>
        <time>2023-08-12T23:02:36.343Z</time>
      </trkpt>
      <trkpt lat="44.63697" lon="5.35209">
        <ele>861.878905</ele>
        <time>2023-08-12T23:02:38.394Z</time>
      </trkpt>
      <trkpt lat="44.63693" lon="5.35222">
        <ele>862.237157</ele>
        <time>2023-08-12T23:02:39.527Z</time>
      </trkpt>
      <trkpt lat="44.63693" lon="5.35239">
        <ele>862.635966</ele>
        <time>2023-08-12T23:02:40.973Z</time>
      </trkpt>
      <trkpt lat="44.63697" lon="5.35248">
        <ele>862.911074</ele>
        <time>2023-08-12T23:02:42.494Z</time>
      </trkpt>
      <trkpt lat="44.63702" lon="5.35257">
        <ele>863.198149</ele>
        <time>2023-08-12T23:02:44.217Z</time>
      </trkpt>
      <trkpt lat="44.63759" lon="5.35328">
        <ele>865.813839</ele>
        <time>2023-08-12T23:03:08.995Z</time>
      </trkpt>
      <trkpt lat="44.63806" lon="5.35361">
        <ele>870.183493</ele>
        <time>2023-08-12T23:03:34.375Z</time>
      </trkpt>
      <trkpt lat="44.63832" lon="5.35363">
        <ele>872.542852</ele>
        <time>2023-08-12T23:03:49.030Z</time>
      </trkpt>
      <trkpt lat="44.63861" lon="5.3538">
        <ele>875.317039</ele>
        <time>2023-08-12T23:04:04.706Z</time>
      </trkpt>
      <trkpt lat="44.63878" lon="5.35385">
        <ele>876.923927</ele>
        <time>2023-08-12T23:04:12.803Z</time>
      </trkpt>
      <trkpt lat="44.63965" lon="5.35386">
        <ele>882.954691</ele>
        <time>2023-08-12T23:04:38.554Z</time>
      </trkpt>
      <trkpt lat="44.63972" lon="5.35378">
        <ele>883.185865</ele>
        <time>2023-08-12T23:04:40.258Z</time>
      </trkpt>
      <trkpt lat="44.63975" lon="5.35369">
        <ele>883.390269</ele>
        <time>2023-08-12T23:04:41.869Z</time>
      </trkpt>
      <trkpt lat="44.63977" lon="5.35355">
        <ele>883.665498</ele>
        <time>2023-08-12T23:04:43.656Z</time>
      </trkpt>
      <trkpt lat="44.63966" lon="5.35288">
        <ele>885.011635</ele>
        <time>2023-08-12T23:04:50.875Z</time>
      </trkpt>
      <trkpt lat="44.63966" lon="5.35248">
        <ele>885.794948</ele>
        <time>2023-08-12T23:04:54.802Z</time>
      </trkpt>
      <trkpt lat="44.63975" lon="5.35202">
        <ele>886.729368</ele>
        <time>2023-08-12T23:05:01.107Z</time>
      </trkpt>
      <trkpt lat="44.64007" lon="5.35102">
        <ele>891.446824</ele>
        <time>2023-08-12T23:05:19.445Z</time>
      </trkpt>
      <trkpt lat="44.64016" lon="5.35088">
        <ele>892.375209</ele>
        <time>2023-08-12T23:05:24.222Z</time>
      </trkpt>
      <trkpt lat="44.64029" lon="5.35078">
        <ele>893.335783</ele>
        <time>2023-08-12T23:05:29.000Z</time>
      </trkpt>
      <trkpt lat="44.6408" lon="5.35066">
        <ele>896.845468</ele>
        <time>2023-08-12T23:05:50.629Z</time>
      </trkpt>
      <trkpt lat="44.64093" lon="5.35045">
        <ele>898.161103</ele>
        <time>2023-08-12T23:05:59.640Z</time>
      </trkpt>
      <trkpt lat="44.64134" lon="5.3494">
        <ele>904.007952</ele>
        <time>2023-08-12T23:06:34.973Z</time>
      </trkpt>
      <trkpt lat="44.6415" lon="5.34885">
        <ele>906.904063</ele>
        <time>2023-08-12T23:06:48.201Z</time>
      </trkpt>
      <trkpt lat="44.64194" lon="5.34769">
        <ele>913.149142</ele>
        <time>2023-08-12T23:07:12.720Z</time>
      </trkpt>
      <trkpt lat="44.64204" lon="5.34714">
        <ele>915.672993</ele>
        <time>2023-08-12T23:07:25.627Z</time>
      </trkpt>
      <trkpt lat="44.64226" lon="5.34623">
        <ele>919.920217</ele>
        <time>2023-08-12T23:07:49.215Z</time>
      </trkpt>
      <trkpt lat="44.64265" lon="5.34549">
        <ele>923.888419</ele>
        <time>2023-08-12T23:08:10.451Z</time>
      </trkpt>
      <trkpt lat="44.64275" lon="5.34477">
        <ele>926.88142</ele>
        <time>2023-08-12T23:08:26.920Z</time>
      </trkpt>
      <trkpt lat="44.64275" lon="5.34443">
        <ele>928.264199</ele>
        <time>2023-08-12T23:08:34.199Z</time>
      </trkpt>
      <trkpt lat="44.64264" lon="5.34416">
        <ele>929.508428</ele>
        <time>2023-08-12T23:08:40.659Z</time>
      </trkpt>
      <trkpt lat="44.64243" lon="5.34391">
        <ele>931.064205</ele>
        <time>2023-08-12T23:08:48.282Z</time>
      </trkpt>
      <trkpt lat="44.6422" lon="5.34352">
        <ele>933.166953</ele>
        <time>2023-08-12T23:08:58.237Z</time>
      </trkpt>
      <trkpt lat="44.64158" lon="5.34266">
        <ele>938.512382</ele>
        <time>2023-08-12T23:09:23.765Z</time>
      </trkpt>
      <trkpt lat="44.6413" lon="5.34208">
        <ele>941.619382</ele>
        <time>2023-08-12T23:09:40.858Z</time>
      </trkpt>
      <trkpt lat="44.64103" lon="5.34129">
        <ele>945.880276</ele>
        <time>2023-08-12T23:10:01.244Z</time>
      </trkpt>
      <trkpt lat="44.64094" lon="5.34079">
        <ele>948.80039</ele>
        <time>2023-08-12T23:10:14.930Z</time>
      </trkpt>
      <trkpt lat="44.64094" lon="5.34006">
        <ele>952.995547</ele>
        <time>2023-08-12T23:10:36.109Z</time>
      </trkpt>
      <trkpt lat="44.64088" lon="5.33985">
        <ele>954.282975</ele>
        <time>2023-08-12T23:10:42.263Z</time>
      </trkpt>
      <trkpt lat="44.64075" lon="5.33975">
        <ele>955.505023</ele>
        <time>2023-08-12T23:10:48.764Z</time>
      </trkpt>
      <trkpt lat="44.64063" lon="5.33955">
        <ele>956.992444</ele>
        <time>2023-08-12T23:10:55.146Z</time>
      </trkpt>
      <trkpt lat="44.64064" lon="5.33944">
        <ele>957.677705</ele>
        <time>2023-08-12T23:10:59.016Z</time>
      </trkpt>
      <trkpt lat="44.64095" lon="5.33978">
        <ele>961.099867</ele>
        <time>2023-08-12T23:11:13.878Z</time>
      </trkpt>
      <trkpt lat="44.64104" lon="5.33996">
        <ele>962.484791</ele>
        <time>2023-08-12T23:11:18.948Z</time>
      </trkpt>
      <trkpt lat="44.64117" lon="5.34045">
        <ele>965.727303</ele>
        <time>2023-08-12T23:11:32.258Z</time>
      </trkpt>
      <trkpt lat="44.64133" lon="5.34084">
        <ele>968.483536</ele>
        <time>2023-08-12T23:11:44.325Z</time>
      </trkpt>
      <trkpt lat="44.64174" lon="5.34156">
        <ele>974.242165</ele>
        <time>2023-08-12T23:12:13.689Z</time>
      </trkpt>
      <trkpt lat="44.64195" lon="5.34178">
        <ele>977.06482</ele>
        <time>2023-08-12T23:12:25.258Z</time>
      </trkpt>
      <trkpt lat="44.64216" lon="5.3419">
        <ele>979.482306</ele>
        <time>2023-08-12T23:12:35.361Z</time>
      </trkpt>
      <trkpt lat="44.64305" lon="5.3425">
        <ele>990.056353</ele>
        <time>2023-08-12T23:13:21.997Z</time>
      </trkpt>
      <trkpt lat="44.64397" lon="5.34286">
        <ele>1000.598817</ele>
        <time>2023-08-12T23:14:06.077Z</time>
      </trkpt>
      <trkpt lat="44.64407" lon="5.34296">
        <ele>1002.085873</ele>
        <time>2023-08-12T23:14:12.175Z</time>
      </trkpt>
      <trkpt lat="44.64413" lon="5.34295">
        <ele>1002.686277</ele>
        <time>2023-08-12T23:14:14.693Z</time>
      </trkpt>
      <trkpt lat="44.64414" lon="5.34288">
        <ele>1003.233299</ele>
        <time>2023-08-12T23:14:17.001Z</time>
      </trkpt>
      <trkpt lat="44.64409" lon="5.3428">
        <ele>1004.080597</ele>
        <time>2023-08-12T23:14:20.550Z</time>
      </trkpt>
      <trkpt lat="44.64358" lon="5.34239">
        <ele>1010.820533</ele>
        <time>2023-08-12T23:14:49.218Z</time>
      </trkpt>
      <trkpt lat="44.64342" lon="5.34229">
        <ele>1012.809105</ele>
        <time>2023-08-12T23:14:57.748Z</time>
      </trkpt>
      <trkpt lat="44.64341" lon="5.34222">
        <ele>1013.35272</ele>
        <time>2023-08-12T23:14:59.999Z</time>
      </trkpt>
      <trkpt lat="44.64344" lon="5.34221">
        <ele>1013.717272</ele>
        <time>2023-08-12T23:15:01.563Z</time>
      </trkpt>
      <trkpt lat="44.64446" lon="5.3425">
        <ele>1028.391418</ele>
        <time>2023-08-12T23:15:57.387Z</time>
      </trkpt>
      <trkpt lat="44.64467" lon="5.34254">
        <ele>1031.394414</ele>
        <time>2023-08-12T23:16:10.718Z</time>
      </trkpt>
      <trkpt lat="44.64485" lon="5.34263">
        <ele>1034.020017</ele>
        <time>2023-08-12T23:16:21.720Z</time>
      </trkpt>
      <trkpt lat="44.64492" lon="5.34273">
        <ele>1035.510775</ele>
        <time>2023-08-12T23:16:28.726Z</time>
      </trkpt>
      <trkpt lat="44.64504" lon="5.34299">
        <ele>1038.671055</ele>
        <time>2023-08-12T23:16:42.791Z</time>
      </trkpt>
      <trkpt lat="44.64521" lon="5.34326">
        <ele>1042.034117</ele>
        <time>2023-08-12T23:16:59.830Z</time>
      </trkpt>
      <trkpt lat="44.6455" lon="5.34365">
        <ele>1047.206989</ele>
        <time>2023-08-12T23:17:25.567Z</time>
      </trkpt>
      <trkpt lat="44.64556" lon="5.34376">
        <ele>1048.500613</ele>
        <time>2023-08-12T23:17:31.765Z</time>
      </trkpt>
      <trkpt lat="44.64562" lon="5.34395">
        <ele>1050.341168</ele>
        <time>2023-08-12T23:17:40.730Z</time>
      </trkpt>
      <trkpt lat="44.64575" lon="5.34419">
        <ele>1053.160113</ele>
        <time>2023-08-12T23:17:53.173Z</time>
      </trkpt>
      <trkpt lat="44.64579" lon="5.34438">
        <ele>1054.957201</ele>
        <time>2023-08-12T23:18:00.953Z</time>
      </trkpt>
      <trkpt lat="44.64581" lon="5.34466">
        <ele>1057.487324</ele>
        <time>2023-08-12T23:18:10.423Z</time>
      </trkpt>
      <trkpt lat="44.64603" lon="5.34499">
        <ele>1061.663327</ele>
        <time>2023-08-12T23:18:24.330Z</time>
      </trkpt>
      <trkpt lat="44.64624" lon="5.34559">
        <ele>1063.647658</ele>
        <time>2023-08-12T23:18:38.202Z</time>
      </trkpt>
      <trkpt lat="44.64625" lon="5.34626">
        <ele>1064.732671</ele>
        <time>2023-08-12T23:18:47.983Z</time>
      </trkpt>
      <trkpt lat="44.64624" lon="5.34677">
        <ele>1065.567581</ele>
        <time>2023-08-12T23:18:53.997Z</time>
      </trkpt>
      <trkpt lat="44.64604" lon="5.34736">
        <ele>1066.623418</ele>
        <time>2023-08-12T23:18:59.155Z</time>
      </trkpt>
      <trkpt lat="44.64583" lon="5.34833">
        <ele>1065.037012</ele>
        <time>2023-08-12T23:19:05.106Z</time>
      </trkpt>
      <trkpt lat="44.64579" lon="5.34867">
        <ele>1064.293286</ele>
        <time>2023-08-12T23:19:07.046Z</time>
      </trkpt>
      <trkpt lat="44.64577" lon="5.34906">
        <ele>1063.444583</ele>
        <time>2023-08-12T23:19:09.283Z</time>
      </trkpt>
      <trkpt lat="44.64578" lon="5.34936">
        <ele>1062.794911</ele>
        <time>2023-08-12T23:19:10.996Z</time>
      </trkpt>
      <trkpt lat="44.64583" lon="5.34964">
        <ele>1062.176955</ele>
        <time>2023-08-12T23:19:12.755Z</time>
      </trkpt>
      <trkpt lat="44.64607" lon="5.3502">
        <ele>1060.109187</ele>
        <time>2023-08-12T23:19:16.482Z</time>
      </trkpt>
      <trkpt lat="44.64609" lon="5.35061">
        <ele>1058.327857</ele>
        <time>2023-08-12T23:19:18.741Z</time>
      </trkpt>
      <trkpt lat="44.64593" lon="5.35166">
        <ele>1053.716161</ele>
        <time>2023-08-12T23:19:24.247Z</time>
      </trkpt>
      <trkpt lat="44.6459" lon="5.35303">
        <ele>1047.496069</ele>
        <time>2023-08-12T23:19:31.210Z</time>
      </trkpt>
      <trkpt lat="44.64587" lon="5.35341">
        <ele>1045.634235</ele>
        <time>2023-08-12T23:19:33.185Z</time>
      </trkpt>
      <trkpt lat="44.64568" lon="5.35461">
        <ele>1039.674013</ele>
        <time>2023-08-12T23:19:39.532Z</time>
      </trkpt>
      <trkpt lat="44.6456" lon="5.3557">
        <ele>1033.707964</ele>
        <time>2023-08-12T23:19:45.109Z</time>
      </trkpt>
      <trkpt lat="44.64561" lon="5.35622">
        <ele>1030.709551</ele>
        <time>2023-08-12T23:19:47.763Z</time>
      </trkpt>
      <trkpt lat="44.64562" lon="5.35659">
        <ele>1028.56878</ele>
        <time>2023-08-12T23:19:49.638Z</time>
      </trkpt>
      <trkpt lat="44.64593" lon="5.35744">
        <ele>1023.038988</ele>
        <time>2023-08-12T23:19:54.339Z</time>
      </trkpt>
      <trkpt lat="44.64601" lon="5.35801">
        <ele>1019.240819</ele>
        <time>2023-08-12T23:19:57.188Z</time>
      </trkpt>
      <trkpt lat="44.64599" lon="5.35845">
        <ele>1016.357155</ele>
        <time>2023-08-12T23:19:59.346Z</time>
      </trkpt>
      <trkpt lat="44.64608" lon="5.35892">
        <ele>1013.19745</ele>
        <time>2023-08-12T23:20:01.715Z</time>
      </trkpt>
      <trkpt lat="44.64611" lon="5.35964">
        <ele>1008.473192</ele>
        <time>2023-08-12T23:20:05.304Z</time>
      </trkpt>
      <trkpt lat="44.64611" lon="5.36">
        <ele>1006.536663</ele>
        <time>2023-08-12T23:20:07.095Z</time>
      </trkpt>
      <trkpt lat="44.64616" lon="5.36097">
        <ele>1002.246352</ele>
        <time>2023-08-12T23:20:12.110Z</time>
      </trkpt>
      <trkpt lat="44.64611" lon="5.36141">
        <ele>1000.294757</ele>
        <time>2023-08-12T23:20:14.445Z</time>
      </trkpt>
      <trkpt lat="44.64602" lon="5.36182">
        <ele>998.398317</ele>
        <time>2023-08-12T23:20:16.773Z</time>
      </trkpt>
      <trkpt lat="44.64609" lon="5.36202">
        <ele>997.445432</ele>
        <time>2023-08-12T23:20:17.967Z</time>
      </trkpt>
      <trkpt lat="44.64625" lon="5.36321">
        <ele>992.496576</ele>
        <time>2023-08-12T23:20:24.628Z</time>
      </trkpt>
      <trkpt lat="44.64623" lon="5.36361">
        <ele>990.922767</ele>
        <time>2023-08-12T23:20:26.695Z</time>
      </trkpt>
      <trkpt lat="44.64628" lon="5.36421">
        <ele>988.515006</ele>
        <time>2023-08-12T23:20:29.867Z</time>
      </trkpt>
      <trkpt lat="44.64654" lon="5.36508">
        <ele>983.395696</ele>
        <time>2023-08-12T23:20:34.769Z</time>
      </trkpt>
      <trkpt lat="44.64659" lon="5.36533">
        <ele>981.460468</ele>
        <time>2023-08-12T23:20:36.061Z</time>
      </trkpt>
      <trkpt lat="44.64668" lon="5.36547">
        <ele>979.988126</ele>
        <time>2023-08-12T23:20:37.027Z</time>
      </trkpt>
      <trkpt lat="44.64672" lon="5.36543">
        <ele>979.45187</ele>
        <time>2023-08-12T23:20:37.360Z</time>
      </trkpt>
      <trkpt lat="44.64672" lon="5.36531">
        <ele>978.53429</ele>
        <time>2023-08-12T23:20:37.955Z</time>
      </trkpt>
      <trkpt lat="44.64664" lon="5.36509">
        <ele>976.640666</ele>
        <time>2023-08-12T23:20:39.167Z</time>
      </trkpt>
      <trkpt lat="44.6466" lon="5.36472">
        <ele>973.773575</ele>
        <time>2023-08-12T23:20:40.963Z</time>
      </trkpt>
      <trkpt lat="44.64665" lon="5.36444">
        <ele>971.576815</ele>
        <time>2023-08-12T23:20:42.327Z</time>
      </trkpt>
      <trkpt lat="44.64658" lon="5.36411">
        <ele>968.996082</ele>
        <time>2023-08-12T23:20:43.936Z</time>
      </trkpt>
      <trkpt lat="44.64659" lon="5.36379">
        <ele>966.47102</ele>
        <time>2023-08-12T23:20:45.460Z</time>
      </trkpt>
      <trkpt lat="44.64664" lon="5.3635">
        <ele>963.714403</ele>
        <time>2023-08-12T23:20:46.904Z</time>
      </trkpt>
      <trkpt lat="44.64669" lon="5.36322">
        <ele>961.095532</ele>
        <time>2023-08-12T23:20:48.284Z</time>
      </trkpt>
      <trkpt lat="44.64684" lon="5.36281">
        <ele>956.956694</ele>
        <time>2023-08-12T23:20:50.471Z</time>
      </trkpt>
      <trkpt lat="44.647" lon="5.36261">
        <ele>954.19019</ele>
        <time>2023-08-12T23:20:51.928Z</time>
      </trkpt>
      <trkpt lat="44.64717" lon="5.36221">
        <ele>949.994813</ele>
        <time>2023-08-12T23:20:54.136Z</time>
      </trkpt>
      <trkpt lat="44.64721" lon="5.36202">
        <ele>948.158966</ele>
        <time>2023-08-12T23:20:55.107Z</time>
      </trkpt>
      <trkpt lat="44.64713" lon="5.36162">
        <ele>944.399618</ele>
        <time>2023-08-12T23:20:57.090Z</time>
      </trkpt>
      <trkpt lat="44.64712" lon="5.36132">
        <ele>942.376989</ele>
        <time>2023-08-12T23:20:58.543Z</time>
      </trkpt>
      <trkpt lat="44.64716" lon="5.36089">
        <ele>939.725003</ele>
        <time>2023-08-12T23:21:00.634Z</time>
      </trkpt>
      <trkpt lat="44.64733" lon="5.36048">
        <ele>936.769399</ele>
        <time>2023-08-12T23:21:03.008Z</time>
      </trkpt>
      <trkpt lat="44.64749" lon="5.35992">
        <ele>933.012627</ele>
        <time>2023-08-12T23:21:06.118Z</time>
      </trkpt>
      <trkpt lat="44.64773" lon="5.35946">
        <ele>929.50297</ele>
        <time>2023-08-12T23:21:09.048Z</time>
      </trkpt>
      <trkpt lat="44.64784" lon="5.35884">
        <ele>925.925561</ele>
        <time>2023-08-12T23:21:12.289Z</time>
      </trkpt>
      <trkpt lat="44.64794" lon="5.3586">
        <ele>924.480367</ele>
        <time>2023-08-12T23:21:13.648Z</time>
      </trkpt>
      <trkpt lat="44.64798" lon="5.3584">
        <ele>923.334235</ele>
        <time>2023-08-12T23:21:14.715Z</time>
      </trkpt>
      <trkpt lat="44.64794" lon="5.35817">
        <ele>922.122885</ele>
        <time>2023-08-12T23:21:15.855Z</time>
      </trkpt>
      <trkpt lat="44.64785" lon="5.35801">
        <ele>921.011827</ele>
        <time>2023-08-12T23:21:16.899Z</time>
      </trkpt>
      <trkpt lat="44.64775" lon="5.35787">
        <ele>919.987021</ele>
        <time>2023-08-12T23:21:17.875Z</time>
      </trkpt>
      <trkpt lat="44.64771" lon="5.35778">
        <ele>919.376721</ele>
        <time>2023-08-12T23:21:18.457Z</time>
      </trkpt>
      <trkpt lat="44.64772" lon="5.35771">
        <ele>919.023914</ele>
        <time>2023-08-12T23:21:18.792Z</time>
      </trkpt>
      <trkpt lat="44.64777" lon="5.35769">
        <ele>918.633357</ele>
        <time>2023-08-12T23:21:19.171Z</time>
      </trkpt>
      <trkpt lat="44.64788" lon="5.35785">
        <ele>917.416955</ele>
        <time>2023-08-12T23:21:20.347Z</time>
      </trkpt>
      <trkpt lat="44.64801" lon="5.35795">
        <ele>916.345596</ele>
        <time>2023-08-12T23:21:21.400Z</time>
      </trkpt>
      <trkpt lat="44.64815" lon="5.35801">
        <ele>915.221162</ele>
        <time>2023-08-12T23:21:22.488Z</time>
      </trkpt>
      <trkpt lat="44.64841" lon="5.35794">
        <ele>913.575474</ele>
        <time>2023-08-12T23:21:24.455Z</time>
      </trkpt>
      <trkpt lat="44.64851" lon="5.35798">
        <ele>912.984377</ele>
        <time>2023-08-12T23:21:25.197Z</time>
      </trkpt>
      <trkpt lat="44.64855" lon="5.3582">
        <ele>912.042933</ele>
        <time>2023-08-12T23:21:26.377Z</time>
      </trkpt>
      <trkpt lat="44.64853" lon="5.35842">
        <ele>911.10767</ele>
        <time>2023-08-12T23:21:27.531Z</time>
      </trkpt>
      <trkpt lat="44.64847" lon="5.35861">
        <ele>910.276969</ele>
        <time>2023-08-12T23:21:28.553Z</time>
      </trkpt>
      <trkpt lat="44.64822" lon="5.35909">
        <ele>907.748092</ele>
        <time>2023-08-12T23:21:31.664Z</time>
      </trkpt>
      <trkpt lat="44.64804" lon="5.36016">
        <ele>903.569777</ele>
        <time>2023-08-12T23:21:37.523Z</time>
      </trkpt>
      <trkpt lat="44.64804" lon="5.36033">
        <ele>903.129742</ele>
        <time>2023-08-12T23:21:38.463Z</time>
      </trkpt>
      <trkpt lat="44.64807" lon="5.36044">
        <ele>902.804835</ele>
        <time>2023-08-12T23:21:39.168Z</time>
      </trkpt>
      <trkpt lat="44.64822" lon="5.36072">
        <ele>901.857832</ele>
        <time>2023-08-12T23:21:41.234Z</time>
      </trkpt>
      <trkpt lat="44.64828" lon="5.3609">
        <ele>901.321901</ele>
        <time>2023-08-12T23:21:42.388Z</time>
      </trkpt>
      <trkpt lat="44.64828" lon="5.36106">
        <ele>900.89803</ele>
        <time>2023-08-12T23:21:43.273Z</time>
      </trkpt>
      <trkpt lat="44.6482" lon="5.36162">
        <ele>899.363444</ele>
        <time>2023-08-12T23:21:46.427Z</time>
      </trkpt>
      <trkpt lat="44.64822" lon="5.36186">
        <ele>898.71828</ele>
        <time>2023-08-12T23:21:47.762Z</time>
      </trkpt>
      <trkpt lat="44.64818" lon="5.36232">
        <ele>897.485429</ele>
        <time>2023-08-12T23:21:50.347Z</time>
      </trkpt>
      <trkpt lat="44.64808" lon="5.36285">
        <ele>895.997483</ele>
        <time>2023-08-12T23:21:53.669Z</time>
      </trkpt>
      <trkpt lat="44.6481" lon="5.36312">
        <ele>895.257431</ele>
        <time>2023-08-12T23:21:55.415Z</time>
      </trkpt>
      <trkpt lat="44.64816" lon="5.36327">
        <ele>894.779967</ele>
        <time>2023-08-12T23:21:56.688Z</time>
      </trkpt>
      <trkpt lat="44.64838" lon="5.3636">
        <ele>893.548479</ele>
        <time>2023-08-12T23:21:59.545Z</time>
      </trkpt>
      <trkpt lat="44.64844" lon="5.36386">
        <ele>892.784694</ele>
        <time>2023-08-12T23:22:01.203Z</time>
      </trkpt>
      <trkpt lat="44.64845" lon="5.36418">
        <ele>891.915983</ele>
        <time>2023-08-12T23:22:02.977Z</time>
      </trkpt>
      <trkpt lat="44.64831" lon="5.36464">
        <ele>890.496801</ele>
        <time>2023-08-12T23:22:05.517Z</time>
      </trkpt>
      <trkpt lat="44.64829" lon="5.3648">
        <ele>889.218159</ele>
        <time>2023-08-12T23:22:06.356Z</time>
      </trkpt>
      <trkpt lat="44.64831" lon="5.36498">
        <ele>887.884009</ele>
        <time>2023-08-12T23:22:07.232Z</time>
      </trkpt>
      <trkpt lat="44.64839" lon="5.36508">
        <ele>886.689348</ele>
        <time>2023-08-12T23:22:08.015Z</time>
      </trkpt>
      <trkpt lat="44.64877" lon="5.36541">
        <ele>881.958129</ele>
        <time>2023-08-12T23:22:11.057Z</time>
      </trkpt>
      <trkpt lat="44.64893" lon="5.36561">
        <ele>879.657113</ele>
        <time>2023-08-12T23:22:12.522Z</time>
      </trkpt>
      <trkpt lat="44.6491" lon="5.366">
        <ele>876.232771</ele>
        <time>2023-08-12T23:22:14.686Z</time>
      </trkpt>
      <trkpt lat="44.64918" lon="5.3663">
        <ele>873.797917</ele>
        <time>2023-08-12T23:22:16.205Z</time>
      </trkpt>
      <trkpt lat="44.6491" lon="5.36713">
        <ele>868.031822</ele>
        <time>2023-08-12T23:22:20.224Z</time>
      </trkpt>
      <trkpt lat="44.64893" lon="5.36754">
        <ele>864.937821</ele>
        <time>2023-08-12T23:22:22.571Z</time>
      </trkpt>
      <trkpt lat="44.64873" lon="5.36782">
        <ele>862.416849</ele>
        <time>2023-08-12T23:22:24.524Z</time>
      </trkpt>
      <trkpt lat="44.64869" lon="5.36802">
        <ele>861.116432</ele>
        <time>2023-08-12T23:22:25.535Z</time>
      </trkpt>
      <trkpt lat="44.64861" lon="5.3682">
        <ele>859.688232</ele>
        <time>2023-08-12T23:22:26.663Z</time>
      </trkpt>
      <trkpt lat="44.64847" lon="5.36837">
        <ele>858.023379</ele>
        <time>2023-08-12T23:22:27.984Z</time>
      </trkpt>
      <trkpt lat="44.64828" lon="5.36849">
        <ele>856.124782</ele>
        <time>2023-08-12T23:22:29.508Z</time>
      </trkpt>
      <trkpt lat="44.6482" lon="5.36866">
        <ele>855.026939</ele>
        <time>2023-08-12T23:22:30.542Z</time>
      </trkpt>
      <trkpt lat="44.64816" lon="5.36881">
        <ele>854.666571</ele>
        <time>2023-08-12T23:22:31.375Z</time>
      </trkpt>
      <trkpt lat="44.64796" lon="5.36909">
        <ele>853.77056</ele>
        <time>2023-08-12T23:22:33.470Z</time>
      </trkpt>
      <trkpt lat="44.64784" lon="5.3694">
        <ele>852.966475</ele>
        <time>2023-08-12T23:22:35.532Z</time>
      </trkpt>
      <trkpt lat="44.64786" lon="5.36965">
        <ele>852.401195</ele>
        <time>2023-08-12T23:22:37.036Z</time>
      </trkpt>
      <trkpt lat="44.64803" lon="5.37007">
        <ele>851.293008</ele>
        <time>2023-08-12T23:22:40.691Z</time>
      </trkpt>
      <trkpt lat="44.6481" lon="5.37035">
        <ele>850.623083</ele>
        <time>2023-08-12T23:22:42.610Z</time>
      </trkpt>
      <trkpt lat="44.64806" lon="5.37059">
        <ele>850.060008</ele>
        <time>2023-08-12T23:22:44.280Z</time>
      </trkpt>
      <trkpt lat="44.64794" lon="5.37085">
        <ele>849.341461</ele>
        <time>2023-08-12T23:22:46.090Z</time>
      </trkpt>
      <trkpt lat="44.64738" lon="5.3718">
        <ele>846.071325</ele>
        <time>2023-08-12T23:22:53.088Z</time>
      </trkpt>
      <trkpt lat="44.64724" lon="5.37218">
        <ele>844.923296</ele>
        <time>2023-08-12T23:22:55.643Z</time>
      </trkpt>
      <trkpt lat="44.64725" lon="5.37238">
        <ele>844.385544</ele>
        <time>2023-08-12T23:22:56.837Z</time>
      </trkpt>
      <trkpt lat="44.64733" lon="5.37253">
        <ele>843.900114</ele>
        <time>2023-08-12T23:22:57.892Z</time>
      </trkpt>
      <trkpt lat="44.64749" lon="5.37269">
        <ele>843.152856</ele>
        <time>2023-08-12T23:22:59.521Z</time>
      </trkpt>
      <trkpt lat="44.64752" lon="5.37279">
        <ele>842.867934</ele>
        <time>2023-08-12T23:23:00.102Z</time>
      </trkpt>
      <trkpt lat="44.64754" lon="5.37296">
        <ele>841.951444</ele>
        <time>2023-08-12T23:23:01.023Z</time>
      </trkpt>
      <trkpt lat="44.64749" lon="5.37349">
        <ele>838.072818</ele>
        <time>2023-08-12T23:23:03.714Z</time>
      </trkpt>
      <trkpt lat="44.64748" lon="5.37376">
        <ele>836.101182</ele>
        <time>2023-08-12T23:23:05.042Z</time>
      </trkpt>
      <trkpt lat="44.64756" lon="5.37406">
        <ele>833.812001</ele>
        <time>2023-08-12T23:23:06.570Z</time>
      </trkpt>
      <trkpt lat="44.64773" lon="5.37454">
        <ele>829.883206</ele>
        <time>2023-08-12T23:23:09.168Z</time>
      </trkpt>
      <trkpt lat="44.64807" lon="5.37525">
        <ele>823.678161</ele>
        <time>2023-08-12T23:23:13.264Z</time>
      </trkpt>
      <trkpt lat="44.6481" lon="5.37546">
        <ele>822.211977</ele>
        <time>2023-08-12T23:23:14.283Z</time>
      </trkpt>
      <trkpt lat="44.64802" lon="5.37593">
        <ele>818.925044</ele>
        <time>2023-08-12T23:23:16.570Z</time>
      </trkpt>
      <trkpt lat="44.64765" lon="5.37649">
        <ele>813.669415</ele>
        <time>2023-08-12T23:23:20.273Z</time>
      </trkpt>
      <trkpt lat="44.64753" lon="5.3768">
        <ele>811.184065</ele>
        <time>2023-08-12T23:23:22.076Z</time>
      </trkpt>
      <trkpt lat="44.64755" lon="5.37709">
        <ele>809.167721</ele>
        <time>2023-08-12T23:23:23.583Z</time>
      </trkpt>
      <trkpt lat="44.64754" lon="5.37725">
        <ele>808.04699</ele>
        <time>2023-08-12T23:23:24.438Z</time>
      </trkpt>
      <trkpt lat="44.64747" lon="5.37741">
        <ele>806.770902</ele>
        <time>2023-08-12T23:23:25.450Z</time>
      </trkpt>
      <trkpt lat="44.64693" lon="5.37837">
        <ele>800.189678</ele>
        <time>2023-08-12T23:23:32.043Z</time>
      </trkpt>
      <trkpt lat="44.64685" lon="5.37871">
        <ele>798.24041</ele>
        <time>2023-08-12T23:23:33.903Z</time>
      </trkpt>
      <trkpt lat="44.64685" lon="5.37894">
        <ele>796.976366</ele>
        <time>2023-08-12T23:23:35.081Z</time>
      </trkpt>
      <trkpt lat="44.64694" lon="5.37932">
        <ele>794.838501</ele>
        <time>2023-08-12T23:23:37.047Z</time>
      </trkpt>
      <trkpt lat="44.64686" lon="5.37954">
        <ele>793.484762</ele>
        <time>2023-08-12T23:23:38.267Z</time>
      </trkpt>
      <trkpt lat="44.64683" lon="5.37975">
        <ele>791.319539</ele>
        <time>2023-08-12T23:23:39.292Z</time>
      </trkpt>
      <trkpt lat="44.64695" lon="5.38018">
        <ele>785.939336</ele>
        <time>2023-08-12T23:23:41.446Z</time>
      </trkpt>
      <trkpt lat="44.64711" lon="5.38087">
        <ele>777.375843</ele>
        <time>2023-08-12T23:23:44.831Z</time>
      </trkpt>
      <trkpt lat="44.64734" lon="5.38123">
        <ele>771.596992</ele>
        <time>2023-08-12T23:23:47.098Z</time>
      </trkpt>
      <trkpt lat="44.64737" lon="5.3814">
        <ele>769.459292</ele>
        <time>2023-08-12T23:23:47.940Z</time>
      </trkpt>
      <trkpt lat="44.64734" lon="5.38152">
        <ele>767.998742</ele>
        <time>2023-08-12T23:23:48.518Z</time>
      </trkpt>
      <trkpt lat="44.64695" lon="5.38164">
        <ele>762.735523</ele>
        <time>2023-08-12T23:23:51.111Z</time>
      </trkpt>
      <trkpt lat="44.64676" lon="5.3819">
        <ele>761.401066</ele>
        <time>2023-08-12T23:23:52.897Z</time>
      </trkpt>
      <trkpt lat="44.64653" lon="5.38231">
        <ele>759.570692</ele>
        <time>2023-08-12T23:23:55.445Z</time>
      </trkpt>
      <trkpt lat="44.64639" lon="5.38236">
        <ele>758.840615</ele>
        <time>2023-08-12T23:23:56.523Z</time>
      </trkpt>
      <trkpt lat="44.64617" lon="5.38228">
        <ele>757.694294</ele>
        <time>2023-08-12T23:23:58.367Z</time>
      </trkpt>
      <trkpt lat="44.64605" lon="5.38209">
        <ele>756.837019</ele>
        <time>2023-08-12T23:24:00.708Z</time>
      </trkpt>
      <trkpt lat="44.64592" lon="5.38202">
        <ele>756.147909</ele>
        <time>2023-08-12T23:24:03.175Z</time>
      </trkpt>
      <trkpt lat="44.64575" lon="5.38184">
        <ele>755.072519</ele>
        <time>2023-08-12T23:24:09.310Z</time>
      </trkpt>
      <trkpt lat="44.64559" lon="5.38188">
        <ele>754.459888</ele>
        <time>2023-08-12T23:24:14.284Z</time>
      </trkpt>
      <trkpt lat="44.6455" lon="5.38198">
        <ele>755.189943</ele>
        <time>2023-08-12T23:24:19.010Z</time>
      </trkpt>
      <trkpt lat="44.64533" lon="5.38194">
        <ele>756.262914</ele>
        <time>2023-08-12T23:24:25.571Z</time>
      </trkpt>
      <trkpt lat="44.64503" lon="5.382">
        <ele>758.134203</ele>
        <time>2023-08-12T23:24:38.372Z</time>
      </trkpt>
      <trkpt lat="44.64492" lon="5.38197">
        <ele>758.825902</ele>
        <time>2023-08-12T23:24:43.093Z</time>
      </trkpt>
      <trkpt lat="44.64484" lon="5.38199">
        <ele>759.342883</ele>
        <time>2023-08-12T23:24:46.952Z</time>
      </trkpt>
      <trkpt lat="44.64475" lon="5.38213">
        <ele>760.180066</ele>
        <time>2023-08-12T23:24:52.601Z</time>
      </trkpt>
      <trkpt lat="44.6446" lon="5.3821">
        <ele>761.121223</ele>
        <time>2023-08-12T23:24:58.514Z</time>
      </trkpt>
      <trkpt lat="44.64455" lon="5.38214">
        <ele>761.454119</ele>
        <time>2023-08-12T23:25:00.771Z</time>
      </trkpt>
      <trkpt lat="44.64453" lon="5.38224">
        <ele>761.889558</ele>
        <time>2023-08-12T23:25:03.605Z</time>
      </trkpt>
      <trkpt lat="44.64447" lon="5.38234">
        <ele>762.456343</ele>
        <time>2023-08-12T23:25:06.799Z</time>
      </trkpt>
      <trkpt lat="44.64428" lon="5.38235">
        <ele>763.651104</ele>
        <time>2023-08-12T23:25:12.896Z</time>
      </trkpt>
      <trkpt lat="44.64424" lon="5.38248">
        <ele>764.300711</ele>
        <time>2023-08-12T23:25:15.976Z</time>
      </trkpt>
      <trkpt lat="44.64445" lon="5.38335">
        <ele>762.183882</ele>
        <time>2023-08-12T23:25:24.352Z</time>
      </trkpt>
      <trkpt lat="44.64447" lon="5.38364">
        <ele>760.645009</ele>
        <time>2023-08-12T23:25:25.921Z</time>
      </trkpt>
      <trkpt lat="44.64442" lon="5.38379">
        <ele>759.755806</ele>
        <time>2023-08-12T23:25:26.782Z</time>
      </trkpt>
      <trkpt lat="44.64426" lon="5.38406">
        <ele>757.947844</ele>
        <time>2023-08-12T23:25:28.475Z</time>
      </trkpt>
      <trkpt lat="44.64423" lon="5.38421">
        <ele>757.141351</ele>
        <time>2023-08-12T23:25:29.220Z</time>
      </trkpt>
      <trkpt lat="44.64434" lon="5.38452">
        <ele>755.296545</ele>
        <time>2023-08-12T23:25:30.902Z</time>
      </trkpt>
      <trkpt lat="44.64437" lon="5.38485">
        <ele>753.570607</ele>
        <time>2023-08-12T23:25:32.477Z</time>
      </trkpt>
      <trkpt lat="44.64449" lon="5.38558">
        <ele>747.212605</ele>
        <time>2023-08-12T23:25:36.024Z</time>
      </trkpt>
      <trkpt lat="44.64449" lon="5.38582">
        <ele>744.76028</ele>
        <time>2023-08-12T23:25:37.180Z</time>
      </trkpt>
      <trkpt lat="44.64453" lon="5.38596">
        <ele>743.209072</ele>
        <time>2023-08-12T23:25:37.907Z</time>
      </trkpt>
      <trkpt lat="44.64495" lon="5.38617">
        <ele>736.787334</ele>
        <time>2023-08-12T23:25:40.910Z</time>
      </trkpt>
      <trkpt lat="44.64524" lon="5.38615">
        <ele>732.769035</ele>
        <time>2023-08-12T23:25:42.782Z</time>
      </trkpt>
      <trkpt lat="44.64535" lon="5.3862">
        <ele>731.041376</ele>
        <time>2023-08-12T23:25:43.586Z</time>
      </trkpt>
      <trkpt lat="44.64557" lon="5.38645">
        <ele>727.093847</ele>
        <time>2023-08-12T23:25:45.424Z</time>
      </trkpt>
      <trkpt lat="44.64585" lon="5.38658">
        <ele>724.507633</ele>
        <time>2023-08-12T23:25:47.402Z</time>
      </trkpt>
      <trkpt lat="44.64592" lon="5.38675">
        <ele>723.352344</ele>
        <time>2023-08-12T23:25:48.363Z</time>
      </trkpt>
      <trkpt lat="44.64592" lon="5.38696">
        <ele>722.140113</ele>
        <time>2023-08-12T23:25:49.368Z</time>
      </trkpt>
      <trkpt lat="44.64589" lon="5.38713">
        <ele>721.141458</ele>
        <time>2023-08-12T23:25:50.210Z</time>
      </trkpt>
      <trkpt lat="44.64562" lon="5.38738">
        <ele>718.550009</ele>
        <time>2023-08-12T23:25:52.420Z</time>
      </trkpt>
      <trkpt lat="44.64537" lon="5.38754">
        <ele>716.253384</ele>
        <time>2023-08-12T23:25:54.431Z</time>
      </trkpt>
      <trkpt lat="44.64513" lon="5.3876">
        <ele>714.277916</ele>
        <time>2023-08-12T23:25:56.267Z</time>
      </trkpt>
      <trkpt lat="44.64493" lon="5.38756">
        <ele>712.68025</ele>
        <time>2023-08-12T23:25:57.870Z</time>
      </trkpt>
      <trkpt lat="44.6447" lon="5.38745">
        <ele>712.385095</ele>
        <time>2023-08-12T23:26:00.265Z</time>
      </trkpt>
      <trkpt lat="44.644" lon="5.38747">
        <ele>713.886507</ele>
        <time>2023-08-12T23:26:14.084Z</time>
      </trkpt>
      <trkpt lat="44.64386" lon="5.38741">
        <ele>714.194875</ele>
        <time>2023-08-12T23:26:17.926Z</time>
      </trkpt>
      <trkpt lat="44.64376" lon="5.38726">
        <ele>714.509194</ele>
        <time>2023-08-12T23:26:21.607Z</time>
      </trkpt>
      <trkpt lat="44.64367" lon="5.38719">
        <ele>714.732548</ele>
        <time>2023-08-12T23:26:24.221Z</time>
      </trkpt>
      <trkpt lat="44.64358" lon="5.38719">
        <ele>714.935379</ele>
        <time>2023-08-12T23:26:26.833Z</time>
      </trkpt>
      <trkpt lat="44.64316" lon="5.38751">
        <ele>715.866464</ele>
        <time>2023-08-12T23:26:38.804Z</time>
      </trkpt>
      <trkpt lat="44.64304" lon="5.38782">
        <ele>715.637465</ele>
        <time>2023-08-12T23:26:44.048Z</time>
      </trkpt>
      <trkpt lat="44.64286" lon="5.38805">
        <ele>715.416475</ele>
        <time>2023-08-12T23:26:48.088Z</time>
      </trkpt>
      <trkpt lat="44.64283" lon="5.38814">
        <ele>715.349997</ele>
        <time>2023-08-12T23:26:49.268Z</time>
      </trkpt>
      <trkpt lat="44.64287" lon="5.38827">
        <ele>715.264514</ele>
        <time>2023-08-12T23:26:50.632Z</time>
      </trkpt>
      <trkpt lat="44.64319" lon="5.38889">
        <ele>714.763791</ele>
        <time>2023-08-12T23:26:55.974Z</time>
      </trkpt>
      <trkpt lat="44.64363" lon="5.38961">
        <ele>713.512313</ele>
        <time>2023-08-12T23:27:01.159Z</time>
      </trkpt>
      <trkpt lat="44.64377" lon="5.39008">
        <ele>711.180734</ele>
        <time>2023-08-12T23:27:03.805Z</time>
      </trkpt>
      <trkpt lat="44.6439" lon="5.39031">
        <ele>709.809577</ele>
        <time>2023-08-12T23:27:05.356Z</time>
      </trkpt>
      <trkpt lat="44.64418" lon="5.39058">
        <ele>707.683493</ele>
        <time>2023-08-12T23:27:07.737Z</time>
      </trkpt>
      <trkpt lat="44.64449" lon="5.39122">
        <ele>704.157352</ele>
        <time>2023-08-12T23:27:11.673Z</time>
      </trkpt>
      <trkpt lat="44.6446" lon="5.39137">
        <ele>703.179784</ele>
        <time>2023-08-12T23:27:12.774Z</time>
      </trkpt>
      <trkpt lat="44.64472" lon="5.39143">
        <ele>702.299639</ele>
        <time>2023-08-12T23:27:13.712Z</time>
      </trkpt>
      <trkpt lat="44.64501" lon="5.39139">
        <ele>700.179002</ele>
        <time>2023-08-12T23:27:15.849Z</time>
      </trkpt>
      <trkpt lat="44.64543" lon="5.39142">
        <ele>697.125439</ele>
        <time>2023-08-12T23:27:18.942Z</time>
      </trkpt>
      <trkpt lat="44.64599" lon="5.39136">
        <ele>693.113315</ele>
        <time>2023-08-12T23:27:22.968Z</time>
      </trkpt>
      <trkpt lat="44.64613" lon="5.39137">
        <ele>692.081674</ele>
        <time>2023-08-12T23:27:23.980Z</time>
      </trkpt>
      <trkpt lat="44.64624" lon="5.39151">
        <ele>691.049026</ele>
        <time>2023-08-12T23:27:24.957Z</time>
      </trkpt>
      <trkpt lat="44.64644" lon="5.39198">
        <ele>688.307932</ele>
        <time>2023-08-12T23:27:27.692Z</time>
      </trkpt>
      <trkpt lat="44.64656" lon="5.39215">
        <ele>687.162535</ele>
        <time>2023-08-12T23:27:28.898Z</time>
      </trkpt>
      <trkpt lat="44.64669" lon="5.39228">
        <ele>686.089154</ele>
        <time>2023-08-12T23:27:29.987Z</time>
      </trkpt>
      <trkpt lat="44.64659" lon="5.39258">
        <ele>684.497656</ele>
        <time>2023-08-12T23:27:31.694Z</time>
      </trkpt>
      <trkpt lat="44.64659" lon="5.39286">
        <ele>683.120875</ele>
        <time>2023-08-12T23:27:33.168Z</time>
      </trkpt>
      <trkpt lat="44.64662" lon="5.39296">
        <ele>682.599227</ele>
        <time>2023-08-12T23:27:33.752Z</time>
      </trkpt>
      <trkpt lat="44.64668" lon="5.39315">
        <ele>681.590674</ele>
        <time>2023-08-12T23:27:34.826Z</time>
      </trkpt>
      <trkpt lat="44.64669" lon="5.3934">
        <ele>680.386097</ele>
        <time>2023-08-12T23:27:36.177Z</time>
      </trkpt>
      <trkpt lat="44.64664" lon="5.39359">
        <ele>679.417296</ele>
        <time>2023-08-12T23:27:37.230Z</time>
      </trkpt>
      <trkpt lat="44.64656" lon="5.39374">
        <ele>678.532057</ele>
        <time>2023-08-12T23:27:38.188Z</time>
      </trkpt>
      <trkpt lat="44.64617" lon="5.39409">
        <ele>676.042928</ele>
        <time>2023-08-12T23:27:41.576Z</time>
      </trkpt>
      <trkpt lat="44.64588" lon="5.39438">
        <ele>674.407334</ele>
        <time>2023-08-12T23:27:44.113Z</time>
      </trkpt>
      <trkpt lat="44.64569" lon="5.3944">
        <ele>673.499977</ele>
        <time>2023-08-12T23:27:45.504Z</time>
      </trkpt>
      <trkpt lat="44.64561" lon="5.39443">
        <ele>673.1276</ele>
        <time>2023-08-12T23:27:46.099Z</time>
      </trkpt>
      <trkpt lat="44.64557" lon="5.3945">
        <ele>672.84619</ele>
        <time>2023-08-12T23:27:46.543Z</time>
      </trkpt>
      <trkpt lat="44.64558" lon="5.39461">
        <ele>672.464908</ele>
        <time>2023-08-12T23:27:47.164Z</time>
      </trkpt>
      <trkpt lat="44.64571" lon="5.39487">
        <ele>671.423159</ele>
        <time>2023-08-12T23:27:48.986Z</time>
      </trkpt>
      <trkpt lat="44.64613" lon="5.3952">
        <ele>669.184187</ele>
        <time>2023-08-12T23:27:53.240Z</time>
      </trkpt>
      <trkpt lat="44.64624" lon="5.39532">
        <ele>668.907015</ele>
        <time>2023-08-12T23:27:54.664Z</time>
      </trkpt>
      <trkpt lat="44.64632" lon="5.39544">
        <ele>668.698148</ele>
        <time>2023-08-12T23:27:55.877Z</time>
      </trkpt>
      <trkpt lat="44.64635" lon="5.39563">
        <ele>668.45085</ele>
        <time>2023-08-12T23:27:57.163Z</time>
      </trkpt>
      <trkpt lat="44.64631" lon="5.39626">
        <ele>667.63535</ele>
        <time>2023-08-12T23:28:01.233Z</time>
      </trkpt>
      <trkpt lat="44.64625" lon="5.39639">
        <ele>667.422837</ele>
        <time>2023-08-12T23:28:02.301Z</time>
      </trkpt>
      <trkpt lat="44.64615" lon="5.39645">
        <ele>667.238949</ele>
        <time>2023-08-12T23:28:03.157Z</time>
      </trkpt>
      <trkpt lat="44.64592" lon="5.39649">
        <ele>666.814602</ele>
        <time>2023-08-12T23:28:05.135Z</time>
      </trkpt>
      <trkpt lat="44.64561" lon="5.39659">
        <ele>666.226654</ele>
        <time>2023-08-12T23:28:07.872Z</time>
      </trkpt>
      <trkpt lat="44.64557" lon="5.39663">
        <ele>666.137364</ele>
        <time>2023-08-12T23:28:08.314Z</time>
      </trkpt>
      <trkpt lat="44.64554" lon="5.39678">
        <ele>665.936233</ele>
        <time>2023-08-12T23:28:09.285Z</time>
      </trkpt>
      <trkpt lat="44.64559" lon="5.39686">
        <ele>665.731848</ele>
        <time>2023-08-12T23:28:09.924Z</time>
      </trkpt>
      <trkpt lat="44.64574" lon="5.39699">
        <ele>665.124942</ele>
        <time>2023-08-12T23:28:11.585Z</time>
      </trkpt>
      <trkpt lat="44.64619" lon="5.39723">
        <ele>663.436308</ele>
        <time>2023-08-12T23:28:16.126Z</time>
      </trkpt>
      <trkpt lat="44.64643" lon="5.39719">
        <ele>662.598385</ele>
        <time>2023-08-12T23:28:18.254Z</time>
      </trkpt>
      <trkpt lat="44.64669" lon="5.39729">
        <ele>661.644382</ele>
        <time>2023-08-12T23:28:20.433Z</time>
      </trkpt>
      <trkpt lat="44.64681" lon="5.39728">
        <ele>661.208233</ele>
        <time>2023-08-12T23:28:21.399Z</time>
      </trkpt>
      <trkpt lat="44.64703" lon="5.39717">
        <ele>660.389022</ele>
        <time>2023-08-12T23:28:23.131Z</time>
      </trkpt>
      <trkpt lat="44.64713" lon="5.39718">
        <ele>660.054295</ele>
        <time>2023-08-12T23:28:23.840Z</time>
      </trkpt>
      <trkpt lat="44.6472" lon="5.39727">
        <ele>659.72088</ele>
        <time>2023-08-12T23:28:24.524Z</time>
      </trkpt>
      <trkpt lat="44.6473" lon="5.39749">
        <ele>658.233306</ele>
        <time>2023-08-12T23:28:25.857Z</time>
      </trkpt>
      <trkpt lat="44.64745" lon="5.398">
        <ele>654.528848</ele>
        <time>2023-08-12T23:28:28.652Z</time>
      </trkpt>
      <trkpt lat="44.64804" lon="5.39881">
        <ele>646.795394</ele>
        <time>2023-08-12T23:28:34.415Z</time>
      </trkpt>
      <trkpt lat="44.64823" lon="5.3991">
        <ele>644.1553</ele>
        <time>2023-08-12T23:28:36.321Z</time>
      </trkpt>
      <trkpt lat="44.6486" lon="5.39955">
        <ele>638.716513</ele>
        <time>2023-08-12T23:28:39.613Z</time>
      </trkpt>
      <trkpt lat="44.64867" lon="5.39973">
        <ele>637.01162</ele>
        <time>2023-08-12T23:28:40.574Z</time>
      </trkpt>
      <trkpt lat="44.64867" lon="5.39989">
        <ele>635.723429</ele>
        <time>2023-08-12T23:28:41.305Z</time>
      </trkpt>
      <trkpt lat="44.64849" lon="5.40037">
        <ele>631.123655</ele>
        <time>2023-08-12T23:28:43.912Z</time>
      </trkpt>
      <trkpt lat="44.6485" lon="5.40048">
        <ele>630.159924</ele>
        <time>2023-08-12T23:28:44.462Z</time>
      </trkpt>
      <trkpt lat="44.64855" lon="5.40064">
        <ele>628.643391</ele>
        <time>2023-08-12T23:28:45.323Z</time>
      </trkpt>
      <trkpt lat="44.64854" lon="5.40081">
        <ele>627.274354</ele>
        <time>2023-08-12T23:28:46.106Z</time>
      </trkpt>
      <trkpt lat="44.64847" lon="5.401">
        <ele>625.456332</ele>
        <time>2023-08-12T23:28:47.147Z</time>
      </trkpt>
      <trkpt lat="44.64834" lon="5.4012">
        <ele>623.129071</ele>
        <time>2023-08-12T23:28:48.494Z</time>
      </trkpt>
      <trkpt lat="44.6482" lon="5.40132">
        <ele>621.346736</ele>
        <time>2023-08-12T23:28:49.592Z</time>
      </trkpt>
      <trkpt lat="44.64788" lon="5.40143">
        <ele>619.632496</ele>
        <time>2023-08-12T23:28:51.921Z</time>
      </trkpt>
      <trkpt lat="44.64746" lon="5.40164">
        <ele>617.320018</ele>
        <time>2023-08-12T23:28:55.151Z</time>
      </trkpt>
      <trkpt lat="44.6473" lon="5.40182">
        <ele>616.245372</ele>
        <time>2023-08-12T23:28:56.703Z</time>
      </trkpt>
      <trkpt lat="44.64699" lon="5.40194">
        <ele>614.545246</ele>
        <time>2023-08-12T23:28:59.300Z</time>
      </trkpt>
      <trkpt lat="44.64654" lon="5.40237">
        <ele>611.999027</ele>
        <time>2023-08-12T23:29:03.922Z</time>
      </trkpt>
      <trkpt lat="44.6464" lon="5.40247">
        <ele>611.860992</ele>
        <time>2023-08-12T23:29:05.561Z</time>
      </trkpt>
      <trkpt lat="44.64632" lon="5.40259">
        <ele>611.749941</ele>
        <time>2023-08-12T23:29:06.677Z</time>
      </trkpt>
      <trkpt lat="44.64616" lon="5.4029">
        <ele>611.506984</ele>
        <time>2023-08-12T23:29:09.682Z</time>
      </trkpt>
      <trkpt lat="44.64613" lon="5.40314">
        <ele>611.35126</ele>
        <time>2023-08-12T23:29:11.421Z</time>
      </trkpt>
      <trkpt lat="44.64618" lon="5.4036">
        <ele>611.04734</ele>
        <time>2023-08-12T23:29:17.069Z</time>
      </trkpt>
      <trkpt lat="44.64612" lon="5.40377">
        <ele>610.926697</ele>
        <time>2023-08-12T23:29:19.335Z</time>
      </trkpt>
      <trkpt lat="44.64596" lon="5.40409">
        <ele>610.671572</ele>
        <time>2023-08-12T23:29:22.048Z</time>
      </trkpt>
      <trkpt lat="44.64575" lon="5.40433">
        <ele>610.425273</ele>
        <time>2023-08-12T23:29:24.334Z</time>
      </trkpt>
      <trkpt lat="44.64571" lon="5.40445">
        <ele>610.187011</ele>
        <time>2023-08-12T23:29:25.113Z</time>
      </trkpt>
      <trkpt lat="44.64572" lon="5.40476">
        <ele>609.607534</ele>
        <time>2023-08-12T23:29:26.876Z</time>
      </trkpt>
      <trkpt lat="44.64567" lon="5.40492">
        <ele>609.278509</ele>
        <time>2023-08-12T23:29:27.900Z</time>
      </trkpt>
      <trkpt lat="44.64546" lon="5.40532">
        <ele>608.359882</ele>
        <time>2023-08-12T23:29:30.895Z</time>
      </trkpt>
      <trkpt lat="44.64545" lon="5.4054">
        <ele>608.20958</ele>
        <time>2023-08-12T23:29:31.493Z</time>
      </trkpt>
      <trkpt lat="44.64547" lon="5.40549">
        <ele>608.034026</ele>
        <time>2023-08-12T23:29:32.066Z</time>
      </trkpt>
      <trkpt lat="44.64555" lon="5.40573">
        <ele>607.53047</ele>
        <time>2023-08-12T23:29:33.732Z</time>
      </trkpt>
      <trkpt lat="44.64564" lon="5.40615">
        <ele>606.722193</ele>
        <time>2023-08-12T23:29:36.515Z</time>
      </trkpt>
      <trkpt lat="44.64563" lon="5.40653">
        <ele>606.026692</ele>
        <time>2023-08-12T23:29:38.849Z</time>
      </trkpt>
      <trkpt lat="44.6456" lon="5.40675">
        <ele>605.477392</ele>
        <time>2023-08-12T23:29:40.153Z</time>
      </trkpt>
      <trkpt lat="44.64551" lon="5.40711">
        <ele>603.972181</ele>
        <time>2023-08-12T23:29:42.273Z</time>
      </trkpt>
      <trkpt lat="44.64553" lon="5.40725">
        <ele>603.399796</ele>
        <time>2023-08-12T23:29:43.076Z</time>
      </trkpt>
      <trkpt lat="44.64571" lon="5.4075">
        <ele>602.026599</ele>
        <time>2023-08-12T23:29:44.867Z</time>
      </trkpt>
      <trkpt lat="44.64587" lon="5.40779">
        <ele>600.599838</ele>
        <time>2023-08-12T23:29:46.736Z</time>
      </trkpt>
      <trkpt lat="44.64596" lon="5.40784">
        <ele>600.089212</ele>
        <time>2023-08-12T23:29:47.402Z</time>
      </trkpt>
      <trkpt lat="44.6461" lon="5.40783">
        <ele>599.339269</ele>
        <time>2023-08-12T23:29:48.405Z</time>
      </trkpt>
      <trkpt lat="44.64644" lon="5.40761">
        <ele>597.312327</ele>
        <time>2023-08-12T23:29:51.143Z</time>
      </trkpt>
      <trkpt lat="44.64675" lon="5.4073">
        <ele>595.383133</ele>
        <time>2023-08-12T23:29:53.986Z</time>
      </trkpt>
      <trkpt lat="44.64704" lon="5.40707">
        <ele>593.955334</ele>
        <time>2023-08-12T23:29:56.541Z</time>
      </trkpt>
      <trkpt lat="44.64725" lon="5.40698">
        <ele>593.004409</ele>
        <time>2023-08-12T23:29:58.280Z</time>
      </trkpt>
      <trkpt lat="44.64736" lon="5.40697">
        <ele>592.563057</ele>
        <time>2023-08-12T23:29:59.108Z</time>
      </trkpt>
      <trkpt lat="44.64744" lon="5.40704">
        <ele>592.166185</ele>
        <time>2023-08-12T23:29:59.845Z</time>
      </trkpt>
      <trkpt lat="44.6475" lon="5.40722">
        <ele>591.551264</ele>
        <time>2023-08-12T23:30:01.018Z</time>
      </trkpt>
      <trkpt lat="44.64753" lon="5.40752">
        <ele>590.652996</ele>
        <time>2023-08-12T23:30:02.744Z</time>
      </trkpt>
      <trkpt lat="44.64752" lon="5.40827">
        <ele>588.375097</ele>
        <time>2023-08-12T23:30:06.992Z</time>
      </trkpt>
      <trkpt lat="44.64748" lon="5.40854">
        <ele>587.366584</ele>
        <time>2023-08-12T23:30:08.479Z</time>
      </trkpt>
      <trkpt lat="44.64742" lon="5.40865">
        <ele>586.836612</ele>
        <time>2023-08-12T23:30:09.236Z</time>
      </trkpt>
      <trkpt lat="44.64703" lon="5.40905">
        <ele>584.252883</ele>
        <time>2023-08-12T23:30:12.887Z</time>
      </trkpt>
      <trkpt lat="44.647" lon="5.40914">
        <ele>583.875093</ele>
        <time>2023-08-12T23:30:13.428Z</time>
      </trkpt>
      <trkpt lat="44.647" lon="5.40925">
        <ele>583.476289</ele>
        <time>2023-08-12T23:30:13.993Z</time>
      </trkpt>
      <trkpt lat="44.64703" lon="5.40928">
        <ele>583.253547</ele>
        <time>2023-08-12T23:30:14.309Z</time>
      </trkpt>
      <trkpt lat="44.6471" lon="5.40927">
        <ele>582.892503</ele>
        <time>2023-08-12T23:30:14.827Z</time>
      </trkpt>
      <trkpt lat="44.64725" lon="5.40905">
        <ele>581.756337</ele>
        <time>2023-08-12T23:30:16.452Z</time>
      </trkpt>
      <trkpt lat="44.64777" lon="5.40873">
        <ele>578.726681</ele>
        <time>2023-08-12T23:30:20.667Z</time>
      </trkpt>
      <trkpt lat="44.64792" lon="5.40851">
        <ele>576.8123</ele>
        <time>2023-08-12T23:30:22.206Z</time>
      </trkpt>
      <trkpt lat="44.64799" lon="5.40822">
        <ele>574.812874</ele>
        <time>2023-08-12T23:30:23.745Z</time>
      </trkpt>
      <trkpt lat="44.64809" lon="5.40712">
        <ele>567.737036</ele>
        <time>2023-08-12T23:30:29.113Z</time>
      </trkpt>
      <trkpt lat="44.64814" lon="5.40708">
        <ele>567.255414</ele>
        <time>2023-08-12T23:30:29.484Z</time>
      </trkpt>
      <trkpt lat="44.64818" lon="5.40713">
        <ele>566.797311</ele>
        <time>2023-08-12T23:30:29.831Z</time>
      </trkpt>
      <trkpt lat="44.6482" lon="5.40751">
        <ele>564.36155</ele>
        <time>2023-08-12T23:30:31.720Z</time>
      </trkpt>
      <trkpt lat="44.64826" lon="5.4077">
        <ele>563.048438</ele>
        <time>2023-08-12T23:30:32.747Z</time>
      </trkpt>
      <trkpt lat="44.64848" lon="5.40805">
        <ele>560.176751</ele>
        <time>2023-08-12T23:30:35.142Z</time>
      </trkpt>
      <trkpt lat="44.6487" lon="5.40862">
        <ele>556.225423</ele>
        <time>2023-08-12T23:30:38.455Z</time>
      </trkpt>
      <trkpt lat="44.64877" lon="5.40893">
        <ele>554.237305</ele>
        <time>2023-08-12T23:30:40.087Z</time>
      </trkpt>
      <trkpt lat="44.64879" lon="5.40934">
        <ele>551.773446</ele>
        <time>2023-08-12T23:30:42.076Z</time>
      </trkpt>
      <trkpt lat="44.64876" lon="5.40972">
        <ele>549.427858</ele>
        <time>2023-08-12T23:30:43.968Z</time>
      </trkpt>
      <trkpt lat="44.64881" lon="5.41004">
        <ele>547.429425</ele>
        <time>2023-08-12T23:30:45.586Z</time>
      </trkpt>
      <trkpt lat="44.64902" lon="5.41037">
        <ele>544.858392</ele>
        <time>2023-08-12T23:30:47.770Z</time>
      </trkpt>
      <trkpt lat="44.64936" lon="5.41082">
        <ele>540.990989</ele>
        <time>2023-08-12T23:30:51.103Z</time>
      </trkpt>
      <trkpt lat="44.64965" lon="5.41124">
        <ele>537.635464</ele>
        <time>2023-08-12T23:30:54.014Z</time>
      </trkpt>
      <trkpt lat="44.6498" lon="5.41172">
        <ele>534.571779</ele>
        <time>2023-08-12T23:30:56.668Z</time>
      </trkpt>
      <trkpt lat="44.64992" lon="5.41223">
        <ele>531.793315</ele>
        <time>2023-08-12T23:30:59.367Z</time>
      </trkpt>
      <trkpt lat="44.64992" lon="5.41267">
        <ele>530.13613</ele>
        <time>2023-08-12T23:31:01.595Z</time>
      </trkpt>
      <trkpt lat="44.64998" lon="5.41286">
        <ele>529.343677</ele>
        <time>2023-08-12T23:31:02.668Z</time>
      </trkpt>
      <trkpt lat="44.65003" lon="5.41293">
        <ele>528.962122</ele>
        <time>2023-08-12T23:31:03.187Z</time>
      </trkpt>
      <trkpt lat="44.65011" lon="5.41306">
        <ele>528.308123</ele>
        <time>2023-08-12T23:31:04.095Z</time>
      </trkpt>
      <trkpt lat="44.65066" lon="5.41367">
        <ele>524.564776</ele>
        <time>2023-08-12T23:31:09.482Z</time>
      </trkpt>
      <trkpt lat="44.65089" lon="5.41414">
        <ele>522.610742</ele>
        <time>2023-08-12T23:31:12.739Z</time>
      </trkpt>
      <trkpt lat="44.65105" lon="5.41466">
        <ele>521.498796</ele>
        <time>2023-08-12T23:31:16.007Z</time>
      </trkpt>
      <trkpt lat="44.65005" lon="5.41599">
        <ele>517.789002</ele>
        <time>2023-08-12T23:31:27.496Z</time>
      </trkpt>
      <trkpt lat="44.64986" lon="5.4162">
        <ele>517.49499</ele>
        <time>2023-08-12T23:31:29.805Z</time>
      </trkpt>
      <trkpt lat="44.64954" lon="5.41642">
        <ele>517.076075</ele>
        <time>2023-08-12T23:31:33.250Z</time>
      </trkpt>
      <trkpt lat="44.64841" lon="5.41698">
        <ele>515.693605</ele>
        <time>2023-08-12T23:31:44.863Z</time>
      </trkpt>
      <trkpt lat="44.64743" lon="5.41768">
        <ele>515.198224</ele>
        <time>2023-08-12T23:31:57.396Z</time>
      </trkpt>
      <trkpt lat="44.64661" lon="5.41815">
        <ele>514.733284</ele>
        <time>2023-08-12T23:32:06.742Z</time>
      </trkpt>
      <trkpt lat="44.64495" lon="5.41941">
        <ele>513.392651</ele>
        <time>2023-08-12T23:32:25.866Z</time>
      </trkpt>
      <trkpt lat="44.64429" lon="5.41986">
        <ele>512.894615</ele>
        <time>2023-08-12T23:32:33.013Z</time>
      </trkpt>
      <trkpt lat="44.64424" lon="5.4199">
        <ele>512.854164</ele>
        <time>2023-08-12T23:32:33.619Z</time>
      </trkpt>
      <trkpt lat="44.64411" lon="5.41999">
        <ele>512.756586</ele>
        <time>2023-08-12T23:32:35.073Z</time>
      </trkpt>
      <trkpt lat="44.6415" lon="5.42181">
        <ele>512.532943</ele>
        <time>2023-08-12T23:33:08.886Z</time>
      </trkpt>
      <trkpt lat="44.64116" lon="5.4221">
        <ele>512.721972</ele>
        <time>2023-08-12T23:33:14.308Z</time>
      </trkpt>
      <trkpt lat="44.63907" lon="5.4244">
        <ele>514.759711</ele>
        <time>2023-08-12T23:33:52.898Z</time>
      </trkpt>
      <trkpt lat="44.63835" lon="5.42501">
        <ele>515.921542</ele>
        <time>2023-08-12T23:34:05.980Z</time>
      </trkpt>
      <trkpt lat="44.63729" lon="5.42578">
        <ele>517.731343</ele>
        <time>2023-08-12T23:34:26.481Z</time>
      </trkpt>
      <trkpt lat="44.63724" lon="5.42581">
        <ele>517.835209</ele>
        <time>2023-08-12T23:34:27.410Z</time>
      </trkpt>
      <trkpt lat="44.63715" lon="5.42587">
        <ele>518.044894</ele>
        <time>2023-08-12T23:34:29.309Z</time>
      </trkpt>
      <trkpt lat="44.63607" lon="5.42658">
        <ele>520.450387</ele>
        <time>2023-08-12T23:34:51.435Z</time>
      </trkpt>
      <trkpt lat="44.63521" lon="5.42711">
        <ele>522.305409</ele>
        <time>2023-08-12T23:35:09.156Z</time>
      </trkpt>
      <trkpt lat="44.63355" lon="5.42833">
        <ele>525.754775</ele>
        <time>2023-08-12T23:35:42.192Z</time>
      </trkpt>
      <trkpt lat="44.63295" lon="5.42879">
        <ele>526.910439</ele>
        <time>2023-08-12T23:35:53.911Z</time>
      </trkpt>
      <trkpt lat="44.6321" lon="5.42953">
        <ele>528.310857</ele>
        <time>2023-08-12T23:36:10.672Z</time>
      </trkpt>
      <trkpt lat="44.63183" lon="5.42981">
        <ele>528.73794</ele>
        <time>2023-08-12T23:36:16.104Z</time>
      </trkpt>
      <trkpt lat="44.6317" lon="5.42994">
        <ele>528.940546</ele>
        <time>2023-08-12T23:36:18.649Z</time>
      </trkpt>
      <trkpt lat="44.63154" lon="5.43006">
        <ele>529.173582</ele>
        <time>2023-08-12T23:36:21.528Z</time>
      </trkpt>
      <trkpt lat="44.63122" lon="5.43039">
        <ele>529.676225</ele>
        <time>2023-08-12T23:36:27.352Z</time>
      </trkpt>
      <trkpt lat="44.63098" lon="5.43071">
        <ele>529.851515</ele>
        <time>2023-08-12T23:36:31.932Z</time>
      </trkpt>
      <trkpt lat="44.63073" lon="5.43097">
        <ele>530.018048</ele>
        <time>2023-08-12T23:36:36.139Z</time>
      </trkpt>
      <trkpt lat="44.63064" lon="5.43108">
        <ele>530.085101</ele>
        <time>2023-08-12T23:36:37.816Z</time>
      </trkpt>
      <trkpt lat="44.63056" lon="5.43117">
        <ele>530.138103</ele>
        <time>2023-08-12T23:36:39.175Z</time>
      </trkpt>
      <trkpt lat="44.6303" lon="5.4314">
        <ele>530.301253</ele>
        <time>2023-08-12T23:36:43.215Z</time>
      </trkpt>
      <trkpt lat="44.63008" lon="5.43167">
        <ele>530.458584</ele>
        <time>2023-08-12T23:36:47.028Z</time>
      </trkpt>
      <trkpt lat="44.62892" lon="5.4329">
        <ele>531.496381</ele>
        <time>2023-08-12T23:37:06.253Z</time>
      </trkpt>
      <trkpt lat="44.62862" lon="5.43322">
        <ele>531.780239</ele>
        <time>2023-08-12T23:37:11.792Z</time>
      </trkpt>
      <trkpt lat="44.62546" lon="5.4366">
        <ele>537.433439</ele>
        <time>2023-08-12T23:38:18.383Z</time>
      </trkpt>
      <trkpt lat="44.62438" lon="5.43775">
        <ele>539.131263</ele>
        <time>2023-08-12T23:38:40.015Z</time>
      </trkpt>
      <trkpt lat="44.62426" lon="5.43787">
        <ele>539.307686</ele>
        <time>2023-08-12T23:38:42.225Z</time>
      </trkpt>
      <trkpt lat="44.62325" lon="5.43897">
        <ele>540.557507</ele>
        <time>2023-08-12T23:39:01.461Z</time>
      </trkpt>
      <trkpt lat="44.6228" lon="5.43946">
        <ele>541.07585</ele>
        <time>2023-08-12T23:39:09.564Z</time>
      </trkpt>
      <trkpt lat="44.62272" lon="5.43955">
        <ele>541.172519</ele>
        <time>2023-08-12T23:39:11.044Z</time>
      </trkpt>
      <trkpt lat="44.62264" lon="5.43964">
        <ele>541.258482</ele>
        <time>2023-08-12T23:39:12.466Z</time>
      </trkpt>
      <trkpt lat="44.62153" lon="5.44083">
        <ele>542.158133</ele>
        <time>2023-08-12T23:39:32.192Z</time>
      </trkpt>
      <trkpt lat="44.62149" lon="5.44086">
        <ele>542.187099</ele>
        <time>2023-08-12T23:39:32.817Z</time>
      </trkpt>
      <trkpt lat="44.62147" lon="5.44089">
        <ele>542.205025</ele>
        <time>2023-08-12T23:39:33.199Z</time>
      </trkpt>
      <trkpt lat="44.6213" lon="5.44108">
        <ele>542.34607</ele>
        <time>2023-08-12T23:39:36.149Z</time>
      </trkpt>
      <trkpt lat="44.62022" lon="5.44224">
        <ele>542.840644</ele>
        <time>2023-08-12T23:39:54.037Z</time>
      </trkpt>
      <trkpt lat="44.61972" lon="5.44275">
        <ele>543.078465</ele>
        <time>2023-08-12T23:40:01.591Z</time>
      </trkpt>
      <trkpt lat="44.61935" lon="5.44318">
        <ele>543.370335</ele>
        <time>2023-08-12T23:40:07.555Z</time>
      </trkpt>
      <trkpt lat="44.61909" lon="5.44348">
        <ele>543.572159</ele>
        <time>2023-08-12T23:40:11.886Z</time>
      </trkpt>
      <trkpt lat="44.61892" lon="5.44374">
        <ele>543.724626</ele>
        <time>2023-08-12T23:40:15.339Z</time>
      </trkpt>
      <trkpt lat="44.61882" lon="5.4441">
        <ele>543.890901</ele>
        <time>2023-08-12T23:40:19.245Z</time>
      </trkpt>
      <trkpt lat="44.6188" lon="5.44426">
        <ele>543.962146</ele>
        <time>2023-08-12T23:40:20.992Z</time>
      </trkpt>
      <trkpt lat="44.61876" lon="5.44464">
        <ele>544.177063</ele>
        <time>2023-08-12T23:40:25.157Z</time>
      </trkpt>
      <trkpt lat="44.61868" lon="5.44496">
        <ele>544.802001</ele>
        <time>2023-08-12T23:40:29.128Z</time>
      </trkpt>
      <trkpt lat="44.61858" lon="5.44528">
        <ele>545.438601</ele>
        <time>2023-08-12T23:40:33.462Z</time>
      </trkpt>
      <trkpt lat="44.61834" lon="5.44583">
        <ele>546.624546</ele>
        <time>2023-08-12T23:40:42.406Z</time>
      </trkpt>
      <trkpt lat="44.61813" lon="5.44633">
        <ele>547.678836</ele>
        <time>2023-08-12T23:40:51.308Z</time>
      </trkpt>
      <trkpt lat="44.61797" lon="5.44671">
        <ele>548.488046</ele>
        <time>2023-08-12T23:40:58.686Z</time>
      </trkpt>
      <trkpt lat="44.61767" lon="5.44742">
        <ele>550.743078</ele>
        <time>2023-08-12T23:41:13.189Z</time>
      </trkpt>
      <trkpt lat="44.61706" lon="5.44891">
        <ele>555.79334</ele>
        <time>2023-08-12T23:41:44.497Z</time>
      </trkpt>
      <trkpt lat="44.61703" lon="5.44898">
        <ele>556.035932</ele>
        <time>2023-08-12T23:41:45.981Z</time>
      </trkpt>
      <trkpt lat="44.61688" lon="5.44935">
        <ele>557.172747</ele>
        <time>2023-08-12T23:41:53.686Z</time>
      </trkpt>
      <trkpt lat="44.61681" lon="5.44952">
        <ele>557.684265</ele>
        <time>2023-08-12T23:41:57.212Z</time>
      </trkpt>
      <trkpt lat="44.61623" lon="5.45087">
        <ele>561.844614</ele>
        <time>2023-08-12T23:42:24.467Z</time>
      </trkpt>
      <trkpt lat="44.6162" lon="5.45094">
        <ele>562.054351</ele>
        <time>2023-08-12T23:42:25.709Z</time>
      </trkpt>
      <trkpt lat="44.61617" lon="5.45101">
        <ele>562.257694</ele>
        <time>2023-08-12T23:42:26.937Z</time>
      </trkpt>
      <trkpt lat="44.61609" lon="5.45117">
        <ele>562.794256</ele>
        <time>2023-08-12T23:42:29.832Z</time>
      </trkpt>
      <trkpt lat="44.61597" lon="5.45137">
        <ele>562.798971</ele>
        <time>2023-08-12T23:42:33.602Z</time>
      </trkpt>
      <trkpt lat="44.61585" lon="5.4515">
        <ele>562.798971</ele>
        <time>2023-08-12T23:42:36.500Z</time>
      </trkpt>
      <trkpt lat="44.61573" lon="5.45164">
        <ele>562.798971</ele>
        <time>2023-08-12T23:42:39.467Z</time>
      </trkpt>
      <trkpt lat="44.61563" lon="5.45178">
        <ele>562.798971</ele>
        <time>2023-08-12T23:42:42.269Z</time>
      </trkpt>
      <trkpt lat="44.61553" lon="5.45171">
        <ele>562.798971</ele>
        <time>2023-08-12T23:42:44.517Z</time>
      </trkpt>
      <trkpt lat="44.61534" lon="5.45175">
        <ele>562.798971</ele>
        <time>2023-08-12T23:42:48.888Z</time>
      </trkpt>
      <trkpt lat="44.61519" lon="5.45176">
        <ele>562.798971</ele>
        <time>2023-08-12T23:42:51.916Z</time>
      </trkpt>
    </trkseg>
  </trk>
</gpx>